
Distance (Route):
Temperature : 5.6°C
Humidity : 49.8%
Pressure : 0hPa| Receiver | Frames | First received | Last received |
|---|---|---|---|
| IW2NTF | 628 | 2026-09-02 23:33:03 | 2026-09-03 01:56:39 |
| DO3MHA-11 | 398 | 2026-09-02 23:32:08 | 2026-09-03 01:31:24 |
| DB0UT-7 | 239 | 2026-09-02 23:16:31 | 2026-09-03 01:41:39 |
| DO3MHA-12 | 147 | 2026-09-02 23:32:47 | 2026-09-03 01:28:28 |
| BIOWL1-15 | 112 | 2026-09-03 00:24:20 | 2026-09-03 01:02:46 |
| DF7PN | 93 | 2026-09-02 23:58:54 | 2026-09-03 01:11:24 |
| DM0DOS-11 | 87 | 2026-09-03 00:22:13 | 2026-09-03 01:02:38 |
| HASLITAL | 63 | 2026-09-03 00:21:26 | 2026-09-03 01:02:51 |
| DK5PH-5 | 46 | 2026-09-02 23:45:19 | 2026-09-03 01:12:10 |
| DB0ND-19 | 40 | 2026-09-02 23:18:44 | 2026-09-03 01:32:11 |
| DL6DJ-15 | 40 | 2026-09-03 00:16:02 | 2026-09-03 01:03:40 |
| DH7VM-15 | 39 | 2026-09-02 23:29:25 | 2026-09-03 01:21:55 |
| IN3HCDX | 36 | 2026-09-03 01:05:10 | 2026-09-03 01:18:55 |
| DF1GD-15 | 34 | 2026-09-03 01:20:58 | 2026-09-03 01:34:26 |
| BIOWL9-15 | 26 | 2026-09-03 00:29:16 | 2026-09-03 01:02:55 |
| OE5DXL-15 | 6 | 2026-09-03 00:47:52 | 2026-09-03 00:54:59 |
| Receiver | Date | Latitude | Longitude | Direction | Speed | Altitude | Climb | Temperature | Humidity | Pressure | Voltage | Killtimer | Uptime | BKT | XDATA |
|---|---|---|---|---|---|---|---|---|---|---|---|---|---|---|---|
| IW2NTF | 2026-09-03 01:56:39 | 46.12630 | 8.10379 | 142° | 5km/h | 3182m | -3.8m/s | 5.6°C | 49.8% | 0hPa | 2.7V | 07:29:31 | 03:22:18 | 00:00:00 | |
| IW2NTF | 2026-09-03 01:56:33 | 46.12638 | 8.10376 | 154° | 4km/h | 3204m | -3.8m/s | 5.4°C | 50.2% | 0hPa | 2.6V | 07:29:37 | 03:22:12 | 00:00:00 | |
| IW2NTF | 2026-09-03 01:56:27 | 46.12646 | 8.10365 | 107° | 5km/h | 3224m | -2.2m/s | 5.4°C | 50.5% | 0hPa | 2.7V | 07:29:43 | 03:22:06 | 00:00:00 | |
| IW2NTF | 2026-09-03 01:55:18 | 46.12746 | 8.09941 | 103° | 18km/h | 3447m | -3.5m/s | 3.6°C | 55.6% | 0hPa | 2.7V | 07:30:52 | 03:20:57 | 00:00:00 | |
| IW2NTF | 2026-09-03 01:55:12 | 46.12750 | 8.09893 | 102° | 26km/h | 3469m | -4m/s | 3.5°C | 55.6% | 0hPa | 2.7V | 07:30:58 | 03:20:51 | 00:00:00 | |
| IW2NTF | 2026-09-03 01:55:06 | 46.12760 | 8.09835 | 112° | 26km/h | 3492m | -3.9m/s | 3.6°C | 55.7% | 0hPa | 2.6V | 07:31:04 | 03:20:45 | 00:00:00 | |
| IW2NTF | 2026-09-03 01:55:01 | 46.12769 | 8.09797 | 104° | 24km/h | 3511m | -3.7m/s | 3.5°C | 55.5% | 0hPa | 2.6V | 07:31:09 | 03:20:40 | 00:00:00 | |
| IW2NTF | 2026-09-03 01:54:55 | 46.12778 | 8.09747 | 105° | 27km/h | 3532m | -3.4m/s | 3.3°C | 55.2% | 0hPa | 2.6V | 07:31:15 | 03:20:34 | 00:00:00 | |
| IW2NTF | 2026-09-03 01:54:49 | 46.12789 | 8.09700 | 97° | 20km/h | 3552m | -3.2m/s | 3°C | 57.5% | 0hPa | 2.7V | 07:31:21 | 03:20:28 | 00:00:00 | |
| IW2NTF | 2026-09-03 01:54:43 | 46.12800 | 8.09652 | 119° | 20km/h | 3570m | -2.7m/s | 2.8°C | 58.6% | 0hPa | 2.7V | 07:31:27 | 03:20:22 | 00:00:00 | |
| IW2NTF | 2026-09-03 01:54:37 | 46.12808 | 8.09614 | 111° | 22km/h | 3587m | -3.1m/s | 2.6°C | 59.2% | 0hPa | 2.7V | 07:31:33 | 03:20:16 | 00:00:00 | |
| IW2NTF | 2026-09-03 01:53:57 | 46.12887 | 8.09374 | 114° | 20km/h | 3696m | -3.1m/s | 1.7°C | 60.3% | 0hPa | 2.7V | 07:32:09 | 03:19:40 | 00:00:00 | |
| IW2NTF | 2026-09-03 01:53:51 | 46.12909 | 8.09305 | 112° | 22km/h | 3725m | -2.8m/s | 1.4°C | 62.1% | 0hPa | 2.7V | 07:32:19 | 03:19:30 | 00:00:00 | |
| IW2NTF | 2026-09-03 01:53:45 | 46.12925 | 8.09262 | 117° | 22km/h | 3745m | -3.3m/s | 1.6°C | 55.3% | 0hPa | 2.7V | 07:32:25 | 03:19:24 | 00:00:00 | |
| IW2NTF | 2026-09-03 01:53:39 | 46.12941 | 8.09227 | 118° | 18km/h | 3764m | -3.1m/s | 1.4°C | 56.4% | 0hPa | 2.7V | 07:32:31 | 03:19:18 | 00:00:00 | |
| IW2NTF | 2026-09-03 01:53:33 | 46.12957 | 8.09192 | 128° | 16km/h | 3783m | -3.2m/s | 1.2°C | 56.9% | 0hPa | 2.7V | 07:32:37 | 03:19:12 | 00:00:00 | |
| IW2NTF | 2026-09-03 01:53:27 | 46.12975 | 8.09160 | 135° | 20km/h | 3804m | -3.7m/s | 1°C | 57.9% | 0hPa | 2.7V | 07:32:43 | 03:19:06 | 00:00:00 | |
| IW2NTF | 2026-09-03 01:53:21 | 46.12997 | 8.09126 | 139° | 22km/h | 3825m | -3.7m/s | 0.8°C | 57.4% | 0hPa | 2.7V | 07:32:49 | 03:19:00 | 00:00:00 | |
| IW2NTF | 2026-09-03 01:53:15 | 46.13017 | 8.09098 | 134° | 20km/h | 3847m | -3.9m/s | 0.8°C | 55.4% | 0hPa | 2.6V | 07:32:55 | 03:18:54 | 00:00:00 | |
| IW2NTF | 2026-09-03 01:53:09 | 46.13037 | 8.09072 | 129° | 18km/h | 3869m | -3.6m/s | 0.5°C | 56.6% | 0hPa | 2.6V | 07:33:01 | 03:18:48 | 00:00:00 | |
| IW2NTF | 2026-09-03 01:53:03 | 46.13057 | 8.09042 | 128° | 16km/h | 3891m | -3.5m/s | 0.2°C | 56.9% | 0hPa | 2.7V | 07:33:07 | 03:18:42 | 00:00:00 | |
| IW2NTF | 2026-09-03 01:52:57 | 46.13078 | 8.09012 | 147° | 18km/h | 3911m | -3.3m/s | 0.1°C | 56.8% | 0hPa | 2.7V | 07:33:13 | 03:18:36 | 00:00:00 | |
| IW2NTF | 2026-09-03 01:52:51 | 46.13100 | 8.08987 | 137° | 18km/h | 3931m | -3.1m/s | -0°C | 53.5% | 0hPa | 2.7V | 07:33:19 | 03:18:30 | 00:00:00 | |
| IW2NTF | 2026-09-03 01:52:45 | 46.13121 | 8.08951 | 138° | 24km/h | 3950m | -3.7m/s | 0.2°C | 48.2% | 0hPa | 2.7V | 07:33:25 | 03:18:24 | 00:00:00 | |
| IW2NTF | 2026-09-03 01:52:39 | 46.13145 | 8.08917 | 136° | 24km/h | 3971m | -3.8m/s | 0.1°C | 44.1% | 0hPa | 2.7V | 07:33:31 | 03:18:18 | 00:00:00 | |
| IW2NTF | 2026-09-03 01:52:33 | 46.13170 | 8.08883 | 131° | 26km/h | 3992m | -3.4m/s | -0.1°C | 45.4% | 0hPa | 2.6V | 07:33:37 | 03:18:12 | 00:00:00 | |
| IW2NTF | 2026-09-03 01:52:27 | 46.13199 | 8.08844 | 132° | 27km/h | 4011m | -3.1m/s | -0.2°C | 43.5% | 0hPa | 2.6V | 07:33:43 | 03:18:06 | 00:00:00 | |
| IW2NTF | 2026-09-03 01:52:21 | 46.13231 | 8.08806 | 150° | 22km/h | 4029m | -2.8m/s | -0.4°C | 45.6% | 0hPa | 2.7V | 07:33:49 | 03:18:00 | 00:00:00 | |
| IW2NTF | 2026-09-03 01:52:15 | 46.13258 | 8.08779 | 148° | 24km/h | 4046m | -3.1m/s | -0.5°C | 43.8% | 0hPa | 2.7V | 07:33:55 | 03:17:54 | 00:00:00 | |
| IW2NTF | 2026-09-03 01:52:09 | 46.13287 | 8.08748 | 142° | 29km/h | 4063m | -3.1m/s | -0.6°C | 40.9% | 0hPa | 2.6V | 07:34:01 | 03:17:48 | 00:00:00 | |
| IW2NTF | 2026-09-03 01:52:03 | 46.13321 | 8.08715 | 140° | 26km/h | 4079m | -2.9m/s | -0.7°C | 41.2% | 0hPa | 2.6V | 07:34:07 | 03:17:42 | 00:00:00 | |
| IW2NTF | 2026-09-03 01:51:57 | 46.13354 | 8.08682 | 140° | 26km/h | 4096m | -2.3m/s | -0.9°C | 41.2% | 0hPa | 2.7V | 07:34:13 | 03:17:36 | 00:00:00 | |
| IW2NTF | 2026-09-03 01:51:51 | 46.13387 | 8.08643 | 142° | 24km/h | 4107m | -0.7m/s | -0.9°C | 39.5% | 0hPa | 2.7V | 07:34:19 | 03:17:30 | 00:00:00 | |
| IW2NTF | 2026-09-03 01:51:45 | 46.13415 | 8.08609 | 147° | 27km/h | 4114m | -1.2m/s | -1°C | 39.6% | 0hPa | 2.7V | 07:34:25 | 03:17:24 | 00:00:00 | |
| IW2NTF | 2026-09-03 01:51:39 | 46.13450 | 8.08580 | 143° | 29km/h | 4125m | -2.1m/s | -1°C | 38% | 0hPa | 2.7V | 07:34:31 | 03:17:18 | 00:00:00 | |
| IW2NTF | 2026-09-03 01:51:33 | 46.13485 | 8.08550 | 152° | 20km/h | 4140m | -3.4m/s | -1.2°C | 38.7% | 0hPa | 2.7V | 07:34:37 | 03:17:12 | 00:00:00 | |
| IW2NTF | 2026-09-03 01:51:27 | 46.13511 | 8.08518 | 140° | 29km/h | 4164m | -4.2m/s | -1.4°C | 38.1% | 0hPa | 2.7V | 07:34:43 | 03:17:06 | 00:00:00 | |
| IW2NTF | 2026-09-03 01:51:22 | 46.13547 | 8.08476 | 141° | 33km/h | 4187m | -4.2m/s | -1.8°C | 43.8% | 0hPa | 2.7V | 07:34:49 | 03:17:00 | 00:00:00 | |
| IW2NTF | 2026-09-03 01:51:15 | 46.13586 | 8.08428 | 141° | 33km/h | 4213m | -4.1m/s | -1.8°C | 40% | 0hPa | 2.7V | 07:34:55 | 03:16:54 | 00:00:00 | |
| IW2NTF | 2026-09-03 01:51:09 | 46.13626 | 8.08379 | 140° | 38km/h | 4238m | -4.1m/s | -1.7°C | 32.1% | 0hPa | 2.6V | 07:35:01 | 03:16:48 | 00:00:00 | |
| IW2NTF | 2026-09-03 01:51:03 | 46.13671 | 8.08322 | 133° | 42km/h | 4261m | -4.1m/s | -2.4°C | 44.2% | 0hPa | 2.6V | 07:35:07 | 03:16:42 | 00:00:00 | |
| IW2NTF | 2026-09-03 01:50:57 | 46.13718 | 8.08260 | 136° | 40km/h | 4284m | -3.7m/s | -1.3°C | 15.5% | 0hPa | 2.6V | 07:35:13 | 03:16:36 | 00:00:00 | |
| IW2NTF | 2026-09-03 01:50:51 | 46.13769 | 8.08191 | 138° | 47km/h | 4306m | -3.6m/s | -1°C | 6.1% | 0hPa | 2.6V | 07:35:19 | 03:16:30 | 00:00:00 | |
| IW2NTF | 2026-09-03 01:50:45 | 46.13818 | 8.08123 | 133° | 47km/h | 4328m | -4.2m/s | -1.1°C | 6.2% | 0hPa | 2.7V | 07:35:25 | 03:16:24 | 00:00:00 | |
| IW2NTF | 2026-09-03 01:50:39 | 46.13871 | 8.08056 | 136° | 44km/h | 4353m | -4.1m/s | -1.1°C | 6.2% | 0hPa | 2.7V | 07:35:31 | 03:16:18 | 00:00:00 | |
| IW2NTF | 2026-09-03 01:50:33 | 46.13923 | 8.07983 | 139° | 47km/h | 4377m | -4.1m/s | -1.2°C | 6% | 0hPa | 2.7V | 07:35:37 | 03:16:12 | 00:00:00 | |
| IW2NTF | 2026-09-03 01:50:27 | 46.13974 | 8.07914 | 136° | 49km/h | 4403m | -4.3m/s | -1.2°C | 6.2% | 0hPa | 2.7V | 07:35:43 | 03:16:06 | 00:00:00 | |
| IW2NTF | 2026-09-03 01:50:21 | 46.14024 | 8.07844 | 131° | 47km/h | 4429m | -4.3m/s | -1.4°C | 6.8% | 0hPa | 2.7V | 07:35:49 | 03:16:00 | 00:00:00 | |
| IW2NTF | 2026-09-03 01:50:15 | 46.14077 | 8.07772 | 136° | 44km/h | 4456m | -4.5m/s | -1.5°C | 8.5% | 0hPa | 2.7V | 07:35:55 | 03:15:54 | 00:00:00 | |
| IW2NTF | 2026-09-03 01:50:09 | 46.14129 | 8.07700 | 141° | 47km/h | 4483m | -4.7m/s | -1.6°C | 8.7% | 0hPa | 2.7V | 07:36:01 | 03:15:48 | 00:00:00 | |
| IW2NTF | 2026-09-03 01:50:03 | 46.14179 | 8.07632 | 133° | 49km/h | 4511m | -4.6m/s | -1.8°C | 10.8% | 0hPa | 2.7V | 07:36:07 | 03:15:42 | 00:00:00 | |
| IW2NTF | 2026-09-03 01:49:56 | 46.14234 | 8.07565 | 139° | 42km/h | 4539m | -4.8m/s | -2°C | 11.8% | 0hPa | 2.7V | 07:36:13 | 03:15:36 | 00:00:00 | |
| IW2NTF | 2026-09-03 01:49:51 | 46.14284 | 8.07493 | 137° | 51km/h | 4567m | -4.7m/s | -2.2°C | 12% | 0hPa | 2.7V | 07:36:19 | 03:15:30 | 00:00:00 | |
| IW2NTF | 2026-09-03 01:49:46 | 46.14340 | 8.07414 | 136° | 53km/h | 4595m | -4.7m/s | -2.4°C | 12.4% | 0hPa | 2.7V | 07:36:25 | 03:15:24 | 00:00:00 | |
| IW2NTF | 2026-09-03 01:49:39 | 46.14391 | 8.07335 | 127° | 51km/h | 4622m | -4.9m/s | -2.6°C | 12.6% | 0hPa | 2.7V | 07:36:31 | 03:15:18 | 00:00:00 | |
| IW2NTF | 2026-09-03 01:49:33 | 46.14448 | 8.07247 | 138° | 53km/h | 4650m | -4.4m/s | -2.6°C | 15.4% | 0hPa | 2.7V | 07:36:37 | 03:15:12 | 00:00:00 | |
| IW2NTF | 2026-09-03 01:49:27 | 46.14502 | 8.07164 | 132° | 57km/h | 4677m | -4.4m/s | -2.7°C | 18% | 0hPa | 2.7V | 07:36:43 | 03:15:06 | 00:00:00 | |
| IW2NTF | 2026-09-03 01:49:21 | 46.14560 | 8.07081 | 131° | 49km/h | 4703m | -4.3m/s | -2.8°C | 20.6% | 0hPa | 2.7V | 07:36:49 | 03:15:00 | 00:00:00 | |
| IW2NTF | 2026-09-03 01:49:15 | 46.14614 | 8.07000 | 138° | 49km/h | 4729m | -4.4m/s | -2.9°C | 17.8% | 0hPa | 2.7V | 07:36:55 | 03:14:54 | 00:00:00 | |
| IW2NTF | 2026-09-03 01:49:09 | 46.14664 | 8.06922 | 133° | 53km/h | 4754m | -4m/s | -3.1°C | 14.8% | 0hPa | 2.7V | 07:37:01 | 03:14:48 | 00:00:00 | |
| IW2NTF | 2026-09-03 01:49:03 | 46.14719 | 8.06845 | 131° | 49km/h | 4778m | -4.1m/s | -3.3°C | 34.1% | 0hPa | 2.7V | 07:37:07 | 03:14:42 | 00:00:00 | |
| IW2NTF | 2026-09-03 01:48:57 | 46.14771 | 8.06761 | 130° | 49km/h | 4803m | -3.9m/s | -3.4°C | 44.1% | 0hPa | 2.7V | 07:37:13 | 03:14:36 | 00:00:00 | |
| IW2NTF | 2026-09-03 01:48:51 | 46.14822 | 8.06672 | 133° | 53km/h | 4827m | -3.7m/s | -3.7°C | 85.5% | 0hPa | 2.7V | 07:37:19 | 03:14:30 | 00:00:00 | |
| IW2NTF | 2026-09-03 01:48:45 | 46.14870 | 8.06586 | 126° | 55km/h | 4849m | -3.7m/s | -3.8°C | 87.9% | 0hPa | 2.7V | 07:37:25 | 03:14:24 | 00:00:00 | |
| IW2NTF | 2026-09-03 01:48:39 | 46.14923 | 8.06499 | 128° | 49km/h | 4872m | -3.7m/s | -3.8°C | 86.7% | 0hPa | 2.7V | 07:37:31 | 03:14:18 | 00:00:00 | |
| IW2NTF | 2026-09-03 01:48:15 | 46.15115 | 8.06129 | 126° | 57km/h | 4958m | -3.5m/s | -4.4°C | 88.4% | 0hPa | 2.7V | 07:37:55 | 03:13:54 | 00:00:00 | |
| IW2NTF | 2026-09-03 01:48:09 | 46.15166 | 8.06038 | 123° | 53km/h | 4978m | -3.4m/s | -4.5°C | 81.3% | 0hPa | 2.7V | 07:38:01 | 03:13:48 | 00:00:00 | |
| IW2NTF | 2026-09-03 01:48:03 | 46.15216 | 8.05942 | 130° | 53km/h | 4998m | -3.4m/s | -4.6°C | 83.1% | 0hPa | 2.7V | 07:38:07 | 03:13:42 | 00:00:00 | |
| IW2NTF | 2026-09-03 01:47:53 | 46.15300 | 8.05795 | 125° | 55km/h | 5031m | -3.2m/s | -4.8°C | 81.9% | 0hPa | 2.7V | 07:38:17 | 03:13:32 | 00:00:00 | |
| IW2NTF | 2026-09-03 01:47:43 | 46.15389 | 8.05635 | 129° | 60km/h | 5063m | -3.3m/s | -5°C | 82.6% | 0hPa | 2.6V | 07:38:27 | 03:13:22 | 00:00:00 | |
| IW2NTF | 2026-09-03 01:47:33 | 46.15483 | 8.05487 | 132° | 57km/h | 5094m | -3.2m/s | -5.3°C | 83.3% | 0hPa | 2.6V | 07:38:37 | 03:13:12 | 00:00:00 | |
| IW2NTF | 2026-09-03 01:47:23 | 46.15574 | 8.05332 | 133° | 57km/h | 5123m | -2.8m/s | -5.5°C | 82.4% | 0hPa | 2.7V | 07:38:47 | 03:13:02 | 00:00:00 | |
| IW2NTF | 2026-09-03 01:47:13 | 46.15660 | 8.05173 | 123° | 57km/h | 5151m | -2.8m/s | -5.6°C | 79.6% | 0hPa | 2.7V | 07:38:57 | 03:12:52 | 00:00:00 | |
| IW2NTF | 2026-09-03 01:47:03 | 46.15751 | 8.05002 | 126° | 60km/h | 5176m | -2.5m/s | -5.3°C | 60.9% | 0hPa | 2.7V | 07:39:07 | 03:12:42 | 00:00:00 | |
| IW2NTF | 2026-09-03 01:46:54 | 46.15842 | 8.04833 | 129° | 60km/h | 5203m | -2.6m/s | -4.9°C | 40.2% | 0hPa | 2.6V | 07:39:17 | 03:12:32 | 00:00:00 | |
| IW2NTF | 2026-09-03 01:46:43 | 46.15933 | 8.04671 | 129° | 55km/h | 5229m | -2.5m/s | -5.1°C | 45.4% | 0hPa | 2.6V | 07:39:27 | 03:12:22 | 00:00:00 | |
| IW2NTF | 2026-09-03 01:46:33 | 46.16021 | 8.04515 | 126° | 55km/h | 5254m | -2.5m/s | -5.3°C | 52.2% | 0hPa | 2.7V | 07:39:37 | 03:12:12 | 00:00:00 | |
| IW2NTF | 2026-09-03 01:46:23 | 46.16109 | 8.04361 | 128° | 57km/h | 5281m | -2.7m/s | -5.6°C | 66.9% | 0hPa | 2.7V | 07:39:47 | 03:12:02 | 00:00:00 | |
| IW2NTF | 2026-09-03 01:46:10 | 46.16196 | 8.04207 | 131° | 55km/h | 5308m | -2.7m/s | -5.7°C | 69.7% | 0hPa | 2.7V | 07:39:57 | 03:11:52 | 00:00:00 | |
| IW2NTF | 2026-09-03 01:46:00 | 46.16280 | 8.04062 | 131° | 47km/h | 5336m | -2.7m/s | -5.9°C | 70.4% | 0hPa | 2.7V | 07:40:07 | 03:11:42 | 00:00:00 | |
| IW2NTF | 2026-09-03 01:45:48 | 46.16385 | 8.03889 | 128° | 51km/h | 5370m | -2.9m/s | -6.1°C | 70.7% | 0hPa | 2.7V | 07:40:19 | 03:11:30 | 00:00:00 | |
| IW2NTF | 2026-09-03 01:45:38 | 46.16491 | 8.03717 | 135° | 55km/h | 5406m | -3.1m/s | -6.4°C | 70% | 0hPa | 2.6V | 07:40:31 | 03:11:18 | 00:00:00 | |
| IW2NTF | 2026-09-03 01:45:28 | 46.16582 | 8.03576 | 135° | 51km/h | 5437m | -3.2m/s | -6.6°C | 67.7% | 0hPa | 2.6V | 07:40:41 | 03:11:08 | 00:00:00 | |
| IW2NTF | 2026-09-03 01:45:19 | 46.16683 | 8.03419 | 130° | 49km/h | 5473m | -3.3m/s | -6.9°C | 67.8% | 0hPa | 2.6V | 07:40:52 | 03:10:57 | 00:00:00 | |
| IW2NTF | 2026-09-03 01:44:57 | 46.16870 | 8.03111 | 134° | 55km/h | 5542m | -3.6m/s | -7.3°C | 68.9% | 0hPa | 2.7V | 07:41:13 | 03:10:36 | 00:00:00 | |
| IW2NTF | 2026-09-03 01:42:47 | 46.18559 | 8.01016 | 139° | 82km/h | 6121m | -4.8m/s | -10.1°C | 40.6% | 0hPa | 2.5V | 07:43:23 | 03:08:26 | 00:00:00 | |
| IW2NTF | 2026-09-03 01:42:35 | 46.18756 | 8.00784 | 142° | 82km/h | 6180m | -4.8m/s | -10.7°C | 44.5% | 0hPa | 2.5V | 07:43:35 | 03:08:14 | 00:00:00 | |
| IW2NTF | 2026-09-03 01:42:25 | 46.18919 | 8.00595 | 141° | 78km/h | 6229m | -5m/s | -11°C | 51.1% | 0hPa | 2.6V | 07:43:45 | 03:08:04 | 00:00:00 | |
| IW2NTF | 2026-09-03 01:42:15 | 46.19080 | 8.00401 | 140° | 84km/h | 6278m | -5m/s | -11.4°C | 50.9% | 0hPa | 2.6V | 07:43:55 | 03:07:54 | 00:00:00 | |
| IW2NTF | 2026-09-03 01:42:05 | 46.19240 | 8.00214 | 143° | 84km/h | 6326m | -5m/s | -11.8°C | 51.5% | 0hPa | 2.6V | 07:44:05 | 03:07:44 | 00:00:00 | |
| IW2NTF | 2026-09-03 01:41:54 | 46.19426 | 7.99987 | 139° | 82km/h | 6383m | -4.9m/s | -12.3°C | 52.6% | 0hPa | 2.6V | 07:44:17 | 03:07:32 | 00:00:00 | |
| IW2NTF | 2026-09-03 01:41:43 | 46.19581 | 7.99796 | 141° | 84km/h | 6432m | -4.7m/s | -12.7°C | 54.1% | 0hPa | 2.6V | 07:44:27 | 03:07:22 | 00:00:00 | |
| DB0UT-7 | 2026-09-03 01:41:39 | 46.19565 | 7.99815 | 140° | 80km/h | 6428m | -4.8m/s | -12.6°C | 54.0% | 0hPa | 2.5V | 00:00:00 | 00:00:00 | 00:00:00 | |
| IW2NTF | 2026-09-03 01:41:33 | 46.19732 | 7.99609 | 140° | 82km/h | 6480m | -4.9m/s | -13.1°C | 54% | 0hPa | 2.5V | 07:44:37 | 03:07:12 | 00:00:00 | |
| IW2NTF | 2026-09-03 01:41:23 | 46.19881 | 7.99419 | 141° | 80km/h | 6527m | -4.5m/s | -13.5°C | 55.6% | 0hPa | 2.5V | 07:44:47 | 03:07:02 | 00:00:00 | |
| IW2NTF | 2026-09-03 01:41:13 | 46.20033 | 7.99234 | 141° | 77km/h | 6573m | -4.7m/s | -13.8°C | 57.1% | 0hPa | 2.6V | 07:44:57 | 03:06:52 | 00:00:00 | |
| DB0UT-7 | 2026-09-03 01:41:06 | 46.20062 | 7.99199 | 138° | 80km/h | 6582m | -4.6m/s | -13.8°C | 56.5% | 0hPa | 2.6V | 07:44:00 | 03:06:50 | 00:00:00 | |
| IW2NTF | 2026-09-03 01:41:03 | 46.20186 | 7.99049 | 140° | 77km/h | 6620m | -4.8m/s | -14.1°C | 57.3% | 0hPa | 2.5V | 07:45:07 | 03:06:42 | 00:00:00 | |
| IW2NTF | 2026-09-03 01:40:53 | 46.20338 | 7.98858 | 138° | 82km/h | 6665m | -4.5m/s | -14.5°C | 55.5% | 0hPa | 2.5V | 07:45:17 | 03:06:32 | 00:00:00 | |
| IW2NTF | 2026-09-03 01:40:43 | 46.20492 | 7.98669 | 139° | 80km/h | 6709m | -4.2m/s | -14.8°C | 53.6% | 0hPa | 2.6V | 07:45:27 | 03:06:22 | 00:00:00 | |
| DB0UT-7 | 2026-09-03 01:40:36 | 46.20523 | 7.98632 | 141° | 78km/h | 6717m | -4.5m/s | -14.8°C | 53.9% | 0hPa | 2.5V | 00:00:00 | 00:00:00 | 00:00:00 | |
| IW2NTF | 2026-09-03 01:40:33 | 46.20642 | 7.98484 | 138° | 77km/h | 6752m | -4.4m/s | -15.2°C | 54.6% | 0hPa | 2.5V | 07:45:37 | 03:06:12 | 00:00:00 | |
| IW2NTF | 2026-09-03 01:40:23 | 46.20790 | 7.98297 | 137° | 78km/h | 6796m | -4.5m/s | -15.5°C | 55.8% | 0hPa | 2.5V | 07:45:47 | 03:06:02 | 00:00:00 | |
| IW2NTF | 2026-09-03 01:40:13 | 46.20938 | 7.98105 | 139° | 80km/h | 6839m | -4.4m/s | -15.8°C | 53.3% | 0hPa | 2.5V | 07:45:57 | 03:05:52 | 00:00:00 | |
| IW2NTF | 2026-09-03 01:40:03 | 46.21085 | 7.97913 | 136° | 77km/h | 6882m | -4.2m/s | -16°C | 42.1% | 0hPa | 2.5V | 07:46:07 | 03:05:42 | 00:00:00 | |
| IW2NTF | 2026-09-03 01:39:53 | 46.21232 | 7.97719 | 136° | 80km/h | 6924m | -4.3m/s | -16.2°C | 35.6% | 0hPa | 2.6V | 07:46:17 | 03:05:32 | 00:00:00 | |
| IW2NTF | 2026-09-03 01:39:43 | 46.21379 | 7.97526 | 139° | 80km/h | 6966m | -4.1m/s | -16.6°C | 37.7% | 0hPa | 2.6V | 07:46:27 | 03:05:22 | 00:00:00 | |
| DB0UT-7 | 2026-09-03 01:39:35 | 46.21423 | 7.97469 | 137° | 77km/h | 6978m | -4.1m/s | -16.7°C | 38.2% | 0hPa | 2.5V | 00:00:00 | 03:05:19 | 00:00:00 | |
| IW2NTF | 2026-09-03 01:39:34 | 46.21524 | 7.97340 | 139° | 73km/h | 7007m | -4.7m/s | -17°C | 39.6% | 0hPa | 2.5V | 07:46:37 | 03:05:12 | 00:00:00 | |
| IW2NTF | 2026-09-03 01:39:24 | 46.21671 | 7.97151 | 138° | 75km/h | 7048m | -4.2m/s | -17.3°C | 38.9% | 0hPa | 2.6V | 07:46:47 | 03:05:02 | 00:00:00 | |
| IW2NTF | 2026-09-03 01:39:13 | 46.21815 | 7.96961 | 136° | 80km/h | 7089m | -4.2m/s | -17.6°C | 36.2% | 0hPa | 2.6V | 07:46:57 | 03:04:52 | 00:00:00 | |
| DB0UT-7 | 2026-09-03 01:39:05 | 46.21860 | 7.96903 | 140° | 80km/h | 7102m | -4.0m/s | -17.6°C | 35.3% | 0hPa | 2.5V | 00:00:00 | 00:00:00 | 00:00:00 | |
| IW2NTF | 2026-09-03 01:39:04 | 46.21962 | 7.96766 | 137° | 82km/h | 7130m | -4m/s | -17.9°C | 31.8% | 0hPa | 2.5V | 07:47:07 | 03:04:42 | 00:00:00 | |
| IW2NTF | 2026-09-03 01:38:53 | 46.22112 | 7.96566 | 136° | 78km/h | 7170m | -4.1m/s | -18.1°C | 28.1% | 0hPa | 2.6V | 07:47:17 | 03:04:32 | 00:00:00 | |
| IW2NTF | 2026-09-03 01:38:43 | 46.22259 | 7.96356 | 134° | 84km/h | 7211m | -4.1m/s | -18.5°C | 29.2% | 0hPa | 2.6V | 07:47:27 | 03:04:22 | 00:00:00 | |
| DB0UT-7 | 2026-09-03 01:38:35 | 46.22305 | 7.96293 | 139° | 78km/h | 7223m | -4.1m/s | -18.5°C | 29.6% | 0hPa | 2.5V | 00:00:00 | 03:04:19 | 00:00:00 | |
| IW2NTF | 2026-09-03 01:38:33 | 46.22405 | 7.96153 | 137° | 82km/h | 7251m | -4.3m/s | -18.8°C | 31.5% | 0hPa | 2.5V | 07:47:37 | 03:04:12 | 00:00:00 | |
| IW2NTF | 2026-09-03 01:38:23 | 46.22548 | 7.95958 | 134° | 75km/h | 7291m | -4.1m/s | -18.9°C | 32.3% | 0hPa | 2.6V | 07:47:47 | 03:04:02 | 00:00:00 | |
| IW2NTF | 2026-09-03 01:38:13 | 46.22687 | 7.95764 | 133° | 77km/h | 7332m | -4.2m/s | -19.3°C | 40.2% | 0hPa | 2.5V | 07:47:57 | 03:03:52 | 00:00:00 | |
| DB0UT-7 | 2026-09-03 01:38:05 | 46.22730 | 7.95702 | 138° | 77km/h | 7344m | -4.0m/s | -19.3°C | 41.0% | 0hPa | 2.5V | 00:00:00 | 00:00:00 | 00:00:00 | |
| IW2NTF | 2026-09-03 01:38:03 | 46.22832 | 7.95565 | 139° | 77km/h | 7372m | -4.2m/s | -19.6°C | 42.6% | 0hPa | 2.5V | 07:48:07 | 03:03:42 | 00:00:00 | |
| IW2NTF | 2026-09-03 01:37:53 | 46.22972 | 7.95379 | 137° | 73km/h | 7413m | -4.1m/s | -19.9°C | 33.5% | 0hPa | 2.6V | 07:48:17 | 03:03:32 | 00:00:00 | |
| IW2NTF | 2026-09-03 01:37:44 | 46.23112 | 7.95189 | 134° | 77km/h | 7455m | -4.3m/s | -20°C | 28.1% | 0hPa | 2.5V | 07:48:27 | 03:03:22 | 00:00:00 | |
| DB0UT-7 | 2026-09-03 01:37:35 | 46.23154 | 7.95129 | 137° | 77km/h | 7467m | -4.0m/s | -20.0°C | 25.6% | 0hPa | 2.6V | 00:00:00 | 03:03:19 | 00:00:00 | |
| IW2NTF | 2026-09-03 01:37:33 | 46.23254 | 7.94993 | 136° | 80km/h | 7496m | -4.2m/s | -20.2°C | 20.7% | 0hPa | 2.5V | 07:48:37 | 03:03:12 | 00:00:00 | |
| IW2NTF | 2026-09-03 01:37:23 | 46.23396 | 7.94803 | 137° | 73km/h | 7537m | -4m/s | -20.5°C | 23.7% | 0hPa | 2.5V | 07:48:47 | 03:03:02 | 00:00:00 | |
| IW2NTF | 2026-09-03 01:37:13 | 46.23532 | 7.94615 | 134° | 73km/h | 7578m | -4.2m/s | -20.9°C | 25.2% | 0hPa | 2.5V | 07:48:57 | 03:02:52 | 00:00:00 | |
| DB0UT-7 | 2026-09-03 01:37:05 | 46.23573 | 7.94556 | 136° | 77km/h | 7590m | -4.1m/s | -21.0°C | 24.5% | 0hPa | 2.5V | 00:00:00 | 00:00:00 | 00:00:00 | |
| IW2NTF | 2026-09-03 01:37:03 | 46.23666 | 7.94419 | 135° | 78km/h | 7621m | -4.3m/s | -21.3°C | 28.6% | 0hPa | 2.5V | 07:49:07 | 03:02:42 | 00:00:00 | |
| IW2NTF | 2026-09-03 01:36:53 | 46.23807 | 7.94222 | 137° | 75km/h | 7664m | -4.4m/s | -21.6°C | 25.9% | 0hPa | 2.5V | 07:49:17 | 03:02:32 | 00:00:00 | |
| IW2NTF | 2026-09-03 01:36:39 | 46.23948 | 7.94031 | 136° | 75km/h | 7707m | -4.2m/s | -21.9°C | 26.7% | 0hPa | 2.6V | 07:49:27 | 03:02:22 | 00:00:00 | |
| DB0UT-7 | 2026-09-03 01:36:35 | 46.23989 | 7.93973 | 137° | 77km/h | 7720m | -4.3m/s | -22.0°C | 27.4% | 0hPa | 2.6V | 07:49:00 | 03:02:19 | 00:00:00 | |
| IW2NTF | 2026-09-03 01:36:29 | 46.24090 | 7.93839 | 139° | 77km/h | 7750m | -4.3m/s | -22.2°C | 26.1% | 0hPa | 2.6V | 07:49:37 | 03:02:12 | 00:00:00 | |
| IW2NTF | 2026-09-03 01:36:20 | 46.24229 | 7.93656 | 136° | 75km/h | 7793m | -4.6m/s | -22.6°C | 25.2% | 0hPa | 2.6V | 07:49:47 | 03:02:02 | 00:00:00 | |
| IW2NTF | 2026-09-03 01:36:09 | 46.24376 | 7.93467 | 139° | 78km/h | 7838m | -4.5m/s | -22.9°C | 24% | 0hPa | 2.5V | 07:49:57 | 03:01:52 | 00:00:00 | |
| DB0UT-7 | 2026-09-03 01:36:05 | 46.24419 | 7.93413 | 138° | 77km/h | 7851m | -4.6m/s | -22.8°C | 23.9% | 0hPa | 2.6V | 00:00:00 | 00:00:00 | 00:00:00 | |
| IW2NTF | 2026-09-03 01:35:59 | 46.24522 | 7.93280 | 138° | 77km/h | 7882m | -4.7m/s | -23.1°C | 25.2% | 0hPa | 2.6V | 07:50:07 | 03:01:42 | 00:00:00 | |
| IW2NTF | 2026-09-03 01:35:49 | 46.24670 | 7.93098 | 140° | 78km/h | 7928m | -4.4m/s | -23.4°C | 27.9% | 0hPa | 2.6V | 07:50:17 | 03:01:32 | 00:00:00 | |
| IW2NTF | 2026-09-03 01:35:39 | 46.24816 | 7.92917 | 137° | 75km/h | 7974m | -4.6m/s | -23.8°C | 44.2% | 0hPa | 2.6V | 07:50:27 | 03:01:22 | 00:00:00 | |
| DB0UT-7 | 2026-09-03 01:35:35 | 46.24859 | 7.92861 | 140° | 77km/h | 7988m | -4.4m/s | -23.9°C | 49.0% | 0hPa | 2.6V | 00:00:00 | 03:01:19 | 00:00:00 | |
| IW2NTF | 2026-09-03 01:35:29 | 46.24959 | 7.92732 | 138° | 77km/h | 8020m | -4.8m/s | -24.2°C | 52.9% | 0hPa | 2.6V | 07:50:37 | 03:01:12 | 00:00:00 | |
| IW2NTF | 2026-09-03 01:35:19 | 46.25103 | 7.92545 | 135° | 75km/h | 8068m | -4.5m/s | -24.6°C | 54% | 0hPa | 2.5V | 07:50:47 | 03:01:02 | 00:00:00 | |
| IW2NTF | 2026-09-03 01:35:09 | 46.25246 | 7.92352 | 137° | 77km/h | 8115m | -5.2m/s | -25°C | 54.1% | 0hPa | 2.6V | 07:50:57 | 03:00:52 | 00:00:00 | |
| DB0UT-7 | 2026-09-03 01:35:05 | 46.25288 | 7.92295 | 135° | 77km/h | 8129m | -4.8m/s | -25.1°C | 50.7% | 0hPa | 2.5V | 00:00:00 | 00:00:00 | 00:00:00 | |
| IW2NTF | 2026-09-03 01:34:59 | 46.25386 | 7.92162 | 134° | 77km/h | 8163m | -5.1m/s | -25.4°C | 53.9% | 0hPa | 2.5V | 07:51:07 | 03:00:42 | 00:00:00 | |
| IW2NTF | 2026-09-03 01:34:49 | 46.25526 | 7.91967 | 137° | 73km/h | 8211m | -4.8m/s | -25.8°C | 54.9% | 0hPa | 2.5V | 07:51:17 | 03:00:32 | 00:00:00 | |
| IW2NTF | 2026-09-03 01:34:39 | 46.25661 | 7.91770 | 132° | 78km/h | 8259m | -5m/s | -26.2°C | 52.1% | 0hPa | 2.6V | 07:51:27 | 03:00:22 | 00:00:00 | |
| DB0UT-7 | 2026-09-03 01:34:35 | 46.25702 | 7.91708 | 134° | 78km/h | 8274m | -5.0m/s | -26.3°C | 50.7% | 0hPa | 2.5V | 00:00:00 | 03:00:19 | 00:00:00 | |
| IW2NTF | 2026-09-03 01:34:30 | 46.25800 | 7.91564 | 134° | 75km/h | 8308m | -4.9m/s | -26.6°C | 39.5% | 0hPa | 2.6V | 07:51:37 | 03:00:12 | 00:00:00 | |
| DF1GD-15 | 2026-09-03 01:34:26 | 46.25813 | 7.91544 | 134° | 77km/h | 8313m | -4.7m/s | -26.6°C | 36.6% | 0hPa | 2.6V | 07:52:00 | 00:00:00 | 00:00:00 | |
| IW2NTF | 2026-09-03 01:34:19 | 46.25936 | 7.91358 | 134° | 80km/h | 8356m | -5.1m/s | -26.9°C | 41% | 0hPa | 2.6V | 07:51:47 | 03:00:02 | 00:00:00 | |
| DB0UT-7 | 2026-09-03 01:34:05 | 46.26114 | 7.91082 | 134° | 84km/h | 8420m | -4.9m/s | -27.4°C | 32.5% | 0hPa | 2.6V | 00:00:00 | 00:00:00 | 00:00:00 | |
| DF1GD-15 | 2026-09-03 01:33:45 | 46.26384 | 7.90660 | 134° | 84km/h | 8514m | -5.1m/s | -28.1°C | 18.1% | 0hPa | 2.6V | 07:52:00 | 00:00:00 | 00:00:00 | |
| DB0UT-7 | 2026-09-03 01:33:35 | 46.26547 | 7.90406 | 134° | 88km/h | 8569m | -5.0m/s | -28.5°C | 18.3% | 0hPa | 2.6V | 00:00:00 | 02:59:19 | 00:00:00 | |
| DF1GD-15 | 2026-09-03 01:33:25 | 46.26682 | 7.90197 | 134° | 89km/h | 8614m | -5.0m/s | -28.9°C | 18.0% | 0hPa | 2.6V | 07:53:00 | 00:00:00 | 00:00:00 | |
| DF1GD-15 | 2026-09-03 01:32:44 | 46.27329 | 7.89230 | 136° | 89km/h | 8819m | -5.1m/s | -30.6°C | 14.8% | 0hPa | 2.6V | 07:54:00 | 00:00:00 | 00:00:00 | |
| DB0UT-7 | 2026-09-03 01:32:35 | 46.27495 | 7.88991 | 135° | 95km/h | 8869m | -5.0m/s | -30.9°C | 16.9% | 0hPa | 2.6V | 07:53:00 | 02:58:19 | 00:00:00 | |
| DF1GD-15 | 2026-09-03 01:32:23 | 46.27679 | 7.88720 | 136° | 93km/h | 8925m | -5.2m/s | -31.4°C | 17.9% | 0hPa | 2.6V | 07:54:00 | 00:00:00 | 00:00:00 | |
| DB0ND-19 | 2026-09-03 01:32:11 | 46.27895 | 7.88396 | 133° | 95km/h | 8990m | -5.0m/s | 0°C | -1.0% | -1.0hPa | 2.6V | 00:00:00 | 00:00:00 | 00:00:00 | |
| DB0UT-7 | 2026-09-03 01:32:05 | 46.27996 | 7.88248 | 134° | 95km/h | 9021m | -5.2m/s | -32.1°C | 24.2% | 0hPa | 2.6V | 00:00:00 | 00:00:00 | 00:00:00 | |
| DF1GD-15 | 2026-09-03 01:32:02 | 46.28030 | 7.88197 | 136° | 95km/h | 9031m | -5.1m/s | -32.3°C | 20.9% | 0hPa | 2.6V | 07:54:00 | 00:00:00 | 00:00:00 | |
| DF1GD-15 | 2026-09-03 01:31:41 | 46.28381 | 7.87668 | 135° | 97km/h | 9136m | -4.9m/s | -33.2°C | 23.0% | 0hPa | 2.6V | 07:55:00 | 00:00:00 | 00:00:00 | |
| DB0UT-7 | 2026-09-03 01:31:35 | 46.28497 | 7.87489 | 133° | 93km/h | 9172m | -5.1m/s | -33.5°C | 25.9% | 0hPa | 2.6V | 00:00:00 | 02:57:19 | 00:00:00 | |
| DO3MHA-11 | 2026-09-03 01:31:24 | 46.28676 | 7.87208 | 132° | 95km/h | 9227m | -5.0m/s | -33.9°C | 25.9% | 0hPa | 2.6V | 00:00:00 | 02:57:08 | 00:00:00 | |
| DF1GD-15 | 2026-09-03 01:31:20 | 46.28725 | 7.87130 | 134° | 97km/h | 9242m | -4.9m/s | -34.1°C | 23.2% | 0hPa | 2.6V | 07:55:00 | 00:00:00 | 00:00:00 | |
| DF1GD-15 | 2026-09-03 01:30:59 | 46.29065 | 7.86603 | 134° | 95km/h | 9347m | -5.1m/s | -35.1°C | 25.4% | 0hPa | 2.6V | 07:55:00 | 00:00:00 | 00:00:00 | |
| DB0UT-7 | 2026-09-03 01:30:54 | 46.29162 | 7.86452 | 132° | 91km/h | 9377m | -5.0m/s | -35.3°C | 29.7% | 0hPa | 2.6V | 00:00:00 | 00:00:00 | 00:00:00 | |
| DO3MHA-11 | 2026-09-03 01:30:52 | 46.29195 | 7.86402 | 135° | 93km/h | 9386m | -5.1m/s | -35.4°C | 29.6% | 0hPa | 2.6V | 00:00:00 | 02:56:36 | 00:00:00 | |
| DO3MHA-11 | 2026-09-03 01:30:40 | 46.29386 | 7.86103 | 134° | 89km/h | 9446m | -4.9m/s | -35.9°C | 29.7% | 0hPa | 2.5V | 07:55:00 | 02:56:24 | 00:00:00 | |
| DF1GD-15 | 2026-09-03 01:30:39 | 46.29385 | 7.86103 | 134° | 89km/h | 9446m | -4.9m/s | -36.0°C | 26.1% | 0hPa | 2.5V | 07:55:00 | 00:00:00 | 00:00:00 | |
| DB0ND-19 | 2026-09-03 01:30:38 | 46.29464 | 7.85982 | 134° | 88km/h | 9471m | -5.1m/s | 0°C | -1.0% | -1.0hPa | 2.5V | 00:00:00 | 00:00:00 | 00:00:00 | |
| DO3MHA-11 | 2026-09-03 01:30:30 | 46.29542 | 7.85861 | 134° | 91km/h | 9496m | -5.0m/s | -36.4°C | 29.2% | 0hPa | 2.5V | 00:00:00 | 02:56:14 | 00:00:00 | |
| DB0UT-7 | 2026-09-03 01:30:24 | 46.29637 | 7.85716 | 135° | 89km/h | 9527m | -4.9m/s | -36.6°C | 29.2% | 0hPa | 2.5V | 00:00:00 | 02:56:08 | 00:00:00 | |
| DO3MHA-11 | 2026-09-03 01:30:19 | 46.29715 | 7.85597 | 134° | 89km/h | 9551m | -5.0m/s | -36.8°C | 30.0% | 0hPa | 2.5V | 00:00:00 | 02:56:03 | 00:00:00 | |
| DF1GD-15 | 2026-09-03 01:30:18 | 46.29714 | 7.85597 | 135° | 89km/h | 9551m | -5.1m/s | -36.9°C | 26.3% | 0hPa | 2.6V | 07:55:00 | 00:00:00 | 00:00:00 | |
| DO3MHA-11 | 2026-09-03 01:30:09 | 46.29867 | 7.85354 | 132° | 89km/h | 9602m | -4.9m/s | -37.3°C | 29.7% | 0hPa | 2.6V | 00:00:00 | 02:55:53 | 00:00:00 | |
| DB0ND-19 | 2026-09-03 01:30:07 | 46.29942 | 7.85232 | 130° | 89km/h | 9626m | -5.0m/s | 0°C | -1.0% | -1.0hPa | 2.6V | 00:00:00 | 00:00:00 | 00:00:00 | |
| DO3MHA-11 | 2026-09-03 01:29:59 | 46.30015 | 7.85110 | 130° | 89km/h | 9651m | -4.8m/s | -37.7°C | 29.0% | 0hPa | 2.6V | 00:00:00 | 02:55:43 | 00:00:00 | |
| DF1GD-15 | 2026-09-03 01:29:58 | 46.30016 | 7.85110 | 131° | 88km/h | 9651m | -4.8m/s | -37.8°C | 25.3% | 0hPa | 2.6V | 07:56:00 | 00:00:00 | 00:00:00 | |
| DB0UT-7 | 2026-09-03 01:29:54 | 46.30089 | 7.84986 | 131° | 89km/h | 9676m | -5.3m/s | -37.9°C | 29.7% | 0hPa | 2.6V | 00:00:00 | 00:00:00 | 00:00:00 | |
| DO3MHA-11 | 2026-09-03 01:29:49 | 46.30164 | 7.84862 | 133° | 89km/h | 9702m | -5.4m/s | -38.1°C | 32.9% | 0hPa | 2.5V | 00:00:00 | 02:55:33 | 00:00:00 | |
| DO3MHA-11 | 2026-09-03 01:29:39 | 46.30314 | 7.84619 | 132° | 88km/h | 9757m | -5.5m/s | -38.6°C | 32.1% | 0hPa | 2.5V | 00:00:00 | 02:55:23 | 00:00:00 | |
| DF1GD-15 | 2026-09-03 01:29:38 | 46.30314 | 7.84619 | 132° | 88km/h | 9757m | -5.5m/s | -38.6°C | 28.0% | 0hPa | 2.5V | 07:56:00 | 00:00:00 | 00:00:00 | |
| DO3MHA-11 | 2026-09-03 01:29:29 | 46.30462 | 7.84379 | 132° | 86km/h | 9811m | -5.4m/s | -39.0°C | 31.7% | 0hPa | 2.5V | 00:00:00 | 02:55:13 | 00:00:00 | |
| DB0UT-7 | 2026-09-03 01:29:24 | 46.30537 | 7.84260 | 132° | 86km/h | 9839m | -5.7m/s | -39.2°C | 32.3% | 0hPa | 2.5V | 00:00:00 | 02:55:08 | 00:00:00 | |
| DF1GD-15 | 2026-09-03 01:29:18 | 46.30611 | 7.84142 | 134° | 88km/h | 9867m | -5.7m/s | -39.5°C | 28.0% | 0hPa | 2.5V | 07:57:00 | 00:00:00 | 00:00:00 | |
| DF1GD-15 | 2026-09-03 01:28:57 | 46.30922 | 7.83652 | 133° | 86km/h | 9983m | -5.6m/s | -40.5°C | 34.2% | 0hPa | 2.5V | 07:57:00 | 00:00:00 | 00:00:00 | |
| DB0UT-7 | 2026-09-03 01:28:54 | 46.30980 | 7.83560 | 134° | 84km/h | 10005m | -5.3m/s | -40.6°C | 45.7% | 0hPa | 2.5V | 00:00:00 | 00:00:00 | 00:00:00 | |
| DO3MHA-11 | 2026-09-03 01:28:49 | 46.31053 | 7.83447 | 133° | 84km/h | 10034m | -5.7m/s | -40.8°C | 51.6% | 0hPa | 2.5V | 07:57:00 | 02:54:33 | 00:00:00 | |
| DO3MHA-11 | 2026-09-03 01:28:39 | 46.31193 | 7.83220 | 132° | 84km/h | 10091m | -5.4m/s | -41.4°C | 59.7% | 0hPa | 2.4V | 00:00:00 | 02:54:23 | 00:00:00 | |
| DF1GD-15 | 2026-09-03 01:28:37 | 46.31207 | 7.83197 | 132° | 84km/h | 10097m | -5.7m/s | -41.4°C | 53.1% | 0hPa | 2.4V | 07:57:00 | 00:00:00 | 00:00:00 | |
| DO3MHA-11 | 2026-09-03 01:28:29 | 46.31332 | 7.82991 | 132° | 82km/h | 10147m | -5.8m/s | -41.6°C | 58.2% | 0hPa | 2.4V | 00:00:00 | 02:54:13 | 00:00:00 | |
| DO3MHA-12 | 2026-09-03 01:28:28 | 46.31345 | 7.82969 | 131° | 82km/h | 10153m | -5.6m/s | -41.6°C | 58.1% | 0hPa | 2.4V | 07:57:00 | 02:54:12 | 00:00:00 | |
| DB0UT-7 | 2026-09-03 01:28:24 | 46.31400 | 7.82877 | 131° | 82km/h | 10176m | -5.5m/s | -41.8°C | 57.9% | 0hPa | 2.4V | 07:57:00 | 02:54:08 | 00:00:00 | |
| DO3MHA-11 | 2026-09-03 01:28:19 | 46.31467 | 7.82762 | 130° | 82km/h | 10203m | -5.8m/s | -42.0°C | 57.2% | 0hPa | 2.5V | 00:00:00 | 02:54:03 | 00:00:00 | |
| DF1GD-15 | 2026-09-03 01:28:17 | 46.31480 | 7.82739 | 131° | 80km/h | 10209m | -5.6m/s | -42.1°C | 50.4% | 0hPa | 2.5V | 07:58:00 | 00:00:00 | 00:00:00 | |
| DO3MHA-12 | 2026-09-03 01:28:16 | 46.31506 | 7.82693 | 131° | 82km/h | 10220m | -5.5m/s | -42.1°C | 57.2% | 0hPa | 2.5V | 00:00:00 | 02:54:00 | 00:00:00 | |
| DO3MHA-11 | 2026-09-03 01:28:09 | 46.31600 | 7.82534 | 131° | 82km/h | 10260m | -5.5m/s | -42.4°C | 57.4% | 0hPa | 2.5V | 00:00:00 | 02:53:53 | 00:00:00 | |
| DO3MHA-12 | 2026-09-03 01:28:06 | 46.31640 | 7.82465 | 130° | 82km/h | 10277m | -5.6m/s | -42.6°C | 57.1% | 0hPa | 2.5V | 00:00:00 | 02:53:50 | 00:00:00 | |
| DO3MHA-11 | 2026-09-03 01:27:59 | 46.31733 | 7.82304 | 130° | 82km/h | 10317m | -5.8m/s | -42.8°C | 56.8% | 0hPa | 2.6V | 00:00:00 | 02:53:43 | 00:00:00 | |
| DF1GD-15 | 2026-09-03 01:27:56 | 46.31760 | 7.82258 | 131° | 80km/h | 10328m | -5.9m/s | -42.9°C | 49.9% | 0hPa | 2.6V | 07:58:00 | 00:00:00 | 00:00:00 | |
| DO3MHA-12 | 2026-09-03 01:27:55 | 46.31786 | 7.82213 | 131° | 82km/h | 10340m | -5.8m/s | -43.0°C | 56.9% | 0hPa | 2.6V | 00:00:00 | 02:53:39 | 00:00:00 | |
| DB0UT-7 | 2026-09-03 01:27:54 | 46.31799 | 7.82190 | 130° | 82km/h | 10346m | -5.7m/s | -43.0°C | 56.9% | 0hPa | 2.6V | 00:00:00 | 00:00:00 | 00:00:00 | |
| DO3MHA-11 | 2026-09-03 01:27:49 | 46.31865 | 7.82076 | 130° | 82km/h | 10374m | -5.7m/s | -43.2°C | 57.8% | 0hPa | 2.6V | 00:00:00 | 02:53:33 | 00:00:00 | |
| DO3MHA-12 | 2026-09-03 01:27:45 | 46.31917 | 7.81983 | 130° | 82km/h | 10398m | -5.8m/s | -43.5°C | 58.5% | 0hPa | 2.5V | 00:00:00 | 02:53:29 | 00:00:00 | |
| DO3MHA-11 | 2026-09-03 01:27:39 | 46.31996 | 7.81843 | 130° | 84km/h | 10433m | -5.8m/s | -43.8°C | 59.0% | 0hPa | 2.5V | 00:00:00 | 02:53:23 | 00:00:00 | |
| DF1GD-15 | 2026-09-03 01:27:36 | 46.32022 | 7.81797 | 131° | 82km/h | 10444m | -5.8m/s | -43.9°C | 51.8% | 0hPa | 2.5V | 07:59:00 | 00:00:00 | 00:00:00 | |
| DO3MHA-12 | 2026-09-03 01:27:35 | 46.32049 | 7.81750 | 130° | 86km/h | 10456m | -5.7m/s | -44.0°C | 59.3% | 0hPa | 2.5V | 00:00:00 | 02:53:19 | 08:30:00 | |
| DO3MHA-11 | 2026-09-03 01:27:29 | 46.32131 | 7.81610 | 131° | 84km/h | 10491m | -5.9m/s | -44.3°C | 59.6% | 0hPa | 2.4V | 07:58:00 | 02:53:13 | 00:00:00 | |
| DB0UT-7 | 2026-09-03 01:27:24 | 46.32200 | 7.81493 | 131° | 86km/h | 10520m | -5.7m/s | -44.5°C | 60.2% | 0hPa | 2.4V | 00:00:00 | 02:53:08 | 00:00:00 | |
| DO3MHA-11 | 2026-09-03 01:27:19 | 46.32270 | 7.81375 | 132° | 84km/h | 10550m | -5.9m/s | -44.8°C | 61.0% | 0hPa | 2.4V | 00:00:00 | 02:53:03 | 00:00:00 | |
| DF1GD-15 | 2026-09-03 01:27:16 | 46.32299 | 7.81329 | 133° | 86km/h | 10561m | -5.8m/s | -44.9°C | 53.8% | 0hPa | 2.4V | 07:59:00 | 00:00:00 | 00:00:00 | |
| DO3MHA-11 | 2026-09-03 01:27:09 | 46.32414 | 7.81145 | 133° | 86km/h | 10609m | -5.8m/s | -45.3°C | 62.0% | 0hPa | 2.4V | 00:00:00 | 02:52:53 | 00:00:00 | |
| DO3MHA-11 | 2026-09-03 01:26:59 | 46.32562 | 7.80916 | 133° | 88km/h | 10667m | -5.8m/s | -45.8°C | 61.1% | 0hPa | 2.4V | 00:00:00 | 02:52:43 | 00:00:00 | |
| DF1GD-15 | 2026-09-03 01:26:56 | 46.32592 | 7.80870 | 135° | 88km/h | 10678m | -5.7m/s | -45.9°C | 53.1% | 0hPa | 2.4V | 07:59:00 | 00:00:00 | 00:00:00 | |
| DO3MHA-12 | 2026-09-03 01:26:53 | 46.32653 | 7.80777 | 134° | 88km/h | 10702m | -5.8m/s | -46.0°C | 60.4% | 0hPa | 2.4V | 00:00:00 | 02:52:37 | 00:00:00 | |
| DO3MHA-11 | 2026-09-03 01:26:49 | 46.32714 | 7.80684 | 134° | 89km/h | 10725m | -6.0m/s | -46.2°C | 59.8% | 0hPa | 2.4V | 00:00:00 | 02:52:33 | 00:00:00 | |
| DO3MHA-12 | 2026-09-03 01:26:43 | 46.32807 | 7.80543 | 135° | 89km/h | 10761m | -6.0m/s | -46.5°C | 60.7% | 0hPa | 2.4V | 00:00:00 | 02:52:27 | 00:00:00 | |
| DO3MHA-11 | 2026-09-03 01:26:39 | 46.32870 | 7.80449 | 134° | 88km/h | 10785m | -6.1m/s | -46.7°C | 61.7% | 0hPa | 2.4V | 00:00:00 | 02:52:23 | 00:00:00 | |
| DF1GD-15 | 2026-09-03 01:26:35 | 46.32917 | 7.80378 | 135° | 89km/h | 10803m | -6.0m/s | -47.0°C | 53.8% | 0hPa | 2.4V | 08:00:00 | 00:00:00 | 00:00:00 | |
| DO3MHA-12 | 2026-09-03 01:26:30 | 46.33010 | 7.80240 | 135° | 88km/h | 10839m | -6.0m/s | -47.2°C | 61.7% | 0hPa | 2.4V | 00:00:00 | 02:52:14 | 00:00:00 | |
| DO3MHA-11 | 2026-09-03 01:26:29 | 46.33026 | 7.80217 | 135° | 88km/h | 10845m | -6.1m/s | -47.3°C | 61.5% | 0hPa | 2.6V | 00:00:00 | 02:52:13 | 00:00:00 | |
| DB0UT-7 | 2026-09-03 01:26:23 | 46.33120 | 7.80080 | 135° | 88km/h | 10882m | -6.0m/s | -47.6°C | 59.7% | 0hPa | 2.6V | 00:00:00 | 02:52:07 | 00:00:00 | |
| DO3MHA-12 | 2026-09-03 01:26:20 | 46.33167 | 7.80012 | 136° | 71km/h | 10900m | -6.0m/s | -47.7°C | 58.4% | 0hPa | 2.6V | 00:00:00 | 02:52:04 | 00:00:00 | |
| DO3MHA-11 | 2026-09-03 01:26:19 | 46.33183 | 7.79990 | 136° | 88km/h | 10906m | -6.2m/s | -47.7°C | 58.3% | 0hPa | 2.6V | 00:00:00 | 02:52:03 | 00:00:00 | |
| DF1GD-15 | 2026-09-03 01:26:14 | 46.33246 | 7.79900 | 136° | 88km/h | 10930m | -6.2m/s | -47.9°C | 49.0% | 0hPa | 2.5V | 08:00:00 | 00:00:00 | 00:00:00 | |
| DO3MHA-11 | 2026-09-03 01:26:09 | 46.33340 | 7.79766 | 136° | 88km/h | 10968m | -6.2m/s | -48.1°C | 55.9% | 0hPa | 2.5V | 07:59:00 | 02:51:53 | 00:00:00 | |
| DO3MHA-11 | 2026-09-03 01:25:59 | 46.33498 | 7.79540 | 135° | 88km/h | 11029m | -6.2m/s | -48.6°C | 54.5% | 0hPa | 2.5V | 00:00:00 | 02:51:43 | 00:00:00 | |
| DB0UT-7 | 2026-09-03 01:25:53 | 46.33592 | 7.79403 | 135° | 86km/h | 11067m | -6.2m/s | -48.8°C | 54.0% | 0hPa | 2.5V | 00:00:00 | 00:00:00 | 00:00:00 | |
| DO3MHA-11 | 2026-09-03 01:25:49 | 46.33654 | 7.79311 | 135° | 88km/h | 11092m | -6.2m/s | -49.0°C | 54.5% | 0hPa | 2.5V | 00:00:00 | 02:51:33 | 00:00:00 | |
| DO3MHA-11 | 2026-09-03 01:25:39 | 46.33811 | 7.79082 | 135° | 82km/h | 11155m | -6.3m/s | -49.5°C | 54.8% | 0hPa | 2.5V | 00:00:00 | 02:51:23 | 00:00:00 | |
| DF1GD-15 | 2026-09-03 01:25:33 | 46.33889 | 7.78971 | 136° | 88km/h | 11186m | -6.2m/s | -49.8°C | 0% | 0hPa | 2.5V | 00:00:00 | 00:00:00 | 00:00:00 | |
| DB0UT-7 | 2026-09-03 01:25:23 | 46.34057 | 7.78732 | 136° | 82km/h | 11255m | -6.3m/s | -50.2°C | 54.0% | 0hPa | 2.5V | 00:00:00 | 02:51:07 | 00:00:00 | |
| DF1GD-15 | 2026-09-03 01:25:12 | 46.34206 | 7.78521 | 137° | 82km/h | 11318m | -6.4m/s | -50.8°C | 0% | 0hPa | 2.5V | 00:00:00 | 00:00:00 | 00:00:00 | |
| DB0UT-7 | 2026-09-03 01:24:53 | 46.34507 | 7.78110 | 138° | 78km/h | 11446m | -6.4m/s | -51.8°C | 53.6% | 0hPa | 2.5V | 00:00:00 | 00:00:00 | 00:00:00 | |
| DB0UT-7 | 2026-09-03 01:24:23 | 46.34945 | 7.77519 | 136° | 77km/h | 11638m | -6.3m/s | -53.1°C | 50.1% | 0hPa | 2.5V | 00:00:00 | 02:50:07 | 00:00:00 | |
| DB0UT-7 | 2026-09-03 01:23:53 | 46.35362 | 7.76943 | 137° | 73km/h | 11834m | -6.3m/s | -54.6°C | 52.3% | 0hPa | 2.5V | 00:00:00 | 00:00:00 | 00:00:00 | |
| DF1GD-15 | 2026-09-03 01:23:49 | 46.35403 | 7.76886 | 137° | 75km/h | 11853m | -6.5m/s | -54.8°C | 0% | 0hPa | 2.5V | 00:00:00 | 00:00:00 | 00:00:00 | |
| DF1GD-15 | 2026-09-03 01:23:28 | 46.35693 | 7.76506 | 138° | 73km/h | 11988m | -6.6m/s | -55.9°C | 0% | 0hPa | 2.5V | 00:00:00 | 00:00:00 | 00:00:00 | |
| DB0UT-7 | 2026-09-03 01:23:23 | 46.35772 | 7.76397 | 136° | 73km/h | 12027m | -6.3m/s | -56.0°C | 52.6% | 0hPa | 2.5V | 00:00:00 | 02:49:07 | 00:00:00 | |
| DO3MHA-11 | 2026-09-03 01:23:21 | 46.35798 | 7.76360 | 136° | 73km/h | 12040m | -6.4m/s | -56.1°C | 52.2% | 0hPa | 2.5V | 00:00:00 | 02:49:05 | 00:00:00 | |
| DO3MHA-11 | 2026-09-03 01:23:11 | 46.35930 | 7.76176 | 136° | 73km/h | 12105m | -6.4m/s | -56.5°C | 51.1% | 0hPa | 2.5V | 08:02:00 | 02:48:55 | 00:00:00 | |
| DF1GD-15 | 2026-09-03 01:23:06 | 46.35982 | 7.76102 | 136° | 73km/h | 12131m | -6.4m/s | -56.7°C | 0% | 0hPa | 2.5V | 08:03:00 | 00:00:00 | 00:00:00 | |
| DO3MHA-11 | 2026-09-03 01:23:01 | 46.36061 | 7.75992 | 137° | 75km/h | 12170m | -6.6m/s | -57.0°C | 49.9% | 0hPa | 2.5V | 00:00:00 | 02:48:45 | 00:00:00 | |
| DB0UT-7 | 2026-09-03 01:22:53 | 46.36171 | 7.75848 | 140° | 71km/h | 12222m | -6.6m/s | -57.4°C | 48.1% | 0hPa | 2.5V | 00:00:00 | 00:00:00 | 00:00:00 | |
| DF1GD-15 | 2026-09-03 01:22:46 | 46.36258 | 7.75746 | 143° | 73km/h | 12261m | -6.4m/s | -57.6°C | 0% | 0hPa | 2.5V | 08:03:00 | 00:00:00 | 00:00:00 | |
| DF1GD-15 | 2026-09-03 01:22:25 | 46.36563 | 7.75417 | 146° | 69km/h | 12397m | -6.6m/s | -58.6°C | 0% | 0hPa | 2.5V | 08:04:00 | 00:00:00 | 00:00:00 | |
| DB0UT-7 | 2026-09-03 01:22:23 | 46.36606 | 7.75372 | 144° | 69km/h | 12417m | -6.5m/s | -58.7°C | 45.1% | 0hPa | 2.5V | 08:03:00 | 02:48:07 | 00:00:00 | |
| DF1GD-15 | 2026-09-03 01:22:00 | 46.36916 | 7.75034 | 143° | 68km/h | 12562m | -6.8m/s | -60.0°C | 0% | 0hPa | 2.5V | 08:04:00 | 00:00:00 | 00:00:00 | |
| DH7VM-15 | 2026-09-03 01:21:55 | 46.36982 | 7.74957 | 143° | 68km/h | 12596m | -6.7m/s | -60.3°C | 36.2% | 0hPa | 2.5V | 00:00:00 | 00:00:00 | 00:00:00 | |
| DB0UT-7 | 2026-09-03 01:21:53 | 46.37023 | 7.74911 | 142° | 71km/h | 12615m | -6.5m/s | -60.4°C | 47.2% | 0hPa | 2.5V | 00:00:00 | 00:00:00 | 00:00:00 | |
| DF1GD-15 | 2026-09-03 01:21:40 | 46.37186 | 7.74711 | 138° | 71km/h | 12694m | -6.5m/s | 0°C | 0% | 0hPa | 2.5V | 00:00:00 | 00:00:00 | 00:00:00 | |
| DB0UT-7 | 2026-09-03 01:21:23 | 46.37424 | 7.74385 | 136° | 84km/h | 12811m | -6.5m/s | -61.3°C | 44.7% | 0hPa | 2.5V | 00:00:00 | 02:47:07 | 00:00:00 | |
| DF1GD-15 | 2026-09-03 01:21:19 | 46.37465 | 7.74327 | 136° | 77km/h | 12831m | -6.5m/s | 0°C | 0% | 0hPa | 2.5V | 00:00:00 | 00:00:00 | 00:00:00 | |
| DO3MHA-11 | 2026-09-03 01:21:07 | 46.37645 | 7.74046 | 133° | 93km/h | 12915m | -6.3m/s | -61.3°C | 39.0% | 0hPa | 2.5V | 00:00:00 | 02:46:51 | 00:00:00 | |
| DF1GD-15 | 2026-09-03 01:20:58 | 46.37766 | 7.73853 | 133° | 93km/h | 12967m | -6.5m/s | 0°C | 0% | 0hPa | 2.5V | 00:00:00 | 00:00:00 | 00:00:00 | |
| DB0UT-7 | 2026-09-03 01:20:53 | 46.37860 | 7.73700 | 132° | 95km/h | 13006m | -6.5m/s | -61.6°C | 35.0% | 0hPa | 2.5V | 00:00:00 | 00:00:00 | 00:00:00 | |
| DO3MHA-11 | 2026-09-03 01:20:49 | 46.37925 | 7.73596 | 134° | 97km/h | 13033m | -6.4m/s | -61.5°C | 33.5% | 0hPa | 2.5V | 00:00:00 | 02:46:33 | 00:00:00 | |
| DO3MHA-11 | 2026-09-03 01:20:39 | 46.38099 | 7.73350 | 139° | 95km/h | 13099m | -6.4m/s | -61.3°C | 30.1% | 0hPa | 2.5V | 00:00:00 | 02:46:23 | 00:00:00 | |
| DO3MHA-11 | 2026-09-03 01:20:29 | 46.38273 | 7.73115 | 136° | 91km/h | 13165m | -6.4m/s | -61.4°C | 27.2% | 0hPa | 2.5V | 00:00:00 | 02:46:13 | 00:00:00 | |
| DB0UT-7 | 2026-09-03 01:20:23 | 46.38373 | 7.72973 | 137° | 91km/h | 13204m | -6.4m/s | -61.0°C | 25.4% | 0hPa | 2.5V | 00:00:00 | 02:46:07 | 00:00:00 | |
| DO3MHA-11 | 2026-09-03 01:20:19 | 46.38439 | 7.72880 | 135° | 91km/h | 13230m | -6.7m/s | -61.1°C | 24.5% | 0hPa | 2.5V | 00:00:00 | 02:46:03 | 00:00:00 | |
| DB0UT-7 | 2026-09-03 01:19:53 | 46.38840 | 7.72240 | 133° | 93km/h | 13406m | -6.7m/s | -60.2°C | 18.4% | 0hPa | 2.5V | 00:00:00 | 00:00:00 | 00:00:00 | |
| DO3MHA-11 | 2026-09-03 01:19:44 | 46.38980 | 7.72023 | 134° | 91km/h | 13468m | -6.9m/s | -59.8°C | 16.8% | 0hPa | 2.5V | 00:00:00 | 02:45:28 | 00:00:00 | |
| DB0UT-7 | 2026-09-03 01:19:15 | 46.39447 | 7.71307 | 130° | 89km/h | 13672m | -7.1m/s | -60.1°C | 14.4% | 0hPa | 2.5V | 00:00:00 | 02:44:59 | 00:00:00 | |
| DO3MHA-11 | 2026-09-03 01:19:14 | 46.39462 | 7.71281 | 131° | 93km/h | 13679m | -7.0m/s | -60.1°C | 14.4% | 0hPa | 2.5V | 00:00:00 | 02:44:58 | 00:00:00 | |
| DO3MHA-11 | 2026-09-03 01:19:02 | 46.39643 | 7.70965 | 128° | 89km/h | 13765m | -7.1m/s | -60.6°C | 14.3% | 0hPa | 2.5V | 08:07:00 | 02:44:46 | 00:00:00 | |
| IN3HCDX | 2026-09-03 01:18:55 | 46.39742 | 7.70784 | 130° | 88km/h | 13817m | -7.2m/s | -60.5°C | 8.7% | 0hPa | 2.5V | 08:07:00 | 00:00:00 | 00:00:00 | |
| DO3MHA-11 | 2026-09-03 01:18:52 | 46.39784 | 7.70711 | 130° | 82km/h | 13838m | -7.1m/s | -60.4°C | 13.8% | 0hPa | 2.5V | 00:00:00 | 02:44:36 | 00:00:00 | |
| DB0UT-7 | 2026-09-03 01:18:45 | 46.39876 | 7.70549 | 130° | 80km/h | 13890m | -7.4m/s | -60.4°C | 13.7% | 0hPa | 2.5V | 00:00:00 | 00:00:00 | 00:00:00 | |
| DO3MHA-11 | 2026-09-03 01:18:42 | 46.39913 | 7.70482 | 128° | 78km/h | 13912m | -7.2m/s | -60.4°C | 13.7% | 0hPa | 2.5V | 00:00:00 | 02:44:26 | 00:00:00 | |
| IN3HCDX | 2026-09-03 01:18:33 | 46.40010 | 7.70298 | 128° | 80km/h | 13970m | -7.4m/s | -60.5°C | 8.4% | 0hPa | 2.5V | 08:07:00 | 00:00:00 | 00:00:00 | |
| DO3MHA-11 | 2026-09-03 01:18:32 | 46.40034 | 7.70251 | 126° | 80km/h | 13985m | -7.5m/s | -60.5°C | 13.6% | 0hPa | 2.5V | 00:00:00 | 02:44:16 | 00:00:00 | |
| DO3MHA-11 | 2026-09-03 01:18:22 | 46.40146 | 7.70007 | 122° | 44km/h | 14060m | -7.4m/s | -60.4°C | 13.4% | 0hPa | 2.5V | 00:00:00 | 02:44:06 | 00:00:00 | |
| DB0UT-7 | 2026-09-03 01:18:15 | 46.40220 | 7.69830 | 120° | 89km/h | 14112m | -7.5m/s | -60.8°C | 13.4% | 0hPa | 2.5V | 00:00:00 | 02:43:59 | 00:00:00 | |
| IN3HCDX | 2026-09-03 01:18:12 | 46.40240 | 7.69777 | 120° | 82km/h | 14127m | -7.6m/s | -60.9°C | 8.2% | 0hPa | 2.5V | 00:00:00 | 00:00:00 | 00:00:00 | |
| IN3HCDX | 2026-09-03 01:17:52 | 46.40460 | 7.69174 | 118° | 95km/h | 14288m | -7.7m/s | -61.7°C | 7.6% | 0hPa | 2.5V | 00:00:00 | 00:00:00 | 00:00:00 | |
| DB0UT-7 | 2026-09-03 01:17:45 | 46.40547 | 7.68958 | 123° | 95km/h | 14341m | -7.7m/s | -62.1°C | 12.3% | 0hPa | 2.5V | 08:08:00 | 00:00:00 | 00:00:00 | |
| IN3HCDX | 2026-09-03 01:17:30 | 46.40743 | 7.68542 | 128° | 97km/h | 14449m | -7.9m/s | -61.1°C | 5.7% | 0hPa | 2.5V | 00:00:00 | 00:00:00 | 00:00:00 | |
| IN3HCDX | 2026-09-03 01:16:57 | 46.41228 | 7.67815 | 142° | 71km/h | 14708m | -7.9m/s | -60.4°C | 4.5% | 0hPa | 2.5V | 08:09:00 | 00:00:00 | 00:00:00 | |
| DB0UT-7 | 2026-09-03 01:16:45 | 46.41390 | 7.67627 | 140° | 58km/h | 14813m | -8.1m/s | -60.5°C | 8.5% | 0hPa | 2.5V | 00:00:00 | 00:00:00 | 00:00:00 | |
| IN3HCDX | 2026-09-03 01:16:32 | 46.41514 | 7.67457 | 134° | 57km/h | 14910m | -7.9m/s | -61.0°C | 4.1% | 0hPa | 2.5V | 00:00:00 | 00:00:00 | 00:00:00 | |
| DB0UT-7 | 2026-09-03 01:16:15 | 46.41690 | 7.67150 | 130° | 71km/h | 15057m | -8.1m/s | -61.4°C | 8.1% | 0hPa | 2.5V | 00:00:00 | 02:41:59 | 00:00:00 | |
| IN3HCDX | 2026-09-03 01:16:11 | 46.41720 | 7.67097 | 129° | 62km/h | 15081m | -8.3m/s | -61.5°C | 3.9% | 0hPa | 2.5V | 00:00:00 | 00:00:00 | 00:00:00 | |
| IN3HCDX | 2026-09-03 01:15:51 | 46.41944 | 7.66679 | 128° | 78km/h | 15255m | -8.3m/s | -62.4°C | 3.7% | 0hPa | 2.5V | 00:00:00 | 00:00:00 | 00:00:00 | |
| DB0UT-7 | 2026-09-03 01:15:45 | 46.42019 | 7.66539 | 130° | 71km/h | 15304m | -8.1m/s | -62.3°C | 8.2% | 0hPa | 2.5V | 00:00:00 | 00:00:00 | 00:00:00 | |
| IN3HCDX | 2026-09-03 01:15:23 | 46.42290 | 7.66127 | 137° | 62km/h | 15481m | -8.5m/s | -61.7°C | 3.0% | 0hPa | 2.5V | 08:11:00 | 00:00:00 | 00:00:00 | |
| DB0UT-7 | 2026-09-03 01:15:15 | 46.42381 | 7.65977 | 128° | 73km/h | 15558m | -8.4m/s | -61.6°C | 7.0% | 0hPa | 2.5V | 00:00:00 | 02:40:59 | 00:00:00 | |
| DB0ND-19 | 2026-09-03 01:15:07 | 46.42461 | 7.65825 | 125° | 68km/h | 15626m | -8.6m/s | -61.5°C | -1.0% | -1.0hPa | 2.5V | 00:00:00 | 00:00:00 | 00:00:00 | |
| DB0UT-7 | 2026-09-03 01:14:45 | 46.42712 | 7.65347 | 135° | 68km/h | 15818m | -8.6m/s | -60.6°C | 6.5% | 0hPa | 2.5V | 00:00:00 | 00:00:00 | 00:00:00 | |
| IN3HCDX | 2026-09-03 01:14:42 | 46.42747 | 7.65293 | 134° | 66km/h | 15844m | -8.7m/s | -60.4°C | 2.4% | 0hPa | 2.5V | 08:12:00 | 00:00:00 | 00:00:00 | |
| DB0UT-7 | 2026-09-03 01:14:15 | 46.43006 | 7.64733 | 121° | 66km/h | 16087m | -9.1m/s | -59.3°C | 5.9% | 0hPa | 2.5V | 00:00:00 | 02:39:59 | 00:00:00 | |
| IN3HCDX | 2026-09-03 01:13:58 | 46.43198 | 7.64388 | 137° | 66km/h | 16243m | -9.3m/s | -58.7°C | 2.0% | 0hPa | 2.5V | 08:12:00 | 00:00:00 | 00:00:00 | |
| DB0UT-7 | 2026-09-03 01:13:45 | 46.43322 | 7.64191 | 125° | 55km/h | 16365m | -9.4m/s | -58.0°C | 5.2% | 0hPa | 2.5V | 00:00:00 | 00:00:00 | 00:00:00 | |
| IN3HCDX | 2026-09-03 01:13:36 | 46.43370 | 7.64066 | 115° | 49km/h | 16442m | -9.8m/s | -58.2°C | 1.8% | 0hPa | 2.5V | 08:12:00 | 00:00:00 | 00:00:00 | |
| DB0UT-7 | 2026-09-03 01:13:15 | 46.43508 | 7.63657 | 119° | 51km/h | 16655m | -9.8m/s | -58.3°C | 5.5% | 0hPa | 2.5V | 08:12:00 | 02:38:59 | 00:00:00 | |
| IW2NTF | 2026-09-03 01:13:11 | 46.43591 | 7.63488 | 132° | 58km/h | 16744m | -10.1m/s | -58°C | 5.4% | 0hPa | 2.6V | 08:12:59 | 02:38:50 | 00:00:00 | |
| IW2NTF | 2026-09-03 01:12:59 | 46.43693 | 7.63329 | 127° | 42km/h | 16865m | -10.1m/s | -56.6°C | 4.9% | 0hPa | 2.6V | 08:13:11 | 02:38:38 | 00:00:00 | |
| IN3HCDX | 2026-09-03 01:12:56 | 46.43679 | 7.63354 | 131° | 44km/h | 16845m | -10.0m/s | -57.0°C | 1.7% | 0hPa | 2.5V | 08:13:00 | 00:00:00 | 00:00:00 | |
| IW2NTF | 2026-09-03 01:12:48 | 46.43750 | 7.63181 | 112° | 42km/h | 16987m | -10.1m/s | -56.3°C | 4.7% | 0hPa | 2.5V | 08:13:23 | 02:38:26 | 00:00:00 | |
| DB0UT-7 | 2026-09-03 01:12:45 | 46.43738 | 7.63221 | 114° | 40km/h | 16957m | -10.2m/s | -56.0°C | 4.6% | 0hPa | 2.6V | 00:00:00 | 00:00:00 | 00:00:00 | |
| IW2NTF | 2026-09-03 01:12:37 | 46.43792 | 7.63026 | 111° | 46km/h | 17089m | -10.1m/s | -56.3°C | 4.8% | 0hPa | 2.6V | 08:13:33 | 02:38:16 | 00:00:00 | |
| IN3HCDX | 2026-09-03 01:12:34 | 46.43779 | 7.63073 | 114° | 46km/h | 17059m | -9.9m/s | -56.2°C | 1.5% | 0hPa | 2.6V | 08:13:00 | 00:00:00 | 00:00:00 | |
| IW2NTF | 2026-09-03 01:12:27 | 46.43843 | 7.62865 | 119° | 33km/h | 17212m | -10.5m/s | -56°C | 4.6% | 0hPa | 2.6V | 08:13:45 | 02:38:04 | 00:00:00 | |
| DB0UT-7 | 2026-09-03 01:12:15 | 46.43861 | 7.62815 | 112° | 35km/h | 17264m | -10.1m/s | -56.0°C | 4.7% | 0hPa | 2.5V | 00:00:00 | 02:37:59 | 00:00:00 | |
| IN3HCDX | 2026-09-03 01:12:14 | 46.43864 | 7.62805 | 113° | 29km/h | 17274m | -10.1m/s | -56.0°C | 1.5% | 0hPa | 2.5V | 00:00:00 | 00:00:00 | 00:00:00 | |
| IW2NTF | 2026-09-03 01:12:11 | 46.43872 | 7.62765 | 106° | 31km/h | 17315m | -10.3m/s | -55.9°C | 4.6% | 0hPa | 2.5V | 08:13:55 | 02:37:54 | 00:00:00 | |
| DK5PH-5 | 2026-09-03 01:12:10 | 46.43872 | 7.62764 | 107° | 35km/h | 17315m | -10.3m/s | -55.8°C | 4.6% | 0hPa | 2.5V | 00:00:00 | 02:37:54 | 00:00:00 | |
| IW2NTF | 2026-09-03 01:12:05 | 46.43895 | 7.62656 | 104° | 35km/h | 17420m | -10.7m/s | -56.2°C | 4.7% | 0hPa | 2.5V | 08:14:05 | 02:37:44 | 00:00:00 | |
| IN3HCDX | 2026-09-03 01:11:53 | 46.43917 | 7.62565 | 117° | 40km/h | 17492m | -10.6m/s | -56.6°C | 1.6% | 0hPa | 2.6V | 00:00:00 | 00:00:00 | 00:00:00 | |
| DB0UT-7 | 2026-09-03 01:11:45 | 46.43956 | 7.62472 | 123° | 22km/h | 17577m | -10.4m/s | -56.4°C | 4.7% | 0hPa | 2.6V | 00:00:00 | 00:00:00 | 00:00:00 | |
| DK5PH-5 | 2026-09-03 01:11:40 | 46.43978 | 7.62425 | 125° | 33km/h | 17630m | -10.6m/s | -56.3°C | 4.6% | 0hPa | 2.5V | 08:14:00 | 02:37:24 | 00:00:00 | |
| IW2NTF | 2026-09-03 01:11:38 | 46.44000 | 7.62373 | 114° | 20km/h | 17704m | -10.7m/s | -56.6°C | 4.6% | 0hPa | 2.6V | 08:14:32 | 02:37:17 | 00:00:00 | |
| IN3HCDX | 2026-09-03 01:11:31 | 46.44002 | 7.62366 | 111° | 20km/h | 17715m | -10.5m/s | -56.7°C | 1.5% | 0hPa | 2.5V | 00:00:00 | 00:00:00 | 00:00:00 | |
| IW2NTF | 2026-09-03 01:11:28 | 46.44013 | 7.62308 | 100° | 20km/h | 17811m | -10.7m/s | -57.3°C | 4.8% | 0hPa | 2.5V | 08:14:42 | 02:37:07 | 00:00:00 | |
| DF7PN | 2026-09-03 01:11:24 | 46.44013 | 7.62308 | 100° | 18km/h | 17811m | -10.7m/s | -57.3°C | 1.4% | -1.0hPa | 2.5V | 00:00:00 | 00:00:00 | 00:00:00 | |
| IW2NTF | 2026-09-03 01:11:16 | 46.44012 | 7.62237 | 76° | 20km/h | 17919m | -10.9m/s | -57.8°C | 4.9% | 0hPa | 2.5V | 08:14:52 | 02:36:57 | 00:00:00 | |
| DB0UT-7 | 2026-09-03 01:11:15 | 46.44014 | 7.62252 | 80° | 27km/h | 17898m | -10.5m/s | -57.7°C | 4.9% | 0hPa | 2.5V | 00:00:00 | 02:36:59 | 00:00:00 | |
| IN3HCDX | 2026-09-03 01:11:10 | 46.44010 | 7.62223 | 77° | 20km/h | 17940m | -10.4m/s | -57.9°C | 1.6% | 0hPa | 2.5V | 08:15:00 | 00:00:00 | 00:00:00 | |
| IW2NTF | 2026-09-03 01:11:08 | 46.43999 | 7.62162 | 68° | 22km/h | 18026m | -10.6m/s | -57.9°C | 5.1% | 0hPa | 2.5V | 08:15:02 | 02:36:47 | 00:00:00 | |
| IW2NTF | 2026-09-03 01:10:59 | 46.43978 | 7.62060 | 84° | 33km/h | 18134m | -10.8m/s | -58.3°C | 5.3% | 0hPa | 2.6V | 08:15:12 | 02:36:37 | 00:00:00 | |
| DF7PN | 2026-09-03 01:10:53 | 46.43977 | 7.62048 | 86° | 33km/h | 18145m | -11.1m/s | -58.3°C | 1.5% | -1.0hPa | 2.5V | 00:00:00 | 00:00:00 | 00:00:00 | |
| IN3HCDX | 2026-09-03 01:10:50 | 46.43977 | 7.62035 | 91° | 35km/h | 18157m | -10.8m/s | -58.1°C | 1.7% | 0hPa | 2.5V | 08:15:00 | 00:00:00 | 00:00:00 | |
| IW2NTF | 2026-09-03 01:10:48 | 46.43990 | 7.61933 | 109° | 38km/h | 18245m | -10.9m/s | -57.4°C | 5% | 0hPa | 2.5V | 08:15:22 | 02:36:27 | 00:00:00 | |
| DB0UT-7 | 2026-09-03 01:10:45 | 46.43984 | 7.61958 | 106° | 37km/h | 18223m | -11.0m/s | -57.6°C | 5.0% | 0hPa | 2.5V | 00:00:00 | 00:00:00 | 00:00:00 | |
| IW2NTF | 2026-09-03 01:10:38 | 46.44046 | 7.61814 | 133° | 40km/h | 18355m | -10.9m/s | -57.1°C | 4.8% | 0hPa | 2.5V | 08:15:32 | 02:36:17 | 00:00:00 | |
| IN3HCDX | 2026-09-03 01:10:30 | 46.44067 | 7.61784 | 137° | 37km/h | 18389m | -11.0m/s | -57.1°C | 1.5% | 0hPa | 2.5V | 00:00:00 | 00:00:00 | 00:00:00 | |
| IW2NTF | 2026-09-03 01:10:29 | 46.44112 | 7.61725 | 135° | 33km/h | 18466m | -10.9m/s | -57.1°C | 4.7% | 0hPa | 2.5V | 08:15:42 | 02:36:07 | 00:00:00 | |
| DB0ND-19 | 2026-09-03 01:10:28 | 46.44112 | 7.61725 | 135° | 33km/h | 18467m | -10.9m/s | 0°C | -1.0% | -1.0hPa | 2.6V | 00:00:00 | 00:00:00 | 00:00:00 | |
| DK5PH-5 | 2026-09-03 01:10:23 | 46.44112 | 7.61725 | 136° | 37km/h | 18467m | -10.9m/s | -57.1°C | 4.7% | 0hPa | 2.6V | 00:00:00 | 02:36:07 | 00:00:00 | |
| DF7PN | 2026-09-03 01:10:22 | 46.44123 | 7.61708 | 134° | 31km/h | 18489m | -11.2m/s | -57.2°C | 1.3% | -1.0hPa | 2.6V | 00:00:00 | 00:00:00 | 00:00:00 | |
| IW2NTF | 2026-09-03 01:10:19 | 46.44159 | 7.61644 | 118° | 24km/h | 18579m | -11.5m/s | -57.6°C | 4.9% | 0hPa | 2.6V | 08:15:52 | 02:35:57 | 00:00:00 | |
| DB0UT-7 | 2026-09-03 01:10:15 | 46.44152 | 7.61659 | 124° | 29km/h | 18557m | -11.2m/s | -57.4°C | 4.9% | 0hPa | 2.5V | 00:00:00 | 02:35:59 | 00:00:00 | |
| IW2NTF | 2026-09-03 01:10:08 | 46.44191 | 7.61550 | 123° | 33km/h | 18693m | -11.3m/s | -58.1°C | 5% | 0hPa | 2.6V | 08:16:02 | 02:35:47 | 00:00:00 | |
| IN3HCDX | 2026-09-03 01:10:08 | 46.44169 | 7.61611 | 114° | 27km/h | 18624m | -11.7m/s | -57.8°C | 1.5% | 0hPa | 2.6V | 00:00:00 | 00:00:00 | 00:00:00 | |
| IW2NTF | 2026-09-03 01:09:55 | 46.44242 | 7.61438 | 115° | 27km/h | 18831m | -11.5m/s | -57.7°C | 4.9% | 0hPa | 2.6V | 08:16:14 | 02:35:35 | 00:00:00 | |
| DF7PN | 2026-09-03 01:09:51 | 46.44257 | 7.61380 | 103° | 29km/h | 18901m | -11.8m/s | -58.0°C | 1.3% | -1.0hPa | 2.5V | 00:00:00 | 00:00:00 | 00:00:00 | |
| IN3HCDX | 2026-09-03 01:09:47 | 46.44250 | 7.61410 | 112° | 27km/h | 18867m | -11.5m/s | -57.9°C | 1.5% | 0hPa | 2.5V | 08:17:00 | 00:00:00 | 00:00:00 | |
| IW2NTF | 2026-09-03 01:09:45 | 46.44263 | 7.61335 | 98° | 33km/h | 18948m | -12m/s | -58.1°C | 5% | 0hPa | 2.5V | 08:16:24 | 02:35:25 | 00:00:00 | |
| IW2NTF | 2026-09-03 01:09:35 | 46.44281 | 7.61187 | 101° | 38km/h | 19090m | -12.2m/s | -58°C | 5.1% | 0hPa | 2.6V | 08:16:36 | 02:35:13 | 00:00:00 | |
| IN3HCDX | 2026-09-03 01:09:27 | 46.44285 | 7.61159 | 101° | 40km/h | 19114m | -11.8m/s | -57.6°C | 1.5% | 0hPa | 2.5V | 08:17:00 | 00:00:00 | 00:00:00 | |
| IW2NTF | 2026-09-03 01:09:24 | 46.44302 | 7.61020 | 103° | 55km/h | 19210m | -11.7m/s | -57.7°C | 5.2% | 0hPa | 2.5V | 08:16:46 | 02:35:03 | 00:00:00 | |
| DF7PN | 2026-09-03 01:09:20 | 46.44302 | 7.61020 | 103° | 53km/h | 19210m | -11.7m/s | -57.7°C | 1.3% | -1.0hPa | 2.5V | 00:00:00 | 00:00:00 | 00:00:00 | |
| IW2NTF | 2026-09-03 01:09:15 | 46.44345 | 7.60853 | 110° | 44km/h | 19330m | -11.9m/s | -57.2°C | 5.2% | 0hPa | 2.5V | 08:16:56 | 02:34:53 | 00:00:00 | |
| IW2NTF | 2026-09-03 01:09:05 | 46.44390 | 7.60704 | 118° | 51km/h | 19452m | -12.4m/s | -55.5°C | 4.6% | 0hPa | 2.5V | 08:17:06 | 02:34:43 | 00:00:00 | |
| IN3HCDX | 2026-09-03 01:09:04 | 46.44364 | 7.60780 | 115° | 44km/h | 19391m | -12.2m/s | -56.5°C | 1.4% | 0hPa | 2.5V | 08:17:00 | 00:00:00 | 00:00:00 | |
| IW2NTF | 2026-09-03 01:08:54 | 46.44458 | 7.60535 | 126° | 47km/h | 19574m | -11.7m/s | -55.5°C | 4.9% | 0hPa | 2.5V | 08:17:16 | 02:34:33 | 00:00:00 | |
| DF7PN | 2026-09-03 01:08:49 | 46.44466 | 7.60521 | 128° | 47km/h | 19586m | -12.0m/s | -55.5°C | 1.3% | -1.0hPa | 2.6V | 00:00:00 | 00:00:00 | 00:00:00 | |
| IW2NTF | 2026-09-03 01:08:45 | 46.44542 | 7.60418 | 140° | 42km/h | 19697m | -12.6m/s | -53.2°C | 4% | 0hPa | 2.6V | 08:17:26 | 02:34:23 | 00:00:00 | |
| IN3HCDX | 2026-09-03 01:08:42 | 46.44508 | 7.60460 | 141° | 47km/h | 19648m | -12.6m/s | -54.1°C | 1.3% | 0hPa | 2.6V | 08:17:00 | 00:00:00 | 00:00:00 | |
| IW2NTF | 2026-09-03 01:08:34 | 46.44613 | 7.60332 | 142° | 29km/h | 19822m | -12m/s | -53°C | 3.8% | 0hPa | 2.6V | 08:17:36 | 02:34:13 | 00:00:00 | |
| DK5PH-5 | 2026-09-03 01:08:31 | 46.44601 | 7.60345 | 143° | 18km/h | 19797m | -12.3m/s | -52.9°C | 3.8% | 0hPa | 2.5V | 00:00:00 | 02:34:15 | 00:00:00 | |
| IW2NTF | 2026-09-03 01:08:25 | 46.44670 | 7.60295 | 161° | 24km/h | 19943m | -12.5m/s | -53.3°C | 3.8% | 0hPa | 2.5V | 08:17:46 | 02:34:03 | 00:00:00 | |
| IN3HCDX | 2026-09-03 01:08:21 | 46.44653 | 7.60304 | 163° | 24km/h | 19908m | -11.8m/s | -52.8°C | 1.0% | 0hPa | 2.5V | 08:17:00 | 00:00:00 | 00:00:00 | |
| DO3MHA-11 | 2026-09-03 01:08:17 | 46.44682 | 7.60290 | 169° | 18km/h | 19970m | -12.7m/s | -53.3°C | 3.8% | 0hPa | 2.5V | 00:00:00 | 02:34:01 | 00:00:00 | |
| IW2NTF | 2026-09-03 01:08:14 | 46.44719 | 7.60293 | 192° | 15km/h | 20074m | -13m/s | -54.5°C | 4.1% | 0hPa | 2.5V | 08:17:56 | 02:33:53 | 00:00:00 | |
| DO3MHA-11 | 2026-09-03 01:08:07 | 46.44725 | 7.60295 | 191° | 9km/h | 20099m | -13.0m/s | -54.4°C | 4.1% | 0hPa | 2.6V | 00:00:00 | 02:33:51 | 00:00:00 | |
| IW2NTF | 2026-09-03 01:08:04 | 46.44740 | 7.60299 | 154° | 5km/h | 20203m | -12.6m/s | -55°C | 4.2% | 0hPa | 2.5V | 08:18:06 | 02:33:43 | 00:00:00 | |
| IN3HCDX | 2026-09-03 01:08:01 | 46.44737 | 7.60299 | 179° | 5km/h | 20178m | -13.2m/s | -54.9°C | 1.2% | 0hPa | 2.5V | 08:18:00 | 00:00:00 | 00:00:00 | |
| DO3MHA-11 | 2026-09-03 01:07:57 | 46.44742 | 7.60295 | 127° | 13km/h | 20230m | -13.3m/s | -55.1°C | 4.2% | 0hPa | 2.5V | 00:00:00 | 02:33:41 | 00:00:00 | |
| IW2NTF | 2026-09-03 01:07:54 | 46.44751 | 7.60270 | 115° | 11km/h | 20334m | -13.3m/s | -55.7°C | 4.4% | 0hPa | 2.5V | 08:18:16 | 02:33:33 | 00:00:00 | |
| DF7PN | 2026-09-03 01:07:47 | 46.44757 | 7.60260 | 140° | 13km/h | 20373m | -12.9m/s | -56.0°C | 1.2% | -1.0hPa | 2.6V | 00:00:00 | 00:00:00 | 00:00:00 | |
| DB0UT-7 | 2026-09-03 01:07:46 | 46.44760 | 7.60256 | 141° | 20km/h | 20386m | -13.9m/s | -56.0°C | 4.6% | 0hPa | 2.6V | 00:00:00 | 00:00:00 | 00:00:00 | |
| IW2NTF | 2026-09-03 01:07:45 | 46.44786 | 7.60228 | 145° | 22km/h | 20466m | -12.9m/s | -56.1°C | 4.7% | 0hPa | 2.6V | 08:18:26 | 02:33:23 | 00:00:00 | |
| DO3MHA-11 | 2026-09-03 01:07:44 | 46.44763 | 7.60252 | 143° | 22km/h | 20400m | -13.4m/s | -56.0°C | 4.6% | 0hPa | 2.6V | 00:00:00 | 02:33:28 | 00:00:00 | |
| IN3HCDX | 2026-09-03 01:07:40 | 46.44781 | 7.60233 | 144° | 24km/h | 20453m | -13.5m/s | -56.2°C | 1.3% | 0hPa | 2.6V | 08:18:00 | 00:00:00 | 00:00:00 | |
| IW2NTF | 2026-09-03 01:07:34 | 46.44815 | 7.60181 | 109° | 18km/h | 20600m | -13.1m/s | -55.9°C | 4.6% | 0hPa | 2.6V | 08:18:36 | 02:33:13 | 00:00:00 | |
| IW2NTF | 2026-09-03 01:07:24 | 46.44835 | 7.60107 | 112° | 24km/h | 20735m | -13.7m/s | -55.4°C | 4.6% | 0hPa | 2.5V | 08:18:46 | 02:33:03 | 00:00:00 | |
| IN3HCDX | 2026-09-03 01:07:20 | 46.44833 | 7.60115 | 113° | 22km/h | 20722m | -14.2m/s | -55.5°C | 0% | 0hPa | 2.5V | 08:18:00 | 00:00:00 | 00:00:00 | |
| DB0UT-7 | 2026-09-03 01:07:15 | 46.44845 | 7.60070 | 112° | 26km/h | 20789m | -13.3m/s | -55.1°C | 4.5% | 0hPa | 2.5V | 00:00:00 | 02:32:59 | 00:00:00 | |
| DK5PH-5 | 2026-09-03 01:07:13 | 46.44851 | 7.60049 | 112° | 27km/h | 20816m | -13.7m/s | -55.0°C | 4.4% | 0hPa | 2.6V | 00:00:00 | 02:32:57 | 00:00:00 | |
| IW2NTF | 2026-09-03 01:07:11 | 46.44868 | 7.59990 | 110° | 26km/h | 20899m | -13.6m/s | -55.1°C | 4.4% | 0hPa | 2.6V | 08:18:58 | 02:32:51 | 00:00:00 | |
| IW2NTF | 2026-09-03 01:07:02 | 46.44895 | 7.59927 | 131° | 24km/h | 21037m | -14m/s | -54.4°C | 4.2% | 0hPa | 2.6V | 08:19:08 | 02:32:41 | 00:00:00 | |
| IN3HCDX | 2026-09-03 01:06:58 | 46.44887 | 7.59938 | 132° | 18km/h | 21010m | -13.9m/s | -54.7°C | 0% | 0hPa | 2.5V | 08:19:00 | 00:00:00 | 00:00:00 | |
| IW2NTF | 2026-09-03 01:06:52 | 46.44944 | 7.59851 | 146° | 26km/h | 21177m | -14.5m/s | -54.5°C | 4.3% | 0hPa | 2.5V | 08:19:18 | 02:32:31 | 00:00:00 | |
| DF7PN | 2026-09-03 01:06:44 | 46.44959 | 7.59839 | 153° | 18km/h | 21220m | -14.2m/s | -54.0°C | 1.0% | -1.0hPa | 2.5V | 00:00:00 | 00:00:00 | 00:00:00 | |
| IW2NTF | 2026-09-03 01:06:43 | 46.44975 | 7.59828 | 125° | 2km/h | 21319m | -13.9m/s | -54.1°C | 4% | 0hPa | 2.5V | 08:19:28 | 02:32:21 | 00:00:00 | |
| IN3HCDX | 2026-09-03 01:06:37 | 46.44974 | 7.59829 | 129° | 4km/h | 21305m | -14.0m/s | -54.0°C | 0% | 0hPa | 2.5V | 08:19:00 | 00:00:00 | 00:00:00 | |
| IW2NTF | 2026-09-03 01:06:32 | 46.44986 | 7.59821 | 174° | 9km/h | 21464m | -14.9m/s | -54.2°C | 4.1% | 0hPa | 2.5V | 08:19:38 | 02:32:11 | 00:00:00 | |
| IW2NTF | 2026-09-03 01:06:23 | 46.45013 | 7.59822 | 161° | 11km/h | 21611m | -14.6m/s | -54.1°C | 4.1% | 0hPa | 2.5V | 08:19:48 | 02:32:01 | 00:00:00 | |
| IN3HCDX | 2026-09-03 01:06:16 | 46.45012 | 7.59822 | 162° | 11km/h | 21611m | -14.6m/s | 0°C | 0% | 0hPa | 2.5V | 00:00:00 | 00:00:00 | 00:00:00 | |
| DB0UT-7 | 2026-09-03 01:06:15 | 46.45018 | 7.59819 | 148° | 18km/h | 21640m | -14.9m/s | -54.0°C | 4.1% | 0hPa | 2.5V | 00:00:00 | 02:31:59 | 00:00:00 | |
| DK5PH-5 | 2026-09-03 01:06:13 | 46.45021 | 7.59815 | 127° | 18km/h | 21670m | -14.5m/s | -54.1°C | 4.2% | 0hPa | 2.5V | 00:00:00 | 02:31:57 | 00:00:00 | |
| IW2NTF | 2026-09-03 01:06:11 | 46.45027 | 7.59790 | 102° | 15km/h | 21758m | -15.2m/s | -54.5°C | 4.3% | 0hPa | 2.5V | 08:19:58 | 02:31:51 | 00:00:00 | |
| IW2NTF | 2026-09-03 01:06:02 | 46.45059 | 7.59734 | 154° | 24km/h | 21907m | -14.9m/s | -54.1°C | 4.2% | 0hPa | 2.5V | 08:20:08 | 02:31:41 | 00:00:00 | |
| IN3HCDX | 2026-09-03 01:05:55 | 46.45064 | 7.59730 | 156° | 24km/h | 21922m | -14.4m/s | 0°C | 0% | 0hPa | 2.6V | 00:00:00 | 00:00:00 | 00:00:00 | |
| IW2NTF | 2026-09-03 01:05:52 | 46.45110 | 7.59716 | 189° | 16km/h | 22058m | -14.8m/s | -53.8°C | 4.1% | 0hPa | 2.6V | 08:20:18 | 02:31:31 | 00:00:00 | |
| DO3MHA-11 | 2026-09-03 01:05:46 | 46.45114 | 7.59717 | 194° | 9km/h | 22073m | -15.7m/s | -53.7°C | 4.1% | 0hPa | 2.5V | 08:20:00 | 02:31:30 | 00:00:00 | |
| DB0UT-7 | 2026-09-03 01:05:45 | 46.45117 | 7.59719 | 206° | 11km/h | 22089m | -15.4m/s | -53.7°C | 4.1% | 0hPa | 2.5V | 00:00:00 | 00:00:00 | 00:00:00 | |
| DH7VM-15 | 2026-09-03 01:05:44 | 46.45117 | 7.59719 | 207° | 13km/h | 22089m | -15.5m/s | -53.7°C | 1.1% | 0hPa | 2.6V | 00:00:00 | 00:00:00 | 00:00:00 | |
| DK5PH-5 | 2026-09-03 01:05:43 | 46.45122 | 7.59723 | 227° | 11km/h | 22119m | -14.8m/s | -53.6°C | 4.1% | 0hPa | 2.6V | 00:00:00 | 02:31:27 | 00:00:00 | |
| DF7PN | 2026-09-03 01:05:42 | 46.45123 | 7.59726 | 236° | 7km/h | 22134m | -16.0m/s | -53.7°C | 1.0% | -1.0hPa | 2.6V | 00:00:00 | 00:00:00 | 00:00:00 | |
| IW2NTF | 2026-09-03 01:05:40 | 46.45126 | 7.59738 | 268° | 5km/h | 22211m | -15.7m/s | -53.6°C | 4% | 0hPa | 2.6V | 08:20:28 | 02:31:21 | 00:00:00 | |
| DO3MHA-11 | 2026-09-03 01:05:36 | 46.45125 | 7.59739 | 285° | 7km/h | 22227m | -15.2m/s | -53.6°C | 4.0% | 0hPa | 2.6V | 00:00:00 | 02:31:20 | 00:00:00 | |
| IN3HCDX | 2026-09-03 01:05:34 | 46.45125 | 7.59740 | 263° | 4km/h | 22242m | -14.9m/s | 0°C | 0% | 0hPa | 2.6V | 00:00:00 | 00:00:00 | 00:00:00 | |
| IW2NTF | 2026-09-03 01:05:33 | 46.45134 | 7.59761 | 224° | 15km/h | 22366m | -15.3m/s | -53.1°C | 3.8% | 0hPa | 2.6V | 08:20:38 | 02:31:11 | 00:00:00 | |
| DO3MHA-11 | 2026-09-03 01:05:26 | 46.45136 | 7.59765 | 228° | 18km/h | 22382m | -15.7m/s | -53.0°C | 3.8% | 0hPa | 2.6V | 00:00:00 | 02:31:10 | 00:00:00 | |
| IW2NTF | 2026-09-03 01:05:22 | 46.45163 | 7.59809 | 216° | 15km/h | 22523m | -16.1m/s | -53.7°C | 4.1% | 0hPa | 2.6V | 08:20:48 | 02:31:01 | 00:00:00 | |
| DO3MHA-11 | 2026-09-03 01:05:16 | 46.45166 | 7.59811 | 211° | 7km/h | 22539m | -16.1m/s | -53.5°C | 4.1% | 0hPa | 2.6V | 00:00:00 | 02:31:00 | 00:00:00 | |
| DB0UT-7 | 2026-09-03 01:05:15 | 46.45169 | 7.59814 | 209° | 15km/h | 22556m | -15.7m/s | -53.4°C | 4.0% | 0hPa | 2.6V | 00:00:00 | 02:30:59 | 00:00:00 | |
| DK5PH-5 | 2026-09-03 01:05:13 | 46.45174 | 7.59817 | 199° | 16km/h | 22587m | -16.2m/s | -53.5°C | 4.0% | 0hPa | 2.6V | 00:00:00 | 02:30:57 | 00:00:00 | |
| IW2NTF | 2026-09-03 01:05:12 | 46.45179 | 7.59815 | 70° | 5km/h | 22683m | -16.1m/s | -53.8°C | 4.2% | 0hPa | 2.6V | 08:20:58 | 02:30:51 | 00:00:00 | |
| DF7PN | 2026-09-03 01:05:11 | 46.45178 | 7.59818 | 198° | 4km/h | 22619m | -15.4m/s | -53.7°C | 1.0% | -1.0hPa | 2.5V | 00:00:00 | 00:00:00 | 00:00:00 | |
| IN3HCDX | 2026-09-03 01:05:10 | 46.45178 | 7.59818 | 199° | 4km/h | 22620m | -15.4m/s | 0°C | 0% | 0hPa | 2.5V | 00:00:00 | 00:00:00 | 00:00:00 | |
| DO3MHA-11 | 2026-09-03 01:05:06 | 46.45178 | 7.59813 | 86° | 15km/h | 22699m | -15.2m/s | -53.7°C | 4.2% | 0hPa | 2.5V | 00:00:00 | 02:30:50 | 00:00:00 | |
| IW2NTF | 2026-09-03 01:05:03 | 46.45192 | 7.59773 | 140° | 18km/h | 22845m | -15.9m/s | -53.2°C | 4% | 0hPa | 2.5V | 08:21:08 | 02:30:41 | 00:00:00 | |
| DO3MHA-11 | 2026-09-03 01:04:56 | 46.45195 | 7.59769 | 144° | 20km/h | 22862m | -16.5m/s | -53.1°C | 4.0% | 0hPa | 2.5V | 00:00:00 | 02:30:40 | 00:00:00 | |
| IW2NTF | 2026-09-03 01:04:46 | 46.45251 | 7.59752 | 190° | 27km/h | 23043m | -16.3m/s | -53.2°C | 4% | 0hPa | 2.5V | 08:21:20 | 02:30:29 | 00:00:00 | |
| DB0UT-7 | 2026-09-03 01:04:45 | 46.45251 | 7.59752 | 191° | 20km/h | 23043m | -16.2m/s | -53.2°C | 4.0% | 0hPa | 2.6V | 00:00:00 | 00:00:00 | 00:00:00 | |
| DK5PH-5 | 2026-09-03 01:04:43 | 46.45264 | 7.59756 | 195° | 20km/h | 23076m | -16.8m/s | -53.2°C | 4.0% | 0hPa | 2.6V | 08:21:00 | 02:30:27 | 00:00:00 | |
| DF7PN | 2026-09-03 01:04:40 | 46.45283 | 7.59765 | 202° | 24km/h | 23126m | -15.8m/s | -53.1°C | 0.9% | -1.0hPa | 2.5V | 00:00:00 | 00:00:00 | 00:00:00 | |
| IW2NTF | 2026-09-03 01:04:35 | 46.45308 | 7.59787 | 218° | 24km/h | 23210m | -16.5m/s | -53°C | 3.9% | 0hPa | 2.5V | 08:21:30 | 02:30:19 | 00:00:00 | |
| IW2NTF | 2026-09-03 01:04:29 | 46.45322 | 7.59858 | 296° | 20km/h | 23397m | -17.5m/s | -53°C | 4% | 0hPa | 2.6V | 08:21:41 | 02:30:08 | 00:00:00 | |
| DO3MHA-11 | 2026-09-03 01:04:26 | 46.45325 | 7.59845 | 285° | 16km/h | 23362m | -16.8m/s | -52.9°C | 4.0% | 0hPa | 2.6V | 00:00:00 | 02:30:10 | 00:00:00 | |
| DH7VM-15 | 2026-09-03 01:04:23 | 46.45320 | 7.59864 | 300° | 18km/h | 23414m | -17.0m/s | -53.0°C | 1.0% | 0hPa | 2.6V | 00:00:00 | 00:00:00 | 00:00:00 | |
| IW2NTF | 2026-09-03 01:04:17 | 46.45297 | 7.59899 | 319° | 13km/h | 23570m | -17.4m/s | -52.5°C | 3.8% | 0hPa | 2.6V | 08:21:51 | 02:29:58 | 00:00:00 | |
| DO3MHA-11 | 2026-09-03 01:04:16 | 46.45302 | 7.59893 | 319° | 11km/h | 23535m | -17.7m/s | -52.5°C | 3.9% | 0hPa | 2.5V | 08:21:00 | 02:30:00 | 00:00:00 | |
| DB0UT-7 | 2026-09-03 01:04:15 | 46.45299 | 7.59896 | 324° | 11km/h | 23553m | -18.1m/s | -52.4°C | 3.8% | 0hPa | 2.5V | 08:21:00 | 02:29:59 | 00:00:00 | |
| DK5PH-5 | 2026-09-03 01:04:13 | 46.45295 | 7.59902 | 323° | 15km/h | 23588m | -16.9m/s | -52.4°C | 3.8% | 0hPa | 2.6V | 00:00:00 | 02:29:57 | 00:00:00 | |
| DF7PN | 2026-09-03 01:04:09 | 46.45287 | 7.59913 | 314° | 9km/h | 23658m | -17.1m/s | -52.4°C | 0.9% | -1.0hPa | 2.6V | 00:00:00 | 00:00:00 | 00:00:00 | |
| IW2NTF | 2026-09-03 01:04:06 | 46.45278 | 7.59926 | 311° | 11km/h | 23745m | -17m/s | -52.5°C | 3.8% | 0hPa | 2.6V | 08:22:01 | 02:29:48 | 00:00:00 | |
| DO3MHA-11 | 2026-09-03 01:04:06 | 46.45282 | 7.59921 | 315° | 13km/h | 23710m | -18.0m/s | -52.4°C | 3.8% | 0hPa | 2.6V | 00:00:00 | 02:29:50 | 00:00:00 | |
| DH7VM-15 | 2026-09-03 01:04:01 | 46.45274 | 7.59932 | 303° | 13km/h | 23780m | -18.3m/s | -52.6°C | 1.0% | 0hPa | 2.6V | 00:00:00 | 00:00:00 | 00:00:00 | |
| IW2NTF | 2026-09-03 01:03:57 | 46.45266 | 7.59971 | 273° | 11km/h | 23922m | -17.5m/s | -52.7°C | 3.9% | 0hPa | 2.6V | 08:22:11 | 02:29:38 | 00:00:00 | |
| DO3MHA-11 | 2026-09-03 01:03:56 | 46.45267 | 7.59962 | 275° | 11km/h | 23887m | -17.6m/s | -52.7°C | 3.9% | 0hPa | 2.6V | 00:00:00 | 02:29:40 | 00:00:00 | |
| IW2NTF | 2026-09-03 01:03:47 | 46.45247 | 7.60003 | 333° | 22km/h | 24102m | -18.5m/s | -52.1°C | 3.7% | 0hPa | 2.6V | 08:22:21 | 02:29:28 | 00:00:00 | |
| DO3MHA-11 | 2026-09-03 01:03:46 | 46.45256 | 7.59996 | 326° | 18km/h | 24066m | -17.8m/s | -52.1°C | 3.7% | 0hPa | 2.5V | 00:00:00 | 02:29:30 | 00:00:00 | |
| DB0UT-7 | 2026-09-03 01:03:45 | 46.45252 | 7.59999 | 332° | 15km/h | 24084m | -18.2m/s | -52.0°C | 3.7% | 0hPa | 2.6V | 00:00:00 | 00:00:00 | 00:00:00 | |
| DL6DJ-15 | 2026-09-03 01:03:40 | 46.45220 | 7.60020 | 339° | 13km/h | 24212m | -18.0m/s | -52.4°C | 0.8% | -1.0hPa | 2.6V | 00:00:00 | 00:00:00 | 00:00:00 | |
| DF7PN | 2026-09-03 01:03:38 | 46.45217 | 7.60022 | 334° | 13km/h | 24230m | -18.1m/s | -52.5°C | 0.9% | -1.0hPa | 2.6V | 00:00:00 | 00:00:00 | 00:00:00 | |
| IW2NTF | 2026-09-03 01:03:36 | 46.45210 | 7.60027 | 337° | 11km/h | 24286m | -18.9m/s | -52.5°C | 3.8% | 0hPa | 2.6V | 08:22:31 | 02:29:18 | 00:00:00 | |
| DO3MHA-11 | 2026-09-03 01:03:36 | 46.45214 | 7.60024 | 338° | 15km/h | 24249m | -18.5m/s | -52.4°C | 3.8% | 0hPa | 2.6V | 00:00:00 | 02:29:20 | 00:00:00 | |
| DK5PH-5 | 2026-09-03 01:03:29 | 46.45192 | 7.60037 | 343° | 13km/h | 24379m | -18.5m/s | -52.6°C | 3.9% | 0hPa | 2.6V | 00:00:00 | 02:29:13 | 00:00:00 | |
| IW2NTF | 2026-09-03 01:03:27 | 46.45174 | 7.60040 | 6° | 13km/h | 24471m | -18.1m/s | -52.7°C | 3.9% | 0hPa | 2.6V | 08:22:41 | 02:29:08 | 00:00:00 | |
| DO3MHA-11 | 2026-09-03 01:03:26 | 46.45180 | 7.60040 | 360° | 11km/h | 24435m | -19.0m/s | -52.6°C | 3.9% | 0hPa | 2.6V | 00:00:00 | 02:29:10 | 00:00:00 | |
| IW2NTF | 2026-09-03 01:03:19 | 46.45148 | 7.60032 | 19° | 11km/h | 24659m | -18.7m/s | -52.4°C | 3.9% | 0hPa | 2.6V | 08:22:51 | 02:28:58 | 00:00:00 | |
| DO3MHA-11 | 2026-09-03 01:03:16 | 46.45154 | 7.60035 | 18° | 13km/h | 24623m | -19.1m/s | -52.4°C | 3.9% | 0hPa | 2.5V | 00:00:00 | 02:29:00 | 00:00:00 | |
| DB0UT-7 | 2026-09-03 01:03:15 | 46.45151 | 7.60034 | 24° | 13km/h | 24641m | -18.0m/s | -52.4°C | 3.9% | 0hPa | 2.6V | 00:00:00 | 02:28:59 | 00:00:00 | |
| IW2NTF | 2026-09-03 01:03:10 | 46.45124 | 7.60009 | 47° | 11km/h | 24850m | -19.4m/s | -51.7°C | 3.6% | 0hPa | 2.6V | 08:23:01 | 02:28:48 | 00:00:00 | |
| DL6DJ-15 | 2026-09-03 01:03:09 | 46.45132 | 7.60019 | 30° | 11km/h | 24775m | -19.6m/s | -51.7°C | 0.8% | -1.0hPa | 2.6V | 00:00:00 | 00:00:00 | 00:00:00 | |
| DF7PN | 2026-09-03 01:03:07 | 46.45127 | 7.60014 | 35° | 11km/h | 24813m | -18.4m/s | -51.7°C | 0.8% | -1.0hPa | 2.6V | 00:00:00 | 00:00:00 | 00:00:00 | |
| DO3MHA-11 | 2026-09-03 01:03:06 | 46.45127 | 7.60014 | 36° | 13km/h | 24813m | -18.3m/s | -51.6°C | 3.6% | 0hPa | 2.6V | 00:00:00 | 02:28:50 | 00:00:00 | |
| IW2NTF | 2026-09-03 01:03:00 | 46.45111 | 7.59965 | 80° | 15km/h | 25044m | -19.5m/s | -52.2°C | 3.8% | 0hPa | 2.6V | 08:23:11 | 02:28:38 | 00:00:00 | |
| BIOWL9-15 | 2026-09-03 01:02:55 | 46.45113 | 7.59942 | 117° | 11km/h | 25142m | -20.1m/s | -52.0°C | 0.8% | -1.0hPa | 2.6V | 00:00:00 | 00:00:00 | 00:00:00 | |
| HASLITAL | 2026-09-03 01:02:51 | 46.45111 | 7.59950 | 100° | 13km/h | 25102m | -20.2m/s | -52.2°C | 1.0% | 0hPa | 2.6V | 08:23:00 | 00:00:00 | 00:00:00 | |
| IW2NTF | 2026-09-03 01:02:50 | 46.45123 | 7.59935 | 198° | 11km/h | 25239m | -19.3m/s | -52.1°C | 3.8% | 0hPa | 2.6V | 08:23:21 | 02:28:28 | 00:00:00 | |
| BIOWL1-15 | 2026-09-03 01:02:46 | 46.45123 | 7.59935 | 198° | 11km/h | 25239m | -19.3m/s | -52.1°C | 0.3% | 0hPa | 2.6V | 08:23:55 | 02:28:28 | 00:00:00 | |
| DO3MHA-11 | 2026-09-03 01:02:46 | 46.45118 | 7.59935 | 173° | 9km/h | 25200m | -19.6m/s | -51.9°C | 3.7% | 0hPa | 2.5V | 08:23:00 | 02:28:30 | 00:00:00 | |
| DB0UT-7 | 2026-09-03 01:02:45 | 46.45120 | 7.59934 | 180° | 11km/h | 25220m | -20.0m/s | -51.9°C | 3.8% | 0hPa | 2.5V | 00:00:00 | 00:00:00 | 00:00:00 | |
| IW2NTF | 2026-09-03 01:02:39 | 46.45137 | 7.59933 | 81° | 9km/h | 25437m | -19.8m/s | -51.7°C | 3.8% | 0hPa | 2.6V | 08:23:31 | 02:28:18 | 00:00:00 | |
| DM0DOS-11 | 2026-09-03 01:02:38 | 46.45137 | 7.59940 | 94° | 5km/h | 25377m | -20.6m/s | -52°C | 3.9% | 0hPa | 2.5V | 08:23:28 | 02:28:21 | 00:00:00 | |
| BIOWL1-15 | 2026-09-03 01:02:34 | 46.45136 | 7.59929 | 80° | 9km/h | 25457m | -20.6m/s | -51.7°C | 0.2% | 0hPa | 2.6V | 08:23:55 | 02:28:17 | 00:00:00 | |
| DH7VM-15 | 2026-09-03 01:02:33 | 46.45136 | 7.59932 | 83° | 9km/h | 25438m | -19.8m/s | -51.7°C | 0.9% | 0hPa | 2.6V | 00:00:00 | 00:00:00 | 00:00:00 | |
| IW2NTF | 2026-09-03 01:02:30 | 46.45153 | 7.59899 | 155° | 13km/h | 25639m | -20.2m/s | -51.1°C | 3.7% | 0hPa | 2.6V | 08:23:41 | 02:28:08 | 00:00:00 | |
| BIOWL1-15 | 2026-09-03 01:02:23 | 46.45156 | 7.59897 | 151° | 13km/h | 25659m | -20.6m/s | -51.1°C | 0.2% | 0hPa | 2.6V | 08:23:55 | 02:28:07 | 00:00:00 | |
| DM0DOS-11 | 2026-09-03 01:02:21 | 46.45173 | 7.59897 | 207° | 13km/h | 25782m | -20.8m/s | -51.2°C | 3.7% | 0hPa | 2.5V | 08:23:48 | 02:28:01 | 00:00:00 | |
| IW2NTF | 2026-09-03 01:02:19 | 46.45182 | 7.59902 | 190° | 15km/h | 25844m | -21.3m/s | -51°C | 3.8% | 0hPa | 2.6V | 08:23:51 | 02:27:58 | 00:00:00 | |
| BIOWL1-15 | 2026-09-03 01:02:13 | 46.45189 | 7.59906 | 200° | 15km/h | 25886m | -21.4m/s | -50.9°C | 0.2% | 0hPa | 2.5V | 08:23:55 | 02:27:56 | 00:00:00 | |
| IW2NTF | 2026-09-03 01:02:09 | 46.45188 | 7.59930 | 10° | 13km/h | 26056m | -22m/s | -50.4°C | 3.5% | 0hPa | 2.5V | 08:24:01 | 02:27:48 | 00:00:00 | |
| HASLITAL | 2026-09-03 01:02:08 | 46.45196 | 7.59916 | 256° | 11km/h | 25950m | -21.3m/s | -50.5°C | 0.9% | 0hPa | 2.6V | 08:24:00 | 00:00:00 | 00:00:00 | |
| BIOWL1-15 | 2026-09-03 01:02:02 | 46.45193 | 7.59897 | 182° | 15km/h | 26334m | -22.2m/s | -49.5°C | 0% | 0hPa | 2.6V | 18:12:15 | 02:27:35 | 00:00:00 | |
| IW2NTF | 2026-09-03 01:01:59 | 46.45183 | 7.59898 | 166° | 11km/h | 26271m | -21.8m/s | -49.8°C | 3.4% | 0hPa | 2.5V | 08:24:11 | 02:27:38 | 00:00:00 | |
| BIOWL9-15 | 2026-09-03 01:01:53 | 46.45189 | 7.59897 | 180° | 13km/h | 26313m | -21.3m/s | -49.6°C | 0.7% | -1.0hPa | 2.5V | 00:00:00 | 00:00:00 | 00:00:00 | |
| IW2NTF | 2026-09-03 01:01:50 | 46.45219 | 7.59915 | 239° | 22km/h | 26487m | -22m/s | -49.6°C | 3.3% | 0hPa | 2.5V | 08:24:21 | 02:27:28 | 00:00:00 | |
| BIOWL1-15 | 2026-09-03 01:01:49 | 46.45201 | 7.59898 | 185° | 16km/h | 26378m | -21.7m/s | -49.6°C | 0% | 0hPa | 2.5V | 18:12:15 | 02:27:33 | 00:00:00 | |
| HASLITAL | 2026-09-03 01:01:48 | 46.45201 | 7.59898 | 186° | 16km/h | 26379m | -21.7m/s | -49.6°C | 0.8% | 0hPa | 2.6V | 08:24:00 | 00:00:00 | 00:00:00 | |
| DO3MHA-11 | 2026-09-03 01:01:46 | 46.45212 | 7.59904 | 220° | 22km/h | 26442m | -22.7m/s | -49.6°C | 3.3% | 0hPa | 2.6V | 00:00:00 | 02:27:30 | 00:00:00 | |
| DB0UT-7 | 2026-09-03 01:01:45 | 46.45216 | 7.59909 | 226° | 11km/h | 26465m | -23.1m/s | -49.5°C | 3.3% | 0hPa | 2.6V | 00:00:00 | 00:00:00 | 00:00:00 | |
| IW2NTF | 2026-09-03 01:01:40 | 46.45222 | 7.59989 | 306° | 9km/h | 26709m | -22.1m/s | -49.8°C | 3.5% | 0hPa | 2.6V | 08:24:31 | 02:27:18 | 00:00:00 | |
| BIOWL1-15 | 2026-09-03 01:01:32 | 46.45218 | 7.59994 | 322° | 5km/h | 26776m | -23.1m/s | -49.9°C | 0.1% | 0hPa | 2.5V | 18:12:15 | 02:27:15 | 00:00:00 | |
| IW2NTF | 2026-09-03 01:01:30 | 46.45213 | 7.59998 | 268° | 4km/h | 26935m | -22.4m/s | -49.5°C | 3.4% | 0hPa | 2.6V | 08:24:41 | 02:27:08 | 00:00:00 | |
| DM0DOS-11 | 2026-09-03 01:01:27 | 46.45213 | 7.59996 | 324° | 5km/h | 26889m | -23.9m/s | -49.6°C | 3.5% | 0hPa | 2.5V | 08:24:39 | 02:27:10 | 00:00:00 | |
| BIOWL1-15 | 2026-09-03 01:01:24 | 46.45214 | 7.59998 | 155° | 7km/h | 26979m | -22.8m/s | 0°C | 0% | 0hPa | 2.6V | 18:12:15 | 02:27:06 | 00:00:00 | |
| DM0DOS-11 | 2026-09-03 01:01:22 | 46.45219 | 7.59994 | 225° | 4km/h | 27116m | -23.3m/s | -48.9°C | 3.3% | 0hPa | 2.5V | 08:24:49 | 02:27:00 | 00:00:00 | |
| IW2NTF | 2026-09-03 01:01:20 | 46.45219 | 7.59996 | 286° | 5km/h | 27161m | -23m/s | -48.7°C | 3.3% | 0hPa | 2.5V | 08:24:51 | 02:26:58 | 00:00:00 | |
| DO3MHA-11 | 2026-09-03 01:01:16 | 46.45219 | 7.59993 | 226° | 5km/h | 27116m | -23.2m/s | -48.9°C | 3.3% | 0hPa | 2.5V | 00:00:00 | 02:27:00 | 08:30:00 | |
| DB0UT-7 | 2026-09-03 01:01:15 | 46.45219 | 7.59994 | 316° | 9km/h | 27139m | -23.3m/s | -48.7°C | 3.3% | 0hPa | 2.5V | 00:00:00 | 02:26:59 | 00:00:00 | |
| DH7VM-15 | 2026-09-03 01:01:14 | 46.45219 | 7.59994 | 316° | 2km/h | 27139m | -23.4m/s | -48.8°C | 0.7% | 0hPa | 2.5V | 00:00:00 | 00:00:00 | 00:00:00 | |
| IW2NTF | 2026-09-03 01:01:09 | 46.45211 | 7.60022 | 307° | 15km/h | 27395m | -23.1m/s | -48.4°C | 3.3% | 0hPa | 2.5V | 08:25:01 | 02:26:48 | 00:00:00 | |
| DM0DOS-11 | 2026-09-03 01:01:09 | 46.45215 | 7.60015 | 294° | 11km/h | 27348m | -24.1m/s | -48.4°C | 3.3% | 0hPa | 2.6V | 08:24:59 | 02:26:50 | 00:00:00 | |
| DO3MHA-11 | 2026-09-03 01:01:06 | 46.45215 | 7.60015 | 295° | 9km/h | 27349m | -24.1m/s | -48.4°C | 3.3% | 0hPa | 2.5V | 00:00:00 | 02:26:50 | 00:00:00 | |
| DL6DJ-15 | 2026-09-03 01:01:05 | 46.45211 | 7.60022 | 307° | 13km/h | 27395m | -23.1m/s | -48.4°C | 0.7% | -1.0hPa | 2.5V | 00:00:00 | 00:00:00 | 00:00:00 | |
| DF7PN | 2026-09-03 01:01:03 | 46.45206 | 7.60031 | 301° | 13km/h | 27442m | -24.1m/s | -48.4°C | 0.7% | -1.0hPa | 2.5V | 00:00:00 | 00:00:00 | 00:00:00 | |
| IW2NTF | 2026-09-03 01:01:00 | 46.45194 | 7.60037 | 19° | 7km/h | 27632m | -24m/s | -48.1°C | 3.4% | 0hPa | 2.5V | 08:25:11 | 02:26:38 | 00:00:00 | |
| DM0DOS-11 | 2026-09-03 01:00:57 | 46.45198 | 7.60038 | 27° | 7km/h | 27585m | -24.6m/s | -48.3°C | 3.3% | 0hPa | 2.6V | 08:25:09 | 02:26:40 | 00:00:00 | |
| DO3MHA-11 | 2026-09-03 01:00:55 | 46.45196 | 7.60037 | 3° | 11km/h | 27609m | -23.4m/s | -48.2°C | 3.4% | 0hPa | 2.5V | 00:00:00 | 02:26:39 | 00:00:00 | |
| DH7VM-15 | 2026-09-03 01:00:53 | 46.45194 | 7.60037 | 21° | 7km/h | 27633m | -24.0m/s | -48.1°C | 0.7% | 0hPa | 2.5V | 00:00:00 | 00:00:00 | 00:00:00 | |
| DM0DOS-11 | 2026-09-03 01:00:52 | 46.45188 | 7.60011 | 118° | 18km/h | 27827m | -24.6m/s | -47.1°C | 3.2% | 0hPa | 2.5V | 08:25:19 | 02:26:30 | 00:00:00 | |
| IW2NTF | 2026-09-03 01:00:48 | 46.45193 | 7.59998 | 125° | 20km/h | 27876m | -24.9m/s | -46.6°C | 3% | 0hPa | 2.6V | 08:25:21 | 02:26:28 | 00:00:00 | |
| HASLITAL | 2026-09-03 01:00:46 | 46.45186 | 7.60017 | 101° | 16km/h | 27803m | -25.2m/s | -47.3°C | 0.7% | 0hPa | 2.5V | 08:25:00 | 00:00:00 | 00:00:00 | |
| IW2NTF | 2026-09-03 01:00:35 | 46.45204 | 7.59970 | 148° | 16km/h | 28126m | -24m/s | -45.6°C | 2.9% | 0hPa | 2.5V | 08:25:31 | 02:26:18 | 00:00:00 | |
| DO3MHA-11 | 2026-09-03 01:00:35 | 46.45201 | 7.59972 | 145° | 24km/h | 28102m | -25.1m/s | -45.6°C | 2.9% | 0hPa | 2.6V | 00:00:00 | 02:26:19 | 00:00:00 | |
| DL6DJ-15 | 2026-09-03 01:00:34 | 46.45208 | 7.59966 | 138° | 22km/h | 28149m | -23.5m/s | -45.4°C | 0.5% | -1.0hPa | 2.6V | 00:00:00 | 00:00:00 | 00:00:00 | |
| DF7PN | 2026-09-03 01:00:31 | 46.45219 | 7.59954 | 144° | 31km/h | 28196m | -23.9m/s | -45.0°C | 0.5% | -1.0hPa | 2.6V | 00:00:00 | 00:00:00 | 00:00:00 | |
| IW2NTF | 2026-09-03 01:00:26 | 46.45255 | 7.59909 | 181° | 26km/h | 28355m | -23m/s | -44.5°C | 2.6% | 0hPa | 2.6V | 08:25:41 | 02:26:08 | 00:00:00 | |
| BIOWL1-15 | 2026-09-03 01:00:24 | 46.45297 | 7.59896 | 200° | 31km/h | 28666m | -20.3m/s | 0°C | 0% | 0hPa | 2.5V | 18:12:15 | 02:25:55 | 00:00:00 | |
| BIOWL9-15 | 2026-09-03 01:00:20 | 46.45276 | 7.59923 | 186° | 4km/h | 28475m | -22.9m/s | -44.4°C | 0.5% | -1.0hPa | 2.6V | 00:00:00 | 00:00:00 | 00:00:00 | |
| IW2NTF | 2026-09-03 01:00:17 | 46.45280 | 7.59900 | 123° | 20km/h | 28595m | -25.8m/s | -43.9°C | 2.4% | 0hPa | 2.6V | 08:25:51 | 02:25:58 | 00:00:00 | |
| BIOWL1-15 | 2026-09-03 01:00:12 | 46.45304 | 7.59903 | 222° | 38km/h | 28686m | -19.8m/s | 0°C | 0% | 0hPa | 2.5V | 18:12:15 | 02:25:54 | 00:00:00 | |
| IW2NTF | 2026-09-03 01:00:09 | 46.45352 | 7.59947 | 164° | 26km/h | 28829m | -24.7m/s | -44.5°C | 2.5% | 0hPa | 2.5V | 08:26:01 | 02:25:48 | 00:00:00 | |
| BIOWL1-15 | 2026-09-03 01:00:00 | 46.45351 | 7.59900 | 44° | 40km/h | 28952m | -23.7m/s | 0°C | 0% | 0hPa | 2.5V | 18:12:15 | 02:25:43 | 00:00:00 | |
| IW2NTF | 2026-09-03 00:59:59 | 46.45302 | 7.59894 | 323° | 35km/h | 29072m | -24.8m/s | -45.3°C | 2.7% | 0hPa | 2.5V | 08:26:11 | 02:25:38 | 00:00:00 | |
| DO3MHA-11 | 2026-09-03 00:59:56 | 46.45320 | 7.59885 | 359° | 47km/h | 29024m | -24.8m/s | -45.1°C | 2.6% | 0hPa | 2.6V | 00:00:00 | 02:25:40 | 00:00:00 | |
| IW2NTF | 2026-09-03 00:59:50 | 46.45365 | 7.59884 | 110° | 53km/h | 29312m | -25.8m/s | -45.6°C | 2.8% | 0hPa | 2.5V | 08:26:21 | 02:25:28 | 00:00:00 | |
| BIOWL1-15 | 2026-09-03 00:59:50 | 46.45353 | 7.59813 | 0° | 53km/h | 29851m | -24.1m/s | 0°C | 0% | 0hPa | 2.5V | 18:12:15 | 02:25:06 | 00:00:00 | |
| BIOWL9-15 | 2026-09-03 00:59:48 | 46.45326 | 7.59933 | 170° | 47km/h | 29214m | -24.5m/s | -45.3°C | 0.5% | -1.0hPa | 2.6V | 00:00:00 | 00:00:00 | 00:00:00 | |
| DB0UT-7 | 2026-09-03 00:59:45 | 46.45358 | 7.59902 | 124° | 46km/h | 29288m | -25.2m/s | -45.5°C | 2.8% | 0hPa | 2.6V | 08:26:00 | 00:00:00 | 00:00:00 | |
| HASLITAL | 2026-09-03 00:59:41 | 46.45366 | 7.59849 | 72° | 47km/h | 29362m | -25.4m/s | -45.7°C | 0.6% | 0hPa | 2.6V | 08:26:00 | 00:00:00 | 00:00:00 | |
| IW2NTF | 2026-09-03 00:59:40 | 46.45356 | 7.59895 | 174° | 49km/h | 29656m | -25.1m/s | -45.4°C | 2.8% | 0hPa | 2.6V | 08:26:35 | 02:25:14 | 00:00:00 | |
| BIOWL1-15 | 2026-09-03 00:59:38 | 46.45327 | 7.59824 | 329° | 57km/h | 29900m | -24.8m/s | 0°C | 0% | 0hPa | 2.5V | 18:12:15 | 02:25:04 | 00:00:00 | |
| IW2NTF | 2026-09-03 00:59:34 | 46.45375 | 7.59825 | 43° | 44km/h | 29804m | -24.5m/s | -44.9°C | 2.8% | 0hPa | 2.6V | 08:26:41 | 02:25:08 | 00:00:00 | |
| DL6DJ-15 | 2026-09-03 00:59:33 | 46.45344 | 7.59894 | 189° | 47km/h | 29631m | -25.2m/s | -45.4°C | 0.6% | -1.0hPa | 2.5V | 00:00:00 | 00:00:00 | 00:00:00 | |
| DF7PN | 2026-09-03 00:59:29 | 46.45367 | 7.59890 | 154° | 46km/h | 29681m | -26.2m/s | -45.3°C | 0.5% | -1.0hPa | 2.5V | 00:00:00 | 00:00:00 | 00:00:00 | |
| IW2NTF | 2026-09-03 00:59:20 | 46.45316 | 7.59892 | 180° | 35km/h | 30050m | -23.8m/s | -43.9°C | 2.7% | 0hPa | 2.5V | 08:26:51 | 02:24:58 | 00:00:00 | |
| BIOWL9-15 | 2026-09-03 00:59:18 | 46.45305 | 7.59866 | 279° | 40km/h | 29977m | -26.4m/s | -44.3°C | 0.5% | -1.0hPa | 2.6V | 00:00:00 | 00:00:00 | 00:00:00 | |
| DM0DOS-11 | 2026-09-03 00:59:16 | 46.45325 | 7.59889 | 155° | 40km/h | 30073m | -23.5m/s | -43.6°C | 2.6% | 0hPa | 2.6V | 08:26:52 | 02:24:57 | 00:00:00 | |
| BIOWL1-15 | 2026-09-03 00:59:12 | 46.45333 | 7.59879 | 134° | 51km/h | 30097m | -25m/s | 0°C | 0% | 0hPa | 2.6V | 18:12:15 | 02:24:56 | 00:00:00 | |
| IW2NTF | 2026-09-03 00:59:09 | 46.45311 | 7.59740 | 8° | 46km/h | 30298m | -25.6m/s | -42.9°C | 2.5% | 0hPa | 2.5V | 08:27:01 | 02:24:48 | 00:00:00 | |
| HASLITAL | 2026-09-03 00:59:00 | 46.45286 | 7.59758 | 294° | 38km/h | 30374m | -24.9m/s | -42.6°C | 0.5% | 0hPa | 2.6V | 08:27:00 | 00:00:00 | 00:00:00 | |
| IW2NTF | 2026-09-03 00:58:59 | 46.45351 | 7.59789 | 145° | 69km/h | 30542m | -24.6m/s | -42°C | 2.4% | 0hPa | 2.6V | 08:27:11 | 02:24:38 | 00:00:00 | |
| DM0DOS-11 | 2026-09-03 00:58:59 | 46.45295 | 7.59795 | 213° | 47km/h | 30446m | -24.5m/s | -42.3°C | 2.5% | 0hPa | 2.6V | 08:27:07 | 02:24:42 | 00:00:00 | |
| DF7PN | 2026-09-03 00:58:58 | 46.45295 | 7.59795 | 213° | 47km/h | 30447m | -24.5m/s | -42.3°C | 0.4% | -1.0hPa | 2.5V | 00:00:00 | 00:00:00 | 00:00:00 | |
| IW2NTF | 2026-09-03 00:58:50 | 46.45341 | 7.59681 | 288° | 46km/h | 30792m | -25.4m/s | -41.4°C | 2.4% | 0hPa | 2.5V | 08:27:21 | 02:24:28 | 00:00:00 | |
| DM0DOS-11 | 2026-09-03 00:58:49 | 46.45371 | 7.59672 | 44° | 46km/h | 30694m | -26.3m/s | -41.7°C | 2.4% | 0hPa | 2.6V | 08:27:17 | 02:24:32 | 00:00:00 | |
| DB0UT-7 | 2026-09-03 00:58:45 | 46.45346 | 7.59669 | 318° | 53km/h | 30768m | -25.0m/s | -41.5°C | 2.4% | 0hPa | 2.6V | 00:00:00 | 00:00:00 | 00:00:00 | |
| IW2NTF | 2026-09-03 00:58:40 | 46.45432 | 7.59750 | 108° | 47km/h | 31048m | -25.7m/s | -40.1°C | 2.1% | 0hPa | 2.6V | 08:27:31 | 02:24:18 | 00:00:00 | |
| DL6DJ-15 | 2026-09-03 00:58:29 | 46.45365 | 7.59694 | 335° | 57km/h | 31223m | -26.5m/s | -40.2°C | 0.4% | -1.0hPa | 2.5V | 00:00:00 | 00:00:00 | 00:00:00 | |
| IW2NTF | 2026-09-03 00:58:28 | 46.45350 | 7.59760 | 221° | 38km/h | 31355m | -26.5m/s | -39.8°C | 2% | 0hPa | 2.5V | 08:27:43 | 02:24:06 | 00:00:00 | |
| BIOWL1-15 | 2026-09-03 00:58:22 | 46.45350 | 7.59760 | 222° | 38km/h | 31355m | -26.5m/s | 0°C | 0% | 0hPa | 2.5V | 18:12:15 | 02:24:06 | 00:00:00 | |
| DM0DOS-11 | 2026-09-03 00:58:20 | 46.45400 | 7.59725 | 112° | 69km/h | 31483m | -26.3m/s | -39.8°C | 2% | 0hPa | 2.5V | 08:27:48 | 02:24:01 | 00:00:00 | |
| DB0UT-7 | 2026-09-03 00:58:15 | 46.45405 | 7.59673 | 86° | 62km/h | 31535m | -26.5m/s | -39.8°C | 2.1% | 0hPa | 2.6V | 00:00:00 | 02:23:59 | 00:00:00 | |
| IW2NTF | 2026-09-03 00:58:13 | 46.45382 | 7.59601 | 43° | 69km/h | 31613m | -27.7m/s | -40.1°C | 2.1% | 0hPa | 2.5V | 08:27:53 | 02:23:56 | 00:00:00 | |
| BIOWL1-15 | 2026-09-03 00:58:12 | 46.45342 | 7.59580 | 349° | 44km/h | 31694m | -28.2m/s | 0°C | 0% | 0hPa | 2.5V | 18:12:15 | 02:23:53 | 00:00:00 | |
| BIOWL1-15 | 2026-09-03 00:58:03 | 46.45415 | 7.59622 | 149° | 78km/h | 31928m | -28.2m/s | 0°C | 0% | 0hPa | 2.5V | 18:12:15 | 02:23:44 | 00:00:00 | |
| IW2NTF | 2026-09-03 00:58:02 | 46.45377 | 7.59639 | 175° | 77km/h | 31875m | -25.8m/s | -40.5°C | 2.2% | 0hPa | 2.5V | 08:28:03 | 02:23:46 | 00:00:00 | |
| DL6DJ-15 | 2026-09-03 00:57:58 | 46.45377 | 7.59567 | 291° | 71km/h | 32222m | -29.2m/s | -41.1°C | 0.4% | -1.0hPa | 2.6V | 00:00:00 | 00:00:00 | 00:00:00 | |
| IW2NTF | 2026-09-03 00:57:52 | 46.45411 | 7.59517 | 339° | 58km/h | 32138m | -26.2m/s | -41.2°C | 2.3% | 0hPa | 2.6V | 08:28:13 | 02:23:36 | 00:00:00 | |
| DB0UT-7 | 2026-09-03 00:57:45 | 46.45390 | 7.59650 | 214° | 62km/h | 32333m | -25.7m/s | -40.7°C | 2.3% | 0hPa | 2.6V | 00:00:00 | 00:00:00 | 00:00:00 | |
| IW2NTF | 2026-09-03 00:57:43 | 46.45432 | 7.59646 | 144° | 64km/h | 32407m | -26.8m/s | -40.4°C | 2.2% | 0hPa | 2.6V | 08:28:23 | 02:23:26 | 00:00:00 | |
| HASLITAL | 2026-09-03 00:57:38 | 46.45458 | 7.59583 | 98° | 69km/h | 32493m | -30.1m/s | -40.1°C | 0.4% | 0hPa | 2.6V | 00:00:00 | 00:00:00 | 00:00:00 | |
| DM0DOS-11 | 2026-09-03 00:57:37 | 46.45443 | 7.59524 | 35° | 53km/h | 32579m | -27.3m/s | -40°C | 2.2% | 0hPa | 2.6V | 08:28:29 | 02:23:20 | 00:00:00 | |
| IW2NTF | 2026-09-03 00:57:32 | 46.45399 | 7.59552 | 293° | 69km/h | 32681m | -27.3m/s | -40°C | 2.2% | 0hPa | 2.6V | 08:28:33 | 02:23:16 | 00:00:00 | |
| DM0DOS-11 | 2026-09-03 00:57:31 | 46.45428 | 7.59688 | 198° | 53km/h | 32851m | -26.6m/s | -39.8°C | 2.2% | 0hPa | 2.5V | 08:28:39 | 02:23:10 | 00:00:00 | |
| IW2NTF | 2026-09-03 00:57:22 | 46.45450 | 7.59629 | 63° | 68km/h | 32984m | -28.8m/s | -39.8°C | 2.3% | 0hPa | 2.6V | 08:28:44 | 02:23:05 | 00:00:00 | |
| HASLITAL | 2026-09-03 00:57:18 | 46.45425 | 7.59592 | 32° | 75km/h | 33042m | -29.1m/s | -39.5°C | 0.4% | 0hPa | 2.5V | 00:00:00 | 00:00:00 | 00:00:00 | |
| DM0DOS-11 | 2026-09-03 00:57:16 | 46.45346 | 7.59616 | 299° | 69km/h | 33181m | -29.1m/s | -39.1°C | 2.3% | 0hPa | 2.5V | 08:28:51 | 02:22:58 | 00:00:00 | |
| IW2NTF | 2026-09-03 00:57:12 | 46.45345 | 7.59685 | 240° | 60km/h | 33269m | -30.4m/s | -38.2°C | 2.1% | 0hPa | 2.5V | 08:28:54 | 02:22:55 | 00:00:00 | |
| DM0DOS-11 | 2026-09-03 00:57:05 | 46.45397 | 7.59646 | 70° | 71km/h | 33466m | -29.2m/s | -36.9°C | 1.9% | 0hPa | 2.6V | 08:29:01 | 02:22:48 | 00:00:00 | |
| DB0UT-7 | 2026-09-03 00:57:05 | 46.45400 | 7.59670 | 93° | 71km/h | 33439m | -27.5m/s | -37.0°C | 2.0% | 0hPa | 2.5V | 00:00:00 | 02:22:49 | 00:00:00 | |
| IW2NTF | 2026-09-03 00:57:03 | 46.45361 | 7.59589 | 22° | 73km/h | 33559m | -32.3m/s | -36.8°C | 2% | 0hPa | 2.5V | 08:29:04 | 02:22:45 | 00:00:00 | |
| HASLITAL | 2026-09-03 00:56:57 | 46.45310 | 7.59595 | 325° | 68km/h | 33649m | -28.1m/s | -36.7°C | 0.3% | 0hPa | 2.6V | 00:00:00 | 00:00:00 | 00:00:00 | |
| DM0DOS-11 | 2026-09-03 00:56:55 | 46.45350 | 7.59722 | 182° | 64km/h | 33854m | -31.9m/s | -35.8°C | 1.8% | 0hPa | 2.6V | 08:30:00 | 02:22:35 | 00:00:00 | |
| DF7PN | 2026-09-03 00:56:55 | 46.45306 | 7.59685 | 235° | 75km/h | 33762m | -30.6m/s | -36.3°C | 0.3% | -1.0hPa | 2.6V | 00:00:00 | 00:00:00 | 00:00:00 | |
| DM0DOS-11 | 2026-09-03 00:56:44 | 46.45279 | 7.59631 | 309° | 69km/h | 34185m | -32m/s | -35.1°C | 1.8% | 0hPa | 2.6V | 08:30:00 | 02:22:24 | 00:00:00 | |
| IW2NTF | 2026-09-03 00:56:43 | 46.45271 | 7.59652 | 286° | 64km/h | 34216m | -31.3m/s | -35°C | 1.8% | 0hPa | 2.6V | 08:29:26 | 02:22:23 | 00:00:00 | |
| BIOWL9-15 | 2026-09-03 00:56:42 | 46.45293 | 7.59615 | 331° | 75km/h | 34153m | -33.1m/s | -35.1°C | 0.3% | -1.0hPa | 2.5V | 00:00:00 | 00:00:00 | 00:00:00 | |
| HASLITAL | 2026-09-03 00:56:38 | 46.45270 | 7.59674 | 260° | 62km/h | 34246m | -30.4m/s | -34.9°C | 0.3% | 0hPa | 2.5V | 00:00:00 | 00:00:00 | 00:00:00 | |
| DB0UT-7 | 2026-09-03 00:56:35 | 46.45309 | 7.59728 | 196° | 73km/h | 34332m | -28.6m/s | -34.5°C | 1.7% | 0hPa | 2.5V | 00:00:00 | 00:00:00 | 00:00:00 | |
| DM0DOS-11 | 2026-09-03 00:56:33 | 46.45412 | 7.59675 | 125° | 80km/h | 34487m | -33.2m/s | -34.1°C | 1.6% | 0hPa | 2.5V | 08:30:00 | 02:22:14 | 00:00:00 | |
| IW2NTF | 2026-09-03 00:56:32 | 46.45420 | 7.59652 | 107° | 66km/h | 34520m | -32.4m/s | -33.9°C | 1.6% | 0hPa | 2.5V | 08:29:36 | 02:22:13 | 00:00:00 | |
| DF7PN | 2026-09-03 00:56:23 | 46.45370 | 7.59676 | 285° | 93km/h | 34727m | -30.7m/s | -33.6°C | 0.2% | -1.0hPa | 2.5V | 00:00:00 | 00:00:00 | 00:00:00 | |
| IW2NTF | 2026-09-03 00:56:22 | 46.45375 | 7.59785 | 248° | 100km/h | 34821m | -32.7m/s | -34°C | 1.6% | 0hPa | 2.5V | 08:29:46 | 02:22:03 | 00:00:00 | |
| BIOWL1-15 | 2026-09-03 00:56:21 | 46.45376 | 7.59785 | 248° | 100km/h | 34821m | -32.7m/s | 0°C | 0% | 0hPa | 2.5V | 18:12:15 | 02:22:03 | 00:00:00 | |
| DK5PH-5 | 2026-09-03 00:56:21 | 46.45367 | 7.59711 | 274° | 95km/h | 34758m | -31.2m/s | -33.7°C | 1.5% | 0hPa | 2.6V | 00:00:00 | 02:22:05 | 00:00:00 | |
| HASLITAL | 2026-09-03 00:56:16 | 46.45403 | 7.59842 | 224° | 88km/h | 34884m | -30.3m/s | -34.4°C | 0.3% | 0hPa | 2.6V | 00:00:00 | 00:00:00 | 00:00:00 | |
| IW2NTF | 2026-09-03 00:56:13 | 46.45479 | 7.59791 | 63° | 53km/h | 35122m | -30m/s | -34.6°C | 1.7% | 0hPa | 2.6V | 08:30:00 | 02:21:53 | 00:00:00 | |
| BIOWL1-15 | 2026-09-03 00:56:03 | 46.45396 | 7.59812 | 303° | 71km/h | 35322m | -29.9m/s | 0°C | 0% | 0hPa | 2.5V | 18:12:15 | 02:21:46 | 00:00:00 | |
| IW2NTF | 2026-09-03 00:55:59 | 46.45382 | 7.59883 | 268° | 64km/h | 35411m | -28.2m/s | -34.5°C | 1.8% | 0hPa | 2.5V | 08:30:00 | 02:21:43 | 00:00:00 | |
| DL6DJ-15 | 2026-09-03 00:55:54 | 46.45534 | 7.60070 | 212° | 106km/h | 35681m | -31.9m/s | -32.4°C | 0.2% | -1.0hPa | 2.5V | 00:00:00 | 00:00:00 | 00:00:00 | |
| DM0DOS-11 | 2026-09-03 00:55:53 | 46.45555 | 7.60091 | 214° | 99km/h | 35713m | -32.6m/s | -32.4°C | 1.5% | 0hPa | 2.5V | 08:30:00 | 02:21:32 | 00:00:00 | |
| IW2NTF | 2026-09-03 00:55:52 | 46.45534 | 7.60070 | 212° | 106km/h | 35680m | -31.9m/s | -32.4°C | 1.5% | 0hPa | 2.5V | 08:30:00 | 02:21:33 | 00:00:00 | |
| DF7PN | 2026-09-03 00:55:52 | 46.45488 | 7.60032 | 207° | 104km/h | 35619m | -29.3m/s | -32.7°C | 0.2% | -1.0hPa | 2.5V | 00:00:00 | 00:00:00 | 00:00:00 | |
| DK5PH-5 | 2026-09-03 00:55:49 | 46.45534 | 7.60070 | 213° | 51km/h | 35681m | -31.8m/s | -32.4°C | 1.5% | 0hPa | 2.5V | 00:00:00 | 02:21:33 | 00:00:00 | |
| DO3MHA-11 | 2026-09-03 00:55:45 | 46.45604 | 7.60149 | 231° | 57km/h | 35805m | -28.0m/s | -31.8°C | 1.4% | 0hPa | 2.5V | 00:00:00 | 02:21:29 | 00:00:00 | |
| DM0DOS-11 | 2026-09-03 00:55:43 | 46.45629 | 7.60279 | 259° | 58km/h | 36050m | -30.5m/s | -32.1°C | 1.5% | 0hPa | 2.5V | 08:30:00 | 02:21:22 | 00:00:00 | |
| IW2NTF | 2026-09-03 00:55:43 | 46.45626 | 7.60258 | 257° | 58km/h | 36015m | -38.8m/s | -32°C | 1.4% | 0hPa | 2.6V | 08:30:00 | 02:21:23 | 00:00:00 | |
| BIOWL9-15 | 2026-09-03 00:55:40 | 46.45626 | 7.60258 | 257° | 57km/h | 36015m | -38.8m/s | -32.0°C | 0.2% | -1.0hPa | 2.6V | 00:00:00 | 00:00:00 | 00:00:00 | |
| DB0UT-7 | 2026-09-03 00:55:35 | 46.45637 | 7.60343 | 260° | 42km/h | 36102m | -3.4m/s | -32.2°C | 1.5% | 0hPa | 2.6V | 00:00:00 | 00:00:00 | 00:00:00 | |
| IW2NTF | 2026-09-03 00:55:33 | 46.45675 | 7.60447 | 198° | 37km/h | 36074m | 7.3m/s | -32.3°C | 1.5% | 0hPa | 2.6V | 08:30:00 | 02:21:13 | 00:00:00 | |
| HASLITAL | 2026-09-03 00:55:31 | 46.45650 | 7.60410 | 243° | 62km/h | 36091m | 3.3m/s | -32.3°C | 0.3% | 0hPa | 2.5V | 00:00:00 | 00:00:00 | 00:00:00 | |
| DO3MHA-11 | 2026-09-03 00:55:25 | 46.45699 | 7.60443 | 191° | 42km/h | 36054m | 3.9m/s | -32.2°C | 1.5% | 0hPa | 2.5V | 00:00:00 | 02:21:09 | 00:00:00 | |
| DL6DJ-15 | 2026-09-03 00:55:23 | 46.45707 | 7.60469 | 256° | 46km/h | 36035m | 7.4m/s | -32.3°C | 0.2% | -1.0hPa | 2.5V | 00:00:00 | 00:00:00 | 00:00:00 | |
| IW2NTF | 2026-09-03 00:55:22 | 46.45720 | 7.60528 | 246° | 58km/h | 36018m | 3.8m/s | -32.2°C | 1.5% | 0hPa | 2.5V | 08:30:00 | 02:21:03 | 00:00:00 | |
| DM0DOS-11 | 2026-09-03 00:55:21 | 46.45741 | 7.60568 | 210° | 33km/h | 36003m | 6.8m/s | -32.1°C | 1.5% | 0hPa | 2.5V | 08:30:00 | 02:21:00 | 00:00:00 | |
| DF7PN | 2026-09-03 00:55:21 | 46.45714 | 7.60508 | 251° | 60km/h | 36022m | 4.8m/s | -32.2°C | 0.2% | -1.0hPa | 2.5V | 00:00:00 | 00:00:00 | 00:00:00 | |
| DO3MHA-11 | 2026-09-03 00:55:15 | 46.45747 | 7.60571 | 189° | 38km/h | 35997m | 7.1m/s | -32.1°C | 1.5% | 0hPa | 2.5V | 00:00:00 | 02:20:59 | 00:00:00 | |
| IW2NTF | 2026-09-03 00:55:12 | 46.45786 | 7.60588 | 231° | 46km/h | 35962m | 7.2m/s | -32°C | 1.5% | 0hPa | 2.5V | 08:30:00 | 02:20:53 | 00:00:00 | |
| DM0DOS-11 | 2026-09-03 00:55:11 | 46.45816 | 7.60655 | 235° | 51km/h | 35940m | 4.2m/s | -32°C | 1.5% | 0hPa | 2.6V | 08:30:00 | 02:20:49 | 00:00:00 | |
| HASLITAL | 2026-09-03 00:55:11 | 46.45766 | 7.60569 | 183° | 24km/h | 35980m | 4.4m/s | -32.1°C | 0.3% | 0hPa | 2.5V | 00:00:00 | 00:00:00 | 00:00:00 | |
| BIOWL9-15 | 2026-09-03 00:55:09 | 46.45793 | 7.60603 | 236° | 53km/h | 35955m | 6.8m/s | -32.0°C | 0.2% | -1.0hPa | 2.5V | 00:00:00 | 00:00:00 | 00:00:00 | |
| IW2NTF | 2026-09-03 00:55:03 | 46.45855 | 7.60688 | 191° | 31km/h | 35907m | 4.2m/s | -31.9°C | 1.5% | 0hPa | 2.5V | 08:30:00 | 02:20:43 | 00:00:00 | |
| DM0DOS-11 | 2026-09-03 00:55:00 | 46.45883 | 7.60712 | 221° | 58km/h | 35889m | 7.5m/s | -31.9°C | 1.5% | 0hPa | 2.6V | 08:30:00 | 02:20:40 | 00:00:00 | |
| OE5DXL-15 | 2026-09-03 00:54:59 | 46.45855 | 7.60688 | 192° | 51km/h | 35908m | 4.1m/s | 0°C | 0% | 0hPa | 2.6V | 00:00:00 | 00:00:00 | 00:00:00 | |
| DO3MHA-11 | 2026-09-03 00:54:55 | 46.45894 | 7.60727 | 228° | 42km/h | 35883m | 6.6m/s | -31.9°C | 1.4% | 0hPa | 2.6V | 00:00:00 | 02:20:39 | 00:00:00 | |
| IW2NTF | 2026-09-03 00:54:53 | 46.45947 | 7.60806 | 186° | 22km/h | 35850m | 8.2m/s | -32°C | 1.5% | 0hPa | 2.6V | 08:30:00 | 02:20:33 | 00:00:00 | |
| DM0DOS-11 | 2026-09-03 00:54:50 | 46.45964 | 7.60799 | 171° | 29km/h | 35834m | 3.3m/s | -32.2°C | 1.5% | 0hPa | 2.5V | 08:30:00 | 02:20:30 | 00:00:00 | |
| DF7PN | 2026-09-03 00:54:50 | 46.45946 | 7.60806 | 186° | 20km/h | 35850m | 8.2m/s | -32.1°C | 0.2% | -1.0hPa | 2.6V | 00:00:00 | 00:00:00 | 00:00:00 | |
| DO3MHA-11 | 2026-09-03 00:54:45 | 46.45972 | 7.60799 | 191° | 46km/h | 35830m | 4.5m/s | -32.3°C | 1.5% | 0hPa | 2.6V | 00:00:00 | 02:20:29 | 00:00:00 | |
| IW2NTF | 2026-09-03 00:54:42 | 46.46028 | 7.60885 | 238° | 53km/h | 35796m | 3.9m/s | -32.6°C | 1.5% | 0hPa | 2.6V | 08:30:00 | 02:20:23 | 00:00:00 | |
| DM0DOS-11 | 2026-09-03 00:54:40 | 46.46044 | 7.60913 | 196° | 18km/h | 35779m | 6.8m/s | -32.8°C | 1.5% | 0hPa | 2.5V | 08:30:00 | 02:20:20 | 00:00:00 | |
| DH7VM-15 | 2026-09-03 00:54:36 | 46.46039 | 7.60908 | 226° | 27km/h | 35786m | 6.4m/s | -32.7°C | 0.2% | 0hPa | 2.5V | 00:00:00 | 00:00:00 | 00:00:00 | |
| DB0UT-7 | 2026-09-03 00:54:35 | 46.46048 | 7.60912 | 164° | 33km/h | 35773m | 6.1m/s | -32.7°C | 1.5% | 0hPa | 2.5V | 00:00:00 | 00:00:00 | 00:00:00 | |
| IW2NTF | 2026-09-03 00:54:33 | 46.46109 | 7.60919 | 207° | 64km/h | 35739m | 6m/s | -32.9°C | 1.5% | 0hPa | 2.5V | 08:30:00 | 02:20:13 | 00:00:00 | |
| DM0DOS-11 | 2026-09-03 00:54:29 | 46.46146 | 7.60957 | 222° | 49km/h | 35725m | 4.2m/s | -32.8°C | 1.5% | 0hPa | 2.6V | 08:30:00 | 02:20:10 | 00:00:00 | |
| OE5DXL-15 | 2026-09-03 00:54:27 | 46.46136 | 7.60944 | 220° | 27km/h | 35730m | 3.9m/s | 0°C | 0% | 0hPa | 2.5V | 00:00:00 | 00:00:00 | 08:30:00 | |
| DO3MHA-11 | 2026-09-03 00:54:25 | 46.46154 | 7.60967 | 225° | 26km/h | 35721m | 5.7m/s | -32.8°C | 1.5% | 0hPa | 2.5V | 00:00:00 | 02:20:09 | 00:00:00 | |
| IW2NTF | 2026-09-03 00:54:23 | 46.46172 | 7.60978 | 202° | 20km/h | 35688m | 4.8m/s | -32.9°C | 1.5% | 0hPa | 2.5V | 08:30:00 | 02:20:03 | 00:00:00 | |
| DL6DJ-15 | 2026-09-03 00:54:21 | 46.46178 | 7.60983 | 212° | 31km/h | 35683m | 6.9m/s | -32.9°C | 0.2% | -1.0hPa | 2.6V | 00:00:00 | 00:00:00 | 00:00:00 | |
| DM0DOS-11 | 2026-09-03 00:54:19 | 46.46195 | 7.61002 | 220° | 55km/h | 35668m | 6.7m/s | -33°C | 1.5% | 0hPa | 2.6V | 08:30:00 | 02:20:00 | 00:00:00 | |
| DF7PN | 2026-09-03 00:54:19 | 46.46178 | 7.60983 | 212° | 31km/h | 35683m | 6.9m/s | -32.9°C | 0.2% | -1.0hPa | 2.5V | 00:00:00 | 00:00:00 | 00:00:00 | |
| DO3MHA-11 | 2026-09-03 00:54:15 | 46.46206 | 7.61016 | 222° | 26km/h | 35663m | 5.0m/s | -33.0°C | 1.5% | 0hPa | 2.5V | 00:00:00 | 02:19:59 | 00:00:00 | |
| DH7VM-15 | 2026-09-03 00:54:14 | 46.46206 | 7.61016 | 222° | 60km/h | 35663m | 5.1m/s | -33.0°C | 0.3% | 0hPa | 2.5V | 00:00:00 | 00:00:00 | 00:00:00 | |
| IW2NTF | 2026-09-03 00:54:13 | 46.46246 | 7.61061 | 140° | 2km/h | 35629m | 5.8m/s | -33.4°C | 1.6% | 0hPa | 2.5V | 08:30:00 | 02:19:53 | 00:00:00 | |
| HASLITAL | 2026-09-03 00:54:09 | 46.46245 | 7.61060 | 200° | 9km/h | 35636m | 6.9m/s | -33.3°C | 0.3% | 0hPa | 2.6V | 00:00:00 | 00:00:00 | 00:00:00 | |
| DM0DOS-11 | 2026-09-03 00:54:08 | 46.46245 | 7.61067 | 263° | 18km/h | 35615m | 5.4m/s | -33.5°C | 1.5% | 0hPa | 2.6V | 08:30:00 | 02:19:50 | 00:00:00 | |
| DB0UT-7 | 2026-09-03 00:54:05 | 46.46247 | 7.61075 | 252° | 26km/h | 35609m | 6.1m/s | -33.5°C | 1.6% | 0hPa | 2.5V | 00:00:00 | 02:19:49 | 00:00:00 | |
| IW2NTF | 2026-09-03 00:54:02 | 46.46288 | 7.61141 | 198° | 29km/h | 35577m | 6.3m/s | -34°C | 1.6% | 0hPa | 2.5V | 08:30:00 | 02:19:43 | 00:00:00 | |
| DM0DOS-11 | 2026-09-03 00:53:58 | 46.46301 | 7.61138 | 114° | 11km/h | 35558m | 5.2m/s | -34.1°C | 1.6% | 0hPa | 2.6V | 08:30:00 | 02:19:40 | 00:00:00 | |
| DO3MHA-11 | 2026-09-03 00:53:55 | 46.46301 | 7.61135 | 84° | 24km/h | 35553m | 4.4m/s | -34.1°C | 1.6% | 0hPa | 2.6V | 00:00:00 | 02:19:39 | 00:00:00 | |
| IW2NTF | 2026-09-03 00:53:52 | 46.46310 | 7.61175 | 232° | 37km/h | 35519m | 5m/s | -34.3°C | 1.6% | 0hPa | 2.6V | 08:30:00 | 02:19:33 | 00:00:00 | |
| DL6DJ-15 | 2026-09-03 00:53:49 | 46.46310 | 7.61175 | 232° | 35km/h | 35520m | 5.0m/s | -34.3°C | 0.3% | -1.0hPa | 2.5V | 00:00:00 | 00:00:00 | 00:00:00 | |
| DM0DOS-11 | 2026-09-03 00:53:47 | 46.46329 | 7.61193 | 184° | 26km/h | 35502m | 5.9m/s | -34.4°C | 1.6% | 0hPa | 2.5V | 08:30:00 | 02:19:30 | 00:00:00 | |
| DK5PH-5 | 2026-09-03 00:53:47 | 46.46323 | 7.61190 | 205° | 29km/h | 35509m | 6.0m/s | -34.3°C | 1.6% | 0hPa | 2.6V | 00:00:00 | 02:19:31 | 00:00:00 | |
| DO3MHA-11 | 2026-09-03 00:53:45 | 46.46335 | 7.61192 | 166° | 22km/h | 35497m | 5.0m/s | -34.3°C | 1.6% | 0hPa | 2.6V | 00:00:00 | 02:19:29 | 00:00:00 | |
| IW2NTF | 2026-09-03 00:53:44 | 46.46334 | 7.61204 | 304° | 35km/h | 35462m | 6.2m/s | -34.7°C | 1.7% | 0hPa | 2.6V | 08:30:00 | 02:19:23 | 00:00:00 | |
| DM0DOS-11 | 2026-09-03 00:53:42 | 46.46319 | 7.61240 | 280° | 9km/h | 35445m | 5.8m/s | -35°C | 1.7% | 0hPa | 2.6V | 08:30:00 | 02:19:19 | 00:00:00 | |
| DB0UT-7 | 2026-09-03 00:53:35 | 46.46319 | 7.61240 | 281° | 29km/h | 35445m | 5.7m/s | -34.9°C | 1.7% | 0hPa | 2.6V | 00:00:00 | 00:00:00 | 00:00:00 | |
| IW2NTF | 2026-09-03 00:53:30 | 46.46354 | 7.61226 | 191° | 29km/h | 35413m | 4.3m/s | -35.1°C | 1.7% | 0hPa | 2.6V | 08:30:00 | 02:19:13 | 00:00:00 | |
| DM0DOS-11 | 2026-09-03 00:53:30 | 46.46355 | 7.61269 | 320° | 31km/h | 35382m | 3.9m/s | -34.9°C | 1.7% | 0hPa | 2.6V | 08:30:00 | 02:19:08 | 00:00:00 | |
| BIOWL1-15 | 2026-09-03 00:53:30 | 46.46363 | 7.61249 | 281° | 33km/h | 35393m | 7.1m/s | -35°C | 0% | 0hPa | 2.5V | 18:12:15 | 02:19:10 | 00:00:00 | |
| DO3MHA-11 | 2026-09-03 00:53:25 | 46.46360 | 7.61260 | 301° | 31km/h | 35387m | 5.5m/s | -34.9°C | 1.7% | 0hPa | 2.6V | 00:00:00 | 02:19:09 | 00:00:00 | |
| IW2NTF | 2026-09-03 00:53:20 | 46.46346 | 7.61253 | 136° | 35km/h | 35355m | 4.9m/s | -34.8°C | 1.7% | 0hPa | 2.6V | 08:30:00 | 02:19:03 | 00:00:00 | |
| DM0DOS-11 | 2026-09-03 00:53:19 | 46.46389 | 7.61270 | 247° | 46km/h | 35328m | 6m/s | -34.7°C | 1.7% | 0hPa | 2.6V | 08:30:00 | 02:18:58 | 00:00:00 | |
| BIOWL1-15 | 2026-09-03 00:53:19 | 46.46374 | 7.61247 | 202° | 44km/h | 35341m | 5.7m/s | -34.7°C | 0% | 0hPa | 2.5V | 18:12:15 | 02:19:00 | 00:00:00 | |
| DF7PN | 2026-09-03 00:53:16 | 46.46374 | 7.61247 | 201° | 44km/h | 35341m | 5.7m/s | -34.7°C | 0.3% | -1.0hPa | 2.5V | 00:00:00 | 00:00:00 | 00:00:00 | |
| DO3MHA-11 | 2026-09-03 00:53:15 | 46.46383 | 7.61256 | 225° | 33km/h | 35335m | 6.2m/s | -34.6°C | 1.6% | 0hPa | 2.5V | 00:00:00 | 02:18:59 | 00:00:00 | |
| DK5PH-5 | 2026-09-03 00:53:13 | 46.46392 | 7.61286 | 269° | 27km/h | 35323m | 5.4m/s | -34.6°C | 1.7% | 0hPa | 2.5V | 00:00:00 | 02:18:57 | 08:30:00 | |
| IW2NTF | 2026-09-03 00:53:09 | 46.46375 | 7.61321 | 13° | 20km/h | 35301m | 6.2m/s | -34.7°C | 1.7% | 0hPa | 2.6V | 08:30:00 | 02:18:53 | 00:00:00 | |
| DM0DOS-11 | 2026-09-03 00:53:08 | 46.46384 | 7.61293 | 179° | 29km/h | 35274m | 4.9m/s | -34.7°C | 1.7% | 0hPa | 2.6V | 08:30:00 | 02:18:48 | 00:00:00 | |
| BIOWL1-15 | 2026-09-03 00:53:05 | 46.46378 | 7.61295 | 152° | 27km/h | 35279m | 4.5m/s | -34.8°C | 0% | 0hPa | 2.6V | 18:12:15 | 02:18:49 | 00:00:00 | |
| BIOWL9-15 | 2026-09-03 00:53:05 | 46.46385 | 7.61293 | 179° | 27km/h | 35275m | 4.9m/s | -34.7°C | 0.3% | -1.0hPa | 2.6V | 00:00:00 | 00:00:00 | 00:00:00 | |
| IW2NTF | 2026-09-03 00:53:03 | 46.46405 | 7.61344 | 275° | 42km/h | 35244m | 4.8m/s | -34.7°C | 1.7% | 0hPa | 2.6V | 08:30:00 | 02:18:43 | 00:00:00 | |
| BIOWL1-15 | 2026-09-03 00:52:55 | 46.46401 | 7.61374 | 169° | 9km/h | 35206m | 5.3m/s | -34.8°C | 0% | 0hPa | 2.5V | 18:12:15 | 02:18:36 | 00:00:00 | |
| DH7VM-15 | 2026-09-03 00:52:53 | 46.46397 | 7.61377 | 118° | 5km/h | 35218m | 5.7m/s | -34.9°C | 0.3% | 0hPa | 2.6V | 00:00:00 | 00:00:00 | 00:00:00 | |
| DM0DOS-11 | 2026-09-03 00:52:51 | 46.46407 | 7.61385 | 256° | 24km/h | 35189m | 6m/s | -34.9°C | 1.7% | 0hPa | 2.6V | 08:30:00 | 02:18:33 | 00:00:00 | |
| DL6DJ-15 | 2026-09-03 00:52:47 | 46.46409 | 7.61406 | 268° | 33km/h | 35178m | 5.7m/s | -35.0°C | 0.3% | -1.0hPa | 2.5V | 00:00:00 | 00:00:00 | 00:00:00 | |
| DM0DOS-11 | 2026-09-03 00:52:45 | 46.46412 | 7.61489 | 276° | 20km/h | 35121m | 5m/s | -35.3°C | 1.7% | 0hPa | 2.5V | 08:30:00 | 02:18:21 | 00:00:00 | |
| BIOWL1-15 | 2026-09-03 00:52:43 | 46.46410 | 7.61461 | 258° | 16km/h | 35144m | 5.3m/s | -35.3°C | 0% | 0hPa | 2.5V | 18:12:15 | 02:18:25 | 00:00:00 | |
| DK5PH-5 | 2026-09-03 00:52:39 | 46.46411 | 7.61474 | 262° | 20km/h | 35133m | 6.1m/s | -35.3°C | 1.8% | 0hPa | 2.6V | 00:00:00 | 02:18:23 | 00:00:00 | |
| DB0UT-7 | 2026-09-03 00:52:35 | 46.46409 | 7.61502 | 301° | 29km/h | 35111m | 5.6m/s | -35.3°C | 1.7% | 0hPa | 2.6V | 00:00:00 | 00:00:00 | 00:00:00 | |
| BIOWL9-15 | 2026-09-03 00:52:34 | 46.46403 | 7.61511 | 324° | 16km/h | 35099m | 6.0m/s | -35.3°C | 0.3% | -1.0hPa | 2.6V | 00:00:00 | 00:00:00 | 00:00:00 | |
| DM0DOS-11 | 2026-09-03 00:52:32 | 46.46390 | 7.61537 | 285° | 35km/h | 35079m | 5.9m/s | -35.3°C | 1.8% | 0hPa | 2.6V | 08:30:00 | 02:18:13 | 00:00:00 | |
| BIOWL1-15 | 2026-09-03 00:52:30 | 46.46386 | 7.61649 | 308° | 9km/h | 35021m | 3.5m/s | -35.1°C | 0% | 0hPa | 2.6V | 18:12:15 | 02:18:03 | 00:00:00 | |
| BIOWL1-15 | 2026-09-03 00:52:22 | 46.46385 | 7.61653 | 286° | 16km/h | 35016m | 4.4m/s | -35.1°C | 0% | 0hPa | 2.5V | 18:12:15 | 02:18:02 | 00:00:00 | |
| DL6DJ-15 | 2026-09-03 00:52:16 | 46.46385 | 7.61712 | 264° | 60km/h | 34991m | 5.2m/s | -35.0°C | 0.3% | -1.0hPa | 2.6V | 00:00:00 | 00:00:00 | 00:00:00 | |
| IW2NTF | 2026-09-03 00:52:15 | 46.46392 | 7.61790 | 270° | 13km/h | 34965m | 8.4m/s | -34.8°C | 1.7% | 0hPa | 2.6V | 08:30:00 | 02:17:53 | 00:00:00 | |
| BIOWL1-15 | 2026-09-03 00:52:08 | 46.46389 | 7.61817 | 264° | 44km/h | 34933m | 8.1m/s | -34.7°C | 0% | 0hPa | 2.5V | 18:12:15 | 02:17:47 | 00:00:00 | |
| OE5DXL-15 | 2026-09-03 00:52:06 | 46.46388 | 7.61795 | 278° | 40km/h | 34945m | 3.3m/s | 0°C | 0% | 0hPa | 2.6V | 00:00:00 | 00:00:00 | 00:00:00 | |
| DB0UT-7 | 2026-09-03 00:52:05 | 46.46388 | 7.61795 | 278° | 35km/h | 34945m | 3.3m/s | -34.7°C | 1.7% | 0hPa | 2.6V | 00:00:00 | 02:17:49 | 00:00:00 | |
| HASLITAL | 2026-09-03 00:52:03 | 46.46388 | 7.61803 | 269° | 29km/h | 34940m | 6.1m/s | -34.7°C | 0.3% | 0hPa | 2.6V | 00:00:00 | 00:00:00 | 00:00:00 | |
| IW2NTF | 2026-09-03 00:52:02 | 46.46401 | 7.61907 | 255° | 62km/h | 34909m | 3.8m/s | -34.5°C | 1.7% | 0hPa | 2.6V | 08:30:00 | 02:17:43 | 00:00:00 | |
| BIOWL1-15 | 2026-09-03 00:51:53 | 46.46412 | 7.61958 | 271° | 11km/h | 34868m | 4.8m/s | -34.3°C | 0% | 0hPa | 2.5V | 18:12:15 | 02:17:36 | 00:00:00 | |
| DM0DOS-11 | 2026-09-03 00:51:52 | 46.46424 | 7.62042 | 249° | 53km/h | 34832m | 5.9m/s | -34.2°C | 1.6% | 0hPa | 2.5V | 08:30:00 | 02:17:30 | 00:00:00 | |
| IW2NTF | 2026-09-03 00:51:49 | 46.46420 | 7.62023 | 253° | 53km/h | 34838m | 6.4m/s | -34.2°C | 1.6% | 0hPa | 2.5V | 08:30:00 | 02:17:31 | 00:00:00 | |
| DL6DJ-15 | 2026-09-03 00:51:46 | 46.46429 | 7.62058 | 244° | 47km/h | 34826m | 5.7m/s | -34.2°C | 0.3% | -1.0hPa | 2.5V | 00:00:00 | 00:00:00 | 00:00:00 | |
| BIOWL1-15 | 2026-09-03 00:51:42 | 46.46445 | 7.62094 | 231° | 29km/h | 34809m | 5.2m/s | -34.1°C | 0% | 0hPa | 2.5V | 18:12:15 | 02:17:26 | 00:00:00 | |
| DM0DOS-11 | 2026-09-03 00:51:40 | 46.46455 | 7.62162 | 264° | 33km/h | 34769m | 4.9m/s | -34°C | 1.6% | 0hPa | 2.6V | 08:30:00 | 02:17:19 | 00:00:00 | |
| IW2NTF | 2026-09-03 00:51:39 | 46.46455 | 7.62138 | 271° | 33km/h | 34780m | 5.6m/s | -34.1°C | 1.7% | 0hPa | 2.5V | 08:30:00 | 02:17:21 | 00:00:00 | |
| BIOWL1-15 | 2026-09-03 00:51:32 | 46.46486 | 7.62208 | 211° | 38km/h | 34734m | 5.2m/s | -33.9°C | 0% | 0hPa | 2.6V | 18:12:15 | 02:17:13 | 00:00:00 | |
| DO3MHA-11 | 2026-09-03 00:51:32 | 46.46464 | 7.62190 | 221° | 37km/h | 34752m | 6.8m/s | -33.9°C | 1.6% | 0hPa | 2.5V | 00:00:00 | 02:17:16 | 00:00:00 | |
| BIOWL9-15 | 2026-09-03 00:51:31 | 46.46470 | 7.62196 | 208° | 31km/h | 34745m | 6.1m/s | -33.9°C | 0.3% | -1.0hPa | 2.5V | 00:00:00 | 00:00:00 | 00:00:00 | |
| IW2NTF | 2026-09-03 00:51:29 | 46.46502 | 7.62227 | 228° | 42km/h | 34722m | 6.4m/s | -33.9°C | 1.6% | 0hPa | 2.5V | 08:30:00 | 02:17:11 | 00:00:00 | |
| BIOWL1-15 | 2026-09-03 00:51:22 | 46.46531 | 7.62297 | 216° | 24km/h | 34670m | 5.9m/s | -34.1°C | 0% | 0hPa | 2.5V | 18:12:15 | 02:17:02 | 00:00:00 | |
| DO3MHA-11 | 2026-09-03 00:51:21 | 46.46521 | 7.62286 | 235° | 20km/h | 34687m | 5.8m/s | -33.9°C | 1.6% | 0hPa | 2.5V | 00:00:00 | 02:17:05 | 00:00:00 | |
| IW2NTF | 2026-09-03 00:51:20 | 46.46536 | 7.62303 | 221° | 31km/h | 34664m | 6.5m/s | -34.1°C | 1.6% | 0hPa | 2.5V | 08:30:00 | 02:17:01 | 00:00:00 | |
| DL6DJ-15 | 2026-09-03 00:51:14 | 46.46556 | 7.62334 | 228° | 42km/h | 34647m | 4.7m/s | -34.1°C | 0.3% | -1.0hPa | 2.5V | 00:00:00 | 00:00:00 | 00:00:00 | |
| DF7PN | 2026-09-03 00:51:13 | 46.46570 | 7.62354 | 218° | 31km/h | 34637m | 5.8m/s | -34.2°C | 0.3% | -1.0hPa | 2.5V | 00:00:00 | 00:00:00 | 00:00:00 | |
| IW2NTF | 2026-09-03 00:51:08 | 46.46592 | 7.62361 | 190° | 15km/h | 34606m | 5.7m/s | -34.3°C | 1.6% | 0hPa | 2.5V | 08:30:00 | 02:16:51 | 00:00:00 | |
| BIOWL1-15 | 2026-09-03 00:51:07 | 46.46592 | 7.62361 | 190° | 15km/h | 34606m | 5.7m/s | -34.3°C | 0% | 0hPa | 2.5V | 18:12:15 | 02:16:51 | 00:00:00 | |
| DB0UT-7 | 2026-09-03 00:51:05 | 46.46601 | 7.62368 | 217° | 26km/h | 34594m | 6.0m/s | -34.4°C | 1.6% | 0hPa | 2.5V | 00:00:00 | 02:16:49 | 00:00:00 | |
| OE5DXL-15 | 2026-09-03 00:51:04 | 46.46614 | 7.62382 | 213° | 27km/h | 34583m | 5.1m/s | 0°C | 0% | 0hPa | 2.5V | 00:00:00 | 00:00:00 | 00:00:00 | |
| IW2NTF | 2026-09-03 00:51:03 | 46.46664 | 7.62393 | 166° | 26km/h | 34547m | 5.3m/s | -34.9°C | 1.7% | 0hPa | 2.5V | 08:30:00 | 02:16:41 | 00:00:00 | |
| BIOWL1-15 | 2026-09-03 00:50:57 | 46.46664 | 7.62393 | 167° | 26km/h | 34547m | 5.3m/s | -34.9°C | 0% | 0hPa | 2.5V | 18:12:15 | 02:16:41 | 00:00:00 | |
| BIOWL1-15 | 2026-09-03 00:50:49 | 46.46713 | 7.62377 | 157° | 38km/h | 34489m | 5m/s | -35.2°C | 0% | 0hPa | 2.5V | 18:12:15 | 02:16:31 | 00:00:00 | |
| IW2NTF | 2026-09-03 00:50:49 | 46.46713 | 7.62377 | 156° | 38km/h | 34489m | 5m/s | -35.2°C | 1.8% | 0hPa | 2.5V | 08:30:00 | 02:16:31 | 00:00:00 | |
| DL6DJ-15 | 2026-09-03 00:50:43 | 46.46748 | 7.62368 | 185° | 26km/h | 34465m | 6.3m/s | -35.1°C | 0.3% | -1.0hPa | 2.5V | 00:00:00 | 00:00:00 | 00:00:00 | |
| IW2NTF | 2026-09-03 00:50:42 | 46.46766 | 7.62349 | 100° | 26km/h | 34427m | 5.2m/s | -35.1°C | 1.7% | 0hPa | 2.5V | 08:30:00 | 02:16:21 | 00:00:00 | |
| BIOWL1-15 | 2026-09-03 00:50:37 | 46.46766 | 7.62349 | 100° | 26km/h | 34427m | 5.2m/s | -35.1°C | 0% | 0hPa | 2.5V | 18:12:15 | 02:16:21 | 00:00:00 | |
| DB0UT-7 | 2026-09-03 00:50:35 | 46.46769 | 7.62334 | 114° | 20km/h | 34418m | 4.9m/s | -35.1°C | 1.7% | 0hPa | 2.6V | 00:00:00 | 00:00:00 | 08:30:00 | |
| OE5DXL-15 | 2026-09-03 00:50:33 | 46.46774 | 7.62328 | 189° | 16km/h | 34405m | 7.0m/s | 0°C | 0% | 0hPa | 2.5V | 00:00:00 | 00:00:00 | 00:00:00 | |
| IW2NTF | 2026-09-03 00:50:32 | 46.46812 | 7.62341 | 135° | 22km/h | 34365m | 5.2m/s | -35.2°C | 1.7% | 0hPa | 2.5V | 08:30:00 | 02:16:10 | 00:00:00 | |
| BIOWL1-15 | 2026-09-03 00:50:26 | 46.46810 | 7.62321 | 9° | 16km/h | 34341m | 7m/s | -35.3°C | 0% | 0hPa | 2.5V | 18:12:15 | 02:16:06 | 00:00:00 | |
| DK5PH-5 | 2026-09-03 00:50:22 | 46.46810 | 7.62321 | 9° | 20km/h | 34341m | 7.0m/s | -35.3°C | 1.7% | 0hPa | 2.5V | 00:00:00 | 02:16:06 | 00:00:00 | |
| IW2NTF | 2026-09-03 00:50:21 | 46.46805 | 7.62343 | 201° | 24km/h | 34304m | 5.8m/s | -35.5°C | 1.7% | 0hPa | 2.5V | 08:30:00 | 02:16:00 | 00:00:00 | |
| DO3MHA-11 | 2026-09-03 00:50:20 | 46.46801 | 7.62325 | 320° | 18km/h | 34329m | 5.2m/s | -35.4°C | 1.7% | 0hPa | 2.6V | 00:00:00 | 02:16:04 | 00:00:00 | |
| BIOWL1-15 | 2026-09-03 00:50:14 | 46.46792 | 7.62382 | 38° | 38km/h | 34184m | 7.9m/s | -35.5°C | 0% | 0hPa | 2.6V | 18:12:15 | 02:15:39 | 00:00:00 | |
| IW2NTF | 2026-09-03 00:50:12 | 46.46796 | 7.62353 | 14° | 18km/h | 34248m | 4.9m/s | -35.7°C | 1.8% | 0hPa | 2.5V | 08:30:00 | 02:15:50 | 00:00:00 | |
| BIOWL1-15 | 2026-09-03 00:50:07 | 46.46783 | 7.62373 | 34° | 46km/h | 34178m | 5.1m/s | -35.5°C | 0% | 0hPa | 2.6V | 18:12:15 | 02:15:38 | 00:00:00 | |
| DB0UT-7 | 2026-09-03 00:50:05 | 46.46793 | 7.62352 | 10° | 29km/h | 34243m | 4.7m/s | -35.6°C | 1.8% | 0hPa | 2.5V | 00:00:00 | 02:15:49 | 00:00:00 | |
| IW2NTF | 2026-09-03 00:50:02 | 46.46798 | 7.62388 | 33° | 24km/h | 34192m | 8.7m/s | -35.5°C | 1.8% | 0hPa | 2.5V | 08:30:00 | 02:15:40 | 00:00:00 | |
| BIOWL9-15 | 2026-09-03 00:49:59 | 46.46803 | 7.62390 | 292° | 7km/h | 34206m | 3.9m/s | -35.5°C | 0.3% | -1.0hPa | 2.5V | 00:00:00 | 00:00:00 | 00:00:00 | |
| IW2NTF | 2026-09-03 00:49:52 | 46.46743 | 7.62410 | 235° | 29km/h | 34136m | 4.5m/s | -35.6°C | 1.8% | 0hPa | 2.5V | 08:30:00 | 02:15:30 | 00:00:00 | |
| BIOWL1-15 | 2026-09-03 00:49:43 | 46.46750 | 7.62414 | 69° | 15km/h | 34122m | 5.8m/s | -35.6°C | 0% | 0hPa | 2.5V | 18:12:15 | 02:15:27 | 00:00:00 | |
| BIOWL1-15 | 2026-09-03 00:49:33 | 46.46680 | 7.62454 | 17° | 20km/h | 34044m | 6.2m/s | -35.5°C | 0% | 0hPa | 2.5V | 18:12:15 | 02:15:13 | 00:00:00 | |
| IW2NTF | 2026-09-03 00:49:28 | 46.46655 | 7.62456 | 344° | 46km/h | 34025m | 5.8m/s | -35.5°C | 1.7% | 0hPa | 2.6V | 08:30:00 | 02:15:10 | 00:00:00 | |
| BIOWL1-15 | 2026-09-03 00:49:22 | 46.46617 | 7.62492 | 237° | 11km/h | 33992m | 6.6m/s | -35.7°C | 0% | 0hPa | 2.5V | 18:12:15 | 02:15:04 | 00:00:00 | |
| IW2NTF | 2026-09-03 00:49:22 | 46.46627 | 7.62503 | 255° | 11km/h | 33968m | 5.9m/s | -35.8°C | 1.7% | 0hPa | 2.6V | 08:30:00 | 02:15:00 | 00:00:00 | |
| HASLITAL | 2026-09-03 00:49:19 | 46.46617 | 7.62492 | 237° | 11km/h | 33992m | 6.6m/s | -35.7°C | 0.4% | 0hPa | 2.6V | 00:00:00 | 00:00:00 | 00:00:00 | |
| DO3MHA-11 | 2026-09-03 00:49:16 | 46.46627 | 7.62503 | 256° | 11km/h | 33968m | 5.9m/s | -35.7°C | 1.7% | 0hPa | 2.6V | 00:00:00 | 02:15:00 | 00:00:00 | |
| IW2NTF | 2026-09-03 00:49:11 | 46.46614 | 7.62534 | 212° | 4km/h | 33910m | 5.6m/s | -36.3°C | 1.8% | 0hPa | 2.6V | 08:30:00 | 02:14:50 | 00:00:00 | |
| BIOWL1-15 | 2026-09-03 00:49:09 | 46.46614 | 7.62539 | 280° | 7km/h | 33892m | 5.4m/s | -36.5°C | 0% | 0hPa | 2.5V | 18:12:15 | 02:14:47 | 00:00:00 | |
| DF7PN | 2026-09-03 00:49:08 | 46.46613 | 7.62533 | 234° | 4km/h | 33921m | 5.7m/s | -36.2°C | 0.3% | -1.0hPa | 2.5V | 00:00:00 | 00:00:00 | 00:00:00 | |
| DO3MHA-11 | 2026-09-03 00:49:06 | 46.46614 | 7.62534 | 213° | 9km/h | 33911m | 5.6m/s | -36.2°C | 1.8% | 0hPa | 2.5V | 00:00:00 | 02:14:50 | 00:00:00 | |
| DB0UT-7 | 2026-09-03 00:49:05 | 46.46614 | 7.62535 | 263° | 11km/h | 33904m | 6.5m/s | -36.3°C | 1.8% | 0hPa | 2.5V | 00:00:00 | 02:14:49 | 00:00:00 | |
| IW2NTF | 2026-09-03 00:49:02 | 46.46630 | 7.62556 | 181° | 7km/h | 33852m | 6m/s | -36.7°C | 1.8% | 0hPa | 2.6V | 08:30:00 | 02:14:40 | 00:00:00 | |
| BIOWL1-15 | 2026-09-03 00:48:58 | 46.46631 | 7.62556 | 100° | 2km/h | 33846m | 7m/s | -36.7°C | 0% | 0hPa | 2.5V | 18:12:15 | 02:14:39 | 00:00:00 | |
| DO3MHA-11 | 2026-09-03 00:48:56 | 46.46630 | 7.62556 | 182° | 9km/h | 33853m | 6.0m/s | -36.7°C | 1.8% | 0hPa | 2.6V | 00:00:00 | 02:14:40 | 00:00:00 | |
| DK5PH-5 | 2026-09-03 00:48:54 | 46.46630 | 7.62554 | 39° | 11km/h | 33840m | 6.0m/s | -36.7°C | 1.8% | 0hPa | 2.5V | 00:00:00 | 02:14:38 | 00:00:00 | |
| IW2NTF | 2026-09-03 00:48:52 | 46.46639 | 7.62558 | 242° | 15km/h | 33795m | 5.8m/s | -37°C | 1.9% | 0hPa | 2.5V | 08:30:00 | 02:14:30 | 00:00:00 | |
| BIOWL1-15 | 2026-09-03 00:48:45 | 46.46640 | 7.62562 | 271° | 13km/h | 33789m | 6.7m/s | -37°C | 0% | 0hPa | 2.5V | 18:12:15 | 02:14:29 | 00:00:00 | |
| IW2NTF | 2026-09-03 00:48:41 | 46.46630 | 7.62543 | 92° | 11km/h | 33735m | 6m/s | -37.2°C | 1.9% | 0hPa | 2.5V | 08:30:00 | 02:14:20 | 00:00:00 | |
| BIOWL1-15 | 2026-09-03 00:48:34 | 46.46629 | 7.62552 | 268° | 15km/h | 33705m | 5.9m/s | 0°C | 0% | 0hPa | 2.5V | 18:12:15 | 02:14:15 | 00:00:00 | |
| IW2NTF | 2026-09-03 00:48:31 | 46.46616 | 7.62564 | 12° | 24km/h | 33678m | 7.2m/s | -37.2°C | 1.9% | 0hPa | 2.5V | 08:30:00 | 02:14:10 | 00:00:00 | |
| DO3MHA-11 | 2026-09-03 00:48:26 | 46.46617 | 7.62564 | 13° | 18km/h | 33679m | 7.1m/s | -37.2°C | 1.9% | 0hPa | 2.5V | 00:00:00 | 02:14:10 | 08:30:00 | |
| BIOWL9-15 | 2026-09-03 00:48:25 | 46.46610 | 7.62561 | 24° | 27km/h | 33672m | 5.9m/s | -37.2°C | 0.3% | -1.0hPa | 2.6V | 00:00:00 | 00:00:00 | 00:00:00 | |
| DK5PH-5 | 2026-09-03 00:48:23 | 46.46599 | 7.62550 | 51° | 22km/h | 33662m | 4.9m/s | -37.2°C | 1.9% | 0hPa | 2.6V | 00:00:00 | 02:14:07 | 00:00:00 | |
| DH7VM-15 | 2026-09-03 00:48:21 | 46.46597 | 7.62544 | 72° | 18km/h | 33656m | 6.5m/s | -37.3°C | 0.4% | 0hPa | 2.6V | 00:00:00 | 00:00:00 | 00:00:00 | |
| IW2NTF | 2026-09-03 00:48:18 | 46.46601 | 7.62552 | 305° | 26km/h | 33622m | 6.8m/s | -37.4°C | 1.9% | 0hPa | 2.6V | 08:30:00 | 02:14:00 | 00:00:00 | |
| HASLITAL | 2026-09-03 00:48:17 | 46.46603 | 7.62539 | 248° | 15km/h | 33635m | 5.1m/s | -37.3°C | 0.4% | 0hPa | 2.6V | 00:00:00 | 00:00:00 | 00:00:00 | |
| DO3MHA-11 | 2026-09-03 00:48:15 | 46.46596 | 7.62560 | 322° | 22km/h | 33616m | 6.0m/s | -37.3°C | 1.9% | 0hPa | 2.6V | 00:00:00 | 02:13:59 | 00:00:00 | |
| IW2NTF | 2026-09-03 00:48:12 | 46.46553 | 7.62556 | 341° | 7km/h | 33563m | 5.6m/s | -37.7°C | 1.9% | 0hPa | 2.6V | 08:30:00 | 02:13:50 | 00:00:00 | |
| DL6DJ-15 | 2026-09-03 00:48:08 | 46.46555 | 7.62557 | 40° | 9km/h | 33569m | 5.8m/s | -37.7°C | 0.3% | -1.0hPa | 2.5V | 00:00:00 | 00:00:00 | 00:00:00 | |
| DF7PN | 2026-09-03 00:48:06 | 46.46552 | 7.62559 | 296° | 11km/h | 33558m | 5.6m/s | -37.8°C | 0.3% | -1.0hPa | 2.5V | 00:00:00 | 00:00:00 | 00:00:00 | |
| DB0UT-7 | 2026-09-03 00:48:05 | 46.46552 | 7.62559 | 297° | 29km/h | 33558m | 5.5m/s | -37.7°C | 1.9% | 0hPa | 2.5V | 00:00:00 | 02:13:49 | 00:00:00 | |
| IW2NTF | 2026-09-03 00:47:57 | 46.46501 | 7.62605 | 19° | 42km/h | 33506m | 3.9m/s | -38°C | 1.9% | 0hPa | 2.5V | 08:30:00 | 02:13:40 | 00:00:00 | |
| BIOWL9-15 | 2026-09-03 00:47:54 | 46.46486 | 7.62593 | 47° | 24km/h | 33498m | 5.5m/s | -38.1°C | 0.3% | -1.0hPa | 2.5V | 00:00:00 | 00:00:00 | 00:00:00 | |
| DK5PH-5 | 2026-09-03 00:47:53 | 46.46484 | 7.62586 | 80° | 24km/h | 33492m | 7.2m/s | -38.1°C | 1.9% | 0hPa | 2.5V | 00:00:00 | 02:13:37 | 00:00:00 | |
| OE5DXL-15 | 2026-09-03 00:47:52 | 46.46488 | 7.62583 | 200° | 24km/h | 33479m | 4.9m/s | 0°C | 0% | 0hPa | 2.5V | 00:00:00 | 02:13:35 | 00:00:00 | |
| IW2NTF | 2026-09-03 00:47:50 | 46.46484 | 7.62627 | 328° | 46km/h | 33451m | 7m/s | -38.4°C | 1.9% | 0hPa | 2.5V | 08:30:00 | 02:13:30 | 00:00:00 | |
| DO3MHA-11 | 2026-09-03 00:47:40 | 46.46438 | 7.62611 | 115° | 24km/h | 33419m | 7.2m/s | -38.8°C | 2.0% | 0hPa | 2.5V | 00:00:00 | 02:13:24 | 00:00:00 | |
| IW2NTF | 2026-09-03 00:47:37 | 46.46461 | 7.62605 | 219° | 18km/h | 33396m | 4.5m/s | -39.1°C | 2% | 0hPa | 2.6V | 08:30:00 | 02:13:20 | 00:00:00 | |
| HASLITAL | 2026-09-03 00:47:37 | 46.46449 | 7.62601 | 172° | 29km/h | 33406m | 5.4m/s | -39.0°C | 0.4% | 0hPa | 2.5V | 00:00:00 | 00:00:00 | 00:00:00 | |
| DF7PN | 2026-09-03 00:47:35 | 46.46462 | 7.62615 | 315° | 16km/h | 33386m | 5.9m/s | -39.2°C | 0.4% | -1.0hPa | 2.5V | 00:00:00 | 00:00:00 | 00:00:00 | |
| DO3MHA-11 | 2026-09-03 00:47:30 | 46.46433 | 7.62612 | 28° | 16km/h | 33361m | 4.7m/s | -39.5°C | 2.1% | 0hPa | 2.5V | 00:00:00 | 02:13:14 | 00:00:00 | |
| IW2NTF | 2026-09-03 00:47:26 | 46.46418 | 7.62594 | 164° | 2km/h | 33340m | 6.7m/s | -39.7°C | 2.1% | 0hPa | 2.5V | 08:30:00 | 02:13:10 | 00:00:00 | |
| DK5PH-5 | 2026-09-03 00:47:23 | 46.46424 | 7.62604 | 237° | 16km/h | 33323m | 4.4m/s | -39.9°C | 2.1% | 0hPa | 2.5V | 00:00:00 | 02:13:07 | 00:00:00 | |
| IW2NTF | 2026-09-03 00:47:21 | 46.46416 | 7.62594 | 26° | 24km/h | 33283m | 5.8m/s | -40.3°C | 2.2% | 0hPa | 2.5V | 08:30:00 | 02:13:00 | 00:00:00 | |
| DO3MHA-11 | 2026-09-03 00:47:20 | 46.46427 | 7.62611 | 69° | 16km/h | 33307m | 6.5m/s | -40.1°C | 2.1% | 0hPa | 2.5V | 00:00:00 | 02:13:04 | 00:00:00 | |
| HASLITAL | 2026-09-03 00:47:17 | 46.46420 | 7.62598 | 42° | 22km/h | 33289m | 5.3m/s | -40.2°C | 0.5% | 0hPa | 2.5V | 00:00:00 | 00:00:00 | 00:00:00 | |
| IW2NTF | 2026-09-03 00:47:11 | 46.46407 | 7.62612 | 1° | 15km/h | 33219m | 6.5m/s | -40.5°C | 2.2% | 0hPa | 2.5V | 08:30:00 | 02:12:49 | 00:00:00 | |
| DO3MHA-11 | 2026-09-03 00:47:10 | 46.46400 | 7.62606 | 224° | 20km/h | 33246m | 6.6m/s | -40.4°C | 2.2% | 0hPa | 2.5V | 00:00:00 | 02:12:54 | 00:00:00 | |
| DB0UT-7 | 2026-09-03 00:47:05 | 46.46406 | 7.62612 | 2° | 27km/h | 33219m | 6.4m/s | -40.4°C | 2.2% | 0hPa | 2.6V | 00:00:00 | 02:12:49 | 00:00:00 | |
| DF7PN | 2026-09-03 00:47:04 | 46.46394 | 7.62610 | 12° | 33km/h | 33207m | 5.9m/s | -40.6°C | 0.4% | -1.0hPa | 2.6V | 00:00:00 | 00:00:00 | 00:00:00 | |
| IW2NTF | 2026-09-03 00:47:00 | 46.46347 | 7.62588 | 280° | 22km/h | 33160m | 8.3m/s | -40.6°C | 2.2% | 0hPa | 2.6V | 08:30:00 | 02:12:39 | 00:00:00 | |
| HASLITAL | 2026-09-03 00:46:55 | 46.46348 | 7.62582 | 306° | 13km/h | 33169m | 7.7m/s | -40.6°C | 0.5% | 0hPa | 2.5V | 00:00:00 | 00:00:00 | 00:00:00 | |
| DO3MHA-11 | 2026-09-03 00:46:53 | 46.46345 | 7.62620 | 274° | 31km/h | 33143m | 4.1m/s | -40.6°C | 2.2% | 0hPa | 2.5V | 00:00:00 | 02:12:36 | 00:00:00 | |
| DH7VM-15 | 2026-09-03 00:46:48 | 46.46340 | 7.62634 | 15° | 15km/h | 33126m | 6.4m/s | -40.8°C | 0.4% | 0hPa | 2.5V | 00:00:00 | 00:00:00 | 00:00:00 | |
| IW2NTF | 2026-09-03 00:46:47 | 46.46313 | 7.62620 | 6° | 37km/h | 33099m | 4.8m/s | -41°C | 2.3% | 0hPa | 2.5V | 08:30:00 | 02:12:29 | 00:00:00 | |
| DO3MHA-11 | 2026-09-03 00:46:40 | 46.46286 | 7.62643 | 277° | 29km/h | 33070m | 6.5m/s | -41.0°C | 2.2% | 0hPa | 2.5V | 00:00:00 | 02:12:24 | 00:00:00 | |
| IW2NTF | 2026-09-03 00:46:37 | 46.46277 | 7.62705 | 306° | 31km/h | 33042m | 4.8m/s | -41°C | 2.3% | 0hPa | 2.5V | 08:30:00 | 02:12:19 | 00:00:00 | |
| DM0DOS-11 | 2026-09-03 00:46:36 | 46.46272 | 7.62713 | 323° | 27km/h | 33036m | 5.6m/s | -40.9°C | 2.3% | 0hPa | 2.5V | 08:30:00 | 02:12:18 | 00:00:00 | |
| DB0UT-7 | 2026-09-03 00:46:35 | 46.46277 | 7.62705 | 307° | 20km/h | 33042m | 4.8m/s | -40.9°C | 2.3% | 0hPa | 2.6V | 00:00:00 | 00:00:00 | 00:00:00 | |
| HASLITAL | 2026-09-03 00:46:34 | 46.46277 | 7.62705 | 307° | 31km/h | 33042m | 4.8m/s | -41.0°C | 0.5% | 0hPa | 2.6V | 00:00:00 | 00:00:00 | 00:00:00 | |
| DF7PN | 2026-09-03 00:46:33 | 46.46262 | 7.62718 | 5° | 16km/h | 33023m | 7.6m/s | -40.9°C | 0.4% | -1.0hPa | 2.6V | 00:00:00 | 00:00:00 | 00:00:00 | |
| IW2NTF | 2026-09-03 00:46:31 | 46.46243 | 7.62751 | 284° | 44km/h | 32980m | 6.1m/s | -40.9°C | 2.2% | 0hPa | 2.6V | 08:30:00 | 02:12:09 | 00:00:00 | |
| DO3MHA-11 | 2026-09-03 00:46:30 | 46.46255 | 7.62715 | 21° | 27km/h | 33011m | 4.3m/s | -40.9°C | 2.2% | 0hPa | 2.5V | 00:00:00 | 02:12:14 | 08:30:00 | |
| DH7VM-15 | 2026-09-03 00:46:29 | 46.46252 | 7.62715 | 334° | 9km/h | 33006m | 4.5m/s | -40.9°C | 0.5% | 0hPa | 2.5V | 00:00:00 | 00:00:00 | 00:00:00 | |
| DM0DOS-11 | 2026-09-03 00:46:25 | 46.46241 | 7.62767 | 282° | 44km/h | 32974m | 4.7m/s | -40.9°C | 2.2% | 0hPa | 2.5V | 08:30:00 | 02:12:08 | 00:00:00 | |
| DO3MHA-11 | 2026-09-03 00:46:20 | 46.46238 | 7.62806 | 235° | 7km/h | 32952m | 6.3m/s | -40.9°C | 2.2% | 0hPa | 2.6V | 00:00:00 | 02:12:04 | 00:00:00 | |
| DM0DOS-11 | 2026-09-03 00:46:19 | 46.46233 | 7.62826 | 285° | 26km/h | 32908m | 5.6m/s | -41.2°C | 2.3% | 0hPa | 2.6V | 08:30:00 | 02:11:57 | 00:00:00 | |
| DK5PH-5 | 2026-09-03 00:46:18 | 46.46240 | 7.62806 | 129° | 18km/h | 32940m | 5.7m/s | -41.0°C | 2.2% | 0hPa | 2.6V | 00:00:00 | 02:12:02 | 00:00:00 | |
| IW2NTF | 2026-09-03 00:46:16 | 46.46238 | 7.62811 | 299° | 16km/h | 32921m | 6.6m/s | -41.1°C | 2.3% | 0hPa | 2.6V | 08:30:00 | 02:11:59 | 00:00:00 | |
| HASLITAL | 2026-09-03 00:46:14 | 46.46238 | 7.62810 | 300° | 16km/h | 32921m | 6.6m/s | -41.1°C | 0.5% | 0hPa | 2.5V | 00:00:00 | 00:00:00 | 00:00:00 | |
| DO3MHA-11 | 2026-09-03 00:46:10 | 46.46233 | 7.62851 | 247° | 16km/h | 32891m | 6.6m/s | -41.3°C | 2.3% | 0hPa | 2.5V | 00:00:00 | 02:11:54 | 00:00:00 | |
| DM0DOS-11 | 2026-09-03 00:46:08 | 46.46251 | 7.62866 | 225° | 13km/h | 32853m | 5.9m/s | -41.3°C | 2.3% | 0hPa | 2.5V | 08:30:00 | 02:11:48 | 00:00:00 | |
| IW2NTF | 2026-09-03 00:46:07 | 46.46248 | 7.62864 | 211° | 11km/h | 32859m | 6.7m/s | -41.4°C | 2.3% | 0hPa | 2.5V | 08:30:00 | 02:11:49 | 00:00:00 | |
| DB0UT-7 | 2026-09-03 00:46:05 | 46.46248 | 7.62864 | 212° | 15km/h | 32859m | 6.7m/s | -41.3°C | 2.3% | 0hPa | 2.5V | 00:00:00 | 02:11:49 | 08:30:00 | |
| DL6DJ-15 | 2026-09-03 00:46:03 | 46.46253 | 7.62870 | 228° | 15km/h | 32847m | 5.7m/s | -41.3°C | 0.4% | -1.0hPa | 2.5V | 00:00:00 | 00:00:00 | 00:00:00 | |
| DF7PN | 2026-09-03 00:46:01 | 46.46260 | 7.62880 | 217° | 20km/h | 32834m | 7.2m/s | -41.3°C | 0.4% | -1.0hPa | 2.5V | 00:00:00 | 00:00:00 | 00:00:00 | |
| DO3MHA-11 | 2026-09-03 00:45:59 | 46.46271 | 7.62889 | 211° | 18km/h | 32821m | 5.8m/s | -41.2°C | 2.3% | 0hPa | 2.5V | 00:00:00 | 02:11:43 | 00:00:00 | |
| IW2NTF | 2026-09-03 00:45:56 | 46.46289 | 7.62911 | 236° | 16km/h | 32796m | 6.5m/s | -41.1°C | 2.3% | 0hPa | 2.6V | 08:30:00 | 02:11:39 | 00:00:00 | |
| HASLITAL | 2026-09-03 00:45:53 | 46.46291 | 7.62916 | 244° | 13km/h | 32790m | 5.5m/s | -41.1°C | 0.5% | 0hPa | 2.6V | 00:00:00 | 00:00:00 | 00:00:00 | |
| DM0DOS-11 | 2026-09-03 00:45:51 | 46.46303 | 7.62916 | 164° | 16km/h | 32758m | 5.4m/s | -40.9°C | 2.3% | 0hPa | 2.6V | 08:30:00 | 02:11:33 | 00:00:00 | |
| DO3MHA-11 | 2026-09-03 00:45:49 | 46.46303 | 7.62916 | 165° | 15km/h | 32759m | 5.3m/s | -40.8°C | 2.3% | 0hPa | 2.6V | 00:00:00 | 02:11:33 | 00:00:00 | |
| DK5PH-5 | 2026-09-03 00:45:48 | 46.46307 | 7.62915 | 181° | 13km/h | 32754m | 5.5m/s | -40.8°C | 2.3% | 0hPa | 2.6V | 00:00:00 | 02:11:32 | 00:00:00 | |
| IW2NTF | 2026-09-03 00:45:46 | 46.46314 | 7.62924 | 256° | 15km/h | 32733m | 6.2m/s | -40.8°C | 2.2% | 0hPa | 2.6V | 08:30:00 | 02:11:29 | 00:00:00 | |
| DM0DOS-11 | 2026-09-03 00:45:40 | 46.46326 | 7.62937 | 140° | 15km/h | 32696m | 5.8m/s | -41°C | 2.3% | 0hPa | 2.6V | 08:30:00 | 02:11:23 | 00:00:00 | |
| DO3MHA-11 | 2026-09-03 00:45:39 | 46.46326 | 7.62936 | 141° | 11km/h | 32696m | 5.8m/s | -40.9°C | 2.3% | 0hPa | 2.5V | 00:00:00 | 02:11:23 | 00:00:00 | |
| IW2NTF | 2026-09-03 00:45:36 | 46.46332 | 7.62930 | 229° | 5km/h | 32671m | 5.6m/s | -41°C | 2.3% | 0hPa | 2.5V | 08:30:00 | 02:11:19 | 00:00:00 | |
| DB0UT-7 | 2026-09-03 00:45:35 | 46.46332 | 7.62930 | 230° | 15km/h | 32672m | 5.6m/s | -40.9°C | 2.3% | 0hPa | 2.5V | 00:00:00 | 00:00:00 | 00:00:00 | |
| HASLITAL | 2026-09-03 00:45:33 | 46.46334 | 7.62933 | 231° | 9km/h | 32666m | 5.3m/s | -41.0°C | 0.5% | 0hPa | 2.5V | 00:00:00 | 00:00:00 | 00:00:00 | |
| DM0DOS-11 | 2026-09-03 00:45:30 | 46.46354 | 7.62930 | 119° | 15km/h | 32629m | 5.1m/s | -41°C | 2.3% | 0hPa | 2.5V | 08:30:00 | 02:11:12 | 00:00:00 | |
| DO3MHA-11 | 2026-09-03 00:45:29 | 46.46351 | 7.62934 | 142° | 15km/h | 32635m | 5.4m/s | -41.0°C | 2.3% | 0hPa | 2.5V | 00:00:00 | 02:11:13 | 00:00:00 | |
| IW2NTF | 2026-09-03 00:45:26 | 46.46350 | 7.62919 | 22° | 16km/h | 32608m | 7.1m/s | -41.1°C | 2.3% | 0hPa | 2.5V | 08:30:00 | 02:11:09 | 00:00:00 | |
| BIOWL1-15 | 2026-09-03 00:45:21 | 46.46354 | 7.62909 | 207° | 9km/h | 32546m | 4.8m/s | -41.2°C | 0% | 0hPa | 2.5V | 18:12:15 | 02:10:59 | 00:00:00 | |
| BIOWL9-15 | 2026-09-03 00:45:19 | 46.46343 | 7.62904 | 182° | 16km/h | 32565m | 7.7m/s | -41.2°C | 0.4% | -1.0hPa | 2.5V | 00:00:00 | 00:00:00 | 00:00:00 | |
| IW2NTF | 2026-09-03 00:45:18 | 46.46354 | 7.62909 | 206° | 9km/h | 32546m | 4.8m/s | -41.2°C | 2.3% | 0hPa | 2.5V | 08:30:00 | 02:10:59 | 00:00:00 | |
| HASLITAL | 2026-09-03 00:45:13 | 46.46356 | 7.62910 | 169° | 4km/h | 32541m | 5.6m/s | -41.2°C | 0.5% | 0hPa | 2.5V | 00:00:00 | 00:00:00 | 00:00:00 | |
| IW2NTF | 2026-09-03 00:45:10 | 46.46327 | 7.62902 | 288° | 18km/h | 32483m | 5.7m/s | -41.3°C | 2.3% | 0hPa | 2.5V | 08:30:00 | 02:10:49 | 00:00:00 | |
| DM0DOS-11 | 2026-09-03 00:45:09 | 46.46326 | 7.62908 | 267° | 15km/h | 32477m | 7.1m/s | -41.3°C | 2.3% | 0hPa | 2.6V | 08:30:00 | 02:10:48 | 00:00:00 | |
| BIOWL1-15 | 2026-09-03 00:45:08 | 46.46329 | 7.62914 | 204° | 11km/h | 32463m | 6.5m/s | -41.2°C | 0% | 0hPa | 2.5V | 18:12:15 | 02:10:46 | 00:00:00 | |
| DB0UT-7 | 2026-09-03 00:45:05 | 46.46327 | 7.62902 | 289° | 16km/h | 32483m | 5.6m/s | -41.3°C | 2.3% | 0hPa | 2.6V | 00:00:00 | 02:10:49 | 00:00:00 | |
| DL6DJ-15 | 2026-09-03 00:45:01 | 46.46331 | 7.62915 | 187° | 7km/h | 32457m | 5.7m/s | -41.2°C | 0.4% | -1.0hPa | 2.6V | 00:00:00 | 00:00:00 | 00:00:00 | |
| DO3MHA-11 | 2026-09-03 00:44:59 | 46.46333 | 7.62916 | 342° | 16km/h | 32444m | 6.7m/s | -41.2°C | 2.3% | 0hPa | 2.6V | 00:00:00 | 02:10:43 | 08:30:00 | |
| IW2NTF | 2026-09-03 00:44:56 | 46.46318 | 7.62915 | 10° | 24km/h | 32418m | 7.2m/s | -41.3°C | 2.3% | 0hPa | 2.5V | 08:30:00 | 02:10:39 | 00:00:00 | |
| BIOWL1-15 | 2026-09-03 00:44:53 | 46.46304 | 7.62914 | 329° | 13km/h | 32401m | 5m/s | -41.3°C | 0% | 0hPa | 2.6V | 18:12:15 | 02:10:36 | 00:00:00 | |
| HASLITAL | 2026-09-03 00:44:52 | 46.46308 | 7.62912 | 1° | 16km/h | 32406m | 4.6m/s | -41.3°C | 0.5% | 0hPa | 2.5V | 00:00:00 | 00:00:00 | 00:00:00 | |
| IW2NTF | 2026-09-03 00:44:51 | 46.46310 | 7.62969 | 236° | 9km/h | 32356m | 7.1m/s | -41.4°C | 2.3% | 0hPa | 2.5V | 08:30:00 | 02:10:29 | 00:00:00 | |
| DM0DOS-11 | 2026-09-03 00:44:51 | 46.46308 | 7.62964 | 244° | 20km/h | 32363m | 6m/s | -41.4°C | 2.3% | 0hPa | 2.5V | 08:30:00 | 02:10:30 | 00:00:00 | |
| BIOWL9-15 | 2026-09-03 00:44:48 | 46.46306 | 7.62956 | 249° | 27km/h | 32368m | 4.4m/s | -41.4°C | 0.5% | -1.0hPa | 2.6V | 00:00:00 | 00:00:00 | 00:00:00 | |
| BIOWL1-15 | 2026-09-03 00:44:41 | 46.46292 | 7.62971 | 299° | 20km/h | 32311m | 6m/s | -41.5°C | 0% | 0hPa | 2.6V | 18:12:15 | 02:10:22 | 00:00:00 | |
| DK5PH-5 | 2026-09-03 00:44:38 | 46.46292 | 7.62971 | 299° | 16km/h | 32312m | 6.0m/s | -41.5°C | 2.3% | 0hPa | 2.6V | 00:00:00 | 02:10:22 | 00:00:00 | |
| IW2NTF | 2026-09-03 00:44:36 | 46.46291 | 7.62993 | 245° | 20km/h | 32291m | 7.4m/s | -41.5°C | 2.3% | 0hPa | 2.5V | 08:30:00 | 02:10:19 | 00:00:00 | |
| DB0UT-7 | 2026-09-03 00:44:35 | 46.46291 | 7.62993 | 246° | 15km/h | 32291m | 7.3m/s | -41.4°C | 2.3% | 0hPa | 2.5V | 00:00:00 | 00:00:00 | 00:00:00 | |
| HASLITAL | 2026-09-03 00:44:31 | 46.46300 | 7.63010 | 239° | 18km/h | 32272m | 5.8m/s | -41.6°C | 0.5% | 0hPa | 2.5V | 00:00:00 | 00:00:00 | 00:00:00 | |
| IW2NTF | 2026-09-03 00:44:30 | 46.46294 | 7.63036 | 8° | 4km/h | 32227m | 5.2m/s | -41.7°C | 2.4% | 0hPa | 2.5V | 08:30:00 | 02:10:09 | 00:00:00 | |
| DO3MHA-11 | 2026-09-03 00:44:29 | 46.46302 | 7.63028 | 294° | 16km/h | 32253m | 5.9m/s | -41.6°C | 2.4% | 0hPa | 2.5V | 00:00:00 | 02:10:13 | 00:00:00 | |
| DF7PN | 2026-09-03 00:44:28 | 46.46300 | 7.63032 | 312° | 13km/h | 32247m | 6.0m/s | -41.7°C | 0.5% | -1.0hPa | 2.5V | 00:00:00 | 00:00:00 | 00:00:00 | |
| IW2NTF | 2026-09-03 00:44:19 | 46.46316 | 7.63078 | 131° | 11km/h | 32165m | 6.6m/s | -41.6°C | 2.4% | 0hPa | 2.5V | 08:30:00 | 02:09:59 | 00:00:00 | |
| DO3MHA-11 | 2026-09-03 00:44:18 | 46.46307 | 7.63074 | 233° | 16km/h | 32186m | 5.6m/s | -41.6°C | 2.4% | 0hPa | 2.5V | 00:00:00 | 02:10:02 | 00:00:00 | |
| HASLITAL | 2026-09-03 00:44:11 | 46.46318 | 7.63069 | 94° | 4km/h | 32145m | 6.7m/s | -41.5°C | 0.5% | 0hPa | 2.6V | 00:00:00 | 00:00:00 | 00:00:00 | |
| IW2NTF | 2026-09-03 00:44:10 | 46.46339 | 7.63080 | 192° | 26km/h | 32101m | 6m/s | -41.3°C | 2.4% | 0hPa | 2.6V | 08:30:00 | 02:09:49 | 00:00:00 | |
| BIOWL1-15 | 2026-09-03 00:44:05 | 46.46351 | 7.63085 | 199° | 20km/h | 32089m | 7m/s | -41.3°C | 0% | 0hPa | 2.5V | 18:12:15 | 02:09:47 | 00:00:00 | |
| DO3MHA-11 | 2026-09-03 00:44:04 | 46.46345 | 7.63082 | 195° | 24km/h | 32095m | 6.0m/s | -41.3°C | 2.4% | 0hPa | 2.6V | 00:00:00 | 02:09:48 | 00:00:00 | |
| IW2NTF | 2026-09-03 00:44:00 | 46.46379 | 7.63059 | 140° | 24km/h | 32039m | 5.8m/s | -41.1°C | 2.3% | 0hPa | 2.6V | 08:30:00 | 02:09:39 | 00:00:00 | |
| BIOWL1-15 | 2026-09-03 00:43:54 | 46.46395 | 7.63057 | 204° | 18km/h | 32013m | 5.5m/s | -41°C | 0% | 0hPa | 2.5V | 18:12:15 | 02:09:35 | 00:00:00 | |
| BIOWL9-15 | 2026-09-03 00:43:46 | 46.46422 | 7.63047 | 128° | 16km/h | 31977m | 6.9m/s | -40.9°C | 0.5% | -1.0hPa | 2.6V | 00:00:00 | 00:00:00 | 00:00:00 | |
| BIOWL1-15 | 2026-09-03 00:43:42 | 46.46432 | 7.63024 | 130° | 22km/h | 31946m | 6.3m/s | -40.7°C | 0% | 0hPa | 2.6V | 18:12:15 | 02:09:24 | 00:00:00 | |
| IW2NTF | 2026-09-03 00:43:41 | 46.46459 | 7.62989 | 150° | 26km/h | 31916m | 6.8m/s | -40.6°C | 2.3% | 0hPa | 2.6V | 08:30:00 | 02:09:19 | 00:00:00 | |
| DB0UT-7 | 2026-09-03 00:43:35 | 46.46459 | 7.62989 | 151° | 20km/h | 31917m | 6.7m/s | -40.5°C | 2.3% | 0hPa | 2.5V | 00:00:00 | 00:00:00 | 00:00:00 | |
| DO3MHA-11 | 2026-09-03 00:43:33 | 46.46468 | 7.62984 | 166° | 20km/h | 31903m | 6.1m/s | -40.5°C | 2.3% | 0hPa | 2.5V | 00:00:00 | 02:09:17 | 00:00:00 | |
| IW2NTF | 2026-09-03 00:43:31 | 46.46486 | 7.62942 | 126° | 20km/h | 31854m | 6.8m/s | -40.3°C | 2.2% | 0hPa | 2.5V | 08:30:00 | 02:09:09 | 00:00:00 | |
| BIOWL1-15 | 2026-09-03 00:43:29 | 46.46475 | 7.62971 | 112° | 20km/h | 31878m | 6m/s | -40.4°C | 0% | 0hPa | 2.6V | 18:12:15 | 02:09:13 | 00:00:00 | |
| DL6DJ-15 | 2026-09-03 00:43:29 | 46.46477 | 7.62964 | 113° | 22km/h | 31873m | 5.5m/s | -40.4°C | 0.5% | -1.0hPa | 2.6V | 00:00:00 | 00:00:00 | 00:00:00 | |
| DF7PN | 2026-09-03 00:43:26 | 46.46483 | 7.62949 | 119° | 22km/h | 31861m | 6.3m/s | -40.3°C | 0.4% | -1.0hPa | 2.6V | 00:00:00 | 00:00:00 | 00:00:00 | |
| IW2NTF | 2026-09-03 00:43:20 | 46.46515 | 7.62874 | 103° | 15km/h | 31792m | 6m/s | -40.2°C | 2.2% | 0hPa | 2.6V | 08:30:00 | 02:08:59 | 00:00:00 | |
| BIOWL1-15 | 2026-09-03 00:43:19 | 46.46517 | 7.62850 | 101° | 22km/h | 31769m | 6.5m/s | -40.2°C | 0% | 0hPa | 2.6V | 18:12:15 | 02:08:55 | 00:00:00 | |
| DH7VM-15 | 2026-09-03 00:43:18 | 46.46505 | 7.62905 | 119° | 29km/h | 31818m | 6.2m/s | -40.2°C | 0.5% | 0hPa | 2.6V | 00:00:00 | 00:00:00 | 00:00:00 | |
| BIOWL9-15 | 2026-09-03 00:43:15 | 46.46515 | 7.62869 | 99° | 13km/h | 31787m | 5.2m/s | -40.2°C | 0.4% | -1.0hPa | 2.6V | 00:00:00 | 00:00:00 | 00:00:00 | |
| DO3MHA-11 | 2026-09-03 00:43:13 | 46.46516 | 7.62864 | 98° | 18km/h | 31782m | 5.5m/s | -40.1°C | 2.2% | 0hPa | 2.6V | 00:00:00 | 02:08:57 | 00:00:00 | |
| IW2NTF | 2026-09-03 00:43:11 | 46.46526 | 7.62807 | 111° | 16km/h | 31732m | 5.1m/s | -40.2°C | 2.2% | 0hPa | 2.6V | 08:30:00 | 02:08:49 | 00:00:00 | |
| BIOWL1-15 | 2026-09-03 00:43:08 | 46.46521 | 7.62825 | 108° | 22km/h | 31751m | 6.5m/s | -40.2°C | 0% | 0hPa | 2.5V | 18:12:15 | 02:08:52 | 00:00:00 | |
| DB0UT-7 | 2026-09-03 00:43:05 | 46.46526 | 7.62806 | 112° | 20km/h | 31732m | 5.0m/s | -40.1°C | 2.2% | 0hPa | 2.6V | 00:00:00 | 02:08:49 | 00:00:00 | |
| IW2NTF | 2026-09-03 00:42:59 | 46.46546 | 7.62726 | 112° | 22km/h | 31660m | 4.7m/s | -40°C | 2.2% | 0hPa | 2.5V | 08:30:00 | 02:08:37 | 00:00:00 | |
| DL6DJ-15 | 2026-09-03 00:42:57 | 46.46537 | 7.62752 | 119° | 15km/h | 31684m | 5.4m/s | -40.2°C | 0.4% | -1.0hPa | 2.6V | 00:00:00 | 00:00:00 | 00:00:00 | |
| BIOWL1-15 | 2026-09-03 00:42:57 | 46.46537 | 7.62752 | 120° | 15km/h | 31684m | 5.4m/s | -40.2°C | 0% | 0hPa | 2.5V | 18:12:15 | 02:08:41 | 00:00:00 | |
| DF7PN | 2026-09-03 00:42:55 | 46.46542 | 7.62741 | 116° | 20km/h | 31672m | 6.7m/s | -40.1°C | 0.4% | -1.0hPa | 2.6V | 00:00:00 | 00:00:00 | 00:00:00 | |
| IW2NTF | 2026-09-03 00:42:48 | 46.46541 | 7.62663 | 77° | 29km/h | 31602m | 5.5m/s | -40°C | 2.2% | 0hPa | 2.6V | 08:30:00 | 02:08:27 | 00:00:00 | |
| BIOWL1-15 | 2026-09-03 00:42:46 | 46.46544 | 7.62684 | 78° | 29km/h | 31613m | 6m/s | -40°C | 0% | 0hPa | 2.5V | 18:12:15 | 02:08:29 | 00:00:00 | |
| BIOWL9-15 | 2026-09-03 00:42:44 | 46.46541 | 7.62663 | 77° | 29km/h | 31602m | 5.5m/s | -40.0°C | 0.4% | -1.0hPa | 2.6V | 00:00:00 | 00:00:00 | 00:00:00 | |
| IW2NTF | 2026-09-03 00:42:39 | 46.46528 | 7.62584 | 64° | 27km/h | 31545m | 6m/s | -39.9°C | 2.2% | 0hPa | 2.6V | 08:30:00 | 02:08:17 | 00:00:00 | |
| BIOWL1-15 | 2026-09-03 00:42:36 | 46.46489 | 7.62518 | 73° | 22km/h | 31491m | 6.2m/s | -40°C | 0% | 0hPa | 2.5V | 18:12:15 | 02:08:08 | 00:00:00 | |
| DB0UT-7 | 2026-09-03 00:42:35 | 46.46532 | 7.62603 | 84° | 20km/h | 31555m | 4.9m/s | -39.8°C | 2.2% | 0hPa | 2.6V | 00:00:00 | 00:00:00 | 00:00:00 | |
| IW2NTF | 2026-09-03 00:42:29 | 46.46487 | 7.62511 | 70° | 16km/h | 31485m | 6.7m/s | -40°C | 2.2% | 0hPa | 2.6V | 08:30:00 | 02:08:07 | 00:00:00 | |
| BIOWL1-15 | 2026-09-03 00:42:24 | 46.46485 | 7.62506 | 62° | 13km/h | 31478m | 6.1m/s | -40°C | 0% | 0hPa | 2.6V | 18:12:15 | 02:08:06 | 00:00:00 | |
| DF7PN | 2026-09-03 00:42:24 | 46.46489 | 7.62518 | 72° | 22km/h | 31491m | 6.2m/s | -40.0°C | 0.4% | -1.0hPa | 2.5V | 00:00:00 | 00:00:00 | 00:00:00 | |
| IW2NTF | 2026-09-03 00:42:20 | 46.46459 | 7.62466 | 18° | 20km/h | 31425m | 5.6m/s | -39.8°C | 2.2% | 0hPa | 2.5V | 08:30:00 | 02:07:57 | 00:00:00 | |
| BIOWL1-15 | 2026-09-03 00:42:13 | 46.46459 | 7.62466 | 18° | 20km/h | 31425m | 5.6m/s | -39.8°C | 0% | 0hPa | 2.5V | 18:12:15 | 02:07:57 | 00:00:00 | |
| BIOWL9-15 | 2026-09-03 00:42:12 | 46.46454 | 7.62464 | 23° | 18km/h | 31420m | 5.3m/s | -39.8°C | 0.4% | -1.0hPa | 2.5V | 00:00:00 | 00:00:00 | 00:00:00 | |
| IW2NTF | 2026-09-03 00:42:08 | 46.46431 | 7.62440 | 15° | 9km/h | 31368m | 5.5m/s | -39.9°C | 2.2% | 0hPa | 2.5V | 08:30:00 | 02:07:47 | 00:00:00 | |
| BIOWL1-15 | 2026-09-03 00:42:03 | 46.46431 | 7.62440 | 16° | 9km/h | 31368m | 5.5m/s | -39.9°C | 0% | 0hPa | 2.5V | 18:12:15 | 02:07:47 | 00:00:00 | |
| DK5PH-5 | 2026-09-03 00:41:59 | 46.46423 | 7.62423 | 53° | 16km/h | 31345m | 4.6m/s | -39.9°C | 2.2% | 0hPa | 2.5V | 00:00:00 | 02:07:43 | 00:00:00 | |
| IW2NTF | 2026-09-03 00:41:58 | 46.46402 | 7.62413 | 20° | 11km/h | 31310m | 6.5m/s | -39.9°C | 2.2% | 0hPa | 2.5V | 08:30:00 | 02:07:37 | 00:00:00 | |
| BIOWL1-15 | 2026-09-03 00:41:52 | 46.46397 | 7.62408 | 40° | 15km/h | 31299m | 4.8m/s | -39.9°C | 0% | 0hPa | 2.6V | 18:12:15 | 02:07:35 | 00:00:00 | |
| IW2NTF | 2026-09-03 00:41:47 | 46.46358 | 7.62396 | 33° | 22km/h | 31254m | 7m/s | -40.2°C | 2.2% | 0hPa | 2.5V | 08:30:00 | 02:07:27 | 00:00:00 | |
| BIOWL1-15 | 2026-09-03 00:41:41 | 46.46350 | 7.62384 | 57° | 22km/h | 31242m | 5m/s | -40.3°C | 0% | 0hPa | 2.5V | 18:12:15 | 02:07:25 | 00:00:00 | |
| IW2NTF | 2026-09-03 00:41:38 | 46.46329 | 7.62385 | 336° | 5km/h | 31196m | 6.3m/s | -40.4°C | 2.2% | 0hPa | 2.5V | 08:30:00 | 02:07:17 | 00:00:00 | |
| BIOWL1-15 | 2026-09-03 00:41:30 | 46.46319 | 7.62379 | 21° | 11km/h | 31166m | 5.3m/s | -40.4°C | 0% | 0hPa | 2.5V | 18:12:15 | 02:07:12 | 00:00:00 | |
| DK5PH-5 | 2026-09-03 00:41:29 | 46.46321 | 7.62380 | 22° | 9km/h | 31173m | 6.3m/s | -40.4°C | 2.2% | 0hPa | 2.6V | 00:00:00 | 02:07:13 | 08:30:00 | |
| HASLITAL | 2026-09-03 00:41:25 | 46.46315 | 7.62375 | 51° | 5km/h | 31156m | 6.7m/s | -40.4°C | 0.5% | 0hPa | 2.6V | 00:00:00 | 00:00:00 | 00:00:00 | |
| IW2NTF | 2026-09-03 00:41:24 | 46.46317 | 7.62375 | 227° | 9km/h | 31137m | 5.4m/s | -40.4°C | 2.3% | 0hPa | 2.6V | 08:30:00 | 02:07:07 | 00:00:00 | |
| BIOWL1-15 | 2026-09-03 00:41:19 | 46.46318 | 7.62396 | 284° | 16km/h | 31113m | 4.8m/s | -40.3°C | 0% | 0hPa | 2.6V | 18:12:15 | 02:07:03 | 00:00:00 | |
| IW2NTF | 2026-09-03 00:41:18 | 46.46310 | 7.62398 | 17° | 9km/h | 31077m | 6.5m/s | -40.3°C | 2.2% | 0hPa | 2.6V | 08:30:00 | 02:06:57 | 00:00:00 | |
| BIOWL1-15 | 2026-09-03 00:41:09 | 46.46312 | 7.62408 | 206° | 11km/h | 31037m | 4.9m/s | -40.4°C | 0% | 0hPa | 2.5V | 18:12:15 | 02:06:50 | 00:00:00 | |
| IW2NTF | 2026-09-03 00:41:08 | 46.46315 | 7.62417 | 289° | 11km/h | 31019m | 5.7m/s | -40.4°C | 2.2% | 0hPa | 2.6V | 08:30:00 | 02:06:47 | 00:00:00 | |
| DB0UT-7 | 2026-09-03 00:41:05 | 46.46314 | 7.62410 | 225° | 16km/h | 31032m | 5.9m/s | -40.3°C | 2.2% | 0hPa | 2.5V | 00:00:00 | 02:06:49 | 00:00:00 | |
| HASLITAL | 2026-09-03 00:41:04 | 46.46314 | 7.62410 | 225° | 9km/h | 31032m | 6.0m/s | -40.4°C | 0.5% | 0hPa | 2.5V | 00:00:00 | 00:00:00 | 00:00:00 | |
| IW2NTF | 2026-09-03 00:40:59 | 46.46320 | 7.62421 | 248° | 18km/h | 30962m | 6m/s | -40.6°C | 2.2% | 0hPa | 2.5V | 08:30:00 | 02:06:37 | 00:00:00 | |
| BIOWL1-15 | 2026-09-03 00:40:56 | 46.46313 | 7.62412 | 164° | 9km/h | 30980m | 4.6m/s | 0°C | 0% | 0hPa | 2.6V | 18:12:15 | 02:06:40 | 00:00:00 | |
| DL6DJ-15 | 2026-09-03 00:40:53 | 46.46320 | 7.62421 | 248° | 18km/h | 30962m | 6.0m/s | -40.6°C | 0.4% | -1.0hPa | 2.5V | 00:00:00 | 00:00:00 | 00:00:00 | |
| DF7PN | 2026-09-03 00:40:51 | 46.46326 | 7.62439 | 225° | 15km/h | 30946m | 6.0m/s | -40.8°C | 0.4% | -1.0hPa | 2.5V | 00:00:00 | 00:00:00 | 00:00:00 | |
| IW2NTF | 2026-09-03 00:40:48 | 46.46357 | 7.62435 | 207° | 16km/h | 30905m | 6m/s | -40.9°C | 2.2% | 0hPa | 2.5V | 08:30:00 | 02:06:27 | 00:00:00 | |
| BIOWL1-15 | 2026-09-03 00:40:46 | 46.46349 | 7.62434 | 167° | 20km/h | 30918m | 5.9m/s | 0°C | 0% | 0hPa | 2.5V | 18:12:15 | 02:06:29 | 00:00:00 | |
| HASLITAL | 2026-09-03 00:40:44 | 46.46349 | 7.62434 | 168° | 20km/h | 30918m | 5.9m/s | -40.9°C | 0.5% | 0hPa | 2.5V | 00:00:00 | 00:00:00 | 00:00:00 | |
| BIOWL9-15 | 2026-09-03 00:40:40 | 46.46372 | 7.62449 | 190° | 16km/h | 30885m | 6.2m/s | -41.1°C | 0.5% | -1.0hPa | 2.5V | 00:00:00 | 00:00:00 | 00:00:00 | |
| IW2NTF | 2026-09-03 00:40:39 | 46.46406 | 7.62431 | 171° | 20km/h | 30849m | 6.1m/s | -41.8°C | 2.4% | 0hPa | 2.5V | 08:30:00 | 02:06:17 | 00:00:00 | |
| BIOWL1-15 | 2026-09-03 00:40:35 | 46.46395 | 7.62436 | 154° | 27km/h | 30862m | 5.1m/s | 0°C | 0% | 0hPa | 2.6V | 18:12:15 | 02:06:19 | 00:00:00 | |
| BIOWL1-15 | 2026-09-03 00:40:27 | 46.46433 | 7.62415 | 138° | 16km/h | 30805m | 5.2m/s | 0°C | 0% | 0hPa | 2.6V | 18:12:15 | 02:06:09 | 00:00:00 | |
| IW2NTF | 2026-09-03 00:40:27 | 46.46439 | 7.62410 | 169° | 11km/h | 30792m | 6.3m/s | -42°C | 2.4% | 0hPa | 2.5V | 08:30:00 | 02:06:07 | 00:00:00 | |
| HASLITAL | 2026-09-03 00:40:25 | 46.46433 | 7.62415 | 139° | 16km/h | 30805m | 5.2m/s | -42.0°C | 0.6% | 0hPa | 2.6V | 00:00:00 | 00:00:00 | 00:00:00 | |
| DL6DJ-15 | 2026-09-03 00:40:22 | 46.46444 | 7.62410 | 180° | 9km/h | 30781m | 4.7m/s | -42.0°C | 0.5% | -1.0hPa | 2.6V | 00:00:00 | 00:00:00 | 00:00:00 | |
| DF7PN | 2026-09-03 00:40:20 | 46.46450 | 7.62407 | 146° | 15km/h | 30770m | 6.7m/s | -42.0°C | 0.5% | -1.0hPa | 2.6V | 00:00:00 | 00:00:00 | 00:00:00 | |
| IW2NTF | 2026-09-03 00:40:18 | 46.46466 | 7.62382 | 147° | 11km/h | 30734m | 5.3m/s | -42°C | 2.4% | 0hPa | 2.6V | 08:30:00 | 02:05:57 | 00:00:00 | |
| BIOWL1-15 | 2026-09-03 00:40:14 | 46.46464 | 7.62385 | 138° | 11km/h | 30740m | 6.3m/s | 0°C | 0% | 0hPa | 2.6V | 18:12:15 | 02:05:58 | 00:00:00 | |
| IW2NTF | 2026-09-03 00:40:09 | 46.46514 | 7.62344 | 158° | 16km/h | 30676m | 5.5m/s | -41.9°C | 2.4% | 0hPa | 2.6V | 08:30:00 | 02:05:47 | 00:00:00 | |
| BIOWL1-15 | 2026-09-03 00:40:04 | 46.46514 | 7.62344 | 158° | 16km/h | 30676m | 5.5m/s | 0°C | 0% | 0hPa | 2.6V | 18:12:15 | 02:05:47 | 00:00:00 | |
| HASLITAL | 2026-09-03 00:40:03 | 46.46510 | 7.62345 | 166° | 16km/h | 30682m | 5.4m/s | -41.9°C | 0.6% | 0hPa | 2.5V | 00:00:00 | 00:00:00 | 00:00:00 | |
| IW2NTF | 2026-09-03 00:39:57 | 46.46542 | 7.62288 | 129° | 31km/h | 30617m | 6.8m/s | -41.9°C | 2.3% | 0hPa | 2.5V | 08:30:00 | 02:05:37 | 00:00:00 | |
| BIOWL1-15 | 2026-09-03 00:39:53 | 46.46567 | 7.62246 | 119° | 13km/h | 30571m | 6.4m/s | 0°C | 0% | 0hPa | 2.5V | 18:12:15 | 02:05:29 | 00:00:00 | |
| DL6DJ-15 | 2026-09-03 00:39:51 | 46.46561 | 7.62257 | 132° | 16km/h | 30595m | 6.9m/s | -42.0°C | 0.5% | -1.0hPa | 2.5V | 00:00:00 | 00:00:00 | 00:00:00 | |
| DF7PN | 2026-09-03 00:39:49 | 46.46563 | 7.62254 | 132° | 9km/h | 30588m | 6.3m/s | -42.0°C | 0.5% | -1.0hPa | 2.5V | 00:00:00 | 00:00:00 | 00:00:00 | |
| IW2NTF | 2026-09-03 00:39:47 | 46.46572 | 7.62234 | 123° | 24km/h | 30559m | 5.6m/s | -42.2°C | 2.4% | 0hPa | 2.5V | 08:30:00 | 02:05:27 | 00:00:00 | |
| BIOWL1-15 | 2026-09-03 00:39:43 | 46.46579 | 7.62220 | 127° | 24km/h | 30548m | 6.3m/s | 0°C | 0% | 0hPa | 2.6V | 18:12:15 | 02:05:25 | 00:00:00 | |
| IW2NTF | 2026-09-03 00:39:37 | 46.46590 | 7.62174 | 68° | 13km/h | 30501m | 6m/s | -42.5°C | 2.5% | 0hPa | 2.5V | 08:30:00 | 02:05:17 | 00:00:00 | |
| DB0UT-7 | 2026-09-03 00:39:35 | 46.46590 | 7.62185 | 95° | 15km/h | 30512m | 5.8m/s | -42.4°C | 2.5% | 0hPa | 2.5V | 00:00:00 | 00:00:00 | 00:00:00 | |
| IW2NTF | 2026-09-03 00:39:27 | 46.46584 | 7.62114 | 96° | 13km/h | 30435m | 5.2m/s | -42.6°C | 2.5% | 0hPa | 2.5V | 08:30:00 | 02:05:06 | 00:00:00 | |
| HASLITAL | 2026-09-03 00:39:23 | 46.46584 | 7.62119 | 101° | 15km/h | 30441m | 5.9m/s | -42.6°C | 0.6% | 0hPa | 2.6V | 00:00:00 | 00:00:00 | 00:00:00 | |
| DL6DJ-15 | 2026-09-03 00:39:20 | 46.46585 | 7.62099 | 88° | 16km/h | 30418m | 6.7m/s | -42.7°C | 0.5% | -1.0hPa | 2.6V | 00:00:00 | 00:00:00 | 00:00:00 | |
| DF7PN | 2026-09-03 00:39:18 | 46.46584 | 7.62087 | 82° | 13km/h | 30407m | 5.1m/s | -42.8°C | 0.5% | -1.0hPa | 2.6V | 00:00:00 | 00:00:00 | 00:00:00 | |
| DO3MHA-11 | 2026-09-03 00:39:14 | 46.46583 | 7.62078 | 89° | 15km/h | 30389m | 4.8m/s | -42.8°C | 2.5% | 0hPa | 2.6V | 00:00:00 | 02:04:58 | 08:30:00 | |
| IW2NTF | 2026-09-03 00:39:12 | 46.46584 | 7.62075 | 121° | 9km/h | 30378m | 6.3m/s | -42.9°C | 2.5% | 0hPa | 2.5V | 08:30:00 | 02:04:56 | 00:00:00 | |
| IW2NTF | 2026-09-03 00:39:06 | 46.46603 | 7.62025 | 110° | 22km/h | 30319m | 6.2m/s | -43°C | 2.5% | 0hPa | 2.6V | 08:30:00 | 02:04:46 | 00:00:00 | |
| DB0UT-7 | 2026-09-03 00:39:05 | 46.46598 | 7.62041 | 123° | 18km/h | 30337m | 4.7m/s | -42.9°C | 2.5% | 0hPa | 2.6V | 00:00:00 | 02:04:49 | 00:00:00 | |
| DO3MHA-11 | 2026-09-03 00:39:04 | 46.46599 | 7.62037 | 117° | 16km/h | 30332m | 5.4m/s | -42.9°C | 2.5% | 0hPa | 2.6V | 00:00:00 | 02:04:48 | 00:00:00 | |
| HASLITAL | 2026-09-03 00:39:01 | 46.46603 | 7.62025 | 112° | 22km/h | 30320m | 6.2m/s | -43.0°C | 0.6% | 0hPa | 2.6V | 00:00:00 | 00:00:00 | 00:00:00 | |
| DO3MHA-11 | 2026-09-03 00:38:54 | 46.46612 | 7.61980 | 83° | 18km/h | 30273m | 6.5m/s | -43.1°C | 2.5% | 0hPa | 2.6V | 00:00:00 | 02:04:38 | 00:00:00 | |
| IW2NTF | 2026-09-03 00:38:53 | 46.46610 | 7.61964 | 78° | 24km/h | 30261m | 5m/s | -43.1°C | 2.5% | 0hPa | 2.6V | 08:30:00 | 02:04:36 | 00:00:00 | |
| DL6DJ-15 | 2026-09-03 00:38:49 | 46.46604 | 7.61936 | 75° | 15km/h | 30238m | 5.2m/s | -43.2°C | 0.5% | -1.0hPa | 2.5V | 00:00:00 | 00:00:00 | 00:00:00 | |
| DF7PN | 2026-09-03 00:38:46 | 46.46603 | 7.61923 | 89° | 20km/h | 30226m | 6.5m/s | -43.3°C | 0.5% | -1.0hPa | 2.5V | 00:00:00 | 00:00:00 | 00:00:00 | |
| IW2NTF | 2026-09-03 00:38:46 | 46.46605 | 7.61892 | 86° | 15km/h | 30204m | 6.6m/s | -43.5°C | 2.6% | 0hPa | 2.5V | 08:30:00 | 02:04:26 | 00:00:00 | |
| DO3MHA-11 | 2026-09-03 00:38:44 | 46.46604 | 7.61906 | 97° | 20km/h | 30215m | 4.6m/s | -43.4°C | 2.5% | 0hPa | 2.5V | 00:00:00 | 02:04:28 | 00:00:00 | |
| HASLITAL | 2026-09-03 00:38:40 | 46.46604 | 7.61887 | 65° | 11km/h | 30198m | 6.5m/s | -43.5°C | 0.6% | 0hPa | 2.5V | 00:00:00 | 00:00:00 | 00:00:00 | |
| IW2NTF | 2026-09-03 00:38:37 | 46.46568 | 7.61846 | 31° | 18km/h | 30146m | 5.3m/s | -43.8°C | 2.6% | 0hPa | 2.5V | 08:30:00 | 02:04:16 | 00:00:00 | |
| DB0UT-7 | 2026-09-03 00:38:35 | 46.46581 | 7.61860 | 41° | 18km/h | 30164m | 5.3m/s | -43.5°C | 2.6% | 0hPa | 2.6V | 00:00:00 | 00:00:00 | 00:00:00 | |
| DO3MHA-11 | 2026-09-03 00:38:34 | 46.46576 | 7.61854 | 36° | 20km/h | 30158m | 6.5m/s | -43.6°C | 2.6% | 0hPa | 2.5V | 00:00:00 | 02:04:18 | 00:00:00 | |
| IW2NTF | 2026-09-03 00:38:24 | 46.46528 | 7.61818 | 13° | 22km/h | 30088m | 6.7m/s | -44.1°C | 2.6% | 0hPa | 2.5V | 08:30:00 | 02:04:06 | 00:00:00 | |
| DO3MHA-11 | 2026-09-03 00:38:23 | 46.46533 | 7.61819 | 5° | 16km/h | 30095m | 5.2m/s | -44.0°C | 2.6% | 0hPa | 2.5V | 00:00:00 | 02:04:07 | 00:00:00 | |
| DL6DJ-15 | 2026-09-03 00:38:18 | 46.46506 | 7.61805 | 1° | 13km/h | 30059m | 6.0m/s | -44.4°C | 0.6% | -1.0hPa | 2.5V | 00:00:00 | 00:00:00 | 00:00:00 | |
| IW2NTF | 2026-09-03 00:38:16 | 46.46489 | 7.61802 | 27° | 16km/h | 30030m | 5.6m/s | -44.4°C | 2.7% | 0hPa | 2.5V | 08:30:00 | 02:03:56 | 00:00:00 | |
| DF7PN | 2026-09-03 00:38:15 | 46.46499 | 7.61806 | 355° | 11km/h | 30049m | 5.2m/s | -44.4°C | 0.6% | -1.0hPa | 2.6V | 00:00:00 | 00:00:00 | 00:00:00 | |
| DO3MHA-11 | 2026-09-03 00:38:13 | 46.46493 | 7.61804 | 22° | 16km/h | 30037m | 6.4m/s | -44.4°C | 2.7% | 0hPa | 2.6V | 00:00:00 | 02:03:57 | 00:00:00 | |
| DB0UT-7 | 2026-09-03 00:38:05 | 46.46458 | 7.61806 | 352° | 7km/h | 29993m | 6.1m/s | -44.6°C | 2.7% | 0hPa | 2.5V | 00:00:00 | 02:03:49 | 00:00:00 | |
| IW2NTF | 2026-09-03 00:38:03 | 46.46445 | 7.61796 | 326° | 13km/h | 29952m | 5.6m/s | -44.9°C | 2.7% | 0hPa | 2.5V | 08:30:00 | 02:03:42 | 00:00:00 | |
| DB0ND-19 | 2026-09-03 00:37:52 | 46.46439 | 7.61796 | 107° | 5km/h | 29919m | 5.0m/s | 0°C | -1.0% | -1.0hPa | 2.5V | 00:00:00 | 00:00:00 | 00:00:00 | |
| DO3MHA-11 | 2026-09-03 00:37:51 | 46.46439 | 7.61794 | 108° | 5km/h | 29914m | 5.5m/s | -44.9°C | 2.8% | 0hPa | 2.5V | 00:00:00 | 02:03:35 | 00:00:00 | |
| IW2NTF | 2026-09-03 00:37:50 | 46.46437 | 7.61799 | 304° | 11km/h | 29896m | 5m/s | -45.1°C | 2.8% | 0hPa | 2.5V | 08:30:00 | 02:03:32 | 00:00:00 | |
| DL6DJ-15 | 2026-09-03 00:37:47 | 46.46432 | 7.61806 | 52° | 2km/h | 29874m | 5.8m/s | -45.1°C | 0.6% | -1.0hPa | 2.6V | 00:00:00 | 00:00:00 | 00:00:00 | |
| DF7PN | 2026-09-03 00:37:44 | 46.46432 | 7.61806 | 52° | 2km/h | 29874m | 5.8m/s | -45.1°C | 0.6% | -1.0hPa | 2.6V | 00:00:00 | 00:00:00 | 00:00:00 | |
| DO3MHA-11 | 2026-09-03 00:37:41 | 46.46430 | 7.61804 | 336° | 9km/h | 29856m | 6.6m/s | -45.0°C | 2.8% | 0hPa | 2.6V | 00:00:00 | 02:03:25 | 08:30:00 | |
| IW2NTF | 2026-09-03 00:37:40 | 46.46425 | 7.61809 | 334° | 9km/h | 29838m | 5.6m/s | -45°C | 2.8% | 0hPa | 2.5V | 08:30:00 | 02:03:22 | 00:00:00 | |
| DH7VM-15 | 2026-09-03 00:37:37 | 46.46425 | 7.61809 | 336° | 9km/h | 29839m | 5.6m/s | -45.0°C | 0.6% | 0hPa | 2.5V | 00:00:00 | 00:00:00 | 00:00:00 | |
| HASLITAL | 2026-09-03 00:37:36 | 46.46421 | 7.61810 | 11° | 9km/h | 29826m | 5.7m/s | -45.0°C | 0.7% | 0hPa | 2.5V | 00:00:00 | 00:00:00 | 00:00:00 | |
| DB0UT-7 | 2026-09-03 00:37:35 | 46.46419 | 7.61810 | 8° | 9km/h | 29821m | 4.7m/s | -45.0°C | 2.8% | 0hPa | 2.5V | 00:00:00 | 00:00:00 | 00:00:00 | |
| DO3MHA-11 | 2026-09-03 00:37:31 | 46.46411 | 7.61818 | 291° | 7km/h | 29797m | 5.6m/s | -45.0°C | 2.7% | 0hPa | 2.5V | 00:00:00 | 02:03:15 | 00:00:00 | |
| IW2NTF | 2026-09-03 00:37:29 | 46.46412 | 7.61825 | 188° | 5km/h | 29778m | 6m/s | -45°C | 2.8% | 0hPa | 2.5V | 08:30:00 | 02:03:12 | 00:00:00 | |
| IW2NTF | 2026-09-03 00:37:22 | 46.46419 | 7.61826 | 127° | 9km/h | 29721m | 5.8m/s | -45.4°C | 2.9% | 0hPa | 2.6V | 08:30:00 | 02:03:02 | 00:00:00 | |
| DO3MHA-11 | 2026-09-03 00:37:21 | 46.46417 | 7.61830 | 287° | 7km/h | 29741m | 5.8m/s | -45.4°C | 2.9% | 0hPa | 2.5V | 00:00:00 | 02:03:05 | 00:00:00 | |
| HASLITAL | 2026-09-03 00:37:15 | 46.46423 | 7.61823 | 178° | 5km/h | 29712m | 5.1m/s | -45.4°C | 0.7% | 0hPa | 2.5V | 00:00:00 | 00:00:00 | 00:00:00 | |
| DF7PN | 2026-09-03 00:37:14 | 46.46426 | 7.61831 | 256° | 13km/h | 29692m | 5.4m/s | -45.4°C | 0.6% | -1.0hPa | 2.5V | 00:00:00 | 00:00:00 | 00:00:00 | |
| DO3MHA-11 | 2026-09-03 00:37:11 | 46.46428 | 7.61839 | 229° | 9km/h | 29682m | 6.3m/s | -45.3°C | 2.8% | 0hPa | 2.5V | 00:00:00 | 02:02:55 | 00:00:00 | |
| IW2NTF | 2026-09-03 00:37:09 | 46.46436 | 7.61837 | 147° | 15km/h | 29663m | 5m/s | -45.3°C | 2.8% | 0hPa | 2.6V | 08:30:00 | 02:02:52 | 00:00:00 | |
| DB0UT-7 | 2026-09-03 00:37:05 | 46.46444 | 7.61832 | 189° | 9km/h | 29646m | 5.7m/s | -45.3°C | 2.9% | 0hPa | 2.5V | 00:00:00 | 02:02:49 | 08:30:00 | |
| BIOWL9-15 | 2026-09-03 00:37:02 | 46.46441 | 7.61852 | 253° | 4km/h | 29541m | 6.4m/s | -45.3°C | 0.6% | -1.0hPa | 2.5V | 00:00:00 | 00:00:00 | 00:00:00 | |
| DO3MHA-11 | 2026-09-03 00:37:00 | 46.46449 | 7.61840 | 277° | 9km/h | 29618m | 5.0m/s | -45.3°C | 2.8% | 0hPa | 2.5V | 00:00:00 | 02:02:44 | 00:00:00 | |
| IW2NTF | 2026-09-03 00:36:58 | 46.46447 | 7.61847 | 285° | 15km/h | 29605m | 6.8m/s | -45.3°C | 2.8% | 0hPa | 2.5V | 08:30:00 | 02:02:42 | 00:00:00 | |
| HASLITAL | 2026-09-03 00:36:54 | 46.46444 | 7.61859 | 311° | 5km/h | 29590m | 6.2m/s | -45.3°C | 0.7% | 0hPa | 2.5V | 00:00:00 | 00:00:00 | 00:00:00 | |
| IW2NTF | 2026-09-03 00:36:53 | 46.46441 | 7.61850 | 271° | 5km/h | 29547m | 5.1m/s | -45.4°C | 2.8% | 0hPa | 2.5V | 08:30:00 | 02:02:32 | 00:00:00 | |
| DL6DJ-15 | 2026-09-03 00:36:44 | 46.46444 | 7.61856 | 207° | 7km/h | 29523m | 5.1m/s | 0°C | -1.0% | -1.0hPa | 2.5V | 00:00:00 | 00:00:00 | 00:00:00 | |
| DF7PN | 2026-09-03 00:36:42 | 46.46448 | 7.61859 | 218° | 7km/h | 29511m | 6.5m/s | -45.4°C | 0.6% | -1.0hPa | 2.5V | 00:00:00 | 00:00:00 | 00:00:00 | |
| IW2NTF | 2026-09-03 00:36:40 | 46.46456 | 7.61855 | 124° | 18km/h | 29488m | 7.4m/s | -45.6°C | 2.9% | 0hPa | 2.5V | 08:30:00 | 02:02:22 | 00:00:00 | |
| DO3MHA-11 | 2026-09-03 00:36:40 | 46.46451 | 7.61861 | 163° | 13km/h | 29501m | 4.4m/s | -45.4°C | 2.8% | 0hPa | 2.6V | 00:00:00 | 02:02:24 | 00:00:00 | |
| DB0UT-7 | 2026-09-03 00:36:35 | 46.46462 | 7.61837 | 118° | 13km/h | 29470m | 6.6m/s | -45.6°C | 2.9% | 0hPa | 2.6V | 00:00:00 | 00:00:00 | 00:00:00 | |
| HASLITAL | 2026-09-03 00:36:34 | 46.46464 | 7.61832 | 127° | 11km/h | 29463m | 5.7m/s | -45.7°C | 0.7% | 0hPa | 2.6V | 00:00:00 | 00:00:00 | 00:00:00 | |
| IW2NTF | 2026-09-03 00:36:33 | 46.46480 | 7.61823 | 156° | 15km/h | 29429m | 4.6m/s | -45.7°C | 2.9% | 0hPa | 2.6V | 08:30:00 | 02:02:12 | 00:00:00 | |
| BIOWL9-15 | 2026-09-03 00:36:32 | 46.46470 | 7.61828 | 164° | 11km/h | 29447m | 6.9m/s | -45.7°C | 0.6% | -1.0hPa | 2.5V | 00:00:00 | 00:00:00 | 00:00:00 | |
| DO3MHA-12 | 2026-09-03 00:36:31 | 46.46470 | 7.61828 | 165° | 15km/h | 29447m | 6.8m/s | -45.6°C | 2.9% | 0hPa | 2.5V | 00:00:00 | 02:02:15 | 00:00:00 | |
| DO3MHA-11 | 2026-09-03 00:36:30 | 46.46473 | 7.61827 | 162° | 13km/h | 29440m | 6.2m/s | -45.6°C | 2.9% | 0hPa | 2.5V | 00:00:00 | 02:02:14 | 00:00:00 | |
| DM0DOS-11 | 2026-09-03 00:36:26 | 46.46492 | 7.61792 | 102° | 22km/h | 29382m | 4.9m/s | -45.7°C | 2.9% | 0hPa | 2.5V | 08:30:00 | 02:02:04 | 00:00:00 | |
| IW2NTF | 2026-09-03 00:36:22 | 46.46495 | 7.61781 | 129° | 13km/h | 29371m | 6.8m/s | -45.7°C | 2.9% | 0hPa | 2.6V | 08:30:00 | 02:02:02 | 00:00:00 | |
| DO3MHA-11 | 2026-09-03 00:36:20 | 46.46492 | 7.61792 | 103° | 15km/h | 29382m | 4.9m/s | -45.6°C | 2.9% | 0hPa | 2.5V | 00:00:00 | 02:02:04 | 00:00:00 | |
| DO3MHA-12 | 2026-09-03 00:36:16 | 46.46500 | 7.61779 | 198° | 11km/h | 29359m | 5.3m/s | -45.6°C | 2.9% | 0hPa | 2.5V | 00:00:00 | 02:02:00 | 00:00:00 | |
| DM0DOS-11 | 2026-09-03 00:36:14 | 46.46518 | 7.61763 | 97° | 9km/h | 29314m | 5.7m/s | -45.5°C | 2.8% | 0hPa | 2.5V | 08:30:00 | 02:01:52 | 00:00:00 | |
| HASLITAL | 2026-09-03 00:36:14 | 46.46507 | 7.61782 | 189° | 15km/h | 29349m | 6.1m/s | -45.6°C | 0.7% | 0hPa | 2.5V | 00:00:00 | 00:00:00 | 00:00:00 | |
| IW2NTF | 2026-09-03 00:36:13 | 46.46518 | 7.61763 | 97° | 9km/h | 29314m | 5.7m/s | -45.5°C | 2.8% | 0hPa | 2.5V | 08:30:00 | 02:01:52 | 00:00:00 | |
| DF7PN | 2026-09-03 00:36:11 | 46.46516 | 7.61776 | 122° | 13km/h | 29331m | 4.9m/s | -45.5°C | 0.6% | -1.0hPa | 2.5V | 00:00:00 | 00:00:00 | 00:00:00 | |
| DO3MHA-12 | 2026-09-03 00:36:06 | 46.46520 | 7.61757 | 130° | 11km/h | 29303m | 5.3m/s | -45.4°C | 2.9% | 0hPa | 2.5V | 00:00:00 | 02:01:50 | 00:00:00 | |
| DB0UT-7 | 2026-09-03 00:36:05 | 46.46523 | 7.61753 | 139° | 15km/h | 29297m | 6.4m/s | -45.4°C | 2.8% | 0hPa | 2.5V | 00:00:00 | 02:01:49 | 00:00:00 | |
| IW2NTF | 2026-09-03 00:36:02 | 46.46546 | 7.61729 | 171° | 4km/h | 29257m | 5.4m/s | -45.4°C | 2.8% | 0hPa | 2.5V | 08:30:00 | 02:01:42 | 00:00:00 | |
| DO3MHA-11 | 2026-09-03 00:36:00 | 46.46542 | 7.61731 | 150° | 15km/h | 29270m | 6.6m/s | -45.4°C | 2.8% | 0hPa | 2.6V | 00:00:00 | 02:01:44 | 00:00:00 | |
| DM0DOS-11 | 2026-09-03 00:35:58 | 46.46550 | 7.61723 | 120° | 15km/h | 29239m | 6.1m/s | -45.4°C | 2.9% | 0hPa | 2.6V | 08:30:00 | 02:01:39 | 00:00:00 | |
| DO3MHA-12 | 2026-09-03 00:35:55 | 46.46549 | 7.61723 | 121° | 22km/h | 29240m | 6.0m/s | -45.4°C | 2.9% | 0hPa | 2.5V | 00:00:00 | 02:01:39 | 00:00:00 | |
| IW2NTF | 2026-09-03 00:35:53 | 46.46557 | 7.61668 | 103° | 24km/h | 29199m | 6.3m/s | -45.5°C | 2.8% | 0hPa | 2.5V | 08:30:00 | 02:01:32 | 00:00:00 | |
| HASLITAL | 2026-09-03 00:35:52 | 46.46553 | 7.61711 | 110° | 22km/h | 29229m | 5.2m/s | -45.4°C | 0.7% | 0hPa | 2.6V | 00:00:00 | 00:00:00 | 00:00:00 | |
| DO3MHA-11 | 2026-09-03 00:35:50 | 46.46556 | 7.61685 | 92° | 15km/h | 29211m | 5.1m/s | -45.5°C | 2.8% | 0hPa | 2.6V | 00:00:00 | 02:01:34 | 00:00:00 | |
| DM0DOS-11 | 2026-09-03 00:35:48 | 46.46563 | 7.61650 | 132° | 11km/h | 29183m | 4.4m/s | -45.5°C | 2.9% | 0hPa | 2.6V | 08:30:00 | 02:01:29 | 00:00:00 | |
| DO3MHA-12 | 2026-09-03 00:35:45 | 46.46563 | 7.61650 | 133° | 7km/h | 29184m | 4.4m/s | -45.5°C | 2.9% | 0hPa | 2.6V | 00:00:00 | 02:01:29 | 08:30:00 | |
| DL6DJ-15 | 2026-09-03 00:35:42 | 46.46565 | 7.61651 | 298° | 9km/h | 29165m | 6.5m/s | 0°C | -1.0% | -1.0hPa | 2.5V | 00:00:00 | 00:00:00 | 00:00:00 | |
| IW2NTF | 2026-09-03 00:35:41 | 46.46562 | 7.61654 | 104° | 11km/h | 29142m | 6.4m/s | -45.6°C | 2.9% | 0hPa | 2.5V | 08:30:00 | 02:01:22 | 00:00:00 | |
| DO3MHA-11 | 2026-09-03 00:35:40 | 46.46562 | 7.61656 | 319° | 13km/h | 29154m | 4.5m/s | -45.6°C | 2.9% | 0hPa | 2.6V | 00:00:00 | 02:01:24 | 00:00:00 | |
| DM0DOS-11 | 2026-09-03 00:35:38 | 46.46564 | 7.61632 | 89° | 24km/h | 29125m | 6.3m/s | -45.6°C | 2.9% | 0hPa | 2.5V | 08:30:00 | 02:01:19 | 00:00:00 | |
| DB0UT-7 | 2026-09-03 00:35:35 | 46.46564 | 7.61632 | 90° | 9km/h | 29125m | 6.2m/s | -45.6°C | 2.9% | 0hPa | 2.5V | 00:00:00 | 00:00:00 | 00:00:00 | |
| HASLITAL | 2026-09-03 00:35:32 | 46.46561 | 7.61614 | 52° | 9km/h | 29109m | 4.4m/s | -45.5°C | 0.7% | 0hPa | 2.5V | 00:00:00 | 00:00:00 | 00:00:00 | |
| IW2NTF | 2026-09-03 00:35:31 | 46.46562 | 7.61621 | 262° | 4km/h | 29074m | 6.6m/s | -45.3°C | 2.9% | 0hPa | 2.5V | 08:30:00 | 02:01:10 | 00:00:00 | |
| DO3MHA-11 | 2026-09-03 00:35:30 | 46.46559 | 7.61612 | 268° | 5km/h | 29098m | 6.5m/s | -45.4°C | 2.9% | 0hPa | 2.6V | 00:00:00 | 02:01:14 | 00:00:00 | |
| IW2NTF | 2026-09-03 00:35:20 | 46.46570 | 7.61616 | 68° | 7km/h | 29019m | 5.8m/s | -45.3°C | 2.8% | 0hPa | 2.6V | 08:30:00 | 02:01:00 | 00:00:00 | |
| DO3MHA-11 | 2026-09-03 00:35:20 | 46.46565 | 7.61621 | 176° | 7km/h | 29041m | 5.1m/s | -45.2°C | 2.8% | 0hPa | 2.6V | 00:00:00 | 02:01:04 | 00:00:00 | |
| DL6DJ-15 | 2026-09-03 00:35:11 | 46.46571 | 7.61619 | 235° | 15km/h | 28991m | 5.7m/s | 0°C | -1.0% | -1.0hPa | 2.6V | 00:00:00 | 00:00:00 | 00:00:00 | |
| IW2NTF | 2026-09-03 00:35:10 | 46.46577 | 7.61642 | 263° | 9km/h | 28963m | 5.1m/s | -45.1°C | 2.9% | 0hPa | 2.6V | 08:30:00 | 02:00:50 | 00:00:00 | |
| DO3MHA-11 | 2026-09-03 00:35:10 | 46.46573 | 7.61624 | 239° | 11km/h | 28985m | 5.3m/s | -45.2°C | 2.9% | 0hPa | 2.5V | 00:00:00 | 02:00:54 | 00:00:00 | |
| DF7PN | 2026-09-03 00:35:09 | 46.46575 | 7.61630 | 244° | 15km/h | 28979m | 6.3m/s | -45.2°C | 0.6% | -1.0hPa | 2.5V | 00:00:00 | 00:00:00 | 00:00:00 | |
| DB0UT-7 | 2026-09-03 00:35:05 | 46.46577 | 7.61646 | 255° | 11km/h | 28957m | 6.5m/s | -45.1°C | 2.9% | 0hPa | 2.5V | 00:00:00 | 02:00:49 | 00:00:00 | |
| DO3MHA-11 | 2026-09-03 00:35:00 | 46.46580 | 7.61658 | 320° | 13km/h | 28929m | 5.9m/s | -45.0°C | 2.9% | 0hPa | 2.5V | 00:00:00 | 02:00:44 | 00:00:00 | |
| DH7VM-15 | 2026-09-03 00:34:59 | 46.46579 | 7.61658 | 320° | 5km/h | 28929m | 5.9m/s | -45.0°C | 0.7% | 0hPa | 2.5V | 00:00:00 | 00:00:00 | 00:00:00 | |
| IW2NTF | 2026-09-03 00:34:57 | 46.46582 | 7.61668 | 225° | 18km/h | 28906m | 6.2m/s | -44.9°C | 2.8% | 0hPa | 2.5V | 08:30:00 | 02:00:40 | 00:00:00 | |
| HASLITAL | 2026-09-03 00:34:51 | 46.46597 | 7.61689 | 235° | 7km/h | 28878m | 5.3m/s | -44.8°C | 0.7% | 0hPa | 2.6V | 00:00:00 | 00:00:00 | 00:00:00 | |
| DO3MHA-11 | 2026-09-03 00:34:50 | 46.46598 | 7.61690 | 237° | 7km/h | 28873m | 5.0m/s | -44.7°C | 2.8% | 0hPa | 2.6V | 00:00:00 | 02:00:34 | 00:00:00 | |
| IW2NTF | 2026-09-03 00:34:44 | 46.46602 | 7.61699 | 247° | 5km/h | 28838m | 5.2m/s | -44.7°C | 2.8% | 0hPa | 2.6V | 08:30:00 | 02:00:28 | 00:00:00 | |
| DO3MHA-11 | 2026-09-03 00:34:40 | 46.46613 | 7.61712 | 214° | 11km/h | 28816m | 5.5m/s | -44.6°C | 2.8% | 0hPa | 2.5V | 00:00:00 | 02:00:24 | 08:30:00 | |
| DF7PN | 2026-09-03 00:34:38 | 46.46622 | 7.61721 | 213° | 18km/h | 28806m | 5.3m/s | -44.7°C | 0.6% | -1.0hPa | 2.5V | 00:00:00 | 00:00:00 | 00:00:00 | |
| IW2NTF | 2026-09-03 00:34:36 | 46.46626 | 7.61727 | 359° | 4km/h | 28783m | 5m/s | -44.7°C | 2.8% | 0hPa | 2.5V | 08:30:00 | 02:00:18 | 00:00:00 | |
| DO3MHA-12 | 2026-09-03 00:34:35 | 46.46626 | 7.61727 | 339° | 11km/h | 28788m | 5.2m/s | -44.7°C | 2.8% | 0hPa | 2.5V | 00:00:00 | 02:00:19 | 00:00:00 | |
| DO3MHA-11 | 2026-09-03 00:34:30 | 46.46630 | 7.61729 | 193° | 15km/h | 28760m | 5.4m/s | -44.6°C | 2.8% | 0hPa | 2.5V | 00:00:00 | 02:00:14 | 00:00:00 | |
| IW2NTF | 2026-09-03 00:34:27 | 46.46651 | 7.61738 | 204° | 18km/h | 28726m | 6.2m/s | -44.5°C | 2.7% | 0hPa | 2.5V | 08:30:00 | 02:00:08 | 00:00:00 | |
| DO3MHA-12 | 2026-09-03 00:34:24 | 46.46651 | 7.61738 | 205° | 15km/h | 28726m | 6.2m/s | -44.4°C | 2.7% | 0hPa | 2.5V | 00:00:00 | 02:00:08 | 00:00:00 | |
| DO3MHA-11 | 2026-09-03 00:34:20 | 46.46663 | 7.61750 | 242° | 11km/h | 28704m | 6.6m/s | -44.3°C | 2.7% | 0hPa | 2.5V | 00:00:00 | 02:00:04 | 00:00:00 | |
| IW2NTF | 2026-09-03 00:34:18 | 46.46673 | 7.61748 | 171° | 18km/h | 28669m | 5.1m/s | -44.5°C | 2.7% | 0hPa | 2.5V | 08:30:00 | 01:59:58 | 00:00:00 | |
| DB0ND-19 | 2026-09-03 00:34:15 | 46.46688 | 7.61744 | 179° | 13km/h | 28648m | 4.5m/s | 0°C | -1.0% | -1.0hPa | 2.6V | 00:00:00 | 00:00:00 | 00:00:00 | |
| DO3MHA-11 | 2026-09-03 00:34:10 | 46.46688 | 7.61744 | 180° | 13km/h | 28648m | 4.5m/s | -44.8°C | 2.7% | 0hPa | 2.6V | 00:00:00 | 01:59:54 | 00:00:00 | |
| IW2NTF | 2026-09-03 00:34:09 | 46.46708 | 7.61749 | 159° | 7km/h | 28616m | 6.5m/s | -44.9°C | 2.8% | 0hPa | 2.6V | 08:30:00 | 01:59:48 | 00:00:00 | |
| BIOWL1-15 | 2026-09-03 00:34:06 | 46.46703 | 7.61749 | 195° | 15km/h | 28626m | 4.3m/s | -44.9°C | 0% | 0hPa | 2.5V | 18:12:15 | 01:59:50 | 00:00:00 | |
| DB0UT-7 | 2026-09-03 00:34:05 | 46.46706 | 7.61749 | 184° | 15km/h | 28622m | 4.3m/s | -44.8°C | 2.8% | 0hPa | 2.6V | 00:00:00 | 01:59:49 | 00:00:00 | |
| DO3MHA-11 | 2026-09-03 00:34:00 | 46.46714 | 7.61733 | 130° | 20km/h | 28595m | 5.9m/s | -44.9°C | 2.8% | 0hPa | 2.6V | 00:00:00 | 01:59:44 | 00:00:00 | |
| IW2NTF | 2026-09-03 00:33:58 | 46.46750 | 7.61713 | 171° | 15km/h | 28562m | 5.5m/s | -45°C | 2.8% | 0hPa | 2.6V | 08:30:00 | 01:59:38 | 00:00:00 | |
| BIOWL1-15 | 2026-09-03 00:33:55 | 46.46746 | 7.61714 | 173° | 22km/h | 28567m | 6m/s | -45°C | 0% | 0hPa | 2.5V | 18:12:15 | 01:59:39 | 00:00:00 | |
| DO3MHA-11 | 2026-09-03 00:33:50 | 46.46756 | 7.61705 | 117° | 13km/h | 28541m | 5.7m/s | 0°C | 0% | 0hPa | 2.5V | 00:00:00 | 01:59:34 | 00:00:00 | |
| HASLITAL | 2026-09-03 00:33:49 | 46.46756 | 7.61705 | 117° | 11km/h | 28541m | 5.8m/s | -45.1°C | 0.7% | 0hPa | 2.5V | 00:00:00 | 00:00:00 | 00:00:00 | |
| IW2NTF | 2026-09-03 00:33:48 | 46.46766 | 7.61679 | 100° | 7km/h | 28508m | 5.5m/s | -45.3°C | 2.8% | 0hPa | 2.5V | 08:30:00 | 01:59:28 | 00:00:00 | |
| BIOWL1-15 | 2026-09-03 00:33:45 | 46.46776 | 7.61666 | 144° | 15km/h | 28481m | 4.5m/s | -45.3°C | 0% | 0hPa | 2.5V | 18:12:15 | 01:59:23 | 00:00:00 | |
| BIOWL1-15 | 2026-09-03 00:33:32 | 46.46797 | 7.61632 | 156° | 16km/h | 28432m | 4.6m/s | -45.3°C | 0% | 0hPa | 2.6V | 18:12:15 | 01:59:14 | 00:00:00 | |
| DO3MHA-11 | 2026-09-03 00:33:30 | 46.46797 | 7.61632 | 157° | 9km/h | 28433m | 4.5m/s | -45.3°C | 2.8% | 0hPa | 2.6V | 00:00:00 | 01:59:14 | 00:00:00 | |
| HASLITAL | 2026-09-03 00:33:27 | 46.46802 | 7.61629 | 172° | 5km/h | 28421m | 6.1m/s | -45.4°C | 0.7% | 0hPa | 2.6V | 00:00:00 | 00:00:00 | 00:00:00 | |
| IW2NTF | 2026-09-03 00:33:26 | 46.46803 | 7.61627 | 110° | 9km/h | 28399m | 5.8m/s | -45.5°C | 2.8% | 0hPa | 2.6V | 08:30:00 | 01:59:08 | 00:00:00 | |
| BIOWL1-15 | 2026-09-03 00:33:20 | 46.46808 | 7.61593 | 90° | 15km/h | 28366m | 5m/s | -45.7°C | 0% | 0hPa | 2.5V | 18:12:15 | 01:59:02 | 00:00:00 | |
| IW2NTF | 2026-09-03 00:33:19 | 46.46811 | 7.61578 | 119° | 5km/h | 28344m | 4.7m/s | -45.9°C | 2.9% | 0hPa | 2.6V | 08:30:00 | 01:58:58 | 00:00:00 | |
| DO3MHA-12 | 2026-09-03 00:33:15 | 46.46810 | 7.61580 | 120° | 5km/h | 28349m | 4.9m/s | -45.8°C | 2.8% | 0hPa | 2.5V | 00:00:00 | 01:58:59 | 00:00:00 | |
| DM0DOS-11 | 2026-09-03 00:33:14 | 46.46808 | 7.61578 | 129° | 2km/h | 28316m | 6.3m/s | -46.1°C | 2.9% | 0hPa | 2.5V | 08:30:00 | 01:58:53 | 00:00:00 | |
| BIOWL1-15 | 2026-09-03 00:33:09 | 46.46808 | 7.61578 | 130° | 2km/h | 28316m | 6.3m/s | -46.1°C | 0% | 0hPa | 2.5V | 18:12:15 | 01:58:53 | 00:00:00 | |
| IW2NTF | 2026-09-03 00:33:08 | 46.46816 | 7.61563 | 99° | 13km/h | 28287m | 6m/s | -46.3°C | 2.9% | 0hPa | 2.5V | 08:30:00 | 01:58:48 | 00:00:00 | |
| HASLITAL | 2026-09-03 00:33:06 | 46.46810 | 7.61575 | 138° | 13km/h | 28304m | 5.3m/s | -46.1°C | 0.7% | 0hPa | 2.5V | 00:00:00 | 00:00:00 | 00:00:00 | |
| DF7PN | 2026-09-03 00:33:05 | 46.46816 | 7.61563 | 99° | 11km/h | 28288m | 6.0m/s | -46.3°C | 0.6% | -1.0hPa | 2.5V | 00:00:00 | 00:00:00 | 00:00:00 | |
| DO3MHA-11 | 2026-09-03 00:33:00 | 46.46816 | 7.61547 | 105° | 9km/h | 28265m | 5.7m/s | -46.7°C | 3.0% | 0hPa | 2.5V | 00:00:00 | 01:58:44 | 00:00:00 | |
| IW2NTF | 2026-09-03 00:32:59 | 46.46813 | 7.61533 | 95° | 9km/h | 28232m | 6.1m/s | -46.7°C | 3% | 0hPa | 2.5V | 08:30:00 | 01:58:38 | 00:00:00 | |
| BIOWL1-15 | 2026-09-03 00:32:59 | 46.46814 | 7.61536 | 62° | 7km/h | 28237m | 4.9m/s | -46.8°C | 0% | 0hPa | 2.5V | 18:12:15 | 01:58:39 | 00:00:00 | |
| DM0DOS-11 | 2026-09-03 00:32:59 | 46.46814 | 7.61536 | 62° | 7km/h | 28237m | 4.9m/s | -46.8°C | 3% | 0hPa | 2.5V | 08:30:00 | 01:58:39 | 00:00:00 | |
| BIOWL9-15 | 2026-09-03 00:32:54 | 46.46814 | 7.61530 | 123° | 11km/h | 28226m | 6.3m/s | -46.7°C | 0.7% | -1.0hPa | 2.6V | 00:00:00 | 00:00:00 | 00:00:00 | |
| DO3MHA-12 | 2026-09-03 00:32:53 | 46.46814 | 7.61530 | 124° | 7km/h | 28226m | 6.3m/s | -46.7°C | 3.0% | 0hPa | 2.6V | 00:00:00 | 01:58:37 | 00:00:00 | |
| DM0DOS-11 | 2026-09-03 00:32:50 | 46.46827 | 7.61509 | 117° | 9km/h | 28182m | 6.5m/s | -46.7°C | 3% | 0hPa | 2.6V | 08:30:00 | 01:58:29 | 00:00:00 | |
| DO3MHA-11 | 2026-09-03 00:32:50 | 46.46822 | 7.61520 | 143° | 11km/h | 28211m | 5.8m/s | -46.6°C | 3.0% | 0hPa | 2.5V | 00:00:00 | 01:58:34 | 00:00:00 | |
| IW2NTF | 2026-09-03 00:32:49 | 46.46828 | 7.61506 | 129° | 13km/h | 28176m | 6.1m/s | -46.7°C | 3% | 0hPa | 2.5V | 08:30:00 | 01:58:28 | 00:00:00 | |
| BIOWL1-15 | 2026-09-03 00:32:44 | 46.46828 | 7.61506 | 130° | 13km/h | 28176m | 6.1m/s | -46.7°C | 0% | 0hPa | 2.5V | 18:12:15 | 01:58:28 | 00:00:00 | |
| DO3MHA-12 | 2026-09-03 00:32:43 | 46.46830 | 7.61502 | 132° | 16km/h | 28171m | 5.0m/s | -46.7°C | 3.0% | 0hPa | 2.6V | 00:00:00 | 01:58:27 | 00:00:00 | |
| DO3MHA-11 | 2026-09-03 00:32:40 | 46.46837 | 7.61490 | 123° | 16km/h | 28154m | 5.0m/s | -46.8°C | 3.0% | 0hPa | 2.6V | 00:00:00 | 01:58:24 | 00:00:00 | |
| DM0DOS-11 | 2026-09-03 00:32:39 | 46.46849 | 7.61464 | 118° | 20km/h | 28126m | 4.6m/s | -47°C | 3% | 0hPa | 2.5V | 08:30:00 | 01:58:19 | 00:00:00 | |
| IW2NTF | 2026-09-03 00:32:39 | 46.46851 | 7.61458 | 110° | 18km/h | 28121m | 6.5m/s | -47°C | 3% | 0hPa | 2.6V | 08:30:00 | 01:58:18 | 00:00:00 | |
| BIOWL1-15 | 2026-09-03 00:32:33 | 46.46852 | 7.61442 | 98° | 13km/h | 28104m | 4.9m/s | 0°C | 0% | 0hPa | 2.5V | 18:12:15 | 01:58:15 | 00:00:00 | |
| DO3MHA-11 | 2026-09-03 00:32:30 | 46.46853 | 7.61437 | 110° | 20km/h | 28098m | 6.4m/s | -47.1°C | 3.0% | 0hPa | 2.5V | 00:00:00 | 01:58:14 | 00:00:00 | |
| DM0DOS-11 | 2026-09-03 00:32:29 | 46.46863 | 7.61405 | 100° | 18km/h | 28069m | 6m/s | -47.4°C | 3.1% | 0hPa | 2.5V | 08:30:00 | 01:58:09 | 00:00:00 | |
| DO3MHA-12 | 2026-09-03 00:32:29 | 46.46855 | 7.61431 | 120° | 20km/h | 28092m | 5.7m/s | -47.2°C | 3.0% | 0hPa | 2.6V | 00:00:00 | 01:58:13 | 00:00:00 | |
| IW2NTF | 2026-09-03 00:32:25 | 46.46864 | 7.61399 | 92° | 18km/h | 28063m | 5.2m/s | -47.5°C | 3.1% | 0hPa | 2.5V | 08:30:00 | 01:58:08 | 00:00:00 | |
| BIOWL1-15 | 2026-09-03 00:32:20 | 46.46868 | 7.61354 | 68° | 9km/h | 28023m | 5.9m/s | 0°C | 0% | 0hPa | 2.6V | 18:12:15 | 01:58:01 | 00:00:00 | |
| DO3MHA-11 | 2026-09-03 00:32:20 | 46.46867 | 7.61369 | 107° | 16km/h | 28041m | 4.8m/s | -47.4°C | 3.1% | 0hPa | 2.5V | 00:00:00 | 01:58:04 | 00:00:00 | |
| IW2NTF | 2026-09-03 00:32:19 | 46.46866 | 7.61344 | 97° | 11km/h | 28009m | 5.5m/s | -47.7°C | 3.1% | 0hPa | 2.5V | 08:30:00 | 01:57:58 | 00:00:00 | |
| DO3MHA-12 | 2026-09-03 00:32:19 | 46.46868 | 7.61363 | 102° | 16km/h | 28036m | 5.3m/s | -47.5°C | 3.1% | 0hPa | 2.5V | 00:00:00 | 01:58:03 | 00:00:00 | |
| DM0DOS-11 | 2026-09-03 00:32:18 | 46.46866 | 7.61348 | 77° | 9km/h | 28014m | 4.3m/s | -47.7°C | 3.1% | 0hPa | 2.5V | 08:30:00 | 01:57:59 | 00:00:00 | |
| DM0DOS-11 | 2026-09-03 00:32:10 | 46.46871 | 7.61290 | 22° | 13km/h | 27958m | 5.8m/s | -48.2°C | 3.1% | 0hPa | 2.6V | 08:30:00 | 01:57:49 | 00:00:00 | |
| BIOWL1-15 | 2026-09-03 00:32:07 | 46.46874 | 7.61292 | 31° | 15km/h | 27964m | 5.9m/s | 0°C | 0% | 0hPa | 2.6V | 18:12:15 | 01:57:50 | 00:00:00 | |
| IW2NTF | 2026-09-03 00:32:04 | 46.46869 | 7.61288 | 27° | 11km/h | 27952m | 5.9m/s | -48.2°C | 3.2% | 0hPa | 2.5V | 08:30:00 | 01:57:48 | 00:00:00 | |
| BIOWL1-15 | 2026-09-03 00:31:55 | 46.46856 | 7.61230 | 54° | 13km/h | 27898m | 4.8m/s | 0°C | 0% | 0hPa | 2.6V | 18:12:15 | 01:57:38 | 00:00:00 | |
| IW2NTF | 2026-09-03 00:31:55 | 46.46856 | 7.61230 | 53° | 13km/h | 27898m | 4.8m/s | -48.6°C | 3.3% | 0hPa | 2.6V | 08:30:00 | 01:57:38 | 00:00:00 | |
| DM0DOS-11 | 2026-09-03 00:31:54 | 46.46848 | 7.61229 | 331° | 18km/h | 27880m | 6.9m/s | -48.7°C | 3.3% | 0hPa | 2.5V | 08:30:00 | 01:57:35 | 00:00:00 | |
| BIOWL9-15 | 2026-09-03 00:31:51 | 46.46847 | 7.61229 | 331° | 16km/h | 27880m | 6.9m/s | -48.7°C | -1.0% | -1.0hPa | 2.5V | 00:00:00 | 00:00:00 | 00:00:00 | |
| DO3MHA-11 | 2026-09-03 00:31:50 | 46.46843 | 7.61233 | 325° | 16km/h | 27875m | 4.9m/s | -48.6°C | 3.3% | 0hPa | 2.5V | 00:00:00 | 01:57:34 | 00:00:00 | |
| DO3MHA-12 | 2026-09-03 00:31:49 | 46.46840 | 7.61236 | 324° | 16km/h | 27870m | 4.0m/s | -48.6°C | 3.3% | 0hPa | 2.5V | 00:00:00 | 01:57:33 | 00:00:00 | |
| DH7VM-15 | 2026-09-03 00:31:46 | 46.46837 | 7.61239 | 65° | 4km/h | 27859m | 6.2m/s | -48.7°C | 0.8% | 0hPa | 2.5V | 00:00:00 | 00:00:00 | 00:00:00 | |
| IW2NTF | 2026-09-03 00:31:45 | 46.46836 | 7.61224 | 80° | 20km/h | 27842m | 6.2m/s | -48.7°C | 3.3% | 0hPa | 2.5V | 08:30:00 | 01:57:28 | 00:00:00 | |
| BIOWL1-15 | 2026-09-03 00:31:45 | 46.46837 | 7.61224 | 81° | 22km/h | 27842m | 6.2m/s | 0°C | 0% | 0hPa | 2.5V | 18:12:15 | 01:57:28 | 00:00:00 | |
| HASLITAL | 2026-09-03 00:31:44 | 46.46837 | 7.61231 | 91° | 18km/h | 27848m | 4.9m/s | -48.7°C | 0.8% | 0hPa | 2.5V | 00:00:00 | 00:00:00 | 00:00:00 | |
| DM0DOS-11 | 2026-09-03 00:31:43 | 46.46828 | 7.61202 | 42° | 24km/h | 27825m | 4.7m/s | -48.7°C | 3.3% | 0hPa | 2.5V | 08:30:00 | 01:57:25 | 00:00:00 | |
| DO3MHA-11 | 2026-09-03 00:31:40 | 46.46823 | 7.61197 | 36° | 11km/h | 27821m | 4.9m/s | -48.7°C | 3.3% | 0hPa | 2.5V | 00:00:00 | 01:57:24 | 08:30:00 | |
| DO3MHA-12 | 2026-09-03 00:31:39 | 46.46819 | 7.61193 | 32° | 9km/h | 27815m | 6.0m/s | -48.7°C | 3.2% | 0hPa | 2.5V | 00:00:00 | 01:57:23 | 00:00:00 | |
| IW2NTF | 2026-09-03 00:31:36 | 46.46807 | 7.61194 | 329° | 11km/h | 27785m | 5.2m/s | -48.9°C | 3.3% | 0hPa | 2.5V | 08:30:00 | 01:57:18 | 00:00:00 | |
| DM0DOS-11 | 2026-09-03 00:31:36 | 46.46804 | 7.61193 | 105° | 7km/h | 27770m | 7m/s | -48.8°C | 3.3% | 0hPa | 2.6V | 08:30:00 | 01:57:15 | 00:00:00 | |
| BIOWL1-15 | 2026-09-03 00:31:34 | 46.46807 | 7.61194 | 329° | 11km/h | 27785m | 5.2m/s | 0°C | 0% | 0hPa | 2.5V | 18:12:15 | 01:57:18 | 00:00:00 | |
| DF7PN | 2026-09-03 00:31:31 | 46.46804 | 7.61193 | 105° | 7km/h | 27770m | 7.0m/s | -48.8°C | 0.7% | -1.0hPa | 2.5V | 00:00:00 | 00:00:00 | 00:00:00 | |
| DO3MHA-11 | 2026-09-03 00:31:30 | 46.46805 | 7.61190 | 115° | 15km/h | 27764m | 6.6m/s | -48.8°C | 3.3% | 0hPa | 2.5V | 00:00:00 | 01:57:14 | 00:00:00 | |
| IW2NTF | 2026-09-03 00:31:29 | 46.46801 | 7.61159 | 21° | 13km/h | 27730m | 5.8m/s | -49°C | 3.3% | 0hPa | 2.5V | 08:30:00 | 01:57:08 | 00:00:00 | |
| BIOWL1-15 | 2026-09-03 00:31:25 | 46.46785 | 7.61168 | 2° | 9km/h | 27690m | 4.6m/s | 0°C | 0% | 0hPa | 2.5V | 18:12:15 | 01:57:01 | 00:00:00 | |
| HASLITAL | 2026-09-03 00:31:23 | 46.46801 | 7.61159 | 22° | 13km/h | 27730m | 5.8m/s | -49.0°C | 0.9% | 0hPa | 2.5V | 00:00:00 | 00:00:00 | 00:00:00 | |
| DO3MHA-11 | 2026-09-03 00:31:20 | 46.46792 | 7.61162 | 316° | 11km/h | 27707m | 5.5m/s | -49.0°C | 3.3% | 0hPa | 2.5V | 00:00:00 | 01:57:04 | 00:00:00 | |
| DO3MHA-12 | 2026-09-03 00:31:19 | 46.46790 | 7.61165 | 325° | 11km/h | 27701m | 6.5m/s | -49.1°C | 3.4% | 0hPa | 2.5V | 00:00:00 | 01:57:03 | 00:00:00 | |
| IW2NTF | 2026-09-03 00:31:18 | 46.46780 | 7.61156 | 78° | 13km/h | 27667m | 4.4m/s | -49.2°C | 3.4% | 0hPa | 2.5V | 08:30:00 | 01:56:57 | 00:00:00 | |
| DM0DOS-11 | 2026-09-03 00:31:13 | 46.46777 | 7.61150 | 20° | 13km/h | 27657m | 6.4m/s | -49.2°C | 3.4% | 0hPa | 2.5V | 08:30:00 | 01:56:55 | 00:00:00 | |
| BIOWL1-15 | 2026-09-03 00:31:05 | 46.46757 | 7.61173 | 288° | 16km/h | 27623m | 4.7m/s | 0°C | 0% | 0hPa | 2.5V | 18:12:15 | 01:56:49 | 00:00:00 | |
| DB0UT-7 | 2026-09-03 00:31:05 | 46.46757 | 7.61173 | 288° | 13km/h | 27623m | 4.7m/s | -49.2°C | 3.5% | 0hPa | 2.5V | 00:00:00 | 01:56:49 | 00:00:00 | |
| HASLITAL | 2026-09-03 00:31:03 | 46.46756 | 7.61178 | 288° | 15km/h | 27618m | 4.8m/s | -49.2°C | 0.9% | 0hPa | 2.5V | 00:00:00 | 00:00:00 | 00:00:00 | |
| IW2NTF | 2026-09-03 00:31:02 | 46.46751 | 7.61190 | 329° | 11km/h | 27600m | 5.6m/s | -49.2°C | 3.4% | 0hPa | 2.5V | 08:30:00 | 01:56:45 | 00:00:00 | |
| DO3MHA-11 | 2026-09-03 00:31:00 | 46.46749 | 7.61191 | 338° | 15km/h | 27595m | 5.4m/s | -49.1°C | 3.4% | 0hPa | 2.5V | 00:00:00 | 01:56:44 | 00:00:00 | |
| DO3MHA-12 | 2026-09-03 00:30:59 | 46.46747 | 7.61192 | 337° | 15km/h | 27589m | 6.0m/s | -49.1°C | 3.4% | 0hPa | 2.5V | 00:00:00 | 01:56:43 | 00:00:00 | |
| IW2NTF | 2026-09-03 00:30:52 | 46.46729 | 7.61226 | 298° | 26km/h | 27543m | 6.5m/s | -49.1°C | 3.4% | 0hPa | 2.6V | 08:30:00 | 01:56:35 | 00:00:00 | |
| DO3MHA-11 | 2026-09-03 00:30:50 | 46.46727 | 7.61234 | 289° | 11km/h | 27537m | 5.8m/s | -49.1°C | 3.4% | 0hPa | 2.5V | 00:00:00 | 01:56:34 | 00:00:00 | |
| DO3MHA-12 | 2026-09-03 00:30:49 | 46.46726 | 7.61241 | 281° | 9km/h | 27532m | 4.8m/s | -49.1°C | 3.4% | 0hPa | 2.5V | 00:00:00 | 01:56:33 | 00:00:00 | |
| IW2NTF | 2026-09-03 00:30:43 | 46.46715 | 7.61263 | 293° | 15km/h | 27474m | 6.7m/s | -49.1°C | 3.4% | 0hPa | 2.5V | 08:30:00 | 01:56:23 | 00:00:00 | |
| DM0DOS-11 | 2026-09-03 00:30:42 | 46.46717 | 7.61255 | 277° | 7km/h | 27485m | 5.1m/s | -49.1°C | 0% | 0hPa | 2.6V | 08:30:00 | 01:56:25 | 00:00:00 | |
| DO3MHA-11 | 2026-09-03 00:30:40 | 46.46716 | 7.61258 | 286° | 13km/h | 27480m | 5.2m/s | -49.0°C | 3.4% | 0hPa | 2.6V | 00:00:00 | 01:56:24 | 00:00:00 | |
| DO3MHA-12 | 2026-09-03 00:30:39 | 46.46715 | 7.61263 | 294° | 13km/h | 27474m | 6.7m/s | -49.0°C | 3.4% | 0hPa | 2.6V | 00:00:00 | 01:56:23 | 00:00:00 | |
| DM0DOS-11 | 2026-09-03 00:30:36 | 46.46709 | 7.61302 | 306° | 0km/h | 27421m | 5.4m/s | -48.9°C | 0% | 0hPa | 2.6V | 08:30:00 | 01:56:14 | 00:00:00 | |
| DB0UT-7 | 2026-09-03 00:30:35 | 46.46707 | 7.61288 | 279° | 11km/h | 27452m | 6.6m/s | -48.9°C | 3.3% | 0hPa | 2.6V | 00:00:00 | 00:00:00 | 00:00:00 | |
| IW2NTF | 2026-09-03 00:30:31 | 46.46709 | 7.61302 | 259° | 2km/h | 27416m | 5.3m/s | -48.9°C | 3.4% | 0hPa | 2.6V | 08:30:00 | 01:56:13 | 00:00:00 | |
| DO3MHA-11 | 2026-09-03 00:30:30 | 46.46709 | 7.61302 | 307° | 11km/h | 27421m | 5.4m/s | -48.9°C | 3.4% | 0hPa | 2.6V | 00:00:00 | 01:56:14 | 00:00:00 | |
| DO3MHA-12 | 2026-09-03 00:30:29 | 46.46709 | 7.61302 | 260° | 11km/h | 27416m | 5.3m/s | -48.9°C | 3.4% | 0hPa | 2.6V | 00:00:00 | 01:56:13 | 00:00:00 | |
| DM0DOS-11 | 2026-09-03 00:30:24 | 46.46698 | 7.61332 | 298° | 15km/h | 27371m | 5.5m/s | -48.8°C | 0% | 0hPa | 2.5V | 08:30:00 | 01:56:05 | 00:00:00 | |
| DH7VM-15 | 2026-09-03 00:30:23 | 46.46707 | 7.61317 | 310° | 16km/h | 27386m | 6.6m/s | -48.9°C | 0.8% | 0hPa | 2.5V | 00:00:00 | 00:00:00 | 00:00:00 | |
| HASLITAL | 2026-09-03 00:30:22 | 46.46704 | 7.61322 | 314° | 18km/h | 27380m | 4.9m/s | -48.9°C | 0.9% | 0hPa | 2.5V | 00:00:00 | 00:00:00 | 00:00:00 | |
| IW2NTF | 2026-09-03 00:30:21 | 46.46698 | 7.61341 | 249° | 13km/h | 27359m | 5.8m/s | -48.8°C | 3.3% | 0hPa | 2.5V | 08:30:00 | 01:56:03 | 00:00:00 | |
| DO3MHA-11 | 2026-09-03 00:30:20 | 46.46697 | 7.61336 | 276° | 9km/h | 27366m | 6.1m/s | -48.8°C | 3.3% | 0hPa | 2.6V | 00:00:00 | 01:56:04 | 00:00:00 | |
| DO3MHA-12 | 2026-09-03 00:30:19 | 46.46698 | 7.61341 | 250° | 9km/h | 27359m | 5.8m/s | -48.7°C | 3.3% | 0hPa | 2.6V | 00:00:00 | 01:56:03 | 00:00:00 | |
| DK5PH-5 | 2026-09-03 00:30:13 | 46.46700 | 7.61353 | 314° | 7km/h | 27328m | 5.4m/s | -48.7°C | 3.3% | 0hPa | 2.6V | 00:00:00 | 01:55:57 | 00:00:00 | |
| IW2NTF | 2026-09-03 00:30:10 | 46.46692 | 7.61376 | 326° | 11km/h | 27294m | 6m/s | -48.7°C | 3.3% | 0hPa | 2.6V | 08:30:00 | 01:55:51 | 00:00:00 | |
| DO3MHA-11 | 2026-09-03 00:30:10 | 46.46697 | 7.61364 | 284° | 7km/h | 27311m | 4.8m/s | -48.7°C | 3.3% | 0hPa | 2.5V | 00:00:00 | 01:55:54 | 08:30:00 | |
| DO3MHA-12 | 2026-09-03 00:30:09 | 46.46696 | 7.61369 | 293° | 7km/h | 27306m | 4.8m/s | -48.7°C | 3.3% | 0hPa | 2.6V | 00:00:00 | 01:55:53 | 00:00:00 | |
| DM0DOS-11 | 2026-09-03 00:30:07 | 46.46690 | 7.61377 | 347° | 7km/h | 27288m | 5.2m/s | -48.7°C | 0% | 0hPa | 2.6V | 08:30:00 | 01:55:50 | 00:00:00 | |
| DB0UT-7 | 2026-09-03 00:30:05 | 46.46688 | 7.61377 | 13° | 9km/h | 27284m | 4.9m/s | -48.6°C | 3.3% | 0hPa | 2.5V | 00:00:00 | 01:55:49 | 00:00:00 | |
| IW2NTF | 2026-09-03 00:30:00 | 46.46685 | 7.61382 | 354° | 13km/h | 27240m | 4.7m/s | -48.8°C | 3.3% | 0hPa | 2.5V | 08:30:00 | 01:55:41 | 00:00:00 | |
| DF7PN | 2026-09-03 00:29:58 | 46.46688 | 7.61381 | 352° | 11km/h | 27246m | 5.7m/s | -48.7°C | 0.7% | -1.0hPa | 2.5V | 00:00:00 | 00:00:00 | 00:00:00 | |
| IW2NTF | 2026-09-03 00:29:52 | 46.46676 | 7.61391 | 141° | 9km/h | 27186m | 6.7m/s | -49.1°C | 3.3% | 0hPa | 2.5V | 08:30:00 | 01:55:31 | 00:00:00 | |
| DO3MHA-11 | 2026-09-03 00:29:50 | 46.46675 | 7.61392 | 298° | 9km/h | 27203m | 4.9m/s | -49.0°C | 3.3% | 0hPa | 2.6V | 00:00:00 | 01:55:34 | 00:00:00 | |
| DO3MHA-12 | 2026-09-03 00:29:49 | 46.46674 | 7.61393 | 224° | 11km/h | 27198m | 4.5m/s | -49.0°C | 3.3% | 0hPa | 2.6V | 00:00:00 | 01:55:33 | 00:00:00 | |
| DK5PH-5 | 2026-09-03 00:29:43 | 46.46680 | 7.61375 | 74° | 15km/h | 27164m | 5.9m/s | -49.2°C | 3.4% | 0hPa | 2.6V | 00:00:00 | 01:55:27 | 00:00:00 | |
| IW2NTF | 2026-09-03 00:29:42 | 46.46682 | 7.61359 | 188° | 13km/h | 27132m | 4.5m/s | -49.4°C | 3.4% | 0hPa | 2.6V | 08:30:00 | 01:55:21 | 00:00:00 | |
| HASLITAL | 2026-09-03 00:29:41 | 46.46678 | 7.61370 | 65° | 15km/h | 27159m | 4.6m/s | -49.3°C | 0.9% | 0hPa | 2.5V | 00:00:00 | 00:00:00 | 00:00:00 | |
| DO3MHA-11 | 2026-09-03 00:29:40 | 46.46676 | 7.61362 | 86° | 7km/h | 27149m | 5.8m/s | -49.3°C | 3.4% | 0hPa | 2.5V | 00:00:00 | 01:55:24 | 00:00:00 | |
| DO3MHA-12 | 2026-09-03 00:29:39 | 46.46677 | 7.61360 | 144° | 7km/h | 27143m | 6.0m/s | -49.3°C | 3.4% | 0hPa | 2.5V | 00:00:00 | 01:55:23 | 00:00:00 | |
| DB0UT-7 | 2026-09-03 00:29:35 | 46.46687 | 7.61361 | 204° | 7km/h | 27122m | 5.6m/s | -49.4°C | 3.5% | 0hPa | 2.5V | 00:00:00 | 00:00:00 | 00:00:00 | |
| IW2NTF | 2026-09-03 00:29:32 | 46.46688 | 7.61354 | 115° | 11km/h | 27077m | 6m/s | -49.4°C | 3.4% | 0hPa | 2.6V | 08:30:00 | 01:55:11 | 00:00:00 | |
| DO3MHA-11 | 2026-09-03 00:29:30 | 46.46686 | 7.61362 | 78° | 7km/h | 27095m | 6.3m/s | -49.4°C | 3.4% | 0hPa | 2.5V | 00:00:00 | 01:55:14 | 00:00:00 | |
| DO3MHA-12 | 2026-09-03 00:29:29 | 46.46686 | 7.61360 | 119° | 7km/h | 27088m | 5.7m/s | -49.4°C | 3.4% | 0hPa | 2.5V | 00:00:00 | 01:55:13 | 00:00:00 | |
| DF7PN | 2026-09-03 00:29:27 | 46.46688 | 7.61354 | 115° | 11km/h | 27077m | 6.0m/s | -49.4°C | 0.8% | -1.0hPa | 2.5V | 00:00:00 | 00:00:00 | 00:00:00 | |
| IW2NTF | 2026-09-03 00:29:22 | 46.46688 | 7.61347 | 33° | 13km/h | 27022m | 4.8m/s | -49.4°C | 3.4% | 0hPa | 2.5V | 08:30:00 | 01:55:01 | 00:00:00 | |
| HASLITAL | 2026-09-03 00:29:21 | 46.46693 | 7.61343 | 217° | 5km/h | 27049m | 5.7m/s | -49.4°C | 0.9% | 0hPa | 2.5V | 00:00:00 | 00:00:00 | 00:00:00 | |
| DO3MHA-12 | 2026-09-03 00:29:20 | 46.46693 | 7.61349 | 338° | 9km/h | 27033m | 6.1m/s | -49.4°C | 3.4% | 0hPa | 2.5V | 00:00:00 | 01:55:03 | 00:00:00 | |
| BIOWL9-15 | 2026-09-03 00:29:16 | 46.46684 | 7.61337 | 91° | 7km/h | 27005m | 5.1m/s | -49.4°C | -1.0% | -1.0hPa | 2.5V | 00:00:00 | 00:00:00 | 00:00:00 | |
| IW2NTF | 2026-09-03 00:29:12 | 46.46676 | 7.61329 | 347° | 9km/h | 26969m | 5.7m/s | -49.6°C | 3.5% | 0hPa | 2.5V | 08:30:00 | 01:54:51 | 00:00:00 | |
| BIOWL1-15 | 2026-09-03 00:29:06 | 46.46672 | 7.61334 | 316° | 7km/h | 26947m | 6.2m/s | -49.7°C | 0.2% | 0hPa | 2.6V | 18:12:15 | 01:54:47 | 00:00:00 | |
| DB0UT-7 | 2026-09-03 00:29:05 | 46.46673 | 7.61331 | 308° | 7km/h | 26958m | 4.9m/s | -49.6°C | 3.5% | 0hPa | 2.6V | 00:00:00 | 01:54:49 | 00:00:00 | |
| HASLITAL | 2026-09-03 00:29:01 | 46.46670 | 7.61336 | 336° | 9km/h | 26942m | 5.8m/s | -49.7°C | 0.9% | 0hPa | 2.6V | 00:00:00 | 00:00:00 | 00:00:00 | |
| IW2NTF | 2026-09-03 00:29:00 | 46.46662 | 7.61329 | 78° | 11km/h | 26913m | 5.1m/s | -49.6°C | 3.5% | 0hPa | 2.6V | 08:30:00 | 01:54:41 | 00:00:00 | |
| BIOWL1-15 | 2026-09-03 00:28:54 | 46.46658 | 7.61317 | 42° | 11km/h | 26897m | 5.4m/s | -49.6°C | 0.2% | 0hPa | 2.5V | 18:12:15 | 01:54:38 | 00:00:00 | |
| DO3MHA-11 | 2026-09-03 00:28:50 | 46.46653 | 7.61314 | 257° | 7km/h | 26875m | 4.8m/s | -49.6°C | 3.4% | 0hPa | 2.6V | 00:00:00 | 01:54:34 | 00:00:00 | |
| IW2NTF | 2026-09-03 00:28:49 | 46.46652 | 7.61322 | 295° | 9km/h | 26857m | 5.6m/s | -49.7°C | 3.4% | 0hPa | 2.6V | 08:30:00 | 01:54:31 | 00:00:00 | |
| BIOWL1-15 | 2026-09-03 00:28:44 | 46.46650 | 7.61328 | 233° | 0km/h | 26841m | 6.6m/s | -49.7°C | 0.2% | 0hPa | 2.5V | 18:12:15 | 01:54:28 | 00:00:00 | |
| DO3MHA-11 | 2026-09-03 00:28:40 | 46.46649 | 7.61318 | 53° | 13km/h | 26819m | 6.3m/s | -49.8°C | 3.5% | 0hPa | 2.6V | 00:00:00 | 01:54:24 | 08:30:00 | |
| DO3MHA-12 | 2026-09-03 00:28:39 | 46.46647 | 7.61315 | 33° | 13km/h | 26814m | 4.9m/s | -49.8°C | 3.5% | 0hPa | 2.5V | 00:00:00 | 01:54:23 | 00:00:00 | |
| IW2NTF | 2026-09-03 00:28:38 | 46.46643 | 7.61313 | 351° | 7km/h | 26803m | 5.8m/s | -49.8°C | 3.5% | 0hPa | 2.5V | 08:30:00 | 01:54:21 | 00:00:00 | |
| BIOWL1-15 | 2026-09-03 00:28:33 | 46.46642 | 7.61327 | 272° | 16km/h | 26781m | 5.1m/s | -49.8°C | 0.2% | 0hPa | 2.5V | 18:12:15 | 01:54:17 | 00:00:00 | |
| IW2NTF | 2026-09-03 00:28:33 | 46.46627 | 7.61350 | 22° | 9km/h | 26747m | 6.3m/s | -49.8°C | 3.5% | 0hPa | 2.5V | 08:30:00 | 01:54:11 | 00:00:00 | |
| BIOWL1-15 | 2026-09-03 00:28:22 | 46.46619 | 7.61359 | 283° | 26km/h | 26711m | 5.3m/s | -49.7°C | 0.2% | 0hPa | 2.5V | 18:12:15 | 01:54:04 | 00:00:00 | |
| DO3MHA-11 | 2026-09-03 00:28:20 | 46.46619 | 7.61359 | 283° | 18km/h | 26711m | 5.2m/s | -49.7°C | 3.5% | 0hPa | 2.6V | 00:00:00 | 01:54:04 | 00:00:00 | |
| IW2NTF | 2026-09-03 00:28:19 | 46.46618 | 7.61388 | 261° | 26km/h | 26693m | 4.9m/s | -49.6°C | 3.5% | 0hPa | 2.6V | 08:30:00 | 01:54:01 | 00:00:00 | |
| DO3MHA-12 | 2026-09-03 00:28:19 | 46.46618 | 7.61369 | 275° | 18km/h | 26705m | 6.0m/s | -49.6°C | 3.5% | 0hPa | 2.6V | 00:00:00 | 01:54:03 | 00:00:00 | |
| IW2NTF | 2026-09-03 00:28:13 | 46.46628 | 7.61434 | 250° | 20km/h | 26639m | 6.6m/s | -49.5°C | 3.5% | 0hPa | 2.6V | 08:30:00 | 01:53:51 | 00:00:00 | |
| BIOWL1-15 | 2026-09-03 00:28:13 | 46.46626 | 7.61428 | 235° | 16km/h | 26645m | 4.8m/s | -49.5°C | 0.2% | 0hPa | 2.5V | 18:12:15 | 01:53:52 | 00:00:00 | |
| DO3MHA-12 | 2026-09-03 00:28:09 | 46.46623 | 7.61424 | 220° | 24km/h | 26650m | 4.2m/s | -49.5°C | 3.5% | 0hPa | 2.5V | 00:00:00 | 01:53:53 | 00:00:00 | |
| DM0DOS-11 | 2026-09-03 00:28:08 | 46.46630 | 7.61452 | 262° | 29km/h | 26627m | 4.9m/s | -49.4°C | 0% | 0hPa | 2.5V | 08:30:00 | 01:53:49 | 00:00:00 | |
| DB0UT-7 | 2026-09-03 00:28:05 | 46.46630 | 7.61451 | 263° | 22km/h | 26628m | 4.8m/s | -49.4°C | 3.4% | 0hPa | 2.5V | 00:00:00 | 01:53:49 | 08:30:00 | |
| DB0ND-19 | 2026-09-03 00:28:03 | 46.46666 | 7.61519 | 234° | 16km/h | 26561m | 6.5m/s | 0°C | -1.0% | -1.0hPa | 2.5V | 00:00:00 | 00:00:00 | 00:00:00 | |
| DO3MHA-11 | 2026-09-03 00:28:00 | 46.46641 | 7.61499 | 237° | 18km/h | 26600m | 6.5m/s | -49.3°C | 3.4% | 0hPa | 2.5V | 00:00:00 | 01:53:44 | 00:00:00 | |
| HASLITAL | 2026-09-03 00:27:59 | 46.46642 | 7.61499 | 237° | 18km/h | 26600m | 6.5m/s | -49.3°C | 0.9% | 0hPa | 2.5V | 00:00:00 | 00:00:00 | 00:00:00 | |
| IW2NTF | 2026-09-03 00:27:58 | 46.46650 | 7.61509 | 194° | 16km/h | 26583m | 6.4m/s | -49.3°C | 3.4% | 0hPa | 2.5V | 08:30:00 | 01:53:41 | 00:00:00 | |
| BIOWL1-15 | 2026-09-03 00:27:58 | 46.46650 | 7.61509 | 194° | 16km/h | 26583m | 6.4m/s | -49.3°C | 0.2% | 0hPa | 2.5V | 18:12:15 | 01:53:41 | 00:00:00 | |
| DM0DOS-11 | 2026-09-03 00:27:57 | 46.46663 | 7.61515 | 213° | 18km/h | 26567m | 4.9m/s | -49.3°C | 0% | 0hPa | 2.6V | 08:30:00 | 01:53:38 | 00:00:00 | |
| DF7PN | 2026-09-03 00:27:54 | 46.46666 | 7.61519 | 234° | 16km/h | 26561m | 6.5m/s | -49.3°C | 0.8% | -1.0hPa | 2.5V | 00:00:00 | 00:00:00 | 00:00:00 | |
| IW2NTF | 2026-09-03 00:27:53 | 46.46675 | 7.61567 | 234° | 26km/h | 26529m | 5m/s | -49.2°C | 3.4% | 0hPa | 2.5V | 08:30:00 | 01:53:31 | 00:00:00 | |
| BIOWL1-15 | 2026-09-03 00:27:47 | 46.46679 | 7.61574 | 223° | 26km/h | 26525m | 5m/s | -49.3°C | 0.2% | 0hPa | 2.5V | 18:12:15 | 01:53:30 | 00:00:00 | |
| DM0DOS-11 | 2026-09-03 00:27:47 | 46.46703 | 7.61585 | 169° | 22km/h | 26497m | 6.5m/s | -49.3°C | 0% | 0hPa | 2.5V | 08:30:00 | 01:53:25 | 00:00:00 | |
| DO3MHA-12 | 2026-09-03 00:27:46 | 46.46679 | 7.61574 | 224° | 18km/h | 26525m | 5.0m/s | -49.2°C | 3.4% | 0hPa | 2.6V | 00:00:00 | 01:53:30 | 00:00:00 | |
| IW2NTF | 2026-09-03 00:27:42 | 46.46722 | 7.61584 | 220° | 15km/h | 26475m | 6.7m/s | -49.3°C | 3.4% | 0hPa | 2.6V | 08:30:00 | 01:53:21 | 00:00:00 | |
| DO3MHA-11 | 2026-09-03 00:27:40 | 46.46708 | 7.61583 | 167° | 22km/h | 26491m | 5.8m/s | -49.2°C | 3.4% | 0hPa | 2.5V | 00:00:00 | 01:53:24 | 00:00:00 | |
| HASLITAL | 2026-09-03 00:27:37 | 46.46718 | 7.61582 | 192° | 16km/h | 26481m | 4.8m/s | -49.3°C | 0.9% | 0hPa | 2.5V | 00:00:00 | 00:00:00 | 00:00:00 | |
| DM0DOS-11 | 2026-09-03 00:27:36 | 46.46746 | 7.61628 | 190° | 26km/h | 26437m | 6.1m/s | -49.4°C | 0% | 0hPa | 2.5V | 08:30:00 | 01:53:14 | 00:00:00 | |
| BIOWL1-15 | 2026-09-03 00:27:35 | 46.46726 | 7.61597 | 254° | 24km/h | 26463m | 4.9m/s | -49.3°C | 0.1% | 0hPa | 2.5V | 18:12:15 | 01:53:19 | 00:00:00 | |
| DO3MHA-12 | 2026-09-03 00:27:35 | 46.46725 | 7.61597 | 254° | 26km/h | 26464m | 4.9m/s | -49.2°C | 3.4% | 0hPa | 2.6V | 00:00:00 | 01:53:19 | 00:00:00 | |
| DO3MHA-11 | 2026-09-03 00:27:30 | 46.46746 | 7.61628 | 191° | 22km/h | 26437m | 6.0m/s | -49.3°C | 3.5% | 0hPa | 2.6V | 00:00:00 | 01:53:14 | 00:00:00 | |
| IW2NTF | 2026-09-03 00:27:27 | 46.46765 | 7.61625 | 158° | 26km/h | 26420m | 4.9m/s | -49.4°C | 3.5% | 0hPa | 2.6V | 08:30:00 | 01:53:11 | 00:00:00 | |
| BIOWL1-15 | 2026-09-03 00:27:25 | 46.46796 | 7.61616 | 258° | 16km/h | 26380m | 5m/s | -49.2°C | 0.1% | 0hPa | 2.6V | 18:12:15 | 01:53:04 | 00:00:00 | |
| DO3MHA-12 | 2026-09-03 00:27:25 | 46.46777 | 7.61616 | 154° | 18km/h | 26409m | 6.2m/s | -49.4°C | 3.5% | 0hPa | 2.5V | 00:00:00 | 01:53:09 | 00:00:00 | |
| DM0DOS-11 | 2026-09-03 00:27:24 | 46.46795 | 7.61612 | 233° | 13km/h | 26386m | 7m/s | -49.3°C | 0% | 0hPa | 2.6V | 08:30:00 | 01:53:05 | 00:00:00 | |
| DF7PN | 2026-09-03 00:27:23 | 46.46789 | 7.61610 | 167° | 18km/h | 26399m | 4.4m/s | -49.4°C | 0.8% | -1.0hPa | 2.5V | 00:00:00 | 00:00:00 | 00:00:00 | |
| IW2NTF | 2026-09-03 00:27:22 | 46.46802 | 7.61631 | 204° | 15km/h | 26367m | 5.7m/s | -49.1°C | 3.4% | 0hPa | 2.5V | 08:30:00 | 01:53:01 | 00:00:00 | |
| BIOWL1-15 | 2026-09-03 00:27:13 | 46.46836 | 7.61589 | 153° | 13km/h | 26323m | 6.1m/s | -49°C | 0.1% | 0hPa | 2.6V | 18:12:15 | 01:52:53 | 00:00:00 | |
| DM0DOS-11 | 2026-09-03 00:27:13 | 46.46830 | 7.61598 | 125° | 22km/h | 26334m | 4m/s | -49°C | 0% | 0hPa | 2.5V | 00:00:00 | 01:52:55 | 00:00:00 | |
| IW2NTF | 2026-09-03 00:27:11 | 46.46842 | 7.61589 | 208° | 5km/h | 26307m | 6.8m/s | -49°C | 3.3% | 0hPa | 2.5V | 08:30:00 | 01:52:50 | 00:00:00 | |
| BIOWL1-15 | 2026-09-03 00:27:02 | 46.46850 | 7.61568 | 106° | 22km/h | 26267m | 6.5m/s | -49.3°C | 0.1% | 0hPa | 2.5V | 18:12:15 | 01:52:43 | 00:00:00 | |
| DO3MHA-11 | 2026-09-03 00:27:00 | 46.46849 | 7.61575 | 113° | 18km/h | 26273m | 4.4m/s | -49.3°C | 3.4% | 0hPa | 2.5V | 00:00:00 | 01:52:44 | 00:00:00 | |
| IW2NTF | 2026-09-03 00:26:57 | 46.46855 | 7.61542 | 108° | 24km/h | 26251m | 4.8m/s | -49.4°C | 3.4% | 0hPa | 2.5V | 08:30:00 | 01:52:40 | 00:00:00 | |
| BIOWL1-15 | 2026-09-03 00:26:51 | 46.46859 | 7.61507 | 64° | 16km/h | 26206m | 5.2m/s | -49.5°C | 0.2% | 0hPa | 2.5V | 18:12:15 | 01:52:32 | 00:00:00 | |
| DK5PH-5 | 2026-09-03 00:26:50 | 46.46863 | 7.61517 | 66° | 13km/h | 26217m | 5.9m/s | -49.4°C | 3.4% | 0hPa | 2.6V | 00:00:00 | 01:52:34 | 00:00:00 | |
| DM0DOS-11 | 2026-09-03 00:26:48 | 46.46856 | 7.61496 | 76° | 15km/h | 26194m | 5.5m/s | -49.5°C | 0% | 0hPa | 2.6V | 00:00:00 | 01:52:30 | 00:00:00 | |
| DO3MHA-12 | 2026-09-03 00:26:45 | 46.46856 | 7.61490 | 80° | 16km/h | 26189m | 4.8m/s | -49.5°C | 3.5% | 0hPa | 2.6V | 00:00:00 | 01:52:29 | 00:00:00 | |
| IW2NTF | 2026-09-03 00:26:41 | 46.46839 | 7.61441 | 19° | 18km/h | 26132m | 6.1m/s | -49.6°C | 3.4% | 0hPa | 2.6V | 08:30:00 | 01:52:19 | 00:00:00 | |
| BIOWL1-15 | 2026-09-03 00:26:37 | 46.46845 | 7.61446 | 41° | 11km/h | 26145m | 5m/s | -49.6°C | 0.2% | 0hPa | 2.5V | 18:12:15 | 01:52:21 | 00:00:00 | |
| DM0DOS-11 | 2026-09-03 00:26:36 | 46.46835 | 7.61439 | 16° | 20km/h | 26127m | 5m/s | -49.7°C | 0% | 0hPa | 2.6V | 00:00:00 | 01:52:18 | 00:00:00 | |
| DO3MHA-12 | 2026-09-03 00:26:35 | 46.46839 | 7.61441 | 20° | 15km/h | 26133m | 6.0m/s | -49.6°C | 3.4% | 0hPa | 2.6V | 00:00:00 | 01:52:19 | 00:00:00 | |
| DO3MHA-11 | 2026-09-03 00:26:30 | 46.46820 | 7.61431 | 42° | 13km/h | 26105m | 4.8m/s | -49.7°C | 3.5% | 0hPa | 2.6V | 00:00:00 | 01:52:14 | 00:00:00 | |
| DB0ND-19 | 2026-09-03 00:26:29 | 46.46813 | 7.61421 | 45° | 13km/h | 26087m | 4.8m/s | 0°C | -1.0% | -1.0hPa | 2.6V | 00:00:00 | 00:00:00 | 00:00:00 | |
| IW2NTF | 2026-09-03 00:26:28 | 46.46805 | 7.61415 | 341° | 9km/h | 26065m | 4.5m/s | -49.8°C | 3.5% | 0hPa | 2.6V | 08:30:00 | 01:52:07 | 00:00:00 | |
| BIOWL1-15 | 2026-09-03 00:26:27 | 46.46771 | 7.61442 | 335° | 11km/h | 25987m | 6.2m/s | -49.6°C | 0.2% | 0hPa | 2.5V | 18:12:15 | 01:51:53 | 00:00:00 | |
| DO3MHA-12 | 2026-09-03 00:26:25 | 46.46809 | 7.61415 | 27° | 13km/h | 26076m | 6.2m/s | -49.8°C | 3.5% | 0hPa | 2.5V | 00:00:00 | 01:52:09 | 00:00:00 | |
| DH7VM-15 | 2026-09-03 00:26:24 | 46.46809 | 7.61415 | 27° | 9km/h | 26076m | 6.2m/s | -49.9°C | 0.9% | 0hPa | 2.5V | 00:00:00 | 00:00:00 | 00:00:00 | |
| DL6DJ-15 | 2026-09-03 00:26:23 | 46.46794 | 7.61419 | 353° | 18km/h | 26048m | 5.6m/s | -49.8°C | 0.8% | -1.0hPa | 2.5V | 00:00:00 | 00:00:00 | 00:00:00 | |
| DF7PN | 2026-09-03 00:26:21 | 46.46794 | 7.61419 | 353° | 18km/h | 26048m | 5.6m/s | -49.8°C | 0.8% | -1.0hPa | 2.5V | 00:00:00 | 00:00:00 | 00:00:00 | |
| DK5PH-5 | 2026-09-03 00:26:20 | 46.46794 | 7.61419 | 354° | 9km/h | 26048m | 5.5m/s | -49.7°C | 3.5% | 0hPa | 2.5V | 00:00:00 | 01:52:04 | 00:00:00 | |
| DM0DOS-11 | 2026-09-03 00:26:16 | 46.46777 | 7.61434 | 266° | 9km/h | 26016m | 5m/s | -49.6°C | 0% | 0hPa | 2.5V | 00:00:00 | 01:51:58 | 00:00:00 | |
| BIOWL1-15 | 2026-09-03 00:26:15 | 46.46769 | 7.61444 | 336° | 13km/h | 25981m | 5.1m/s | -49.6°C | 0.2% | 0hPa | 2.5V | 18:12:15 | 01:51:52 | 00:00:00 | |
| DO3MHA-12 | 2026-09-03 00:26:15 | 46.46777 | 7.61430 | 278° | 13km/h | 26022m | 5.4m/s | -49.6°C | 3.5% | 0hPa | 2.5V | 00:00:00 | 01:51:59 | 00:00:00 | |
| IW2NTF | 2026-09-03 00:26:14 | 46.46777 | 7.61437 | 273° | 5km/h | 26010m | 6.5m/s | -49.6°C | 3.5% | 0hPa | 2.5V | 08:30:00 | 01:51:57 | 00:00:00 | |
| DO3MHA-11 | 2026-09-03 00:26:10 | 46.46773 | 7.61440 | 341° | 11km/h | 25993m | 5.8m/s | -49.5°C | 3.5% | 0hPa | 2.5V | 00:00:00 | 01:51:54 | 00:00:00 | |
| IW2NTF | 2026-09-03 00:26:08 | 46.46753 | 7.61445 | 350° | 5km/h | 25954m | 6m/s | -49.5°C | 3.4% | 0hPa | 2.5V | 08:30:00 | 01:51:47 | 00:00:00 | |
| BIOWL1-15 | 2026-09-03 00:26:05 | 46.46758 | 7.61446 | 6° | 15km/h | 25965m | 5.6m/s | -49.6°C | 0.2% | 0hPa | 2.6V | 18:12:15 | 01:51:49 | 00:00:00 | |
| BIOWL1-15 | 2026-09-03 00:25:57 | 46.46756 | 7.61457 | 330° | 7km/h | 25910m | 5.2m/s | -49.6°C | 0.1% | 0hPa | 2.5V | 18:12:15 | 01:51:39 | 00:00:00 | |
| IW2NTF | 2026-09-03 00:25:54 | 46.46752 | 7.61462 | 298° | 13km/h | 25898m | 6.2m/s | -49.6°C | 3.4% | 0hPa | 2.6V | 08:30:00 | 01:51:37 | 00:00:00 | |
| DF7PN | 2026-09-03 00:25:50 | 46.46749 | 7.61479 | 262° | 5km/h | 25875m | 5.3m/s | -49.6°C | 0.8% | -1.0hPa | 2.6V | 00:00:00 | 00:00:00 | 00:00:00 | |
| IW2NTF | 2026-09-03 00:25:48 | 46.46765 | 7.61493 | 192° | 15km/h | 25841m | 6.4m/s | -49.6°C | 3.4% | 0hPa | 2.6V | 08:30:00 | 01:51:27 | 00:00:00 | |
| BIOWL1-15 | 2026-09-03 00:25:45 | 46.46757 | 7.61489 | 206° | 16km/h | 25853m | 5.1m/s | -49.6°C | 0.1% | 0hPa | 2.5V | 18:12:15 | 01:51:29 | 00:00:00 | |
| DO3MHA-12 | 2026-09-03 00:25:43 | 46.46765 | 7.61492 | 193° | 11km/h | 25842m | 6.3m/s | -49.6°C | 3.4% | 0hPa | 2.5V | 00:00:00 | 01:51:27 | 00:00:00 | |
| DO3MHA-11 | 2026-09-03 00:25:40 | 46.46773 | 7.61496 | 225° | 11km/h | 25826m | 5.7m/s | -49.7°C | 3.4% | 0hPa | 2.5V | 00:00:00 | 01:51:24 | 08:30:00 | |
| IW2NTF | 2026-09-03 00:25:35 | 46.46785 | 7.61518 | 199° | 13km/h | 25782m | 6.4m/s | -50°C | 3.5% | 0hPa | 2.5V | 08:30:00 | 01:51:16 | 00:00:00 | |
| BIOWL1-15 | 2026-09-03 00:25:34 | 46.46782 | 7.61517 | 193° | 9km/h | 25787m | 5.1m/s | 0°C | 0% | 0hPa | 2.5V | 18:12:15 | 01:51:17 | 00:00:00 | |
| HASLITAL | 2026-09-03 00:25:34 | 46.46779 | 7.61515 | 227° | 5km/h | 25798m | 5.9m/s | -50.0°C | 1.0% | 0hPa | 2.5V | 00:00:00 | 00:00:00 | 00:00:00 | |
| DO3MHA-12 | 2026-09-03 00:25:33 | 46.46782 | 7.61517 | 194° | 13km/h | 25787m | 5.1m/s | -50.0°C | 3.5% | 0hPa | 2.5V | 00:00:00 | 01:51:17 | 00:00:00 | |
| DO3MHA-11 | 2026-09-03 00:25:30 | 46.46791 | 7.61522 | 209° | 11km/h | 25771m | 4.5m/s | -50.0°C | 3.6% | 0hPa | 2.5V | 00:00:00 | 01:51:14 | 00:00:00 | |
| IW2NTF | 2026-09-03 00:25:27 | 46.46813 | 7.61520 | 179° | 11km/h | 25728m | 4.5m/s | -50.2°C | 3.6% | 0hPa | 2.5V | 08:30:00 | 01:51:06 | 00:00:00 | |
| BIOWL1-15 | 2026-09-03 00:25:24 | 46.46815 | 7.61519 | 172° | 9km/h | 25724m | 4.8m/s | 0°C | 0% | 0hPa | 2.5V | 18:12:15 | 01:51:05 | 00:00:00 | |
| DO3MHA-12 | 2026-09-03 00:25:23 | 46.46810 | 7.61520 | 176° | 7km/h | 25733m | 5.2m/s | -50.1°C | 3.6% | 0hPa | 2.5V | 00:00:00 | 01:51:07 | 08:30:00 | |
| DL6DJ-15 | 2026-09-03 00:25:21 | 46.46815 | 7.61519 | 171° | 7km/h | 25724m | 4.8m/s | -50.2°C | 0.8% | -1.0hPa | 2.5V | 00:00:00 | 00:00:00 | 00:00:00 | |
| DO3MHA-11 | 2026-09-03 00:25:20 | 46.46817 | 7.61519 | 148° | 7km/h | 25718m | 6.3m/s | -50.2°C | 3.6% | 0hPa | 2.5V | 00:00:00 | 01:51:04 | 00:00:00 | |
| DF7PN | 2026-09-03 00:25:19 | 46.46818 | 7.61515 | 88° | 5km/h | 25707m | 4.9m/s | -50.2°C | 0.9% | -1.0hPa | 2.5V | 00:00:00 | 00:00:00 | 00:00:00 | |
| IW2NTF | 2026-09-03 00:25:14 | 46.46827 | 7.61513 | 175° | 7km/h | 25674m | 6.2m/s | -50.1°C | 3.5% | 0hPa | 2.5V | 08:30:00 | 01:50:56 | 00:00:00 | |
| DO3MHA-12 | 2026-09-03 00:25:13 | 46.46825 | 7.61513 | 191° | 9km/h | 25680m | 5.2m/s | -50.1°C | 3.5% | 0hPa | 2.5V | 00:00:00 | 01:50:57 | 00:00:00 | |
| DO3MHA-11 | 2026-09-03 00:25:10 | 46.46830 | 7.61511 | 150° | 11km/h | 25663m | 5.0m/s | -50.1°C | 3.6% | 0hPa | 2.5V | 00:00:00 | 01:50:54 | 00:00:00 | |
| IW2NTF | 2026-09-03 00:25:07 | 46.46847 | 7.61496 | 108° | 9km/h | 25620m | 5.2m/s | -50.2°C | 3.5% | 0hPa | 2.6V | 08:30:00 | 01:50:46 | 00:00:00 | |
| DO3MHA-12 | 2026-09-03 00:25:02 | 46.46847 | 7.61496 | 109° | 13km/h | 25620m | 5.2m/s | -50.1°C | 3.5% | 0hPa | 2.5V | 00:00:00 | 01:50:46 | 00:00:00 | |
| DO3MHA-11 | 2026-09-03 00:25:00 | 46.46849 | 7.61491 | 147° | 13km/h | 25608m | 5.8m/s | -50.2°C | 3.6% | 0hPa | 2.5V | 00:00:00 | 01:50:44 | 00:00:00 | |
| IW2NTF | 2026-09-03 00:24:55 | 46.46868 | 7.61462 | 138° | 11km/h | 25566m | 4.3m/s | -50.3°C | 3.5% | 0hPa | 2.5V | 08:30:00 | 01:50:36 | 00:00:00 | |
| DF7PN | 2026-09-03 00:24:48 | 46.46867 | 7.61450 | 55° | 9km/h | 25540m | 4.8m/s | -50.4°C | 0.9% | -1.0hPa | 2.5V | 00:00:00 | 00:00:00 | 00:00:00 | |
| DK5PH-5 | 2026-09-03 00:24:47 | 46.46883 | 7.61449 | 56° | 11km/h | 25540m | 4.7m/s | -50.4°C | 3.6% | 0hPa | 2.5V | 00:00:00 | 01:50:31 | 00:00:00 | |
| IW2NTF | 2026-09-03 00:24:43 | 46.46868 | 7.61426 | 99° | 18km/h | 25513m | 6m/s | -50.5°C | 3.6% | 0hPa | 2.5V | 08:30:00 | 01:50:26 | 00:00:00 | |
| DO3MHA-12 | 2026-09-03 00:24:42 | 46.46868 | 7.61426 | 100° | 13km/h | 25513m | 6.0m/s | -50.4°C | 3.6% | 0hPa | 2.5V | 00:00:00 | 01:50:26 | 00:00:00 | |
| DO3MHA-11 | 2026-09-03 00:24:40 | 46.46869 | 7.61413 | 92° | 11km/h | 25503m | 4.0m/s | -50.5°C | 3.6% | 0hPa | 2.5V | 00:00:00 | 01:50:24 | 00:00:00 | |
| IW2NTF | 2026-09-03 00:24:38 | 46.46864 | 7.61387 | 49° | 15km/h | 25461m | 4.3m/s | -50.7°C | 3.6% | 0hPa | 2.6V | 08:30:00 | 01:50:16 | 00:00:00 | |
| DB0UT-7 | 2026-09-03 00:24:35 | 46.46870 | 7.61396 | 54° | 11km/h | 25477m | 5.4m/s | -50.5°C | 3.6% | 0hPa | 2.5V | 00:00:00 | 00:00:00 | 00:00:00 | |
| DO3MHA-12 | 2026-09-03 00:24:32 | 46.46864 | 7.61387 | 50° | 13km/h | 25461m | 4.2m/s | -50.6°C | 3.6% | 0hPa | 2.5V | 00:00:00 | 01:50:16 | 00:00:00 | |
| DO3MHA-11 | 2026-09-03 00:24:30 | 46.46860 | 7.61379 | 76° | 11km/h | 25451m | 6.0m/s | -50.7°C | 3.7% | 0hPa | 2.5V | 00:00:00 | 01:50:14 | 00:00:00 | |
| IW2NTF | 2026-09-03 00:24:23 | 46.46853 | 7.61348 | 51° | 13km/h | 25411m | 4.7m/s | -50.9°C | 3.7% | 0hPa | 2.5V | 08:30:00 | 01:50:06 | 00:00:00 | |
| BIOWL1-15 | 2026-09-03 00:24:20 | 46.46851 | 7.61341 | 89° | 7km/h | 25400m | 5.5m/s | 0°C | 0% | 0hPa | 2.6V | 18:12:15 | 01:50:04 | 00:00:00 | |
| IW2NTF | 2026-09-03 00:24:17 | 46.46853 | 7.61318 | 134° | 13km/h | 25357m | 6.1m/s | -50.9°C | 3.7% | 0hPa | 2.5V | 08:30:00 | 01:49:56 | 00:00:00 | |
| DO3MHA-12 | 2026-09-03 00:24:12 | 46.46853 | 7.61318 | 135° | 7km/h | 25358m | 6.0m/s | -50.9°C | 3.7% | 0hPa | 2.6V | 00:00:00 | 01:49:56 | 00:00:00 | |
| DO3MHA-11 | 2026-09-03 00:24:10 | 46.46859 | 7.61312 | 146° | 4km/h | 25347m | 4.8m/s | -50.9°C | 3.6% | 0hPa | 2.6V | 00:00:00 | 01:49:54 | 08:30:00 | |
| DB0UT-7 | 2026-09-03 00:24:05 | 46.46863 | 7.61306 | 229° | 7km/h | 25321m | 6.0m/s | -50.9°C | 3.7% | 0hPa | 2.5V | 00:00:00 | 01:49:49 | 00:00:00 | |
| IW2NTF | 2026-09-03 00:24:03 | 46.46865 | 7.61308 | 240° | 2km/h | 25305m | 4.7m/s | -51°C | 3.7% | 0hPa | 2.5V | 08:30:00 | 01:49:46 | 00:00:00 | |
| DM0DOS-11 | 2026-09-03 00:24:02 | 46.46865 | 7.61305 | 154° | 7km/h | 25279m | 6.3m/s | -51.1°C | 0% | 0hPa | 2.6V | 00:00:00 | 01:49:41 | 00:00:00 | |
| DO3MHA-12 | 2026-09-03 00:24:02 | 46.46865 | 7.61308 | 241° | 7km/h | 25306m | 4.7m/s | -51.0°C | 3.7% | 0hPa | 2.6V | 00:00:00 | 01:49:46 | 00:00:00 | |
| DO3MHA-11 | 2026-09-03 00:24:00 | 46.46864 | 7.61308 | 27° | 9km/h | 25294m | 5.1m/s | -51.0°C | 3.7% | 0hPa | 2.6V | 00:00:00 | 01:49:44 | 00:00:00 | |
| IW2NTF | 2026-09-03 00:23:58 | 46.46877 | 7.61309 | 253° | 9km/h | 25252m | 5m/s | -51.2°C | 3.7% | 0hPa | 2.6V | 08:30:00 | 01:49:36 | 00:00:00 | |
| DO3MHA-12 | 2026-09-03 00:23:52 | 46.46877 | 7.61308 | 254° | 7km/h | 25253m | 4.9m/s | -51.1°C | 3.7% | 0hPa | 2.6V | 00:00:00 | 01:49:36 | 08:30:00 | |
| HASLITAL | 2026-09-03 00:23:51 | 46.46877 | 7.61308 | 254° | 9km/h | 25253m | 5.0m/s | -51.2°C | 1.0% | 0hPa | 2.5V | 00:00:00 | 00:00:00 | 00:00:00 | |
| DO3MHA-11 | 2026-09-03 00:23:50 | 46.46877 | 7.61316 | 269° | 7km/h | 25242m | 5.8m/s | -51.1°C | 3.8% | 0hPa | 2.5V | 00:00:00 | 01:49:34 | 00:00:00 | |
| DL6DJ-15 | 2026-09-03 00:23:48 | 46.46878 | 7.61315 | 131° | 5km/h | 25207m | 4.4m/s | -51.1°C | 0.9% | -1.0hPa | 2.5V | 00:00:00 | 00:00:00 | 00:00:00 | |
| DM0DOS-11 | 2026-09-03 00:23:45 | 46.46890 | 7.61319 | 206° | 16km/h | 25186m | 4.2m/s | -51.1°C | 0% | 0hPa | 2.5V | 00:00:00 | 01:49:23 | 00:00:00 | |
| IW2NTF | 2026-09-03 00:23:44 | 46.46880 | 7.61314 | 173° | 9km/h | 25201m | 6.5m/s | -51.1°C | 3.7% | 0hPa | 2.5V | 08:30:00 | 01:49:26 | 00:00:00 | |
| DK5PH-5 | 2026-09-03 00:23:43 | 46.46878 | 7.61315 | 132° | 11km/h | 25207m | 4.4m/s | -51.1°C | 3.7% | 0hPa | 2.6V | 00:00:00 | 01:49:27 | 00:00:00 | |
| DO3MHA-12 | 2026-09-03 00:23:42 | 46.46880 | 7.61314 | 174° | 11km/h | 25201m | 6.4m/s | -51.1°C | 3.7% | 0hPa | 2.6V | 00:00:00 | 01:49:26 | 00:00:00 | |
| DO3MHA-11 | 2026-09-03 00:23:40 | 46.46886 | 7.61316 | 201° | 9km/h | 25190m | 4.4m/s | -51.1°C | 3.7% | 0hPa | 2.6V | 00:00:00 | 01:49:24 | 00:00:00 | |
| IW2NTF | 2026-09-03 00:23:38 | 46.46890 | 7.61328 | 93° | 2km/h | 25150m | 5m/s | -51°C | 3.7% | 0hPa | 2.5V | 08:30:00 | 01:49:16 | 00:00:00 | |
| DB0UT-7 | 2026-09-03 00:23:35 | 46.46894 | 7.61328 | 338° | 9km/h | 25166m | 4.6m/s | -51.0°C | 3.7% | 0hPa | 2.6V | 00:00:00 | 00:00:00 | 08:30:00 | |
| DM0DOS-11 | 2026-09-03 00:23:34 | 46.46892 | 7.61325 | 141° | 9km/h | 25140m | 5.2m/s | -50.9°C | 0% | 0hPa | 2.5V | 00:00:00 | 01:49:14 | 00:00:00 | |
| DO3MHA-12 | 2026-09-03 00:23:32 | 46.46890 | 7.61328 | 94° | 11km/h | 25150m | 5.0m/s | -50.9°C | 3.7% | 0hPa | 2.6V | 00:00:00 | 01:49:16 | 00:00:00 | |
| HASLITAL | 2026-09-03 00:23:31 | 46.46890 | 7.61328 | 95° | 2km/h | 25150m | 5.0m/s | -51.0°C | 1.0% | 0hPa | 2.6V | 00:00:00 | 00:00:00 | 00:00:00 | |
| DO3MHA-11 | 2026-09-03 00:23:30 | 46.46892 | 7.61325 | 142° | 11km/h | 25140m | 5.2m/s | -50.9°C | 3.7% | 0hPa | 2.6V | 00:00:00 | 01:49:14 | 00:00:00 | |
| IW2NTF | 2026-09-03 00:23:27 | 46.46912 | 7.61320 | 251° | 5km/h | 25098m | 5.9m/s | -50.9°C | 3.6% | 0hPa | 2.6V | 08:30:00 | 01:49:06 | 00:00:00 | |
| DM0DOS-11 | 2026-09-03 00:23:24 | 46.46909 | 7.61322 | 359° | 11km/h | 25087m | 4.4m/s | -50.9°C | 0% | 0hPa | 2.5V | 00:00:00 | 01:49:04 | 00:00:00 | |
| DO3MHA-12 | 2026-09-03 00:23:22 | 46.46912 | 7.61320 | 252° | 9km/h | 25098m | 5.9m/s | -50.8°C | 3.6% | 0hPa | 2.6V | 00:00:00 | 01:49:06 | 00:00:00 | |
| DO3MHA-11 | 2026-09-03 00:23:20 | 46.46909 | 7.61322 | 360° | 11km/h | 25087m | 4.3m/s | -50.8°C | 3.7% | 0hPa | 2.5V | 00:00:00 | 01:49:04 | 00:00:00 | |
| IW2NTF | 2026-09-03 00:23:17 | 46.46906 | 7.61301 | 115° | 11km/h | 25045m | 4.1m/s | -50.9°C | 3.6% | 0hPa | 2.5V | 08:30:00 | 01:48:56 | 00:00:00 | |
| DM0DOS-11 | 2026-09-03 00:23:14 | 46.46910 | 7.61294 | 140° | 4km/h | 25029m | 4.6m/s | -50.9°C | 0% | 0hPa | 2.5V | 00:00:00 | 01:48:53 | 00:00:00 | |
| DK5PH-5 | 2026-09-03 00:23:13 | 46.46905 | 7.61305 | 112° | 13km/h | 25050m | 5.2m/s | -50.9°C | 3.7% | 0hPa | 2.6V | 00:00:00 | 01:48:57 | 00:00:00 | |
| DO3MHA-12 | 2026-09-03 00:23:12 | 46.46906 | 7.61301 | 116° | 9km/h | 25045m | 4.1m/s | -50.9°C | 3.6% | 0hPa | 2.6V | 00:00:00 | 01:48:56 | 00:00:00 | |
| DO3MHA-11 | 2026-09-03 00:23:10 | 46.46909 | 7.61295 | 143° | 11km/h | 25034m | 5.9m/s | -50.9°C | 3.7% | 0hPa | 2.6V | 00:00:00 | 01:48:54 | 00:00:00 | |
| IW2NTF | 2026-09-03 00:23:08 | 46.46897 | 7.61275 | 62° | 13km/h | 24990m | 4.5m/s | -51°C | 3.7% | 0hPa | 2.5V | 08:30:00 | 01:48:46 | 00:00:00 | |
| DB0UT-7 | 2026-09-03 00:23:05 | 46.46904 | 7.61286 | 36° | 13km/h | 25007m | 5.1m/s | -50.9°C | 3.7% | 0hPa | 2.5V | 00:00:00 | 01:48:49 | 00:00:00 | |
| DO3MHA-12 | 2026-09-03 00:23:02 | 46.46897 | 7.61275 | 63° | 11km/h | 24991m | 4.4m/s | -51.0°C | 3.7% | 0hPa | 2.5V | 00:00:00 | 01:48:46 | 00:00:00 | |
| DO3MHA-11 | 2026-09-03 00:23:00 | 46.46895 | 7.61265 | 84° | 13km/h | 24980m | 6.1m/s | -51.0°C | 3.7% | 0hPa | 2.5V | 00:00:00 | 01:48:44 | 00:00:00 | |
| IW2NTF | 2026-09-03 00:22:54 | 46.46899 | 7.61234 | 42° | 13km/h | 24936m | 4.9m/s | -51.1°C | 3.8% | 0hPa | 2.5V | 08:30:00 | 01:48:36 | 00:00:00 | |
| DM0DOS-11 | 2026-09-03 00:22:53 | 46.46893 | 7.61228 | 38° | 15km/h | 24926m | 6.1m/s | -51.1°C | 0% | 0hPa | 2.5V | 00:00:00 | 01:48:34 | 00:00:00 | |
| DO3MHA-12 | 2026-09-03 00:22:53 | 46.46899 | 7.61234 | 43° | 16km/h | 24937m | 4.8m/s | -51.1°C | 3.8% | 0hPa | 2.5V | 00:00:00 | 01:48:36 | 00:00:00 | |
| DO3MHA-11 | 2026-09-03 00:22:50 | 46.46893 | 7.61227 | 39° | 15km/h | 24926m | 6.0m/s | -51.1°C | 3.8% | 0hPa | 2.6V | 00:00:00 | 01:48:34 | 00:00:00 | |
| IW2NTF | 2026-09-03 00:22:47 | 46.46878 | 7.61188 | 8° | 5km/h | 24879m | 5m/s | -50.9°C | 3.7% | 0hPa | 2.6V | 08:30:00 | 01:48:25 | 00:00:00 | |
| DH7VM-15 | 2026-09-03 00:22:44 | 46.46882 | 7.61199 | 75° | 18km/h | 24900m | 4.2m/s | -51.0°C | 1.0% | 0hPa | 2.5V | 00:00:00 | 00:00:00 | 00:00:00 | |
| DK5PH-5 | 2026-09-03 00:22:43 | 46.46880 | 7.61190 | 67° | 9km/h | 24889m | 5.5m/s | -50.9°C | 3.8% | 0hPa | 2.5V | 00:00:00 | 01:48:27 | 00:00:00 | |
| DO3MHA-12 | 2026-09-03 00:22:42 | 46.46879 | 7.61188 | 34° | 9km/h | 24884m | 4.5m/s | -50.9°C | 3.8% | 0hPa | 2.5V | 00:00:00 | 01:48:26 | 00:00:00 | |
| DM0DOS-11 | 2026-09-03 00:22:41 | 46.46877 | 7.61188 | 7° | 9km/h | 24874m | 5.7m/s | -50.9°C | 0% | 0hPa | 2.5V | 00:00:00 | 01:48:24 | 00:00:00 | |
| DO3MHA-11 | 2026-09-03 00:22:40 | 46.46876 | 7.61188 | 8° | 11km/h | 24874m | 5.7m/s | -50.8°C | 3.7% | 0hPa | 2.5V | 00:00:00 | 01:48:24 | 08:30:00 | |
| IW2NTF | 2026-09-03 00:22:36 | 46.46859 | 7.61173 | 99° | 13km/h | 24825m | 5.1m/s | -50.7°C | 3.6% | 0hPa | 2.6V | 08:30:00 | 01:48:15 | 00:00:00 | |
| DM0DOS-11 | 2026-09-03 00:22:36 | 46.46861 | 7.61164 | 113° | 11km/h | 24815m | 5.7m/s | -50.7°C | 0% | 0hPa | 2.5V | 00:00:00 | 01:48:13 | 00:00:00 | |
| DB0UT-7 | 2026-09-03 00:22:35 | 46.46862 | 7.61183 | 8° | 11km/h | 24847m | 5.5m/s | -50.7°C | 3.7% | 0hPa | 2.5V | 00:00:00 | 00:00:00 | 00:00:00 | |
| DO3MHA-12 | 2026-09-03 00:22:32 | 46.46859 | 7.61177 | 92° | 9km/h | 24831m | 6.4m/s | -50.7°C | 3.6% | 0hPa | 2.5V | 00:00:00 | 01:48:16 | 00:00:00 | |
| HASLITAL | 2026-09-03 00:22:30 | 46.46860 | 7.61168 | 106° | 13km/h | 24820m | 4.4m/s | -50.7°C | 0% | 0hPa | 2.5V | 00:00:00 | 00:00:00 | 00:00:00 | |
| IW2NTF | 2026-09-03 00:22:27 | 46.46850 | 7.61157 | 0° | 9km/h | 24771m | 5.4m/s | -50.6°C | 3.7% | 0hPa | 2.5V | 08:30:00 | 01:48:05 | 00:00:00 | |
| DM0DOS-11 | 2026-09-03 00:22:24 | 46.46844 | 7.61153 | 50° | 11km/h | 24756m | 6.5m/s | 0°C | 0% | 0hPa | 2.6V | 00:00:00 | 01:48:02 | 00:00:00 | |
| DH7VM-15 | 2026-09-03 00:22:24 | 46.46858 | 7.61158 | 11° | 11km/h | 24788m | 5.3m/s | -50.7°C | 1.0% | 0hPa | 2.5V | 00:00:00 | 00:00:00 | 00:00:00 | |
| DO3MHA-12 | 2026-09-03 00:22:22 | 46.46853 | 7.61157 | 5° | 11km/h | 24777m | 5.8m/s | -50.6°C | 3.6% | 0hPa | 2.5V | 00:00:00 | 01:48:06 | 08:30:00 | |
| DO3MHA-11 | 2026-09-03 00:22:20 | 46.46848 | 7.61157 | 12° | 11km/h | 24767m | 4.2m/s | -50.6°C | 3.6% | 0hPa | 2.5V | 00:00:00 | 01:48:04 | 00:00:00 | |
| IW2NTF | 2026-09-03 00:22:16 | 46.46831 | 7.61133 | 358° | 13km/h | 24718m | 6.3m/s | -50.6°C | 3.6% | 0hPa | 2.5V | 08:30:00 | 01:47:55 | 00:00:00 | |
| DM0DOS-11 | 2026-09-03 00:22:13 | 46.46823 | 7.61134 | 347° | 16km/h | 24707m | 4.9m/s | 0°C | 0% | 0hPa | 2.5V | 00:00:00 | 01:47:53 | 00:00:00 | |
| DF7PN | 2026-09-03 00:22:13 | 46.46834 | 7.61133 | 5° | 9km/h | 24724m | 4.8m/s | -50.6°C | 0.9% | -1.0hPa | 2.5V | 00:00:00 | 00:00:00 | 00:00:00 | |
| DO3MHA-12 | 2026-09-03 00:22:12 | 46.46834 | 7.61133 | 6° | 13km/h | 24724m | 4.8m/s | -50.6°C | 3.6% | 0hPa | 2.5V | 00:00:00 | 01:47:56 | 00:00:00 | |
| DO3MHA-11 | 2026-09-03 00:22:10 | 46.46827 | 7.61133 | 355° | 13km/h | 24713m | 5.4m/s | -50.6°C | 3.5% | 0hPa | 2.5V | 00:00:00 | 01:47:54 | 00:00:00 | |
| HASLITAL | 2026-09-03 00:22:08 | 46.46823 | 7.61134 | 349° | 16km/h | 24708m | 4.9m/s | 0°C | 0% | 0hPa | 2.5V | 00:00:00 | 00:00:00 | 00:00:00 | |
| DB0UT-7 | 2026-09-03 00:22:05 | 46.46811 | 7.61142 | 349° | 13km/h | 24686m | 5.1m/s | -50.7°C | 3.6% | 0hPa | 2.5V | 00:00:00 | 01:47:49 | 00:00:00 | |
| IW2NTF | 2026-09-03 00:22:03 | 46.46803 | 7.61135 | 35° | 9km/h | 24665m | 5m/s | -50.9°C | 3.6% | 0hPa | 2.6V | 08:30:00 | 01:47:45 | 00:00:00 | |
| DO3MHA-12 | 2026-09-03 00:22:02 | 46.46805 | 7.61138 | 37° | 11km/h | 24670m | 4.2m/s | -50.8°C | 3.6% | 0hPa | 2.5V | 00:00:00 | 01:47:46 | 00:00:00 | |
| DO3MHA-11 | 2026-09-03 00:22:00 | 46.46801 | 7.61134 | 23° | 11km/h | 24660m | 5.8m/s | -50.9°C | 3.6% | 0hPa | 2.5V | 00:00:00 | 01:47:44 | 00:00:00 | |
| IW2NTF | 2026-09-03 00:21:57 | 46.46775 | 7.61141 | 348° | 15km/h | 24612m | 4.9m/s | -51.3°C | 3.7% | 0hPa | 2.5V | 08:30:00 | 01:47:35 | 00:00:00 | |
| DO3MHA-12 | 2026-09-03 00:21:52 | 46.46779 | 7.61140 | 354° | 15km/h | 24618m | 5.8m/s | -51.2°C | 3.7% | 0hPa | 2.5V | 00:00:00 | 01:47:36 | 00:00:00 | |
| DO3MHA-11 | 2026-09-03 00:21:50 | 46.46771 | 7.61142 | 350° | 15km/h | 24608m | 4.1m/s | -51.3°C | 3.8% | 0hPa | 2.5V | 00:00:00 | 01:47:34 | 00:00:00 | |
| HASLITAL | 2026-09-03 00:21:47 | 46.46764 | 7.61142 | 3° | 15km/h | 24598m | 5.9m/s | 0°C | 0% | 0hPa | 2.5V | 00:00:00 | 00:00:00 | 00:00:00 | |
| IW2NTF | 2026-09-03 00:21:46 | 46.46742 | 7.61156 | 338° | 13km/h | 24560m | 5.5m/s | -51.5°C | 3.8% | 0hPa | 2.5V | 08:30:00 | 01:47:25 | 00:00:00 | |
| DO3MHA-12 | 2026-09-03 00:21:41 | 46.46742 | 7.61156 | 339° | 15km/h | 24560m | 5.5m/s | -51.5°C | 3.8% | 0hPa | 2.5V | 00:00:00 | 01:47:25 | 00:00:00 | |
| DO3MHA-11 | 2026-09-03 00:21:40 | 46.46739 | 7.61158 | 349° | 15km/h | 24556m | 4.2m/s | -51.5°C | 3.9% | 0hPa | 2.5V | 00:00:00 | 01:47:24 | 00:00:00 | |
| IW2NTF | 2026-09-03 00:21:36 | 46.46707 | 7.61167 | 326° | 15km/h | 24509m | 6.4m/s | -51.5°C | 3.8% | 0hPa | 2.6V | 08:30:00 | 01:47:15 | 00:00:00 | |
| DB0UT-7 | 2026-09-03 00:21:35 | 46.46722 | 7.61164 | 352° | 16km/h | 24530m | 5.1m/s | -51.5°C | 3.8% | 0hPa | 2.5V | 00:00:00 | 00:00:00 | 00:00:00 | |
| DO3MHA-12 | 2026-09-03 00:21:31 | 46.46707 | 7.61167 | 327° | 15km/h | 24509m | 6.4m/s | -51.4°C | 3.8% | 0hPa | 2.5V | 00:00:00 | 01:47:15 | 00:00:00 | |
| DO3MHA-11 | 2026-09-03 00:21:30 | 46.46705 | 7.61171 | 306° | 15km/h | 24503m | 5.6m/s | -51.4°C | 3.8% | 0hPa | 2.5V | 00:00:00 | 01:47:14 | 00:00:00 | |
| HASLITAL | 2026-09-03 00:21:26 | 46.46699 | 7.61184 | 305° | 13km/h | 24487m | 5.6m/s | 0°C | 0% | 0hPa | 2.5V | 00:00:00 | 00:00:00 | 00:00:00 | |
| IW2NTF | 2026-09-03 00:21:22 | 46.46680 | 7.61203 | 348° | 22km/h | 24456m | 5.9m/s | -51.5°C | 3.8% | 0hPa | 2.5V | 08:30:00 | 01:47:05 | 00:00:00 | |
| DO3MHA-12 | 2026-09-03 00:21:21 | 46.46680 | 7.61203 | 349° | 18km/h | 24456m | 5.8m/s | -51.5°C | 3.8% | 0hPa | 2.5V | 00:00:00 | 01:47:05 | 00:00:00 | |
| DO3MHA-11 | 2026-09-03 00:21:20 | 46.46675 | 7.61204 | 358° | 16km/h | 24450m | 5.8m/s | -51.4°C | 3.8% | 0hPa | 2.5V | 00:00:00 | 01:47:04 | 00:00:00 | |
| IW2NTF | 2026-09-03 00:21:17 | 46.46650 | 7.61228 | 301° | 9km/h | 24404m | 4.1m/s | -51.5°C | 3.8% | 0hPa | 2.5V | 08:30:00 | 01:46:55 | 00:00:00 | |
| DH7VM-15 | 2026-09-03 00:21:12 | 46.46651 | 7.61222 | 279° | 9km/h | 24414m | 5.7m/s | -51.5°C | 1.0% | 0hPa | 2.5V | 00:00:00 | 00:00:00 | 00:00:00 | |
| DO3MHA-12 | 2026-09-03 00:21:11 | 46.46649 | 7.61228 | 302° | 18km/h | 24405m | 4.0m/s | -51.5°C | 3.8% | 0hPa | 2.5V | 00:00:00 | 01:46:55 | 00:00:00 | |
| DO3MHA-11 | 2026-09-03 00:21:10 | 46.46647 | 7.61232 | 312° | 20km/h | 24400m | 5.0m/s | -51.5°C | 3.8% | 0hPa | 2.5V | 00:00:00 | 01:46:54 | 08:30:00 | |
| IW2NTF | 2026-09-03 00:21:06 | 46.46609 | 7.61270 | 293° | 16km/h | 24354m | 5.5m/s | -51.5°C | 3.8% | 0hPa | 2.5V | 08:30:00 | 01:46:45 | 00:00:00 | |
| DB0UT-7 | 2026-09-03 00:21:05 | 46.46623 | 7.61256 | 340° | 18km/h | 24373m | 4.9m/s | -51.4°C | 3.8% | 0hPa | 2.6V | 00:00:00 | 01:46:49 | 00:00:00 | |
| DO3MHA-12 | 2026-09-03 00:21:01 | 46.46609 | 7.61270 | 294° | 22km/h | 24354m | 5.5m/s | -51.5°C | 3.8% | 0hPa | 2.6V | 00:00:00 | 01:46:45 | 00:00:00 | |
| DO3MHA-11 | 2026-09-03 00:21:00 | 46.46608 | 7.61276 | 285° | 18km/h | 24349m | 4.6m/s | -51.5°C | 3.8% | 0hPa | 2.6V | 00:00:00 | 01:46:44 | 00:00:00 | |
| IW2NTF | 2026-09-03 00:20:56 | 46.46582 | 7.61323 | 322° | 27km/h | 24305m | 4.9m/s | -51.7°C | 3.8% | 0hPa | 2.6V | 08:30:00 | 01:46:35 | 00:00:00 | |
| DH7VM-15 | 2026-09-03 00:20:51 | 46.46587 | 7.61317 | 320° | 26km/h | 24310m | 4.0m/s | -51.6°C | 1.0% | 0hPa | 2.5V | 00:00:00 | 00:00:00 | 00:00:00 | |
| DO3MHA-11 | 2026-09-03 00:20:50 | 46.46577 | 7.61328 | 328° | 18km/h | 24300m | 5.7m/s | -51.6°C | 3.8% | 0hPa | 2.5V | 00:00:00 | 01:46:34 | 00:00:00 | |
| IW2NTF | 2026-09-03 00:20:47 | 46.46555 | 7.61376 | 308° | 7km/h | 24254m | 4.3m/s | -51.9°C | 3.8% | 0hPa | 2.5V | 08:30:00 | 01:46:25 | 00:00:00 | |
| DO3MHA-12 | 2026-09-03 00:20:45 | 46.46557 | 7.61356 | 283° | 13km/h | 24275m | 4.9m/s | -51.8°C | 3.8% | 0hPa | 2.6V | 00:00:00 | 01:46:29 | 08:30:00 | |
| DO3MHA-11 | 2026-09-03 00:20:40 | 46.46554 | 7.61378 | 326° | 13km/h | 24250m | 4.6m/s | -51.8°C | 3.8% | 0hPa | 2.5V | 00:00:00 | 01:46:24 | 00:00:00 | |
| DF7PN | 2026-09-03 00:20:39 | 46.46552 | 7.61380 | 325° | 11km/h | 24244m | 5.7m/s | -51.9°C | 1.0% | -1.0hPa | 2.5V | 00:00:00 | 00:00:00 | 00:00:00 | |
| IW2NTF | 2026-09-03 00:20:37 | 46.46539 | 7.61411 | 268° | 22km/h | 24204m | 4.5m/s | -51.9°C | 3.9% | 0hPa | 2.5V | 08:30:00 | 01:46:15 | 00:00:00 | |
| DO3MHA-12 | 2026-09-03 00:20:35 | 46.46541 | 7.61392 | 321° | 16km/h | 24225m | 5.3m/s | -51.8°C | 3.9% | 0hPa | 2.6V | 00:00:00 | 01:46:19 | 00:00:00 | |
| DO3MHA-11 | 2026-09-03 00:20:30 | 46.46538 | 7.61419 | 274° | 20km/h | 24201m | 4.0m/s | -51.9°C | 3.8% | 0hPa | 2.6V | 00:00:00 | 01:46:14 | 00:00:00 | |
| IW2NTF | 2026-09-03 00:20:26 | 46.46509 | 7.61461 | 332° | 24km/h | 24157m | 6.2m/s | -52°C | 3.9% | 0hPa | 2.6V | 08:30:00 | 01:46:05 | 00:00:00 | |
| DO3MHA-12 | 2026-09-03 00:20:25 | 46.46527 | 7.61445 | 329° | 22km/h | 24177m | 5.4m/s | -52.1°C | 3.9% | 0hPa | 2.6V | 00:00:00 | 01:46:09 | 00:00:00 | |
| DO3MHA-11 | 2026-09-03 00:20:20 | 46.46504 | 7.61465 | 333° | 24km/h | 24152m | 4.8m/s | -52.0°C | 3.9% | 0hPa | 2.6V | 00:00:00 | 01:46:04 | 00:00:00 | |
| DO3MHA-12 | 2026-09-03 00:20:15 | 46.46485 | 7.61499 | 290° | 22km/h | 24127m | 3.6m/s | -51.9°C | 3.9% | 0hPa | 2.6V | 00:00:00 | 01:45:59 | 00:00:00 | |
| IW2NTF | 2026-09-03 00:20:14 | 46.46473 | 7.61525 | 321° | 18km/h | 24108m | 4.6m/s | -51.9°C | 3.9% | 0hPa | 2.5V | 08:30:00 | 01:45:55 | 00:00:00 | |
| DO3MHA-11 | 2026-09-03 00:20:10 | 46.46469 | 7.61529 | 323° | 22km/h | 24103m | 5.2m/s | -51.8°C | 3.9% | 0hPa | 2.6V | 00:00:00 | 01:45:54 | 00:00:00 | |
| IW2NTF | 2026-09-03 00:20:06 | 46.46440 | 7.61584 | 292° | 24km/h | 24056m | 5.1m/s | -51.9°C | 3.8% | 0hPa | 2.5V | 08:30:00 | 01:45:45 | 00:00:00 | |
| DB0UT-7 | 2026-09-03 00:20:05 | 46.46454 | 7.61557 | 311° | 18km/h | 24077m | 5.8m/s | -51.9°C | 3.8% | 0hPa | 2.6V | 00:00:00 | 01:45:49 | 00:00:00 | |
| DO3MHA-11 | 2026-09-03 00:20:00 | 46.46438 | 7.61592 | 290° | 16km/h | 24052m | 4.0m/s | -51.9°C | 3.8% | 0hPa | 2.6V | 00:00:00 | 01:45:44 | 00:00:00 | |
| IW2NTF | 2026-09-03 00:19:55 | 46.46424 | 7.61642 | 288° | 13km/h | 24007m | 5.7m/s | -52.2°C | 3.9% | 0hPa | 2.6V | 08:30:00 | 01:45:35 | 00:00:00 | |
| DO3MHA-12 | 2026-09-03 00:19:54 | 46.46425 | 7.61629 | 280° | 15km/h | 24022m | 5.6m/s | -52.1°C | 3.8% | 0hPa | 2.5V | 00:00:00 | 01:45:38 | 00:00:00 | |
| DO3MHA-11 | 2026-09-03 00:19:50 | 46.46423 | 7.61646 | 304° | 18km/h | 24002m | 5.3m/s | -52.2°C | 3.9% | 0hPa | 2.5V | 00:00:00 | 01:45:34 | 00:00:00 | |
| IW2NTF | 2026-09-03 00:19:47 | 46.46411 | 7.61701 | 256° | 18km/h | 23956m | 6m/s | -52.5°C | 4% | 0hPa | 2.5V | 08:30:00 | 01:45:25 | 00:00:00 | |
| DO3MHA-12 | 2026-09-03 00:19:43 | 46.46410 | 7.61687 | 282° | 20km/h | 23966m | 4.5m/s | -52.4°C | 4.0% | 0hPa | 2.5V | 00:00:00 | 01:45:27 | 00:00:00 | |
| DO3MHA-11 | 2026-09-03 00:19:40 | 46.46412 | 7.61707 | 245° | 22km/h | 23951m | 5.4m/s | -52.4°C | 4.0% | 0hPa | 2.6V | 00:00:00 | 01:45:24 | 08:30:00 | |
| DL6DJ-15 | 2026-09-03 00:19:39 | 46.46418 | 7.61734 | 278° | 18km/h | 23931m | 4.3m/s | -52.4°C | 1.0% | -1.0hPa | 2.5V | 00:00:00 | 00:00:00 | 00:00:00 | |
| DF7PN | 2026-09-03 00:19:37 | 46.46418 | 7.61734 | 278° | 18km/h | 23931m | 4.3m/s | -52.4°C | 1.0% | -1.0hPa | 2.5V | 00:00:00 | 00:00:00 | 00:00:00 | |
| DB0UT-7 | 2026-09-03 00:19:35 | 46.46417 | 7.61741 | 285° | 24km/h | 23927m | 4.2m/s | -52.4°C | 4.0% | 0hPa | 2.5V | 00:00:00 | 00:00:00 | 00:00:00 | |
| IW2NTF | 2026-09-03 00:19:34 | 46.46412 | 7.61777 | 281° | 26km/h | 23908m | 4.2m/s | -52.4°C | 4% | 0hPa | 2.5V | 08:30:00 | 01:45:15 | 00:00:00 | |
| DO3MHA-12 | 2026-09-03 00:19:32 | 46.46413 | 7.61767 | 280° | 26km/h | 23912m | 4.4m/s | -52.4°C | 4.0% | 0hPa | 2.6V | 00:00:00 | 01:45:16 | 00:00:00 | |
| DO3MHA-11 | 2026-09-03 00:19:30 | 46.46410 | 7.61786 | 286° | 26km/h | 23903m | 4.7m/s | -52.4°C | 4.0% | 0hPa | 2.6V | 00:00:00 | 01:45:14 | 00:00:00 | |
| IW2NTF | 2026-09-03 00:19:26 | 46.46395 | 7.61867 | 287° | 22km/h | 23857m | 5m/s | -52.4°C | 4% | 0hPa | 2.6V | 08:30:00 | 01:45:05 | 00:00:00 | |
| DO3MHA-12 | 2026-09-03 00:19:21 | 46.46395 | 7.61867 | 288° | 20km/h | 23858m | 5.0m/s | -52.4°C | 4.0% | 0hPa | 2.5V | 00:00:00 | 01:45:05 | 00:00:00 | |
| DO3MHA-11 | 2026-09-03 00:19:20 | 46.46393 | 7.61875 | 292° | 20km/h | 23853m | 4.5m/s | -52.4°C | 4.0% | 0hPa | 2.5V | 00:00:00 | 01:45:04 | 00:00:00 | |
| DH7VM-15 | 2026-09-03 00:19:19 | 46.46393 | 7.61875 | 292° | 22km/h | 23853m | 4.6m/s | -52.4°C | 1.1% | 0hPa | 2.5V | 00:00:00 | 00:00:00 | 00:00:00 | |
| DB0ND-19 | 2026-09-03 00:19:15 | 46.46382 | 7.61921 | 293° | 22km/h | 23818m | 4.4m/s | -52.4°C | 1.0% | -1.0hPa | 2.5V | 00:00:00 | 00:00:00 | 00:00:00 | |
| IW2NTF | 2026-09-03 00:19:13 | 46.46379 | 7.61938 | 275° | 26km/h | 23807m | 6m/s | -52.4°C | 4% | 0hPa | 2.5V | 08:30:00 | 01:44:55 | 00:00:00 | |
| DO3MHA-11 | 2026-09-03 00:19:10 | 46.46379 | 7.61947 | 268° | 24km/h | 23802m | 4.2m/s | -52.4°C | 4.0% | 0hPa | 2.6V | 00:00:00 | 01:44:54 | 00:00:00 | |
| DL6DJ-15 | 2026-09-03 00:19:09 | 46.46380 | 7.61987 | 268° | 24km/h | 23783m | 3.9m/s | -52.4°C | 1.0% | -1.0hPa | 2.6V | 00:00:00 | 00:00:00 | 00:00:00 | |
| DF7PN | 2026-09-03 00:19:06 | 46.46380 | 7.61996 | 264° | 22km/h | 23779m | 5.0m/s | -52.4°C | 1.0% | -1.0hPa | 2.6V | 00:00:00 | 00:00:00 | 00:00:00 | |
| DB0UT-7 | 2026-09-03 00:19:05 | 46.46380 | 7.61996 | 265° | 20km/h | 23779m | 4.9m/s | -52.3°C | 4.0% | 0hPa | 2.6V | 00:00:00 | 01:44:49 | 08:30:00 | |
| DO3MHA-12 | 2026-09-03 00:19:01 | 46.46380 | 7.62025 | 289° | 20km/h | 23759m | 6.0m/s | -52.4°C | 4.0% | 0hPa | 2.6V | 00:00:00 | 01:44:45 | 00:00:00 | |
| IW2NTF | 2026-09-03 00:19:00 | 46.46376 | 7.62038 | 299° | 22km/h | 23749m | 3.8m/s | -52.4°C | 3.9% | 0hPa | 2.6V | 08:30:00 | 01:44:43 | 00:00:00 | |
| DO3MHA-11 | 2026-09-03 00:19:00 | 46.46378 | 7.62032 | 300° | 20km/h | 23754m | 5.0m/s | -52.3°C | 3.9% | 0hPa | 2.5V | 00:00:00 | 01:44:44 | 00:00:00 | |
| DO3MHA-12 | 2026-09-03 00:18:51 | 46.46377 | 7.62097 | 266° | 16km/h | 23710m | 4.7m/s | -52.4°C | 3.9% | 0hPa | 2.5V | 00:00:00 | 01:44:35 | 00:00:00 | |
| IW2NTF | 2026-09-03 00:18:50 | 46.46377 | 7.62106 | 269° | 11km/h | 23699m | 4.8m/s | -52.5°C | 3.9% | 0hPa | 2.5V | 08:30:00 | 01:44:33 | 00:00:00 | |
| DB0ND-19 | 2026-09-03 00:18:44 | 46.46365 | 7.62128 | 315° | 20km/h | 23674m | 4.4m/s | -52.5°C | 1.0% | -1.0hPa | 2.5V | 00:00:00 | 00:00:00 | 00:00:00 | |
| IW2NTF | 2026-09-03 00:18:42 | 46.46359 | 7.62162 | 269° | 22km/h | 23649m | 5.1m/s | -52.6°C | 3.9% | 0hPa | 2.5V | 08:30:00 | 01:44:23 | 00:00:00 | |
| DO3MHA-12 | 2026-09-03 00:18:41 | 46.46359 | 7.62147 | 273° | 20km/h | 23659m | 4.2m/s | -52.5°C | 3.9% | 0hPa | 2.6V | 00:00:00 | 01:44:25 | 00:00:00 | |
| DO3MHA-11 | 2026-09-03 00:18:40 | 46.46359 | 7.62154 | 269° | 18km/h | 23654m | 5.2m/s | -52.6°C | 3.9% | 0hPa | 2.6V | 00:00:00 | 01:44:24 | 00:00:00 | |
| DL6DJ-15 | 2026-09-03 00:18:37 | 46.46358 | 7.62197 | 280° | 13km/h | 23624m | 4.7m/s | -52.8°C | 1.0% | -1.0hPa | 2.6V | 00:00:00 | 00:00:00 | 00:00:00 | |
| DF7PN | 2026-09-03 00:18:35 | 46.46358 | 7.62197 | 280° | 13km/h | 23624m | 4.7m/s | -52.8°C | 1.0% | -1.0hPa | 2.6V | 00:00:00 | 00:00:00 | 00:00:00 | |
| IW2NTF | 2026-09-03 00:18:30 | 46.46342 | 7.62220 | 324° | 20km/h | 23599m | 4.6m/s | -53°C | 4% | 0hPa | 2.6V | 08:30:00 | 01:44:13 | 00:00:00 | |
| DO3MHA-12 | 2026-09-03 00:18:30 | 46.46347 | 7.62216 | 327° | 15km/h | 23604m | 3.7m/s | -52.9°C | 4.0% | 0hPa | 2.5V | 00:00:00 | 01:44:14 | 00:00:00 | |
| IW2NTF | 2026-09-03 00:18:20 | 46.46332 | 7.62269 | 277° | 15km/h | 23548m | 4.3m/s | -53.4°C | 4.1% | 0hPa | 2.5V | 08:30:00 | 01:44:03 | 00:00:00 | |
| DO3MHA-11 | 2026-09-03 00:18:20 | 46.46332 | 7.62263 | 270° | 20km/h | 23553m | 5.4m/s | -53.4°C | 4.1% | 0hPa | 2.5V | 00:00:00 | 01:44:04 | 00:00:00 | |
| DO3MHA-12 | 2026-09-03 00:18:19 | 46.46332 | 7.62269 | 278° | 22km/h | 23548m | 4.3m/s | -53.4°C | 4.1% | 0hPa | 2.5V | 00:00:00 | 01:44:03 | 00:00:00 | |
| IW2NTF | 2026-09-03 00:18:11 | 46.46305 | 7.62334 | 279° | 27km/h | 23497m | 4.7m/s | -53.4°C | 4.2% | 0hPa | 2.5V | 08:30:00 | 01:43:53 | 00:00:00 | |
| DO3MHA-11 | 2026-09-03 00:18:10 | 46.46307 | 7.62324 | 287° | 24km/h | 23503m | 6.1m/s | -53.4°C | 4.2% | 0hPa | 2.6V | 00:00:00 | 01:43:54 | 08:30:00 | |
| DO3MHA-12 | 2026-09-03 00:18:08 | 46.46305 | 7.62343 | 272° | 22km/h | 23493m | 4.2m/s | -53.4°C | 4.2% | 0hPa | 2.5V | 00:00:00 | 01:43:52 | 00:00:00 | |
| DL6DJ-15 | 2026-09-03 00:18:06 | 46.46306 | 7.62362 | 253° | 24km/h | 23482m | 5.9m/s | -53.5°C | 1.1% | -1.0hPa | 2.6V | 00:00:00 | 00:00:00 | 00:00:00 | |
| DB0UT-7 | 2026-09-03 00:18:05 | 46.46308 | 7.62370 | 249° | 24km/h | 23477m | 4.6m/s | -53.4°C | 4.2% | 0hPa | 2.6V | 00:00:00 | 01:43:49 | 00:00:00 | |
| DF7PN | 2026-09-03 00:18:04 | 46.46311 | 7.62385 | 261° | 20km/h | 23467m | 5.8m/s | -53.4°C | 1.1% | -1.0hPa | 2.6V | 00:00:00 | 00:00:00 | 00:00:00 | |
| DH7VM-15 | 2026-09-03 00:18:01 | 46.46312 | 7.62392 | 277° | 20km/h | 23462m | 4.7m/s | -53.4°C | 1.1% | 0hPa | 2.6V | 00:00:00 | 00:00:00 | 00:00:00 | |
| IW2NTF | 2026-09-03 00:18:00 | 46.46308 | 7.62411 | 291° | 15km/h | 23448m | 5.5m/s | -53.5°C | 4.1% | 0hPa | 2.6V | 08:30:00 | 01:43:43 | 00:00:00 | |
| DO3MHA-11 | 2026-09-03 00:18:00 | 46.46309 | 7.62405 | 290° | 22km/h | 23453m | 4.7m/s | -53.4°C | 4.1% | 0hPa | 2.5V | 00:00:00 | 01:43:44 | 00:00:00 | |
| DO3MHA-12 | 2026-09-03 00:17:58 | 46.46307 | 7.62415 | 287° | 26km/h | 23443m | 5.4m/s | -53.5°C | 4.1% | 0hPa | 2.5V | 00:00:00 | 01:43:42 | 00:00:00 | |
| IW2NTF | 2026-09-03 00:17:50 | 46.46323 | 7.62495 | 249° | 37km/h | 23396m | 5.5m/s | -53.5°C | 4.2% | 0hPa | 2.5V | 08:30:00 | 01:43:33 | 00:00:00 | |
| DO3MHA-11 | 2026-09-03 00:17:50 | 46.46319 | 7.62483 | 245° | 24km/h | 23402m | 4.8m/s | -53.5°C | 4.1% | 0hPa | 2.5V | 00:00:00 | 01:43:34 | 00:00:00 | |
| DO3MHA-12 | 2026-09-03 00:17:48 | 46.46325 | 7.62507 | 255° | 22km/h | 23392m | 4.7m/s | -53.4°C | 4.1% | 0hPa | 2.5V | 00:00:00 | 01:43:32 | 00:00:00 | |
| IW2NTF | 2026-09-03 00:17:44 | 46.46345 | 7.62567 | 221° | 26km/h | 23345m | 6.1m/s | -53.5°C | 4.1% | 0hPa | 2.5V | 08:30:00 | 01:43:23 | 00:00:00 | |
| DB0ND-19 | 2026-09-03 00:17:42 | 46.46335 | 7.62549 | 243° | 16km/h | 23359m | 5.9m/s | -53.4°C | 1.0% | -1.0hPa | 2.5V | 00:00:00 | 00:00:00 | 00:00:00 | |
| DO3MHA-11 | 2026-09-03 00:17:40 | 46.46340 | 7.62560 | 229° | 27km/h | 23350m | 3.9m/s | -53.4°C | 4.1% | 0hPa | 2.5V | 00:00:00 | 01:43:24 | 00:00:00 | |
| DO3MHA-12 | 2026-09-03 00:17:38 | 46.46350 | 7.62573 | 216° | 26km/h | 23339m | 5.6m/s | -53.5°C | 4.2% | 0hPa | 2.5V | 00:00:00 | 01:43:22 | 08:30:00 | |
| DB0UT-7 | 2026-09-03 00:17:35 | 46.46367 | 7.62593 | 229° | 27km/h | 23324m | 5.3m/s | -53.5°C | 4.1% | 0hPa | 2.6V | 00:00:00 | 00:00:00 | 00:00:00 | |
| DF7PN | 2026-09-03 00:17:33 | 46.46380 | 7.62617 | 229° | 24km/h | 23310m | 5.9m/s | -53.5°C | 1.0% | -1.0hPa | 2.6V | 00:00:00 | 00:00:00 | 00:00:00 | |
| IW2NTF | 2026-09-03 00:17:31 | 46.46392 | 7.62632 | 210° | 20km/h | 23294m | 4.4m/s | -53.6°C | 4.1% | 0hPa | 2.6V | 08:30:00 | 01:43:13 | 00:00:00 | |
| DO3MHA-11 | 2026-09-03 00:17:30 | 46.46388 | 7.62627 | 213° | 26km/h | 23299m | 4.8m/s | -53.6°C | 4.2% | 0hPa | 2.5V | 00:00:00 | 01:43:14 | 00:00:00 | |
| DO3MHA-12 | 2026-09-03 00:17:28 | 46.46397 | 7.62635 | 213° | 27km/h | 23290m | 5.1m/s | -53.6°C | 4.2% | 0hPa | 2.5V | 00:00:00 | 01:43:12 | 00:00:00 | |
| IW2NTF | 2026-09-03 00:17:24 | 46.46454 | 7.62676 | 204° | 29km/h | 23243m | 4.2m/s | -53.9°C | 4.3% | 0hPa | 2.5V | 08:30:00 | 01:43:03 | 00:00:00 | |
| DO3MHA-11 | 2026-09-03 00:17:20 | 46.46447 | 7.62671 | 203° | 27km/h | 23248m | 5.8m/s | -53.9°C | 4.2% | 0hPa | 2.5V | 00:00:00 | 01:43:04 | 00:00:00 | |
| DO3MHA-12 | 2026-09-03 00:17:18 | 46.46460 | 7.62680 | 202° | 27km/h | 23239m | 4.1m/s | -53.9°C | 4.3% | 0hPa | 2.5V | 00:00:00 | 01:43:02 | 00:00:00 | |
| DB0ND-19 | 2026-09-03 00:17:11 | 46.46507 | 7.62692 | 195° | 26km/h | 23203m | 4.4m/s | -53.9°C | 1.1% | -1.0hPa | 2.5V | 00:00:00 | 00:00:00 | 00:00:00 | |
| IW2NTF | 2026-09-03 00:17:10 | 46.46521 | 7.62697 | 186° | 29km/h | 23193m | 5.9m/s | -53.9°C | 4.3% | 0hPa | 2.5V | 08:30:00 | 01:42:53 | 00:00:00 | |
| DO3MHA-11 | 2026-09-03 00:17:10 | 46.46514 | 7.62695 | 193° | 27km/h | 23199m | 4.8m/s | -53.9°C | 4.3% | 0hPa | 2.5V | 00:00:00 | 01:42:54 | 00:00:00 | |
| DO3MHA-12 | 2026-09-03 00:17:08 | 46.46529 | 7.62697 | 182° | 26km/h | 23188m | 4.9m/s | -53.9°C | 4.3% | 0hPa | 2.5V | 00:00:00 | 01:42:52 | 00:00:00 | |
| DB0UT-7 | 2026-09-03 00:17:05 | 46.46553 | 7.62698 | 187° | 22km/h | 23173m | 5.6m/s | -53.9°C | 4.3% | 0hPa | 2.6V | 00:00:00 | 01:42:49 | 00:00:00 | |
| IW2NTF | 2026-09-03 00:17:04 | 46.46588 | 7.62700 | 177° | 18km/h | 23143m | 5.8m/s | -53.9°C | 4.3% | 0hPa | 2.6V | 08:30:00 | 01:42:43 | 00:00:00 | |
| DL6DJ-15 | 2026-09-03 00:17:04 | 46.46572 | 7.62702 | 180° | 22km/h | 23158m | 5.9m/s | 0°C | -1.0% | -1.0hPa | 2.6V | 00:00:00 | 00:00:00 | 00:00:00 | |
| DF7PN | 2026-09-03 00:17:02 | 46.46578 | 7.62702 | 173° | 20km/h | 23153m | 5.1m/s | -53.9°C | 1.1% | -1.0hPa | 2.6V | 00:00:00 | 00:00:00 | 00:00:00 | |
| DO3MHA-11 | 2026-09-03 00:17:00 | 46.46583 | 7.62701 | 173° | 22km/h | 23148m | 4.3m/s | -53.8°C | 4.3% | 0hPa | 2.6V | 00:00:00 | 01:42:44 | 00:00:00 | |
| DO3MHA-12 | 2026-09-03 00:16:58 | 46.46592 | 7.62700 | 185° | 24km/h | 23137m | 5.2m/s | -53.8°C | 4.3% | 0hPa | 2.6V | 00:00:00 | 01:42:42 | 00:00:00 | |
| IW2NTF | 2026-09-03 00:16:52 | 46.46646 | 7.62696 | 186° | 22km/h | 23093m | 4.4m/s | -53.5°C | 4.2% | 0hPa | 2.6V | 08:30:00 | 01:42:33 | 00:00:00 | |
| DO3MHA-11 | 2026-09-03 00:16:50 | 46.46640 | 7.62695 | 185° | 20km/h | 23097m | 4.8m/s | -53.5°C | 4.2% | 0hPa | 2.5V | 00:00:00 | 01:42:34 | 00:00:00 | |
| DO3MHA-12 | 2026-09-03 00:16:48 | 46.46651 | 7.62696 | 183° | 22km/h | 23088m | 5.6m/s | -53.5°C | 4.2% | 0hPa | 2.5V | 00:00:00 | 01:42:32 | 00:00:00 | |
| IW2NTF | 2026-09-03 00:16:41 | 46.46699 | 7.62695 | 173° | 26km/h | 23042m | 4.3m/s | -53.4°C | 4.1% | 0hPa | 2.5V | 08:30:00 | 01:42:23 | 00:00:00 | |
| DO3MHA-11 | 2026-09-03 00:16:40 | 46.46693 | 7.62695 | 176° | 22km/h | 23047m | 5.3m/s | -53.3°C | 4.1% | 0hPa | 2.5V | 00:00:00 | 01:42:24 | 08:30:00 | |
| DO3MHA-12 | 2026-09-03 00:16:38 | 46.46706 | 7.62694 | 175° | 20km/h | 23038m | 4.8m/s | -53.4°C | 4.1% | 0hPa | 2.5V | 00:00:00 | 01:42:22 | 00:00:00 | |
| DB0UT-7 | 2026-09-03 00:16:35 | 46.46721 | 7.62692 | 176° | 15km/h | 23023m | 4.4m/s | -53.4°C | 4.1% | 0hPa | 2.5V | 00:00:00 | 00:00:00 | 00:00:00 | |
| IW2NTF | 2026-09-03 00:16:30 | 46.46747 | 7.62677 | 159° | 16km/h | 22993m | 4.2m/s | -53.6°C | 4.1% | 0hPa | 2.5V | 08:30:00 | 01:42:13 | 00:00:00 | |
| DO3MHA-11 | 2026-09-03 00:16:30 | 46.46743 | 7.62680 | 154° | 16km/h | 22998m | 5.2m/s | -53.6°C | 4.1% | 0hPa | 2.6V | 00:00:00 | 01:42:14 | 00:00:00 | |
| DH7VM-15 | 2026-09-03 00:16:29 | 46.46743 | 7.62680 | 155° | 16km/h | 22998m | 5.3m/s | -53.6°C | 1.2% | 0hPa | 2.6V | 00:00:00 | 00:00:00 | 00:00:00 | |
| DO3MHA-12 | 2026-09-03 00:16:28 | 46.46751 | 7.62675 | 164° | 15km/h | 22988m | 5.4m/s | -53.5°C | 4.1% | 0hPa | 2.6V | 00:00:00 | 01:42:12 | 00:00:00 | |
| IW2NTF | 2026-09-03 00:16:24 | 46.46784 | 7.62665 | 128° | 15km/h | 22943m | 5.4m/s | -53.6°C | 4.1% | 0hPa | 2.6V | 08:30:00 | 01:42:03 | 00:00:00 | |
| DO3MHA-11 | 2026-09-03 00:16:20 | 46.46782 | 7.62668 | 141° | 13km/h | 22949m | 5.7m/s | -53.5°C | 4.1% | 0hPa | 2.5V | 00:00:00 | 01:42:04 | 00:00:00 | |
| DO3MHA-12 | 2026-09-03 00:16:18 | 46.46786 | 7.62660 | 122° | 11km/h | 22938m | 4.6m/s | -53.5°C | 4.1% | 0hPa | 2.5V | 00:00:00 | 01:42:02 | 00:00:00 | |
| IW2NTF | 2026-09-03 00:16:14 | 46.46807 | 7.62635 | 131° | 9km/h | 22895m | 5.7m/s | -53.9°C | 4.2% | 0hPa | 2.5V | 08:30:00 | 01:41:53 | 00:00:00 | |
| DO3MHA-11 | 2026-09-03 00:16:10 | 46.46805 | 7.62637 | 152° | 15km/h | 22901m | 4.1m/s | -53.9°C | 4.2% | 0hPa | 2.5V | 00:00:00 | 01:41:54 | 00:00:00 | |
| DH7VM-15 | 2026-09-03 00:16:09 | 46.46805 | 7.62637 | 152° | 11km/h | 22901m | 4.2m/s | -53.9°C | 1.2% | 0hPa | 2.5V | 00:00:00 | 00:00:00 | 00:00:00 | |
| DO3MHA-12 | 2026-09-03 00:16:08 | 46.46808 | 7.62632 | 91° | 13km/h | 22890m | 4.8m/s | -53.9°C | 4.2% | 0hPa | 2.5V | 00:00:00 | 01:41:52 | 08:30:00 | |
| DB0UT-7 | 2026-09-03 00:16:05 | 46.46806 | 7.62617 | 81° | 9km/h | 22875m | 5.1m/s | -54.1°C | 4.3% | 0hPa | 2.5V | 00:00:00 | 01:41:49 | 00:00:00 | |
| DL6DJ-15 | 2026-09-03 00:16:02 | 46.46802 | 7.62592 | 59° | 11km/h | 22856m | 5.0m/s | 0°C | -1.0% | -1.0hPa | 2.5V | 00:00:00 | 00:00:00 | 00:00:00 | |
| IW2NTF | 2026-09-03 00:16:01 | 46.46800 | 7.62587 | 74° | 4km/h | 22847m | 4.3m/s | -54.2°C | 4.3% | 0hPa | 2.5V | 08:30:00 | 01:41:43 | 00:00:00 | |
| DF7PN | 2026-09-03 00:15:59 | 46.46800 | 7.62587 | 74° | 2km/h | 22848m | 4.3m/s | -54.3°C | 1.1% | -1.0hPa | 2.6V | 00:00:00 | 00:00:00 | 00:00:00 | |
| DO3MHA-12 | 2026-09-03 00:15:58 | 46.46800 | 7.62586 | 138° | 7km/h | 22843m | 5.5m/s | -54.2°C | 4.3% | 0hPa | 2.6V | 00:00:00 | 01:41:42 | 00:00:00 | |
| IW2NTF | 2026-09-03 00:15:54 | 46.46790 | 7.62575 | 32° | 13km/h | 22799m | 3.8m/s | -54.2°C | 4.3% | 0hPa | 2.6V | 08:30:00 | 01:41:33 | 00:00:00 | |
| DO3MHA-11 | 2026-09-03 00:15:50 | 46.46793 | 7.62577 | 33° | 7km/h | 22804m | 4.8m/s | -54.1°C | 4.3% | 0hPa | 2.5V | 00:00:00 | 01:41:34 | 00:00:00 | |
| DO3MHA-12 | 2026-09-03 00:15:48 | 46.46787 | 7.62572 | 25° | 5km/h | 22795m | 4.3m/s | -54.1°C | 4.3% | 0hPa | 2.5V | 00:00:00 | 01:41:32 | 00:00:00 | |
| IW2NTF | 2026-09-03 00:15:40 | 46.46780 | 7.62572 | 328° | 4km/h | 22751m | 4.4m/s | -54.2°C | 4.3% | 0hPa | 2.5V | 08:30:00 | 01:41:23 | 00:00:00 | |
| DO3MHA-11 | 2026-09-03 00:15:40 | 46.46780 | 7.62571 | 283° | 4km/h | 22756m | 5.3m/s | -54.2°C | 4.3% | 0hPa | 2.5V | 00:00:00 | 01:41:24 | 00:00:00 | |
| DO3MHA-12 | 2026-09-03 00:15:38 | 46.46779 | 7.62572 | 355° | 4km/h | 22747m | 4.9m/s | -54.2°C | 4.3% | 0hPa | 2.5V | 00:00:00 | 01:41:22 | 00:00:00 | |
| DB0UT-7 | 2026-09-03 00:15:35 | 46.46776 | 7.62569 | 35° | 9km/h | 22732m | 4.2m/s | -54.2°C | 4.4% | 0hPa | 2.5V | 00:00:00 | 00:00:00 | 00:00:00 | |
| IW2NTF | 2026-09-03 00:15:31 | 46.46775 | 7.62572 | 185° | 5km/h | 22701m | 4.6m/s | -54.3°C | 4.4% | 0hPa | 2.5V | 08:30:00 | 01:41:13 | 00:00:00 | |
| DO3MHA-11 | 2026-09-03 00:15:30 | 46.46774 | 7.62572 | 194° | 7km/h | 22707m | 5.5m/s | -54.2°C | 4.4% | 0hPa | 2.6V | 00:00:00 | 01:41:14 | 00:00:00 | |
| DO3MHA-12 | 2026-09-03 00:15:28 | 46.46777 | 7.62573 | 197° | 7km/h | 22697m | 4.9m/s | -54.2°C | 4.4% | 0hPa | 2.6V | 00:00:00 | 01:41:12 | 00:00:00 | |
| IW2NTF | 2026-09-03 00:15:21 | 46.46786 | 7.62591 | 281° | 11km/h | 22652m | 4.6m/s | -54°C | 4.3% | 0hPa | 2.6V | 08:30:00 | 01:41:03 | 00:00:00 | |
| DO3MHA-11 | 2026-09-03 00:15:20 | 46.46786 | 7.62588 | 278° | 13km/h | 22658m | 5.0m/s | 0°C | 0% | 0hPa | 2.5V | 00:00:00 | 01:41:04 | 00:00:00 | |
| DO3MHA-12 | 2026-09-03 00:15:18 | 46.46786 | 7.62595 | 277° | 15km/h | 22648m | 4.7m/s | -53.9°C | 4.3% | 0hPa | 2.5V | 00:00:00 | 01:41:02 | 00:00:00 | |
| IW2NTF | 2026-09-03 00:15:14 | 46.46807 | 7.62627 | 226° | 16km/h | 22602m | 4.6m/s | -53.7°C | 4.2% | 0hPa | 2.5V | 08:30:00 | 01:40:53 | 00:00:00 | |
| DO3MHA-11 | 2026-09-03 00:15:10 | 46.46804 | 7.62622 | 227° | 15km/h | 22608m | 5.7m/s | -53.6°C | 4.2% | 0hPa | 2.5V | 00:00:00 | 01:40:54 | 08:30:00 | |
| DO3MHA-12 | 2026-09-03 00:15:08 | 46.46810 | 7.62631 | 234° | 16km/h | 22598m | 4.1m/s | -53.6°C | 4.2% | 0hPa | 2.5V | 00:00:00 | 01:40:52 | 00:00:00 | |
| DB0ND-19 | 2026-09-03 00:15:07 | 46.46814 | 7.62642 | 253° | 16km/h | 22588m | 5.3m/s | -53.6°C | 1.1% | -1.0hPa | 2.5V | 00:00:00 | 00:00:00 | 00:00:00 | |
| DB0UT-7 | 2026-09-03 00:15:05 | 46.46815 | 7.62648 | 257° | 22km/h | 22583m | 4.5m/s | -53.6°C | 4.1% | 0hPa | 2.5V | 00:00:00 | 01:40:49 | 00:00:00 | |
| IW2NTF | 2026-09-03 00:15:00 | 46.46825 | 7.62676 | 229° | 24km/h | 22553m | 5.4m/s | -54°C | 4.3% | 0hPa | 2.5V | 08:30:00 | 01:40:43 | 00:00:00 | |
| DF7PN | 2026-09-03 00:14:57 | 46.46834 | 7.62690 | 223° | 27km/h | 22544m | 5.7m/s | -54.1°C | 1.1% | -1.0hPa | 2.6V | 00:00:00 | 00:00:00 | 00:00:00 | |
| IW2NTF | 2026-09-03 00:14:55 | 46.46874 | 7.62740 | 218° | 16km/h | 22502m | 5.5m/s | -54°C | 4.3% | 0hPa | 2.6V | 08:30:00 | 01:40:33 | 00:00:00 | |
| DO3MHA-11 | 2026-09-03 00:14:50 | 46.46870 | 7.62736 | 222° | 22km/h | 22508m | 5.8m/s | -54.0°C | 4.4% | 0hPa | 2.5V | 00:00:00 | 01:40:34 | 00:00:00 | |
| DO3MHA-12 | 2026-09-03 00:14:48 | 46.46877 | 7.62743 | 219° | 24km/h | 22498m | 3.9m/s | -53.9°C | 4.4% | 0hPa | 2.5V | 00:00:00 | 01:40:32 | 00:00:00 | |
| IW2NTF | 2026-09-03 00:14:44 | 46.46916 | 7.62796 | 231° | 24km/h | 22453m | 5.9m/s | -53.6°C | 4.2% | 0hPa | 2.5V | 08:30:00 | 01:40:23 | 00:00:00 | |
| DO3MHA-11 | 2026-09-03 00:14:40 | 46.46912 | 7.62789 | 226° | 16km/h | 22459m | 4.7m/s | -53.6°C | 4.3% | 0hPa | 2.5V | 00:00:00 | 01:40:24 | 00:00:00 | |
| DO3MHA-12 | 2026-09-03 00:14:38 | 46.46920 | 7.62803 | 237° | 15km/h | 22448m | 4.4m/s | -53.5°C | 4.2% | 0hPa | 2.5V | 00:00:00 | 01:40:22 | 08:30:00 | |
| DB0ND-19 | 2026-09-03 00:14:36 | 46.46925 | 7.62813 | 230° | 13km/h | 22438m | 6.2m/s | -53.5°C | 1.1% | -1.0hPa | 2.5V | 00:00:00 | 00:00:00 | 00:00:00 | |
| IW2NTF | 2026-09-03 00:14:35 | 46.46940 | 7.62836 | 236° | 16km/h | 22403m | 5.6m/s | -53.2°C | 4% | 0hPa | 2.5V | 08:30:00 | 01:40:13 | 00:00:00 | |
| DO3MHA-11 | 2026-09-03 00:14:30 | 46.46938 | 7.62832 | 237° | 18km/h | 22409m | 4.5m/s | -53.2°C | 4.0% | 0hPa | 2.7V | 00:00:00 | 01:40:14 | 00:00:00 | |
| DO3MHA-12 | 2026-09-03 00:14:28 | 46.46942 | 7.62841 | 240° | 18km/h | 22398m | 5.5m/s | -53.1°C | 4.0% | 0hPa | 2.7V | 00:00:00 | 01:40:12 | 00:00:00 | |
| DF7PN | 2026-09-03 00:14:26 | 46.46946 | 7.62851 | 238° | 16km/h | 22388m | 4.3m/s | -53.1°C | 1.0% | -1.0hPa | 2.7V | 00:00:00 | 00:00:00 | 00:00:00 | |
| IW2NTF | 2026-09-03 00:14:22 | 46.46965 | 7.62888 | 236° | 7km/h | 22353m | 4.3m/s | -53.6°C | 4.1% | 0hPa | 2.7V | 08:30:00 | 01:40:03 | 00:00:00 | |
| DO3MHA-11 | 2026-09-03 00:14:20 | 46.46964 | 7.62885 | 231° | 11km/h | 22358m | 4.5m/s | -53.6°C | 4.1% | 0hPa | 2.5V | 00:00:00 | 01:40:04 | 00:00:00 | |
| DO3MHA-12 | 2026-09-03 00:14:18 | 46.46966 | 7.62890 | 244° | 13km/h | 22349m | 4.8m/s | -53.6°C | 4.1% | 0hPa | 2.5V | 00:00:00 | 01:40:02 | 00:00:00 | |
| IW2NTF | 2026-09-03 00:14:14 | 46.46981 | 7.62924 | 246° | 16km/h | 22304m | 4.2m/s | -54°C | 4.3% | 0hPa | 2.5V | 08:30:00 | 01:39:53 | 00:00:00 | |
| DO3MHA-11 | 2026-09-03 00:14:10 | 46.46980 | 7.62919 | 238° | 13km/h | 22309m | 5.7m/s | -54.0°C | 4.3% | 0hPa | 2.5V | 00:00:00 | 01:39:54 | 00:00:00 | |
| DO3MHA-12 | 2026-09-03 00:14:07 | 46.46983 | 7.62934 | 277° | 11km/h | 22295m | 5.5m/s | -53.9°C | 4.3% | 0hPa | 2.7V | 00:00:00 | 01:39:51 | 00:00:00 | |
| DB0ND-19 | 2026-09-03 00:14:05 | 46.46977 | 7.62944 | 320° | 11km/h | 22280m | 4.0m/s | -53.9°C | 1.1% | -1.0hPa | 2.5V | 00:00:00 | 00:00:00 | 00:00:00 | |
| IW2NTF | 2026-09-03 00:14:04 | 46.46975 | 7.62962 | 244° | 11km/h | 22255m | 5.5m/s | -53.7°C | 4.2% | 0hPa | 2.5V | 08:30:00 | 01:39:43 | 00:00:00 | |
| DF7PN | 2026-09-03 00:13:55 | 46.46985 | 7.62980 | 227° | 18km/h | 22234m | 4.6m/s | -53.6°C | 1.1% | -1.0hPa | 2.7V | 00:00:00 | 00:00:00 | 00:00:00 | |
| IW2NTF | 2026-09-03 00:13:54 | 46.46991 | 7.63000 | 270° | 9km/h | 22205m | 5.5m/s | -53.7°C | 4.2% | 0hPa | 2.7V | 08:30:00 | 01:39:33 | 00:00:00 | |
| DO3MHA-11 | 2026-09-03 00:13:50 | 46.46991 | 7.62997 | 284° | 11km/h | 22210m | 4.9m/s | -53.6°C | 4.2% | 0hPa | 2.5V | 00:00:00 | 01:39:34 | 00:00:00 | |
| DO3MHA-12 | 2026-09-03 00:13:46 | 46.46993 | 7.63011 | 232° | 15km/h | 22191m | 4.4m/s | -53.7°C | 4.2% | 0hPa | 2.5V | 00:00:00 | 01:39:30 | 00:00:00 | |
| IW2NTF | 2026-09-03 00:13:44 | 46.47011 | 7.63033 | 231° | 22km/h | 22155m | 4.3m/s | -53.9°C | 4.3% | 0hPa | 2.5V | 08:30:00 | 01:39:23 | 00:00:00 | |
| DO3MHA-11 | 2026-09-03 00:13:40 | 46.47007 | 7.63027 | 229° | 16km/h | 22160m | 5.2m/s | -53.9°C | 4.3% | 0hPa | 2.5V | 00:00:00 | 01:39:24 | 08:30:00 | |
| DO3MHA-12 | 2026-09-03 00:13:36 | 46.47019 | 7.63047 | 218° | 18km/h | 22140m | 4.7m/s | -53.8°C | 4.3% | 0hPa | 2.6V | 00:00:00 | 01:39:20 | 00:00:00 | |
| IW2NTF | 2026-09-03 00:13:35 | 46.47043 | 7.63058 | 189° | 13km/h | 22105m | 6.4m/s | -53.8°C | 4.3% | 0hPa | 2.5V | 08:30:00 | 01:39:13 | 00:00:00 | |
| DB0UT-7 | 2026-09-03 00:13:35 | 46.47022 | 7.63049 | 203° | 18km/h | 22136m | 4.1m/s | -53.8°C | 4.3% | 0hPa | 2.7V | 00:00:00 | 00:00:00 | 00:00:00 | |
| DB0ND-19 | 2026-09-03 00:13:34 | 46.47028 | 7.63052 | 194° | 13km/h | 22125m | 6.1m/s | -53.8°C | -1.0% | -1.0hPa | 2.7V | 00:00:00 | 00:00:00 | 00:00:00 | |
| DO3MHA-11 | 2026-09-03 00:13:30 | 46.47040 | 7.63057 | 194° | 16km/h | 22111m | 5.3m/s | -53.7°C | 4.2% | 0hPa | 2.7V | 00:00:00 | 01:39:14 | 00:00:00 | |
| IW2NTF | 2026-09-03 00:13:24 | 46.47088 | 7.63059 | 178° | 24km/h | 22054m | 5.8m/s | -53.7°C | 4.2% | 0hPa | 2.7V | 08:30:00 | 01:39:03 | 00:00:00 | |
| DF7PN | 2026-09-03 00:13:24 | 46.47063 | 7.63060 | 185° | 18km/h | 22079m | 4.1m/s | -53.7°C | 1.1% | -1.0hPa | 2.5V | 00:00:00 | 00:00:00 | 00:00:00 | |
| DO3MHA-11 | 2026-09-03 00:13:20 | 46.47082 | 7.63059 | 178° | 20km/h | 22060m | 5.0m/s | -53.7°C | 4.2% | 0hPa | 2.5V | 00:00:00 | 01:39:04 | 00:00:00 | |
| IW2NTF | 2026-09-03 00:13:11 | 46.47141 | 7.63047 | 166° | 15km/h | 21999m | 5.8m/s | -53.7°C | 4.2% | 0hPa | 2.5V | 08:30:00 | 01:38:52 | 00:00:00 | |
| DO3MHA-11 | 2026-09-03 00:13:10 | 46.47132 | 7.63048 | 177° | 18km/h | 22010m | 4.4m/s | -53.6°C | 4.2% | 0hPa | 2.5V | 00:00:00 | 01:38:54 | 00:00:00 | |
| DB0UT-7 | 2026-09-03 00:13:05 | 46.47152 | 7.63040 | 160° | 24km/h | 21985m | 5.4m/s | -53.6°C | 4.2% | 0hPa | 2.5V | 00:00:00 | 01:38:49 | 00:00:00 | |
| DB0ND-19 | 2026-09-03 00:13:03 | 46.47167 | 7.63034 | 160° | 22km/h | 21970m | 4.5m/s | -53.7°C | -1.0% | -1.0hPa | 2.5V | 00:00:00 | 00:00:00 | 00:00:00 | |
| DH7VM-15 | 2026-09-03 00:13:01 | 46.47168 | 7.63034 | 161° | 24km/h | 21970m | 4.5m/s | -53.7°C | 0% | 0hPa | 2.5V | 00:00:00 | 00:00:00 | 00:00:00 | |
| DO3MHA-11 | 2026-09-03 00:13:00 | 46.47177 | 7.63026 | 147° | 22km/h | 21959m | 5.2m/s | -53.7°C | 4.2% | 0hPa | 2.5V | 00:00:00 | 01:38:44 | 00:00:00 | |
| IW2NTF | 2026-09-03 00:12:59 | 46.47187 | 7.63017 | 145° | 22km/h | 21949m | 5.4m/s | -53.9°C | 4.2% | 0hPa | 2.5V | 08:30:00 | 01:38:42 | 00:00:00 | |
| DO3MHA-12 | 2026-09-03 00:12:54 | 46.47206 | 7.63000 | 147° | 38km/h | 21928m | 5.9m/s | -53.8°C | 4.2% | 0hPa | 2.5V | 00:00:00 | 01:38:38 | 00:00:00 | |
| IW2NTF | 2026-09-03 00:12:53 | 46.47242 | 7.62956 | 121° | 29km/h | 21888m | 4m/s | -54°C | 4.2% | 0hPa | 2.5V | 08:30:00 | 01:38:30 | 00:00:00 | |
| DO3MHA-11 | 2026-09-03 00:12:50 | 46.47225 | 7.62984 | 148° | 26km/h | 21908m | 4.2m/s | -53.9°C | 4.2% | 0hPa | 2.5V | 00:00:00 | 01:38:34 | 00:00:00 | |
| DO3MHA-11 | 2026-09-03 00:12:40 | 46.47266 | 7.62910 | 124° | 20km/h | 21857m | 4.2m/s | -54.1°C | 4.2% | 0hPa | 2.5V | 00:00:00 | 01:38:24 | 00:00:00 | |
| IW2NTF | 2026-09-03 00:12:36 | 46.47283 | 7.62875 | 107° | 24km/h | 21827m | 4.7m/s | -54.5°C | 4.4% | 0hPa | 2.5V | 08:30:00 | 01:38:18 | 00:00:00 | |
| DB0UT-7 | 2026-09-03 00:12:35 | 46.47281 | 7.62883 | 117° | 15km/h | 21832m | 5.7m/s | -54.4°C | 4.4% | 0hPa | 2.7V | 00:00:00 | 00:00:00 | 00:00:00 | |
| DB0ND-19 | 2026-09-03 00:12:32 | 46.47288 | 7.62851 | 113° | 22km/h | 21813m | 5.2m/s | 0°C | -1.0% | -1.0hPa | 2.7V | 00:00:00 | 00:00:00 | 00:00:00 | |
| DO3MHA-11 | 2026-09-03 00:12:30 | 46.47291 | 7.62843 | 117° | 15km/h | 21808m | 4.2m/s | -54.5°C | 4.4% | 0hPa | 2.7V | 00:00:00 | 01:38:14 | 00:00:00 | |
| IW2NTF | 2026-09-03 00:12:29 | 46.47297 | 7.62808 | 99° | 11km/h | 21778m | 6m/s | -54.6°C | 4.4% | 0hPa | 2.7V | 08:30:00 | 01:38:08 | 00:00:00 | |
| DF7PN | 2026-09-03 00:12:22 | 46.47299 | 7.62796 | 94° | 13km/h | 21763m | 5.8m/s | -54.6°C | 1.1% | -1.0hPa | 2.7V | 00:00:00 | 00:00:00 | 00:00:00 | |
| DO3MHA-11 | 2026-09-03 00:12:20 | 46.47299 | 7.62791 | 88° | 15km/h | 21758m | 4.7m/s | -54.5°C | 4.4% | 0hPa | 2.7V | 00:00:00 | 01:38:04 | 00:00:00 | |
| IW2NTF | 2026-09-03 00:12:17 | 46.47302 | 7.62751 | 108° | 15km/h | 21719m | 4.5m/s | -54.5°C | 4.4% | 0hPa | 2.7V | 08:30:00 | 01:37:56 | 00:00:00 | |
| DK5PH-5 | 2026-09-03 00:12:16 | 46.47298 | 7.62769 | 101° | 15km/h | 21739m | 5.4m/s | -54.5°C | 4.4% | 0hPa | 2.5V | 00:00:00 | 01:38:00 | 00:00:00 | |
| DO3MHA-11 | 2026-09-03 00:12:10 | 46.47305 | 7.62742 | 117° | 13km/h | 21710m | 5.6m/s | -54.4°C | 4.4% | 0hPa | 2.5V | 00:00:00 | 01:37:54 | 08:30:00 | |
| DB0UT-7 | 2026-09-03 00:12:05 | 46.47312 | 7.62726 | 125° | 16km/h | 21685m | 4.2m/s | -54.3°C | 4.3% | 0hPa | 2.5V | 00:00:00 | 01:37:49 | 00:00:00 | |
| IW2NTF | 2026-09-03 00:12:02 | 46.47320 | 7.62715 | 144° | 15km/h | 21669m | 4.7m/s | -54.3°C | 4.2% | 0hPa | 2.5V | 08:30:00 | 01:37:46 | 00:00:00 | |
| DB0ND-19 | 2026-09-03 00:12:01 | 46.47329 | 7.62702 | 130° | 16km/h | 21655m | 4.7m/s | 0°C | -1.0% | -1.0hPa | 2.5V | 00:00:00 | 00:00:00 | 00:00:00 | |
| DO3MHA-11 | 2026-09-03 00:12:00 | 46.47326 | 7.62707 | 135° | 13km/h | 21660m | 5.5m/s | -54.3°C | 4.2% | 0hPa | 2.5V | 00:00:00 | 01:37:44 | 00:00:00 | |
| IW2NTF | 2026-09-03 00:11:57 | 46.47346 | 7.62684 | 149° | 13km/h | 21620m | 4.5m/s | -54.7°C | 4.4% | 0hPa | 2.5V | 08:30:00 | 01:37:36 | 00:00:00 | |
| DF7PN | 2026-09-03 00:11:51 | 46.47350 | 7.62682 | 155° | 13km/h | 21616m | 4.8m/s | -54.7°C | 1.2% | -1.0hPa | 2.7V | 00:00:00 | 00:00:00 | 00:00:00 | |
| DO3MHA-11 | 2026-09-03 00:11:49 | 46.47358 | 7.62679 | 172° | 20km/h | 21605m | 4.9m/s | -54.7°C | 4.4% | 0hPa | 2.7V | 00:00:00 | 01:37:33 | 00:00:00 | |
| IW2NTF | 2026-09-03 00:11:47 | 46.47393 | 7.62661 | 168° | 16km/h | 21571m | 5.1m/s | -54.8°C | 4.4% | 0hPa | 2.7V | 08:30:00 | 01:37:26 | 00:00:00 | |
| DH7VM-15 | 2026-09-03 00:11:41 | 46.47397 | 7.62660 | 177° | 15km/h | 21567m | 4.3m/s | -54.8°C | 0% | 0hPa | 2.5V | 00:00:00 | 00:00:00 | 00:00:00 | |
| DO3MHA-11 | 2026-09-03 00:11:39 | 46.47405 | 7.62659 | 170° | 16km/h | 21557m | 5.5m/s | -54.8°C | 4.5% | 0hPa | 2.5V | 00:00:00 | 01:37:23 | 00:00:00 | |
| IW2NTF | 2026-09-03 00:11:35 | 46.47433 | 7.62648 | 149° | 18km/h | 21523m | 4.8m/s | -54.8°C | 4.5% | 0hPa | 2.5V | 08:30:00 | 01:37:16 | 00:00:00 | |
| DB0UT-7 | 2026-09-03 00:11:35 | 46.47421 | 7.62654 | 171° | 15km/h | 21537m | 4.5m/s | -54.8°C | 4.5% | 0hPa | 2.5V | 00:00:00 | 00:00:00 | 00:00:00 | |
| DO3MHA-11 | 2026-09-03 00:11:29 | 46.47444 | 7.62640 | 164° | 15km/h | 21510m | 5.3m/s | -54.7°C | 4.5% | 0hPa | 2.5V | 00:00:00 | 01:37:13 | 00:00:00 | |
| IW2NTF | 2026-09-03 00:11:22 | 46.47470 | 7.62634 | 161° | 16km/h | 21477m | 3.9m/s | -54.7°C | 4.5% | 0hPa | 2.5V | 08:30:00 | 01:37:06 | 00:00:00 | |
| DF7PN | 2026-09-03 00:11:20 | 46.47477 | 7.62627 | 130° | 15km/h | 21468m | 5.6m/s | -54.8°C | 1.2% | -1.0hPa | 2.7V | 00:00:00 | 00:00:00 | 00:00:00 | |
| DO3MHA-11 | 2026-09-03 00:11:19 | 46.47479 | 7.62623 | 116° | 11km/h | 21463m | 4.2m/s | -54.8°C | 4.5% | 0hPa | 2.7V | 00:00:00 | 01:37:03 | 00:00:00 | |
| IW2NTF | 2026-09-03 00:11:15 | 46.47491 | 7.62610 | 192° | 11km/h | 21430m | 4.1m/s | -54.7°C | 4.4% | 0hPa | 2.7V | 08:30:00 | 01:36:56 | 00:00:00 | |
| DO3MHA-11 | 2026-09-03 00:11:09 | 46.47500 | 7.62613 | 182° | 15km/h | 21417m | 3.4m/s | -54.6°C | 4.4% | 0hPa | 2.5V | 00:00:00 | 01:36:53 | 00:00:00 | |
| DB0UT-7 | 2026-09-03 00:11:05 | 46.47510 | 7.62598 | 114° | 24km/h | 21399m | 3.2m/s | -54.7°C | 4.4% | 0hPa | 2.5V | 00:00:00 | 01:36:49 | 00:00:00 | |
| IW2NTF | 2026-09-03 00:11:03 | 46.47516 | 7.62585 | 161° | 9km/h | 21385m | 4.8m/s | -54.6°C | 4.3% | 0hPa | 2.5V | 08:30:00 | 01:36:46 | 00:00:00 | |
| DO3MHA-11 | 2026-09-03 00:10:58 | 46.47531 | 7.62587 | 178° | 22km/h | 21367m | 5.4m/s | -54.6°C | 4.4% | 0hPa | 2.5V | 00:00:00 | 01:36:42 | 00:00:00 | |
| IW2NTF | 2026-09-03 00:10:57 | 46.47564 | 7.62571 | 152° | 18km/h | 21338m | 4m/s | -54.6°C | 4.3% | 0hPa | 2.5V | 08:30:00 | 01:36:36 | 00:00:00 | |
| DF7PN | 2026-09-03 00:10:49 | 46.47580 | 7.62551 | 130° | 26km/h | 21320m | 4.4m/s | -54.7°C | 1.2% | -1.0hPa | 2.7V | 00:00:00 | 00:00:00 | 00:00:00 | |
| DO3MHA-11 | 2026-09-03 00:10:48 | 46.47580 | 7.62551 | 131° | 29km/h | 21320m | 4.4m/s | -54.6°C | 4.3% | 0hPa | 2.7V | 00:00:00 | 01:36:32 | 00:00:00 | |
| IW2NTF | 2026-09-03 00:10:44 | 46.47613 | 7.62518 | 156° | 33km/h | 21291m | 5.1m/s | -54.9°C | 4.3% | 0hPa | 2.7V | 08:30:00 | 01:36:26 | 00:00:00 | |
| DO3MHA-11 | 2026-09-03 00:10:38 | 46.47643 | 7.62502 | 160° | 38km/h | 21273m | 4.0m/s | -55.3°C | 4.5% | 0hPa | 2.5V | 00:00:00 | 01:36:22 | 08:30:00 | |
| DB0UT-7 | 2026-09-03 00:10:35 | 46.47664 | 7.62483 | 139° | 35km/h | 21260m | 5.9m/s | -55.3°C | 4.5% | 0hPa | 2.7V | 00:00:00 | 00:00:00 | 00:00:00 | |
| IW2NTF | 2026-09-03 00:10:33 | 46.47696 | 7.62434 | 132° | 46km/h | 21240m | 5m/s | -55.3°C | 4.5% | 0hPa | 2.7V | 08:30:00 | 01:36:15 | 00:00:00 | |
| DO3MHA-11 | 2026-09-03 00:10:25 | 46.47738 | 7.62373 | 137° | 37km/h | 21212m | 5.6m/s | -55.4°C | 4.6% | 0hPa | 2.5V | 00:00:00 | 01:36:09 | 00:00:00 | |
| IW2NTF | 2026-09-03 00:10:24 | 46.47760 | 7.62338 | 127° | 37km/h | 21192m | 5m/s | -55.4°C | 4.6% | 0hPa | 2.5V | 08:30:00 | 01:36:05 | 00:00:00 | |
| DK5PH-5 | 2026-09-03 00:10:20 | 46.47765 | 7.62327 | 127° | 31km/h | 21188m | 3.7m/s | -55.3°C | 4.6% | 0hPa | 2.5V | 00:00:00 | 01:36:04 | 00:00:00 | |
| DH7VM-15 | 2026-09-03 00:10:19 | 46.47765 | 7.62327 | 127° | 38km/h | 21188m | 3.8m/s | 0°C | 0% | 0hPa | 2.5V | 00:00:00 | 00:00:00 | 00:00:00 | |
| DF7PN | 2026-09-03 00:10:18 | 46.47782 | 7.62294 | 127° | 35km/h | 21173m | 4.5m/s | -55.3°C | 1.2% | -1.0hPa | 2.5V | 00:00:00 | 00:00:00 | 00:00:00 | |
| IW2NTF | 2026-09-03 00:10:14 | 46.47815 | 7.62240 | 129° | 22km/h | 21146m | 5.2m/s | -55.2°C | 4.4% | 0hPa | 2.5V | 08:30:00 | 01:35:55 | 00:00:00 | |
| DO3MHA-11 | 2026-09-03 00:10:14 | 46.47799 | 7.62263 | 133° | 27km/h | 21159m | 3.7m/s | -55.2°C | 4.5% | 0hPa | 2.5V | 00:00:00 | 01:35:58 | 00:00:00 | |
| DB0UT-7 | 2026-09-03 00:10:05 | 46.47839 | 7.62191 | 123° | 27km/h | 21119m | 4.8m/s | -55.4°C | 4.5% | 0hPa | 2.5V | 00:00:00 | 01:35:49 | 08:30:00 | |
| IW2NTF | 2026-09-03 00:10:04 | 46.47858 | 7.62147 | 125° | 35km/h | 21099m | 5.1m/s | -55.8°C | 4.6% | 0hPa | 2.7V | 08:30:00 | 01:35:45 | 00:00:00 | |
| DO3MHA-11 | 2026-09-03 00:10:04 | 46.47843 | 7.62180 | 121° | 26km/h | 21113m | 5.4m/s | -55.5°C | 4.5% | 0hPa | 2.5V | 00:00:00 | 01:35:48 | 00:00:00 | |
| DO3MHA-11 | 2026-09-03 00:09:53 | 46.47888 | 7.62101 | 137° | 27km/h | 21062m | 3.6m/s | -55.8°C | 4.6% | 0hPa | 2.7V | 00:00:00 | 01:35:37 | 00:00:00 | |
| IW2NTF | 2026-09-03 00:09:51 | 46.47903 | 7.62071 | 120° | 29km/h | 21043m | 4.6m/s | -55.8°C | 4.6% | 0hPa | 2.7V | 08:30:00 | 01:35:33 | 00:00:00 | |
| DF7PN | 2026-09-03 00:09:47 | 46.47916 | 7.62045 | 126° | 26km/h | 21029m | 3.6m/s | -55.9°C | 1.2% | -1.0hPa | 2.5V | 00:00:00 | 00:00:00 | 00:00:00 | |
| IW2NTF | 2026-09-03 00:09:44 | 46.47934 | 7.61985 | 114° | 33km/h | 20997m | 3.9m/s | -56.2°C | 4.8% | 0hPa | 2.5V | 08:30:00 | 01:35:23 | 00:00:00 | |
| DB0UT-7 | 2026-09-03 00:09:35 | 46.47949 | 7.61942 | 122° | 29km/h | 20978m | 5.1m/s | -56.0°C | 4.8% | 0hPa | 2.5V | 00:00:00 | 00:00:00 | 00:00:00 | |
| IW2NTF | 2026-09-03 00:09:34 | 46.47966 | 7.61886 | 97° | 31km/h | 20952m | 3.3m/s | -56°C | 4.7% | 0hPa | 2.5V | 08:30:00 | 01:35:13 | 00:00:00 | |
| DO3MHA-11 | 2026-09-03 00:09:26 | 46.47972 | 7.61848 | 108° | 29km/h | 20939m | 4.0m/s | -55.8°C | 4.7% | 0hPa | 2.7V | 00:00:00 | 01:35:10 | 00:00:00 | |
| IW2NTF | 2026-09-03 00:09:24 | 46.47987 | 7.61776 | 103° | 27km/h | 20907m | 4.8m/s | -55.7°C | 4.6% | 0hPa | 2.7V | 08:30:00 | 01:35:03 | 00:00:00 | |
| DK5PH-5 | 2026-09-03 00:09:20 | 46.47986 | 7.61785 | 103° | 26km/h | 20912m | 5.0m/s | -55.7°C | 4.7% | 0hPa | 2.5V | 00:00:00 | 01:35:04 | 08:30:00 | |
| DO3MHA-11 | 2026-09-03 00:09:15 | 46.47995 | 7.61736 | 107° | 26km/h | 20888m | 4.7m/s | -55.6°C | 4.6% | 0hPa | 2.5V | 00:00:00 | 01:34:59 | 00:00:00 | |
| IW2NTF | 2026-09-03 00:09:14 | 46.48012 | 7.61679 | 111° | 26km/h | 20860m | 5.5m/s | -55.6°C | 4.5% | 0hPa | 2.5V | 08:30:00 | 01:34:53 | 00:00:00 | |
| DB0UT-7 | 2026-09-03 00:09:05 | 46.48019 | 7.61646 | 110° | 22km/h | 20842m | 4.3m/s | -55.8°C | 4.5% | 0hPa | 2.5V | 00:00:00 | 01:34:49 | 00:00:00 | |
| IW2NTF | 2026-09-03 00:09:04 | 46.48036 | 7.61605 | 129° | 29km/h | 20814m | 4.6m/s | -56.3°C | 4.7% | 0hPa | 2.5V | 08:30:00 | 01:34:43 | 00:00:00 | |
| DO3MHA-11 | 2026-09-03 00:09:04 | 46.48021 | 7.61638 | 113° | 26km/h | 20838m | 4.2m/s | -55.9°C | 4.6% | 0hPa | 2.7V | 00:00:00 | 01:34:48 | 00:00:00 | |
| IW2NTF | 2026-09-03 00:08:55 | 46.48057 | 7.61522 | 82° | 20km/h | 20770m | 4.9m/s | -56.3°C | 4.7% | 0hPa | 2.7V | 08:30:00 | 01:34:33 | 00:00:00 | |
| DO3MHA-11 | 2026-09-03 00:08:51 | 46.48059 | 7.61538 | 79° | 22km/h | 20778m | 3.7m/s | -56.3°C | 4.7% | 0hPa | 2.5V | 00:00:00 | 01:34:35 | 00:00:00 | |
| DK5PH-5 | 2026-09-03 00:08:49 | 46.48057 | 7.61522 | 83° | 18km/h | 20770m | 4.8m/s | 0°C | 0% | 0hPa | 2.5V | 00:00:00 | 01:34:33 | 00:00:00 | |
| IW2NTF | 2026-09-03 00:08:45 | 46.48076 | 7.61455 | 82° | 18km/h | 20726m | 3.9m/s | -56.5°C | 4.7% | 0hPa | 2.5V | 08:30:00 | 01:34:23 | 00:00:00 | |
| DF7PN | 2026-09-03 00:08:44 | 46.48068 | 7.61490 | 125° | 26km/h | 20748m | 4.2m/s | -56.4°C | 1.2% | -1.0hPa | 2.5V | 00:00:00 | 00:00:00 | 00:00:00 | |
| DO3MHA-11 | 2026-09-03 00:08:41 | 46.48076 | 7.61468 | 104° | 16km/h | 20735m | 4.6m/s | -56.4°C | 4.7% | 0hPa | 2.5V | 00:00:00 | 01:34:25 | 08:30:00 | |
| IW2NTF | 2026-09-03 00:08:35 | 46.48085 | 7.61397 | 119° | 16km/h | 20680m | 3.7m/s | -57°C | 4.8% | 0hPa | 2.5V | 08:30:00 | 01:34:13 | 00:00:00 | |
| DO3MHA-11 | 2026-09-03 00:08:31 | 46.48080 | 7.61407 | 129° | 16km/h | 20690m | 5.3m/s | -56.9°C | 4.8% | 0hPa | 2.7V | 00:00:00 | 01:34:15 | 00:00:00 | |
| IW2NTF | 2026-09-03 00:08:24 | 46.48101 | 7.61338 | 145° | 22km/h | 20634m | 4.9m/s | -57.3°C | 4.9% | 0hPa | 2.7V | 08:30:00 | 01:34:03 | 00:00:00 | |
| DO3MHA-11 | 2026-09-03 00:08:21 | 46.48094 | 7.61348 | 124° | 26km/h | 20644m | 5.3m/s | -57.3°C | 4.9% | 0hPa | 2.5V | 00:00:00 | 01:34:05 | 00:00:00 | |
| IW2NTF | 2026-09-03 00:08:15 | 46.48148 | 7.61273 | 118° | 22km/h | 20586m | 4m/s | -57.4°C | 5% | 0hPa | 2.5V | 08:30:00 | 01:33:53 | 00:00:00 | |
| DF7PN | 2026-09-03 00:08:13 | 46.48133 | 7.61306 | 135° | 27km/h | 20604m | 5.7m/s | -57.4°C | 1.3% | -1.0hPa | 2.5V | 00:00:00 | 00:00:00 | 00:00:00 | |
| DO3MHA-11 | 2026-09-03 00:08:10 | 46.48145 | 7.61280 | 121° | 22km/h | 20591m | 5.1m/s | -57.4°C | 5.0% | 0hPa | 2.5V | 00:00:00 | 01:33:54 | 00:00:00 | |
| DB0UT-7 | 2026-09-03 00:08:05 | 46.48159 | 7.61243 | 121° | 18km/h | 20568m | 3.7m/s | -57.4°C | 5.0% | 0hPa | 2.5V | 00:00:00 | 01:33:49 | 00:00:00 | |
| IW2NTF | 2026-09-03 00:08:04 | 46.48182 | 7.61213 | 128° | 24km/h | 20541m | 4.8m/s | -57.4°C | 5% | 0hPa | 2.5V | 08:30:00 | 01:33:43 | 00:00:00 | |
| DO3MHA-11 | 2026-09-03 00:08:00 | 46.48178 | 7.61218 | 143° | 24km/h | 20546m | 4.8m/s | -57.3°C | 5.0% | 0hPa | 2.5V | 00:00:00 | 01:33:44 | 00:00:00 | |
| IW2NTF | 2026-09-03 00:07:55 | 46.48191 | 7.61134 | 108° | 15km/h | 20497m | 5m/s | -57.2°C | 5% | 0hPa | 2.5V | 08:30:00 | 01:33:33 | 00:00:00 | |
| DB0ND-19 | 2026-09-03 00:07:52 | 46.48190 | 7.61147 | 96° | 20km/h | 20506m | 4.5m/s | 0°C | -1.0% | -1.0hPa | 2.7V | 00:00:00 | 00:00:00 | 00:00:00 | |
| DO3MHA-11 | 2026-09-03 00:07:50 | 46.48190 | 7.61140 | 103° | 13km/h | 20502m | 3.7m/s | -57.2°C | 5.0% | 0hPa | 2.7V | 00:00:00 | 01:33:34 | 00:00:00 | |
| IW2NTF | 2026-09-03 00:07:44 | 46.48207 | 7.61093 | 90° | 16km/h | 20449m | 5.4m/s | -57°C | 4.9% | 0hPa | 2.7V | 08:30:00 | 01:33:23 | 00:00:00 | |
| DF7PN | 2026-09-03 00:07:42 | 46.48206 | 7.61108 | 112° | 11km/h | 20464m | 5.5m/s | -57.0°C | 1.3% | -1.0hPa | 2.7V | 00:00:00 | 00:00:00 | 00:00:00 | |
| DO3MHA-11 | 2026-09-03 00:07:39 | 46.48208 | 7.61092 | 91° | 11km/h | 20449m | 5.4m/s | -56.9°C | 4.9% | 0hPa | 2.7V | 00:00:00 | 01:33:23 | 00:00:00 | |
| DH7VM-15 | 2026-09-03 00:07:35 | 46.48206 | 7.61070 | 94° | 5km/h | 20425m | 4.0m/s | 0°C | 0% | 0hPa | 2.5V | 00:00:00 | 00:00:00 | 00:00:00 | |
| IW2NTF | 2026-09-03 00:07:33 | 46.48212 | 7.61060 | 132° | 7km/h | 20401m | 6m/s | -56.7°C | 4.9% | 0hPa | 2.5V | 08:30:00 | 01:33:13 | 00:00:00 | |
| DO3MHA-11 | 2026-09-03 00:07:29 | 46.48212 | 7.61060 | 133° | 7km/h | 20401m | 6.0m/s | -56.6°C | 4.9% | 0hPa | 2.5V | 00:00:00 | 01:33:13 | 00:00:00 | |
| IW2NTF | 2026-09-03 00:07:23 | 46.48212 | 7.61040 | 30° | 2km/h | 20352m | 5.1m/s | -56.3°C | 4.9% | 0hPa | 2.5V | 08:30:00 | 01:33:03 | 00:00:00 | |
| DO3MHA-11 | 2026-09-03 00:07:19 | 46.48212 | 7.61040 | 31° | 7km/h | 20353m | 5.1m/s | -56.3°C | 4.9% | 0hPa | 2.7V | 00:00:00 | 01:33:03 | 00:00:00 | |
| IW2NTF | 2026-09-03 00:07:13 | 46.48223 | 7.61025 | 92° | 9km/h | 20302m | 4.9m/s | -55.9°C | 4.7% | 0hPa | 2.7V | 08:30:00 | 01:32:53 | 00:00:00 | |
| DF7PN | 2026-09-03 00:07:11 | 46.48223 | 7.61032 | 114° | 9km/h | 20312m | 5.5m/s | -56.0°C | 1.3% | -1.0hPa | 2.7V | 00:00:00 | 00:00:00 | 00:00:00 | |
| DO3MHA-11 | 2026-09-03 00:07:09 | 46.48223 | 7.61025 | 93° | 7km/h | 20303m | 4.8m/s | -55.9°C | 4.7% | 0hPa | 2.7V | 00:00:00 | 01:32:53 | 08:30:00 | |
| DB0UT-7 | 2026-09-03 00:07:05 | 46.48224 | 7.61023 | 224° | 9km/h | 20283m | 5.2m/s | -55.7°C | 4.8% | 0hPa | 2.5V | 00:00:00 | 01:32:49 | 00:00:00 | |
| IW2NTF | 2026-09-03 00:07:02 | 46.48240 | 7.61030 | 191° | 15km/h | 20253m | 4m/s | -55.5°C | 4.7% | 0hPa | 2.5V | 08:30:00 | 01:32:43 | 00:00:00 | |
| DO3MHA-11 | 2026-09-03 00:06:59 | 46.48240 | 7.61030 | 192° | 7km/h | 20254m | 4.0m/s | -55.4°C | 4.7% | 0hPa | 2.5V | 00:00:00 | 01:32:43 | 00:00:00 | |
| IW2NTF | 2026-09-03 00:06:50 | 46.48255 | 7.61025 | 200° | 7km/h | 20202m | 4.6m/s | -55°C | 4.5% | 0hPa | 2.5V | 08:30:00 | 01:32:33 | 00:00:00 | |
| DO3MHA-11 | 2026-09-03 00:06:49 | 46.48255 | 7.61025 | 201° | 11km/h | 20202m | 4.6m/s | -54.9°C | 4.5% | 0hPa | 2.7V | 00:00:00 | 01:32:33 | 00:00:00 | |
| IW2NTF | 2026-09-03 00:06:43 | 46.48282 | 7.61031 | 200° | 4km/h | 20150m | 5.2m/s | -54.6°C | 4.5% | 0hPa | 2.7V | 08:30:00 | 01:32:23 | 00:00:00 | |
| DF7PN | 2026-09-03 00:06:40 | 46.48281 | 7.61030 | 199° | 5km/h | 20155m | 4.5m/s | -54.6°C | 1.2% | -1.0hPa | 2.7V | 00:00:00 | 00:00:00 | 00:00:00 | |
| DO3MHA-11 | 2026-09-03 00:06:39 | 46.48282 | 7.61030 | 201° | 5km/h | 20151m | 5.1m/s | -54.6°C | 4.5% | 0hPa | 2.7V | 00:00:00 | 01:32:23 | 00:00:00 | |
| DB0UT-7 | 2026-09-03 00:06:35 | 46.48285 | 7.61031 | 198° | 15km/h | 20134m | 3.6m/s | -54.7°C | 4.5% | 0hPa | 2.5V | 00:00:00 | 00:00:00 | 00:00:00 | |
| IW2NTF | 2026-09-03 00:06:30 | 46.48294 | 7.61041 | 149° | 7km/h | 20100m | 4.9m/s | -54.6°C | 4.5% | 0hPa | 2.5V | 08:30:00 | 01:32:13 | 00:00:00 | |
| DO3MHA-11 | 2026-09-03 00:06:28 | 46.48296 | 7.61039 | 147° | 18km/h | 20096m | 4.4m/s | -54.6°C | 4.5% | 0hPa | 2.5V | 00:00:00 | 01:32:12 | 00:00:00 | |
| IW2NTF | 2026-09-03 00:06:23 | 46.48335 | 7.61023 | 162° | 16km/h | 20049m | 6.2m/s | -54.2°C | 4.3% | 0hPa | 2.5V | 08:30:00 | 01:32:03 | 00:00:00 | |
| DB0ND-19 | 2026-09-03 00:06:19 | 46.48350 | 7.61018 | 153° | 13km/h | 20030m | 5.2m/s | 0°C | -1.0% | -1.0hPa | 2.5V | 00:00:00 | 00:00:00 | 00:00:00 | |
| IW2NTF | 2026-09-03 00:06:09 | 46.48371 | 7.60993 | 137° | 18km/h | 19997m | 4.5m/s | -53.9°C | 4.2% | 0hPa | 2.5V | 08:30:00 | 01:31:52 | 00:00:00 | |
| DF7PN | 2026-09-03 00:06:09 | 46.48368 | 7.60997 | 136° | 16km/h | 20002m | 5.5m/s | -53.9°C | 1.2% | -1.0hPa | 2.5V | 00:00:00 | 00:00:00 | 00:00:00 | |
| DO3MHA-11 | 2026-09-03 00:06:08 | 46.48371 | 7.60993 | 138° | 18km/h | 19997m | 4.5m/s | -53.8°C | 4.2% | 0hPa | 2.5V | 00:00:00 | 01:31:52 | 00:00:00 | |
| DB0UT-7 | 2026-09-03 00:06:05 | 46.48383 | 7.60982 | 165° | 24km/h | 19982m | 4.6m/s | -53.8°C | 4.2% | 0hPa | 2.7V | 00:00:00 | 01:31:49 | 00:00:00 | |
| IW2NTF | 2026-09-03 00:06:02 | 46.48411 | 7.60961 | 135° | 20km/h | 19948m | 4.2m/s | -54°C | 4.2% | 0hPa | 2.7V | 08:30:00 | 01:31:42 | 00:00:00 | |
| DO3MHA-11 | 2026-09-03 00:05:58 | 46.48411 | 7.60960 | 136° | 22km/h | 19948m | 4.1m/s | -54.0°C | 4.2% | 0hPa | 2.5V | 00:00:00 | 01:31:42 | 00:00:00 | |
| IW2NTF | 2026-09-03 00:05:49 | 46.48450 | 7.60903 | 141° | 24km/h | 19899m | 4.3m/s | -54.2°C | 4.3% | 0hPa | 2.5V | 08:30:00 | 01:31:32 | 00:00:00 | |
| DO3MHA-11 | 2026-09-03 00:05:48 | 46.48450 | 7.60903 | 142° | 26km/h | 19899m | 4.3m/s | -54.2°C | 4.3% | 0hPa | 2.5V | 00:00:00 | 01:31:32 | 00:00:00 | |
| IW2NTF | 2026-09-03 00:05:40 | 46.48497 | 7.60834 | 143° | 31km/h | 19851m | 4.6m/s | -54.4°C | 4.3% | 0hPa | 2.5V | 08:30:00 | 01:31:22 | 00:00:00 | |
| DO3MHA-11 | 2026-09-03 00:05:38 | 46.48497 | 7.60834 | 144° | 33km/h | 19851m | 4.6m/s | -54.3°C | 4.3% | 0hPa | 2.5V | 00:00:00 | 01:31:22 | 08:30:00 | |
| DB0UT-7 | 2026-09-03 00:05:35 | 46.48514 | 7.60813 | 138° | 37km/h | 19837m | 4.2m/s | -54.4°C | 4.3% | 0hPa | 2.7V | 00:00:00 | 00:00:00 | 08:30:00 | |
| IW2NTF | 2026-09-03 00:05:31 | 46.48550 | 7.60745 | 119° | 37km/h | 19803m | 4m/s | -54.5°C | 4.4% | 0hPa | 2.7V | 08:30:00 | 01:31:12 | 00:00:00 | |
| DO3MHA-11 | 2026-09-03 00:05:28 | 46.48549 | 7.60745 | 120° | 37km/h | 19803m | 3.9m/s | -54.5°C | 4.4% | 0hPa | 2.5V | 00:00:00 | 01:31:12 | 00:00:00 | |
| IW2NTF | 2026-09-03 00:05:20 | 46.48608 | 7.60645 | 129° | 38km/h | 19755m | 4m/s | -54.9°C | 4.4% | 0hPa | 2.5V | 08:30:00 | 01:31:02 | 00:00:00 | |
| DO3MHA-11 | 2026-09-03 00:05:18 | 46.48608 | 7.60645 | 130° | 40km/h | 19756m | 4.0m/s | -54.9°C | 4.4% | 0hPa | 2.5V | 00:00:00 | 01:31:02 | 00:00:00 | |
| IW2NTF | 2026-09-03 00:05:14 | 46.48667 | 7.60525 | 117° | 40km/h | 19708m | 4m/s | -54.8°C | 4.3% | 0hPa | 2.5V | 08:30:00 | 01:30:52 | 00:00:00 | |
| DO3MHA-11 | 2026-09-03 00:05:08 | 46.48683 | 7.60525 | 118° | 44km/h | 19708m | 4.0m/s | -54.8°C | 4.3% | 0hPa | 2.5V | 00:00:00 | 01:30:52 | 00:00:00 | |
| DF7PN | 2026-09-03 00:05:07 | 46.48672 | 7.60511 | 117° | 42km/h | 19703m | 5.7m/s | -54.8°C | 1.2% | -1.0hPa | 2.5V | 00:00:00 | 00:00:00 | 00:00:00 | |
| DB0UT-7 | 2026-09-03 00:05:05 | 46.48682 | 7.60482 | 119° | 49km/h | 19693m | 3.9m/s | -54.7°C | 4.3% | 0hPa | 2.5V | 00:00:00 | 01:30:49 | 00:00:00 | |
| IW2NTF | 2026-09-03 00:05:01 | 46.48732 | 7.60353 | 116° | 44km/h | 19651m | 4.3m/s | -55.7°C | 4.7% | 0hPa | 2.5V | 08:30:00 | 01:30:40 | 00:00:00 | |
| DO3MHA-11 | 2026-09-03 00:04:58 | 46.48721 | 7.60381 | 121° | 47km/h | 19661m | 3.8m/s | -55.6°C | 4.6% | 0hPa | 2.5V | 00:00:00 | 01:30:42 | 00:00:00 | |
| IW2NTF | 2026-09-03 00:04:51 | 46.48787 | 7.60183 | 118° | 55km/h | 19605m | 3.5m/s | -55.7°C | 4.6% | 0hPa | 2.5V | 08:30:00 | 01:30:30 | 00:00:00 | |
| DO3MHA-11 | 2026-09-03 00:04:48 | 46.48775 | 7.60219 | 116° | 51km/h | 19614m | 5.3m/s | -55.6°C | 4.6% | 0hPa | 2.7V | 00:00:00 | 01:30:32 | 00:00:00 | |
| IW2NTF | 2026-09-03 00:04:43 | 46.48841 | 7.60019 | 106° | 49km/h | 19560m | 4m/s | -56.1°C | 4.7% | 0hPa | 2.7V | 08:30:00 | 01:30:20 | 00:00:00 | |
| DO3MHA-11 | 2026-09-03 00:04:38 | 46.48834 | 7.60053 | 110° | 49km/h | 19569m | 5.1m/s | -56.1°C | 4.7% | 0hPa | 2.5V | 00:00:00 | 01:30:22 | 00:00:00 | |
| DF7PN | 2026-09-03 00:04:37 | 46.48845 | 7.60002 | 107° | 49km/h | 19556m | 5.4m/s | -56.1°C | 1.3% | -1.0hPa | 2.7V | 00:00:00 | 00:00:00 | 00:00:00 | |
| DB0UT-7 | 2026-09-03 00:04:35 | 46.48845 | 7.60002 | 108° | 47km/h | 19556m | 5.4m/s | -56.0°C | 4.7% | 0hPa | 2.7V | 00:00:00 | 00:00:00 | 00:00:00 | |
| IW2NTF | 2026-09-03 00:04:30 | 46.48880 | 7.59809 | 99° | 47km/h | 19506m | 3.6m/s | -56°C | 4.7% | 0hPa | 2.7V | 08:30:00 | 01:30:08 | 00:00:00 | |
| DO3MHA-11 | 2026-09-03 00:04:28 | 46.48870 | 7.59878 | 104° | 49km/h | 19526m | 5.1m/s | -56.0°C | 4.7% | 0hPa | 2.6V | 00:00:00 | 01:30:12 | 00:00:00 | |
| DO3MHA-11 | 2026-09-03 00:04:18 | 46.48891 | 7.59703 | 97° | 42km/h | 19482m | 5.0m/s | -55.8°C | 4.5% | 0hPa | 2.6V | 00:00:00 | 01:30:02 | 00:00:00 | |
| DB0ND-19 | 2026-09-03 00:04:17 | 46.48914 | 7.59585 | 105° | 42km/h | 19447m | 3.9m/s | 0°C | -1.0% | -1.0hPa | 2.6V | 00:00:00 | 00:00:00 | 00:00:00 | |
| DO3MHA-11 | 2026-09-03 00:04:10 | 46.48919 | 7.59554 | 103° | 38km/h | 19439m | 5.4m/s | -56.7°C | 4.7% | 0hPa | 2.6V | 00:00:00 | 01:29:52 | 08:30:00 | |
| DB0UT-7 | 2026-09-03 00:04:05 | 46.48925 | 7.59506 | 100° | 42km/h | 19426m | 5.0m/s | -57.0°C | 4.8% | 0hPa | 2.5V | 00:00:00 | 01:29:49 | 00:00:00 | |
| DB0ND-19 | 2026-09-03 00:03:44 | 46.48997 | 7.59223 | 110° | 40km/h | 19332m | 3.0m/s | 0°C | -1.0% | -1.0hPa | 2.6V | 00:00:00 | 00:00:00 | 00:00:00 | |
| IW2NTF | 2026-09-03 00:03:40 | 46.49021 | 7.59051 | 91° | 47km/h | 19288m | 4.7m/s | -58.1°C | 5.4% | 0hPa | 2.6V | 08:30:00 | 01:29:18 | 00:00:00 | |
| DO3MHA-11 | 2026-09-03 00:03:40 | 46.49017 | 7.59120 | 97° | 47km/h | 19306m | 3.9m/s | -58.2°C | 5.4% | 0hPa | 2.7V | 00:00:00 | 01:29:22 | 00:00:00 | |
| DB0UT-7 | 2026-09-03 00:03:36 | 46.49020 | 7.59068 | 95° | 44km/h | 19293m | 3.9m/s | -58.1°C | 5.4% | 0hPa | 2.6V | 00:00:00 | 00:00:00 | 00:00:00 | |
| DF7PN | 2026-09-03 00:03:34 | 46.49021 | 7.59033 | 89° | 47km/h | 19283m | 5.5m/s | -58.1°C | 1.5% | -1.0hPa | 2.6V | 00:00:00 | 00:00:00 | 00:00:00 | |
| DO3MHA-11 | 2026-09-03 00:03:25 | 46.49028 | 7.58893 | 95° | 44km/h | 19248m | 4.0m/s | -57.8°C | 5.1% | 0hPa | 2.6V | 00:00:00 | 01:29:09 | 00:00:00 | |
| IW2NTF | 2026-09-03 00:03:22 | 46.49031 | 7.58798 | 86° | 42km/h | 19219m | 4.6m/s | -57.7°C | 5% | 0hPa | 2.6V | 08:30:00 | 01:29:03 | 00:00:00 | |
| DO3MHA-11 | 2026-09-03 00:03:15 | 46.49031 | 7.58736 | 96° | 38km/h | 19202m | 4.1m/s | -57.6°C | 5.0% | 0hPa | 2.6V | 00:00:00 | 01:28:59 | 00:00:00 | |
| DB0UT-7 | 2026-09-03 00:03:05 | 46.49040 | 7.58598 | 84° | 29km/h | 19156m | 4.3m/s | -58.1°C | 5.2% | 0hPa | 2.6V | 00:00:00 | 01:28:49 | 00:00:00 | |
| DF7PN | 2026-09-03 00:03:01 | 46.49066 | 7.58250 | 111° | 24km/h | 19000m | 3.8m/s | -58.3°C | 1.6% | -1.0hPa | 2.6V | 00:00:00 | 00:00:00 | 00:00:00 | |
| DB0UT-7 | 2026-09-03 00:02:25 | 46.49092 | 7.58024 | 103° | 20km/h | 18882m | 3.7m/s | -57.8°C | 5.2% | 0hPa | 2.6V | 00:00:00 | 01:27:49 | 00:00:00 | |
| DB0UT-7 | 2026-09-03 00:01:48 | 46.49127 | 7.57818 | 114° | 24km/h | 18743m | 4.7m/s | -57.2°C | 5.0% | 0hPa | 2.6V | 00:00:00 | 00:00:00 | 00:00:00 | |
| DF7PN | 2026-09-03 00:01:42 | 46.49146 | 7.57772 | 131° | 29km/h | 18715m | 5.1m/s | -57.2°C | 1.5% | -1.0hPa | 2.6V | 00:00:00 | 00:00:00 | 00:00:00 | |
| DH7VM-15 | 2026-09-03 00:01:29 | 46.49182 | 7.57712 | 115° | 20km/h | 18672m | 4.9m/s | 0°C | 0% | 0hPa | 2.6V | 00:00:00 | 00:00:00 | 00:00:00 | |
| DO3MHA-11 | 2026-09-03 00:01:18 | 46.49210 | 7.57629 | 123° | 20km/h | 18626m | 4.6m/s | -56.9°C | 4.9% | 0hPa | 2.6V | 00:00:00 | 01:26:54 | 00:00:00 | |
| DB0UT-7 | 2026-09-03 00:01:10 | 46.49221 | 7.57599 | 118° | 20km/h | 18603m | 5.1m/s | -56.9°C | 4.9% | 0hPa | 2.6V | 00:00:00 | 01:26:49 | 08:30:00 | |
| DF7PN | 2026-09-03 00:01:01 | 46.49237 | 7.57533 | 111° | 22km/h | 18570m | 3.6m/s | -56.8°C | 1.4% | -1.0hPa | 2.7V | 00:00:00 | 00:00:00 | 00:00:00 | |
| DB0UT-7 | 2026-09-03 00:00:41 | 46.49263 | 7.57395 | 95° | 20km/h | 18470m | 4.2m/s | -56.2°C | 4.9% | 0hPa | 2.7V | 00:00:00 | 00:00:00 | 00:00:00 | |
| DF7PN | 2026-09-03 00:00:32 | 46.49277 | 7.57337 | 117° | 22km/h | 18436m | 4.6m/s | -56.1°C | 1.4% | -1.0hPa | 2.7V | 00:00:00 | 00:00:00 | 00:00:00 | |
| DO3MHA-11 | 2026-09-03 00:00:26 | 46.49290 | 7.57308 | 116° | 26km/h | 18413m | 3.8m/s | -55.9°C | 4.8% | 0hPa | 2.7V | 00:00:00 | 01:26:06 | 08:30:00 | |
| DB0UT-7 | 2026-09-03 00:00:06 | 46.49334 | 7.57204 | 131° | 27km/h | 18337m | 4.5m/s | -55.6°C | 4.6% | 0hPa | 2.6V | 00:00:00 | 01:25:49 | 00:00:00 | |
| DF7PN | 2026-09-02 23:59:57 | 46.49357 | 7.57162 | 124° | 24km/h | 18298m | 4.1m/s | -55.6°C | 1.3% | -1.0hPa | 2.6V | 00:00:00 | 00:00:00 | 00:00:00 | |
| DH7VM-15 | 2026-09-02 23:59:48 | 46.49391 | 7.57107 | 128° | 26km/h | 18269m | 3.7m/s | 0°C | 0% | 0hPa | 2.6V | 00:00:00 | 00:00:00 | 00:00:00 | |
| DB0UT-7 | 2026-09-02 23:59:34 | 46.49465 | 7.56970 | 118° | 37km/h | 18205m | 4.8m/s | -55.8°C | 4.7% | 0hPa | 2.6V | 00:00:00 | 00:00:00 | 00:00:00 | |
| DF7PN | 2026-09-02 23:59:26 | 46.49510 | 7.56873 | 129° | 37km/h | 18168m | 2.9m/s | -55.9°C | -1.0% | -1.0hPa | 2.7V | 00:00:00 | 00:00:00 | 00:00:00 | |
| DO3MHA-11 | 2026-09-02 23:59:22 | 46.49525 | 7.56842 | 119° | 51km/h | 18156m | 2.8m/s | -55.9°C | 4.8% | 0hPa | 2.7V | 00:00:00 | 01:25:06 | 00:00:00 | |
| DB0UT-7 | 2026-09-02 23:59:04 | 46.49584 | 7.56612 | 105° | 29km/h | 18078m | 5.0m/s | -56.0°C | 4.8% | 0hPa | 2.7V | 00:00:00 | 01:24:48 | 00:00:00 | |
| DF7PN | 2026-09-02 23:58:54 | 46.49598 | 7.56493 | 95° | 35km/h | 18033m | 3.5m/s | 0°C | -1.0% | -1.0hPa | 2.7V | 00:00:00 | 00:00:00 | 00:00:00 | |
| DB0UT-7 | 2026-09-02 23:58:34 | 46.49591 | 7.56292 | 76° | 24km/h | 17943m | 5.1m/s | -56.1°C | 4.8% | 0hPa | 2.7V | 00:00:00 | 00:00:00 | 00:00:00 | |
| DK5PH-5 | 2026-09-02 23:58:32 | 46.49588 | 7.56277 | 75° | 24km/h | 17935m | 4.6m/s | 0°C | 0% | 0hPa | 2.7V | 00:00:00 | 01:24:16 | 00:00:00 | |
| DB0UT-7 | 2026-09-02 23:58:04 | 46.49548 | 7.56035 | 84° | 20km/h | 17812m | 5.0m/s | -55.8°C | 4.7% | 0hPa | 2.7V | 00:00:00 | 01:23:48 | 00:00:00 | |
| DK5PH-5 | 2026-09-02 23:58:02 | 46.49547 | 7.56021 | 88° | 29km/h | 17803m | 3.7m/s | 0°C | 0% | 0hPa | 2.6V | 00:00:00 | 01:23:46 | 00:00:00 | |
| DB0UT-7 | 2026-09-02 23:57:34 | 46.49588 | 7.55823 | 133° | 33km/h | 17684m | 5.1m/s | -55.8°C | 4.7% | 0hPa | 2.6V | 00:00:00 | 00:00:00 | 00:00:00 | |
| DK5PH-5 | 2026-09-02 23:57:14 | 46.49686 | 7.55651 | 134° | 37km/h | 17597m | 4.3m/s | 0°C | 0% | 0hPa | 2.6V | 00:00:00 | 01:22:58 | 00:00:00 | |
| DH7VM-15 | 2026-09-02 23:57:12 | 46.49698 | 7.55631 | 131° | 37km/h | 17588m | 4.1m/s | 0°C | 0% | 0hPa | 2.6V | 00:00:00 | 00:00:00 | 00:00:00 | |
| DB0UT-7 | 2026-09-02 23:57:04 | 46.49751 | 7.55556 | 134° | 47km/h | 17555m | 4.1m/s | -55.5°C | 4.7% | 0hPa | 2.6V | 00:00:00 | 01:22:48 | 00:00:00 | |
| DB0UT-7 | 2026-09-02 23:56:34 | 46.49971 | 7.55131 | 122° | 44km/h | 17430m | 4.9m/s | -55.9°C | 4.9% | 0hPa | 2.6V | 00:00:00 | 00:00:00 | 08:30:00 | |
| DB0UT-7 | 2026-09-02 23:56:04 | 46.50135 | 7.54724 | 125° | 40km/h | 17304m | 3.7m/s | -56.2°C | 4.9% | 0hPa | 2.6V | 00:00:00 | 01:21:48 | 00:00:00 | |
| DB0UT-7 | 2026-09-02 23:55:34 | 46.50312 | 7.54358 | 122° | 47km/h | 17182m | 3.8m/s | -57.1°C | 5.2% | 0hPa | 2.6V | 00:00:00 | 00:00:00 | 00:00:00 | |
| DB0UT-7 | 2026-09-02 23:55:04 | 46.50498 | 7.53907 | 130° | 46km/h | 17054m | 4.1m/s | -57.5°C | 5.3% | 0hPa | 2.6V | 00:00:00 | 01:20:48 | 00:00:00 | |
| DB0UT-7 | 2026-09-02 23:54:34 | 46.50745 | 7.53562 | 138° | 60km/h | 16925m | 4.5m/s | -58.4°C | 5.5% | 0hPa | 2.7V | 00:00:00 | 00:00:00 | 00:00:00 | |
| DO3MHA-11 | 2026-09-02 23:54:20 | 46.50898 | 7.53348 | 134° | 62km/h | 16865m | 4.5m/s | -58.7°C | 5.7% | 0hPa | 2.7V | 00:00:00 | 01:20:04 | 00:00:00 | |
| DO3MHA-11 | 2026-09-02 23:54:10 | 46.50997 | 7.53168 | 126° | 57km/h | 16819m | 3.7m/s | -58.6°C | 5.6% | 0hPa | 2.7V | 00:00:00 | 01:19:54 | 00:00:00 | |
| DB0UT-7 | 2026-09-02 23:54:04 | 46.51047 | 7.53066 | 122° | 57km/h | 16792m | 3.7m/s | -58.5°C | 5.5% | 0hPa | 2.6V | 00:00:00 | 01:19:48 | 00:00:00 | |
| DO3MHA-11 | 2026-09-02 23:53:47 | 46.51167 | 7.52748 | 116° | 55km/h | 16716m | 5.1m/s | -58.9°C | 5.8% | 0hPa | 2.6V | 00:00:00 | 01:19:31 | 00:00:00 | |
| DO3MHA-11 | 2026-09-02 23:53:37 | 46.51220 | 7.52563 | 111° | 51km/h | 16670m | 4.9m/s | -58.9°C | 5.8% | 0hPa | 2.6V | 00:00:00 | 01:19:21 | 00:00:00 | |
| DB0UT-7 | 2026-09-02 23:53:34 | 46.51234 | 7.52508 | 112° | 49km/h | 16655m | 5.1m/s | -58.9°C | 5.8% | 0hPa | 2.6V | 00:00:00 | 00:00:00 | 00:00:00 | |
| DO3MHA-11 | 2026-09-02 23:53:27 | 46.51273 | 7.52392 | 119° | 51km/h | 16625m | 4.9m/s | -58.7°C | 5.8% | 0hPa | 2.6V | 00:00:00 | 01:19:11 | 00:00:00 | |
| DO3MHA-11 | 2026-09-02 23:53:17 | 46.51330 | 7.52228 | 112° | 47km/h | 16582m | 3.6m/s | -58.3°C | 5.7% | 0hPa | 2.7V | 00:00:00 | 01:19:01 | 00:00:00 | |
| DO3MHA-11 | 2026-09-02 23:53:07 | 46.51385 | 7.52074 | 117° | 47km/h | 16539m | 4.1m/s | -58.0°C | 5.6% | 0hPa | 2.7V | 00:00:00 | 01:18:51 | 00:00:00 | |
| DB0UT-7 | 2026-09-02 23:53:04 | 46.51400 | 7.52023 | 111° | 44km/h | 16526m | 3.7m/s | -58.0°C | 5.6% | 0hPa | 2.7V | 00:00:00 | 01:18:48 | 00:00:00 | |
| DO3MHA-11 | 2026-09-02 23:52:57 | 46.51430 | 7.51916 | 116° | 44km/h | 16495m | 5.3m/s | -58.0°C | 5.6% | 0hPa | 2.7V | 00:00:00 | 01:18:41 | 08:30:00 | |
| DO3MHA-11 | 2026-09-02 23:52:47 | 46.51483 | 7.51772 | 114° | 47km/h | 16451m | 3.5m/s | -58.1°C | 5.6% | 0hPa | 2.7V | 00:00:00 | 01:18:31 | 00:00:00 | |
| DO3MHA-11 | 2026-09-02 23:52:37 | 46.51536 | 7.51622 | 127° | 46km/h | 16409m | 5.0m/s | -58.3°C | 5.8% | 0hPa | 2.7V | 00:00:00 | 01:18:21 | 00:00:00 | |
| DB0UT-7 | 2026-09-02 23:52:34 | 46.51553 | 7.51590 | 130° | 47km/h | 16396m | 4.7m/s | -58.3°C | 5.8% | 0hPa | 2.7V | 00:00:00 | 00:00:00 | 00:00:00 | |
| DO3MHA-11 | 2026-09-02 23:52:24 | 46.51612 | 7.51450 | 125° | 46km/h | 16353m | 3.7m/s | -58.2°C | 5.9% | 0hPa | 2.7V | 00:00:00 | 01:18:08 | 00:00:00 | |
| DO3MHA-11 | 2026-09-02 23:52:14 | 46.51689 | 7.51320 | 127° | 49km/h | 16309m | 5.5m/s | -57.9°C | 5.7% | 0hPa | 2.6V | 00:00:00 | 01:17:58 | 00:00:00 | |
| DB0UT-7 | 2026-09-02 23:52:04 | 46.51768 | 7.51180 | 137° | 58km/h | 16265m | 3.7m/s | -57.8°C | 5.8% | 0hPa | 2.6V | 00:00:00 | 01:17:48 | 08:30:00 | |
| DH7VM-15 | 2026-09-02 23:51:56 | 46.51828 | 7.51078 | 133° | 55km/h | 16236m | 3.8m/s | 0°C | 0% | 0hPa | 2.6V | 00:00:00 | 00:00:00 | 00:00:00 | |
| DO3MHA-11 | 2026-09-02 23:51:54 | 46.51855 | 7.51036 | 133° | 57km/h | 16223m | 3.7m/s | -57.9°C | 5.8% | 0hPa | 2.6V | 00:00:00 | 01:17:38 | 00:00:00 | |
| DO3MHA-11 | 2026-09-02 23:51:44 | 46.51951 | 7.50874 | 133° | 66km/h | 16177m | 4.0m/s | -58.4°C | 6.1% | 0hPa | 2.7V | 00:00:00 | 01:17:28 | 00:00:00 | |
| DB0UT-7 | 2026-09-02 23:51:34 | 46.52060 | 7.50693 | 128° | 66km/h | 16132m | 3.6m/s | -58.4°C | 6.1% | 0hPa | 2.7V | 00:00:00 | 00:00:00 | 00:00:00 | |
| DO3MHA-11 | 2026-09-02 23:51:33 | 46.52071 | 7.50673 | 127° | 66km/h | 16128m | 3.6m/s | -58.4°C | 6.1% | 0hPa | 2.7V | 00:00:00 | 01:17:17 | 00:00:00 | |
| DO3MHA-11 | 2026-09-02 23:51:23 | 46.52171 | 7.50481 | 125° | 68km/h | 16084m | 4.4m/s | -58.5°C | 6.1% | 0hPa | 2.7V | 00:00:00 | 01:17:07 | 08:30:00 | |
| DO3MHA-11 | 2026-09-02 23:51:12 | 46.52268 | 7.50248 | 118° | 66km/h | 16037m | 3.6m/s | -58.5°C | 6.3% | 0hPa | 2.7V | 00:00:00 | 01:16:56 | 00:00:00 | |
| DB0UT-7 | 2026-09-02 23:51:04 | 46.52330 | 7.50079 | 120° | 64km/h | 16004m | 2.9m/s | -59.0°C | 6.3% | 0hPa | 2.7V | 00:00:00 | 01:16:48 | 00:00:00 | |
| IW2NTF | 2026-09-02 23:51:03 | 46.52358 | 7.50010 | 120° | 68km/h | 15992m | 4.5m/s | -59.3°C | 6.5% | 0hPa | 2.7V | 08:30:00 | 01:16:45 | 00:00:00 | |
| DO3MHA-11 | 2026-09-02 23:51:02 | 46.52349 | 7.50032 | 120° | 62km/h | 15997m | 4.6m/s | -59.1°C | 6.4% | 0hPa | 2.6V | 00:00:00 | 01:16:46 | 00:00:00 | |
| IW2NTF | 2026-09-02 23:50:53 | 46.52452 | 7.49723 | 113° | 62km/h | 15932m | 2.9m/s | -59.6°C | 6.8% | 0hPa | 2.6V | 08:30:00 | 01:16:31 | 00:00:00 | |
| DO3MHA-11 | 2026-09-02 23:50:52 | 46.52418 | 7.49831 | 115° | 62km/h | 15954m | 3.3m/s | -59.6°C | 6.8% | 0hPa | 2.6V | 00:00:00 | 01:16:36 | 00:00:00 | |
| DO3MHA-11 | 2026-09-02 23:50:42 | 46.52484 | 7.49627 | 115° | 62km/h | 15912m | 4.6m/s | -59.4°C | 6.8% | 0hPa | 2.7V | 00:00:00 | 01:16:26 | 00:00:00 | |
| IW2NTF | 2026-09-02 23:50:39 | 46.52552 | 7.49450 | 123° | 60km/h | 15875m | 5.2m/s | -59.5°C | 6.9% | 0hPa | 2.7V | 08:30:00 | 01:16:17 | 00:00:00 | |
| DB0UT-7 | 2026-09-02 23:50:34 | 46.52544 | 7.49469 | 122° | 58km/h | 15879m | 3.5m/s | -59.5°C | 6.9% | 0hPa | 2.7V | 00:00:00 | 00:00:00 | 00:00:00 | |
| DO3MHA-11 | 2026-09-02 23:50:32 | 46.52560 | 7.49432 | 125° | 57km/h | 15870m | 4.8m/s | -59.5°C | 6.9% | 0hPa | 2.7V | 00:00:00 | 01:16:16 | 00:00:00 | |
| IW2NTF | 2026-09-02 23:50:28 | 46.52625 | 7.49280 | 123° | 55km/h | 15830m | 3.9m/s | -59.4°C | 6.9% | 0hPa | 2.7V | 08:30:00 | 01:16:07 | 00:00:00 | |
| DO3MHA-11 | 2026-09-02 23:50:20 | 46.52650 | 7.49232 | 133° | 58km/h | 15818m | 3.7m/s | -59.4°C | 7.0% | 0hPa | 2.6V | 00:00:00 | 01:16:04 | 00:00:00 | |
| IW2NTF | 2026-09-02 23:50:12 | 46.52737 | 7.49086 | 128° | 57km/h | 15779m | 3.4m/s | -59.7°C | 6.9% | 0hPa | 2.7V | 08:30:00 | 01:15:55 | 00:00:00 | |
| DO3MHA-11 | 2026-09-02 23:50:10 | 46.52746 | 7.49069 | 131° | 64km/h | 15775m | 4.6m/s | -59.7°C | 7.0% | 0hPa | 2.7V | 00:00:00 | 01:15:54 | 00:00:00 | |
| DB0UT-7 | 2026-09-02 23:50:04 | 46.52809 | 7.48965 | 132° | 75km/h | 15748m | 6.0m/s | -59.9°C | 7.2% | 0hPa | 2.7V | 00:00:00 | 01:15:48 | 00:00:00 | |
| IW2NTF | 2026-09-02 23:50:02 | 46.52843 | 7.48912 | 133° | 66km/h | 15735m | 4.9m/s | -60.1°C | 7.2% | 0hPa | 2.7V | 08:30:00 | 01:15:45 | 00:00:00 | |
| DO3MHA-11 | 2026-09-02 23:50:00 | 46.52855 | 7.48894 | 133° | 73km/h | 15730m | 5.1m/s | -60.1°C | 7.3% | 0hPa | 2.6V | 00:00:00 | 01:15:44 | 00:00:00 | |
| IW2NTF | 2026-09-02 23:49:53 | 46.52966 | 7.48717 | 131° | 78km/h | 15690m | 3.4m/s | -60.7°C | 7.5% | 0hPa | 2.6V | 08:30:00 | 01:15:35 | 00:00:00 | |
| DO3MHA-11 | 2026-09-02 23:49:50 | 46.52979 | 7.48695 | 130° | 78km/h | 15687m | 4.0m/s | -60.7°C | 7.6% | 0hPa | 2.7V | 00:00:00 | 01:15:34 | 08:30:00 | |
| IW2NTF | 2026-09-02 23:49:46 | 46.53090 | 7.48494 | 124° | 78km/h | 15648m | 3.9m/s | -61°C | 7.8% | 0hPa | 2.6V | 08:30:00 | 01:15:25 | 00:00:00 | |
| DO3MHA-11 | 2026-09-02 23:49:40 | 46.53101 | 7.48470 | 124° | 75km/h | 15644m | 4.0m/s | -61.0°C | 7.8% | 0hPa | 2.8V | 00:00:00 | 01:15:24 | 00:00:00 | |
| IW2NTF | 2026-09-02 23:49:35 | 46.53222 | 7.48203 | 124° | 77km/h | 15599m | 4.6m/s | -61°C | 7.9% | 0hPa | 2.8V | 08:30:00 | 01:15:13 | 00:00:00 | |
| DB0UT-7 | 2026-09-02 23:49:34 | 46.53167 | 7.48319 | 121° | 73km/h | 15620m | 3.6m/s | -60.9°C | 7.8% | 0hPa | 2.6V | 00:00:00 | 00:00:00 | 00:00:00 | |
| IW2NTF | 2026-09-02 23:49:24 | 46.53321 | 7.47974 | 124° | 73km/h | 15559m | 4.2m/s | -61.2°C | 8.1% | 0hPa | 2.6V | 08:30:00 | 01:15:03 | 00:00:00 | |
| IW2NTF | 2026-09-02 23:49:10 | 46.53414 | 7.47749 | 115° | 73km/h | 15518m | 4m/s | -61.1°C | 8.1% | 0hPa | 2.6V | 08:30:00 | 01:14:53 | 00:00:00 | |
| DO3MHA-11 | 2026-09-02 23:49:06 | 46.53439 | 7.47679 | 120° | 68km/h | 15506m | 3.6m/s | -61.0°C | 8.1% | 0hPa | 2.6V | 00:00:00 | 01:14:50 | 00:00:00 | |
| DB0UT-7 | 2026-09-02 23:49:04 | 46.53456 | 7.47634 | 119° | 64km/h | 15498m | 4.2m/s | -61.0°C | 8.1% | 0hPa | 2.6V | 00:00:00 | 01:14:48 | 00:00:00 | |
| IW2NTF | 2026-09-02 23:48:56 | 46.53552 | 7.47362 | 116° | 60km/h | 15444m | 4.2m/s | -60.8°C | 8% | 0hPa | 2.8V | 08:30:00 | 01:14:35 | 00:00:00 | |
| DO3MHA-11 | 2026-09-02 23:48:56 | 46.53519 | 7.47462 | 117° | 60km/h | 15465m | 5.2m/s | -60.8°C | 8.0% | 0hPa | 2.7V | 00:00:00 | 01:14:40 | 00:00:00 | |
| DO3MHA-11 | 2026-09-02 23:48:46 | 46.53593 | 7.47266 | 125° | 62km/h | 15424m | 3.5m/s | -60.7°C | 8.0% | 0hPa | 2.8V | 00:00:00 | 01:14:30 | 00:00:00 | |
| IW2NTF | 2026-09-02 23:48:44 | 46.53638 | 7.47170 | 119° | 64km/h | 15402m | 3.6m/s | -60.7°C | 8.1% | 0hPa | 2.8V | 08:30:00 | 01:14:25 | 00:00:00 | |
| DO3MHA-11 | 2026-09-02 23:48:36 | 46.53680 | 7.47074 | 125° | 58km/h | 15381m | 5.0m/s | -60.7°C | 8.3% | 0hPa | 2.6V | 00:00:00 | 01:14:20 | 00:00:00 | |
| DO3MHA-11 | 2026-09-02 23:48:26 | 46.53772 | 7.46903 | 128° | 60km/h | 15341m | 3.2m/s | -60.5°C | 8.4% | 0hPa | 2.6V | 00:00:00 | 01:14:10 | 00:00:00 | |
| IW2NTF | 2026-09-02 23:48:24 | 46.53799 | 7.46850 | 126° | 64km/h | 15329m | 4m/s | -60.5°C | 8.4% | 0hPa | 2.6V | 08:30:00 | 01:14:07 | 00:00:00 | |
| DO3MHA-11 | 2026-09-02 23:48:16 | 46.53863 | 7.46726 | 127° | 64km/h | 15301m | 3.3m/s | -60.3°C | 8.5% | 0hPa | 2.7V | 00:00:00 | 01:14:00 | 00:00:00 | |
| IW2NTF | 2026-09-02 23:48:12 | 46.53923 | 7.46609 | 127° | 71km/h | 15277m | 3.5m/s | -60.2°C | 8.6% | 0hPa | 2.7V | 08:30:00 | 01:13:54 | 00:00:00 | |
| DK5PH-5 | 2026-09-02 23:48:08 | 46.53944 | 7.46569 | 129° | 68km/h | 15269m | 4.0m/s | 0°C | 0% | 0hPa | 2.8V | 00:00:00 | 01:13:52 | 00:00:00 | |
| DO3MHA-11 | 2026-09-02 23:48:06 | 46.53965 | 7.46532 | 130° | 68km/h | 15261m | 4.5m/s | -60.1°C | 8.6% | 0hPa | 2.8V | 00:00:00 | 01:13:50 | 00:00:00 | |
| DB0UT-7 | 2026-09-02 23:48:04 | 46.53986 | 7.46495 | 130° | 69km/h | 15252m | 3.9m/s | -60.1°C | 8.6% | 0hPa | 2.8V | 00:00:00 | 01:13:48 | 00:00:00 | |
| IW2NTF | 2026-09-02 23:47:56 | 46.54116 | 7.46264 | 132° | 64km/h | 15203m | 3.9m/s | -60°C | 8.7% | 0hPa | 2.8V | 08:30:00 | 01:13:36 | 00:00:00 | |
| DO3MHA-11 | 2026-09-02 23:47:56 | 46.54070 | 7.46339 | 129° | 68km/h | 15219m | 4.0m/s | -60.1°C | 8.8% | 0hPa | 2.6V | 00:00:00 | 01:13:40 | 08:30:00 | |
| DO3MHA-11 | 2026-09-02 23:47:46 | 46.54186 | 7.46156 | 133° | 73km/h | 15178m | 4.9m/s | -59.8°C | 8.8% | 0hPa | 2.7V | 00:00:00 | 01:13:30 | 00:00:00 | |
| DK5PH-5 | 2026-09-02 23:47:38 | 46.54284 | 7.45994 | 133° | 71km/h | 15145m | 4.3m/s | 0°C | 0% | 0hPa | 2.7V | 00:00:00 | 01:13:22 | 00:00:00 | |
| DO3MHA-11 | 2026-09-02 23:47:36 | 46.54308 | 7.45958 | 134° | 73km/h | 15137m | 3.6m/s | -59.9°C | 8.8% | 0hPa | 2.7V | 00:00:00 | 01:13:20 | 00:00:00 | |
| IW2NTF | 2026-09-02 23:47:34 | 46.54384 | 7.45848 | 134° | 75km/h | 15113m | 3.9m/s | -60.5°C | 9.4% | 0hPa | 2.7V | 08:30:00 | 01:13:14 | 00:00:00 | |
| DB0UT-7 | 2026-09-02 23:47:34 | 46.54332 | 7.45921 | 136° | 77km/h | 15130m | 4.4m/s | -60.1°C | 8.9% | 0hPa | 2.7V | 00:00:00 | 00:00:00 | 08:30:00 | |
| DO3MHA-11 | 2026-09-02 23:47:26 | 46.54438 | 7.45768 | 133° | 78km/h | 15097m | 3.2m/s | -60.7°C | 9.5% | 0hPa | 2.7V | 00:00:00 | 01:13:10 | 00:00:00 | |
| IW2NTF | 2026-09-02 23:47:24 | 46.54527 | 7.45612 | 127° | 78km/h | 15070m | 4.4m/s | -60.9°C | 9.6% | 0hPa | 2.7V | 08:30:00 | 01:13:03 | 00:00:00 | |
| DO3MHA-11 | 2026-09-02 23:47:16 | 46.54565 | 7.45543 | 129° | 77km/h | 15058m | 4.0m/s | -60.8°C | 9.6% | 0hPa | 2.7V | 00:00:00 | 01:13:00 | 00:00:00 | |
| IW2NTF | 2026-09-02 23:47:13 | 46.54650 | 7.45393 | 129° | 77km/h | 15028m | 4.6m/s | -61°C | 9.8% | 0hPa | 2.7V | 08:30:00 | 01:12:53 | 00:00:00 | |
| DO3MHA-11 | 2026-09-02 23:47:06 | 46.54687 | 7.45328 | 131° | 73km/h | 15015m | 4.4m/s | -60.9°C | 9.8% | 0hPa | 2.8V | 00:00:00 | 01:12:50 | 00:00:00 | |
| IW2NTF | 2026-09-02 23:47:04 | 46.54768 | 7.45180 | 124° | 73km/h | 14985m | 5.2m/s | -61.1°C | 9.9% | 0hPa | 2.8V | 08:30:00 | 01:12:43 | 00:00:00 | |
| DB0UT-7 | 2026-09-02 23:47:04 | 46.54711 | 7.45286 | 130° | 69km/h | 15006m | 5.0m/s | -60.9°C | 9.8% | 0hPa | 2.7V | 00:00:00 | 01:12:48 | 00:00:00 | |
| DO3MHA-11 | 2026-09-02 23:46:56 | 46.54799 | 7.45113 | 125° | 69km/h | 14971m | 4.7m/s | -61.1°C | 9.9% | 0hPa | 2.7V | 00:00:00 | 01:12:40 | 00:00:00 | |
| IW2NTF | 2026-09-02 23:46:53 | 46.54869 | 7.44963 | 121° | 69km/h | 14943m | 3.7m/s | -61°C | 9.9% | 0hPa | 2.7V | 08:30:00 | 01:12:33 | 00:00:00 | |
| DO3MHA-11 | 2026-09-02 23:46:46 | 46.54895 | 7.44899 | 122° | 66km/h | 14930m | 3.5m/s | -60.9°C | 9.9% | 0hPa | 2.7V | 00:00:00 | 01:12:30 | 00:00:00 | |
| IW2NTF | 2026-09-02 23:46:44 | 46.54956 | 7.44749 | 118° | 68km/h | 14901m | 4.8m/s | -60.8°C | 9.8% | 0hPa | 2.7V | 08:30:00 | 01:12:23 | 00:00:00 | |
| DK5PH-5 | 2026-09-02 23:46:40 | 46.54948 | 7.44771 | 120° | 64km/h | 14905m | 3.3m/s | 0°C | 0% | 0hPa | 2.7V | 00:00:00 | 01:12:24 | 00:00:00 | |
| DB0UT-7 | 2026-09-02 23:46:34 | 46.54997 | 7.44645 | 122° | 62km/h | 14881m | 3.4m/s | -60.6°C | 9.9% | 0hPa | 2.7V | 00:00:00 | 00:00:00 | 00:00:00 | |
| IW2NTF | 2026-09-02 23:46:32 | 46.55036 | 7.44548 | 122° | 60km/h | 14859m | 4.1m/s | -60.5°C | 10.1% | 0hPa | 2.7V | 08:30:00 | 01:12:13 | 00:00:00 | |
| IW2NTF | 2026-09-02 23:46:24 | 46.55124 | 7.44351 | 123° | 66km/h | 14819m | 3.1m/s | -60.4°C | 10.2% | 0hPa | 2.8V | 08:30:00 | 01:12:03 | 00:00:00 | |
| DO3MHA-11 | 2026-09-02 23:46:23 | 46.55088 | 7.44429 | 123° | 62km/h | 14836m | 4.5m/s | -60.4°C | 10.1% | 0hPa | 2.7V | 00:00:00 | 01:12:07 | 08:30:00 | |
| DO3MHA-11 | 2026-09-02 23:46:13 | 46.55180 | 7.44244 | 132° | 64km/h | 14794m | 5.4m/s | -60.3°C | 10.4% | 0hPa | 2.8V | 00:00:00 | 01:11:57 | 00:00:00 | |
| IW2NTF | 2026-09-02 23:46:12 | 46.55221 | 7.44172 | 127° | 64km/h | 14776m | 3.6m/s | -60.3°C | 10.4% | 0hPa | 2.8V | 08:30:00 | 01:11:53 | 00:00:00 | |
| IW2NTF | 2026-09-02 23:46:04 | 46.55321 | 7.44006 | 134° | 60km/h | 14733m | 5.1m/s | -60.1°C | 10.6% | 0hPa | 2.8V | 08:30:00 | 01:11:43 | 00:00:00 | |
| DB0UT-7 | 2026-09-02 23:46:04 | 46.55272 | 7.44081 | 131° | 66km/h | 14755m | 5.0m/s | -60.2°C | 10.5% | 0hPa | 2.7V | 00:00:00 | 01:11:48 | 00:00:00 | |
| DO3MHA-11 | 2026-09-02 23:46:03 | 46.55282 | 7.44065 | 132° | 60km/h | 14750m | 4.7m/s | -60.2°C | 10.5% | 0hPa | 2.7V | 00:00:00 | 01:11:47 | 00:00:00 | |
| DO3MHA-11 | 2026-09-02 23:45:53 | 46.55390 | 7.43907 | 134° | 66km/h | 14705m | 3.6m/s | -60.1°C | 10.9% | 0hPa | 2.7V | 00:00:00 | 01:11:37 | 00:00:00 | |
| IW2NTF | 2026-09-02 23:45:52 | 46.55436 | 7.43843 | 141° | 64km/h | 14686m | 3.9m/s | -60.1°C | 11.1% | 0hPa | 2.8V | 08:30:00 | 01:11:33 | 00:00:00 | |
| DK5PH-5 | 2026-09-02 23:45:49 | 46.55436 | 7.43843 | 142° | 73km/h | 14686m | 3.9m/s | 0°C | 0% | 0hPa | 2.8V | 00:00:00 | 01:11:33 | 00:00:00 | |
| IW2NTF | 2026-09-02 23:45:44 | 46.55569 | 7.43684 | 133° | 69km/h | 14639m | 3.9m/s | -60°C | 11.8% | 0hPa | 2.8V | 08:30:00 | 01:11:23 | 00:00:00 | |
| DO3MHA-11 | 2026-09-02 23:45:43 | 46.55517 | 7.43751 | 145° | 71km/h | 14656m | 3.8m/s | -60.0°C | 11.5% | 0hPa | 2.7V | 00:00:00 | 01:11:27 | 00:00:00 | |
| DB0UT-7 | 2026-09-02 23:45:34 | 46.55639 | 7.43598 | 145° | 80km/h | 14618m | 2.9m/s | -60.0°C | 12.0% | 0hPa | 2.7V | 00:00:00 | 00:00:00 | 00:00:00 | |
| DO3MHA-11 | 2026-09-02 23:45:33 | 46.55655 | 7.43582 | 144° | 73km/h | 14614m | 4.6m/s | -59.9°C | 11.9% | 0hPa | 2.7V | 00:00:00 | 01:11:17 | 00:00:00 | |
| IW2NTF | 2026-09-02 23:45:32 | 46.55727 | 7.43500 | 142° | 71km/h | 14591m | 3.7m/s | -59.9°C | 12.1% | 0hPa | 2.7V | 08:30:00 | 01:11:12 | 00:00:00 | |
| DO3MHA-11 | 2026-09-02 23:45:23 | 46.55799 | 7.43414 | 140° | 82km/h | 14570m | 5.1m/s | -60.0°C | 12.6% | 0hPa | 2.7V | 00:00:00 | 01:11:07 | 00:00:00 | |
| IW2NTF | 2026-09-02 23:45:22 | 46.55906 | 7.43271 | 137° | 82km/h | 14540m | 3.4m/s | -60.1°C | 13.1% | 0hPa | 2.7V | 08:30:00 | 01:11:00 | 00:00:00 | |
| DK5PH-5 | 2026-09-02 23:45:19 | 46.55860 | 7.43333 | 136° | 82km/h | 14553m | 3.5m/s | 0°C | 0% | 0hPa | 2.7V | 00:00:00 | 01:11:03 | 00:00:00 | |
| DO3MHA-11 | 2026-09-02 23:45:13 | 46.55950 | 7.43210 | 135° | 86km/h | 14528m | 4.0m/s | -60.0°C | 13.3% | 0hPa | 2.7V | 00:00:00 | 01:10:57 | 00:00:00 | |
| IW2NTF | 2026-09-02 23:45:07 | 46.56053 | 7.43052 | 132° | 88km/h | 14498m | 4.9m/s | -60.2°C | 14.1% | 0hPa | 2.7V | 08:30:00 | 01:10:50 | 00:00:00 | |
| DB0UT-7 | 2026-09-02 23:45:04 | 46.56083 | 7.43004 | 132° | 91km/h | 14490m | 4.8m/s | -60.2°C | 14.3% | 0hPa | 2.7V | 00:00:00 | 01:10:48 | 00:00:00 | |
| IW2NTF | 2026-09-02 23:44:57 | 46.56192 | 7.42813 | 129° | 84km/h | 14456m | 4.6m/s | -60.5°C | 15% | 0hPa | 2.7V | 08:30:00 | 01:10:40 | 00:00:00 | |
| DO3MHA-12 | 2026-09-02 23:44:57 | 46.56179 | 7.42836 | 129° | 88km/h | 14461m | 3.4m/s | -60.5°C | 14.9% | 0hPa | 2.7V | 00:00:00 | 01:10:41 | 00:00:00 | |
| DO3MHA-11 | 2026-09-02 23:44:53 | 46.56234 | 7.42740 | 130° | 91km/h | 14445m | 5.1m/s | -60.6°C | 15.4% | 0hPa | 2.7V | 00:00:00 | 01:10:37 | 08:30:00 | |
| IW2NTF | 2026-09-02 23:44:47 | 46.56327 | 7.42550 | 122° | 91km/h | 14416m | 3m/s | -61.5°C | 17.6% | 0hPa | 2.7V | 08:30:00 | 01:10:30 | 00:00:00 | |
| DO3MHA-12 | 2026-09-02 23:44:47 | 46.56314 | 7.42578 | 124° | 95km/h | 14420m | 4.4m/s | -61.4°C | 17.3% | 0hPa | 2.7V | 00:00:00 | 01:10:31 | 08:30:00 | |
| DO3MHA-11 | 2026-09-02 23:44:43 | 46.56367 | 7.42464 | 125° | 99km/h | 14405m | 3.5m/s | -61.8°C | 18.3% | 0hPa | 2.7V | 00:00:00 | 01:10:27 | 00:00:00 | |
| DO3MHA-12 | 2026-09-02 23:44:37 | 46.56448 | 7.42285 | 124° | 99km/h | 14381m | 3.6m/s | -61.9°C | 18.6% | 0hPa | 2.7V | 00:00:00 | 01:10:21 | 00:00:00 | |
| DB0UT-7 | 2026-09-02 23:44:34 | 46.56488 | 7.42192 | 122° | 97km/h | 14369m | 3.5m/s | -61.8°C | 18.7% | 0hPa | 2.7V | 00:00:00 | 00:00:00 | 00:00:00 | |
| DO3MHA-11 | 2026-09-02 23:44:33 | 46.56501 | 7.42162 | 123° | 99km/h | 14364m | 5.2m/s | -61.8°C | 18.9% | 0hPa | 2.8V | 00:00:00 | 01:10:17 | 00:00:00 | |
| IW2NTF | 2026-09-02 23:44:26 | 46.56611 | 7.41875 | 115° | 99km/h | 14325m | 4m/s | -61.8°C | 19.1% | 0hPa | 2.8V | 08:30:00 | 01:10:08 | 00:00:00 | |
| DO3MHA-12 | 2026-09-02 23:44:25 | 46.56599 | 7.41907 | 118° | 88km/h | 14330m | 6.3m/s | -61.8°C | 18.9% | 0hPa | 2.7V | 00:00:00 | 01:10:09 | 00:00:00 | |
| DO3MHA-11 | 2026-09-02 23:44:23 | 46.56621 | 7.41842 | 116° | 95km/h | 14321m | 3.4m/s | -61.8°C | 19.0% | 0hPa | 2.7V | 00:00:00 | 01:10:07 | 00:00:00 | |
| IW2NTF | 2026-09-02 23:44:19 | 46.56717 | 7.41563 | 114° | 97km/h | 14282m | 3.1m/s | -62°C | 19.4% | 0hPa | 2.8V | 08:30:00 | 01:09:58 | 00:00:00 | |
| DO3MHA-11 | 2026-09-02 23:44:13 | 46.56727 | 7.41531 | 114° | 95km/h | 14279m | 3.7m/s | -61.9°C | 19.3% | 0hPa | 2.7V | 00:00:00 | 01:09:57 | 00:00:00 | |
| DB0UT-7 | 2026-09-02 23:44:04 | 46.56810 | 7.41242 | 114° | 84km/h | 14241m | 4.7m/s | -61.8°C | 19.5% | 0hPa | 2.7V | 00:00:00 | 01:09:48 | 00:00:00 | |
| DO3MHA-11 | 2026-09-02 23:44:03 | 46.56819 | 7.41212 | 115° | 88km/h | 14237m | 3.7m/s | -61.8°C | 19.4% | 0hPa | 2.7V | 00:00:00 | 01:09:47 | 00:00:00 | |
| IW2NTF | 2026-09-02 23:44:02 | 46.56836 | 7.41153 | 110° | 86km/h | 14229m | 5m/s | -61.9°C | 19.4% | 0hPa | 2.7V | 08:30:00 | 01:09:45 | 00:00:00 | |
| DO3MHA-11 | 2026-09-02 23:43:53 | 46.56900 | 7.40909 | 113° | 84km/h | 14197m | 4.7m/s | -61.8°C | 18.9% | 0hPa | 2.7V | 00:00:00 | 01:09:37 | 00:00:00 | |
| IW2NTF | 2026-09-02 23:43:52 | 46.56918 | 7.40850 | 114° | 84km/h | 14188m | 3.5m/s | -61.8°C | 19% | 0hPa | 2.8V | 08:30:00 | 01:09:35 | 00:00:00 | |
| IW2NTF | 2026-09-02 23:43:47 | 46.56996 | 7.40571 | 111° | 82km/h | 14151m | 3.7m/s | -61.6°C | 19% | 0hPa | 2.7V | 08:30:00 | 01:09:25 | 00:00:00 | |
| DO3MHA-11 | 2026-09-02 23:43:43 | 46.56981 | 7.40627 | 111° | 82km/h | 14159m | 4.5m/s | -61.5°C | 19.1% | 0hPa | 2.8V | 00:00:00 | 01:09:27 | 00:00:00 | |
| DB0UT-7 | 2026-09-02 23:43:34 | 46.57049 | 7.40377 | 114° | 78km/h | 14121m | 4.2m/s | -61.3°C | 18.7% | 0hPa | 2.8V | 00:00:00 | 00:00:00 | 00:00:00 | |
| DO3MHA-11 | 2026-09-02 23:43:33 | 46.57058 | 7.40350 | 113° | 80km/h | 14117m | 3.0m/s | -61.3°C | 18.5% | 0hPa | 2.8V | 00:00:00 | 01:09:17 | 00:00:00 | |
| IW2NTF | 2026-09-02 23:43:30 | 46.57087 | 7.40239 | 111° | 84km/h | 14099m | 5.3m/s | -61.2°C | 18.2% | 0hPa | 2.8V | 08:30:00 | 01:09:13 | 00:00:00 | |
| DH7VM-15 | 2026-09-02 23:43:26 | 46.57103 | 7.40182 | 114° | 82km/h | 14092m | 4.1m/s | 0°C | 0% | 0hPa | 2.8V | 00:00:00 | 00:00:00 | 00:00:00 | |
| IW2NTF | 2026-09-02 23:43:24 | 46.57168 | 7.39975 | 115° | 77km/h | 14056m | 3.3m/s | -60.9°C | 18.1% | 0hPa | 2.8V | 08:30:00 | 01:09:03 | 00:00:00 | |
| DO3MHA-11 | 2026-09-02 23:43:23 | 46.57135 | 7.40076 | 115° | 78km/h | 14074m | 4.2m/s | -60.9°C | 18.0% | 0hPa | 2.7V | 00:00:00 | 01:09:07 | 08:30:00 | |
| DO3MHA-11 | 2026-09-02 23:43:12 | 46.57231 | 7.39791 | 118° | 78km/h | 14028m | 4.3m/s | -60.7°C | 18.1% | 0hPa | 2.7V | 00:00:00 | 01:08:56 | 00:00:00 | |
| IW2NTF | 2026-09-02 23:43:10 | 46.57260 | 7.39711 | 118° | 77km/h | 14016m | 4.8m/s | -60.8°C | 18% | 0hPa | 2.7V | 08:30:00 | 01:08:53 | 00:00:00 | |
| IW2NTF | 2026-09-02 23:43:04 | 46.57357 | 7.39471 | 122° | 82km/h | 13969m | 4.3m/s | -60.4°C | 17.4% | 0hPa | 2.8V | 08:30:00 | 01:08:43 | 00:00:00 | |
| DB0UT-7 | 2026-09-02 23:43:04 | 46.57308 | 7.39592 | 120° | 80km/h | 13995m | 4.0m/s | -60.6°C | 17.4% | 0hPa | 2.7V | 00:00:00 | 01:08:48 | 08:30:00 | |
| DO3MHA-11 | 2026-09-02 23:43:02 | 46.57326 | 7.39544 | 120° | 78km/h | 13984m | 6.0m/s | -60.5°C | 17.3% | 0hPa | 2.7V | 00:00:00 | 01:08:46 | 00:00:00 | |
| DO3MHA-12 | 2026-09-02 23:43:01 | 46.57336 | 7.39520 | 122° | 78km/h | 13979m | 3.8m/s | -60.5°C | 17.3% | 0hPa | 2.7V | 00:00:00 | 01:08:45 | 00:00:00 | |
| IW2NTF | 2026-09-02 23:42:50 | 46.57468 | 7.39230 | 119° | 78km/h | 13932m | 4.9m/s | -60.3°C | 16.5% | 0hPa | 2.7V | 08:30:00 | 01:08:33 | 00:00:00 | |
| DO3MHA-12 | 2026-09-02 23:42:50 | 46.57458 | 7.39255 | 120° | 80km/h | 13937m | 3.7m/s | -60.3°C | 16.5% | 0hPa | 2.8V | 00:00:00 | 01:08:34 | 00:00:00 | |
| IW2NTF | 2026-09-02 23:42:45 | 46.57584 | 7.38983 | 130° | 84km/h | 13893m | 3.3m/s | -60.5°C | 16.6% | 0hPa | 2.8V | 08:30:00 | 01:08:23 | 00:00:00 | |
| DO3MHA-11 | 2026-09-02 23:42:42 | 46.57545 | 7.39055 | 127° | 84km/h | 13905m | 3.0m/s | -60.2°C | 16.4% | 0hPa | 2.7V | 00:00:00 | 01:08:26 | 00:00:00 | |
| DO3MHA-12 | 2026-09-02 23:42:40 | 46.57570 | 7.39007 | 130° | 84km/h | 13897m | 3.4m/s | -60.4°C | 16.6% | 0hPa | 2.7V | 00:00:00 | 01:08:24 | 00:00:00 | |
| IW2NTF | 2026-09-02 23:42:34 | 46.57715 | 7.38738 | 130° | 88km/h | 13856m | 4.5m/s | -60.5°C | 17.1% | 0hPa | 2.7V | 08:30:00 | 01:08:13 | 00:00:00 | |
| DB0UT-7 | 2026-09-02 23:42:34 | 46.57651 | 7.38864 | 126° | 89km/h | 13873m | 3.2m/s | -60.5°C | 17.2% | 0hPa | 2.7V | 00:00:00 | 00:00:00 | 00:00:00 | |
| DO3MHA-11 | 2026-09-02 23:42:32 | 46.57676 | 7.38812 | 126° | 86km/h | 13867m | 4.1m/s | -60.5°C | 17.2% | 0hPa | 2.7V | 00:00:00 | 01:08:16 | 00:00:00 | |
| DO3MHA-12 | 2026-09-02 23:42:30 | 46.57701 | 7.38762 | 129° | 88km/h | 13860m | 3.2m/s | -60.4°C | 17.1% | 0hPa | 2.7V | 00:00:00 | 01:08:14 | 00:00:00 | |
| IW2NTF | 2026-09-02 23:42:24 | 46.57858 | 7.38489 | 128° | 89km/h | 13815m | 4.3m/s | -60.3°C | 17.4% | 0hPa | 2.7V | 08:30:00 | 01:08:03 | 00:00:00 | |
| DO3MHA-11 | 2026-09-02 23:42:22 | 46.57816 | 7.38567 | 129° | 89km/h | 13828m | 3.7m/s | -60.3°C | 17.4% | 0hPa | 2.7V | 00:00:00 | 01:08:06 | 00:00:00 | |
| DO3MHA-12 | 2026-09-02 23:42:20 | 46.57845 | 7.38515 | 128° | 88km/h | 13820m | 4.7m/s | -60.2°C | 17.3% | 0hPa | 2.8V | 00:00:00 | 01:08:04 | 00:00:00 | |
| IW2NTF | 2026-09-02 23:42:14 | 46.57998 | 7.38232 | 129° | 91km/h | 13775m | 4.5m/s | -60.1°C | 17.6% | 0hPa | 2.8V | 08:30:00 | 01:07:53 | 00:00:00 | |
| DO3MHA-11 | 2026-09-02 23:42:12 | 46.57954 | 7.38310 | 130° | 91km/h | 13788m | 4.6m/s | -60.1°C | 17.4% | 0hPa | 2.8V | 00:00:00 | 01:07:56 | 00:00:00 | |
| DO3MHA-12 | 2026-09-02 23:42:10 | 46.57983 | 7.38258 | 130° | 91km/h | 13779m | 3.3m/s | -60.1°C | 17.5% | 0hPa | 2.8V | 00:00:00 | 01:07:54 | 00:00:00 | |
| IW2NTF | 2026-09-02 23:42:04 | 46.58131 | 7.37959 | 125° | 89km/h | 13735m | 3.6m/s | -60°C | 17.6% | 0hPa | 2.8V | 08:30:00 | 01:07:43 | 00:00:00 | |
| DB0UT-7 | 2026-09-02 23:42:04 | 46.58067 | 7.38096 | 124° | 91km/h | 13755m | 3.8m/s | -60.0°C | 17.8% | 0hPa | 2.7V | 00:00:00 | 01:07:48 | 00:00:00 | |
| DO3MHA-11 | 2026-09-02 23:42:02 | 46.58092 | 7.38041 | 124° | 89km/h | 13746m | 3.4m/s | -60.0°C | 17.9% | 0hPa | 2.7V | 00:00:00 | 01:07:46 | 00:00:00 | |
| DO3MHA-12 | 2026-09-02 23:42:00 | 46.58118 | 7.37986 | 125° | 93km/h | 13739m | 4.3m/s | -60.0°C | 17.6% | 0hPa | 2.7V | 00:00:00 | 01:07:44 | 08:30:00 | |
| IW2NTF | 2026-09-02 23:41:54 | 46.58260 | 7.37683 | 116° | 89km/h | 13696m | 4.4m/s | -60.1°C | 18.9% | 0hPa | 2.7V | 08:30:00 | 01:07:33 | 00:00:00 | |
| DO3MHA-12 | 2026-09-02 23:41:50 | 46.58249 | 7.37713 | 118° | 95km/h | 13700m | 3.5m/s | -60.1°C | 18.7% | 0hPa | 2.8V | 00:00:00 | 01:07:34 | 00:00:00 | |
| IW2NTF | 2026-09-02 23:41:44 | 46.58372 | 7.37398 | 120° | 93km/h | 13657m | 3.9m/s | -60.1°C | 19.6% | 0hPa | 2.8V | 08:30:00 | 01:07:23 | 00:00:00 | |
| DO3MHA-11 | 2026-09-02 23:41:42 | 46.58336 | 7.37483 | 122° | 95km/h | 13669m | 3.5m/s | -60.1°C | 19.6% | 0hPa | 2.8V | 00:00:00 | 01:07:26 | 00:00:00 | |
| IW2NTF | 2026-09-02 23:41:35 | 46.58490 | 7.37086 | 124° | 97km/h | 13619m | 4.5m/s | -60.1°C | 20.6% | 0hPa | 2.8V | 08:30:00 | 01:07:13 | 00:00:00 | |
| DB0UT-7 | 2026-09-02 23:41:34 | 46.58427 | 7.37240 | 117° | 95km/h | 13638m | 3.1m/s | -60.1°C | 19.9% | 0hPa | 2.7V | 00:00:00 | 00:00:00 | 00:00:00 | |
| DO3MHA-11 | 2026-09-02 23:41:32 | 46.58450 | 7.37177 | 120° | 97km/h | 13631m | 4.3m/s | -60.1°C | 20.1% | 0hPa | 2.7V | 00:00:00 | 01:07:16 | 00:00:00 | |
| IW2NTF | 2026-09-02 23:41:24 | 46.58625 | 7.36798 | 124° | 97km/h | 13579m | 3.9m/s | -60°C | 21.6% | 0hPa | 2.7V | 08:30:00 | 01:07:03 | 00:00:00 | |
| DO3MHA-11 | 2026-09-02 23:41:22 | 46.58585 | 7.36884 | 124° | 95km/h | 13590m | 3.8m/s | -60.0°C | 21.4% | 0hPa | 2.7V | 00:00:00 | 01:07:06 | 00:00:00 | |
| IW2NTF | 2026-09-02 23:41:14 | 46.58763 | 7.36512 | 126° | 88km/h | 13539m | 4.5m/s | -60.3°C | 23.7% | 0hPa | 2.7V | 08:30:00 | 01:06:53 | 00:00:00 | |
| IW2NTF | 2026-09-02 23:41:04 | 46.58897 | 7.36242 | 128° | 95km/h | 13499m | 3.4m/s | -60.6°C | 25.7% | 0hPa | 2.8V | 08:30:00 | 01:06:43 | 00:00:00 | |
| DB0UT-7 | 2026-09-02 23:41:04 | 46.58828 | 7.36380 | 125° | 91km/h | 13519m | 4.3m/s | -60.4°C | 24.7% | 0hPa | 2.7V | 00:00:00 | 01:06:48 | 00:00:00 | |
| DO3MHA-11 | 2026-09-02 23:40:57 | 46.58927 | 7.36187 | 129° | 91km/h | 13491m | 4.7m/s | -60.7°C | 26.4% | 0hPa | 2.7V | 00:00:00 | 01:06:41 | 00:00:00 | |
| IW2NTF | 2026-09-02 23:40:52 | 46.59034 | 7.35973 | 126° | 91km/h | 13458m | 4.4m/s | -60.7°C | 27% | 0hPa | 2.7V | 08:30:00 | 01:06:33 | 00:00:00 | |
| DO3MHA-11 | 2026-09-02 23:40:47 | 46.59063 | 7.35919 | 128° | 91km/h | 13450m | 3.3m/s | -60.6°C | 27.1% | 0hPa | 2.8V | 00:00:00 | 01:06:31 | 00:00:00 | |
| IW2NTF | 2026-09-02 23:40:42 | 46.59200 | 7.35650 | 127° | 89km/h | 13408m | 4.8m/s | -60.6°C | 28.1% | 0hPa | 2.8V | 08:30:00 | 01:06:21 | 00:00:00 | |
| DO3MHA-11 | 2026-09-02 23:40:36 | 46.59214 | 7.35624 | 128° | 91km/h | 13404m | 3.9m/s | -60.6°C | 28.4% | 0hPa | 2.7V | 00:00:00 | 01:06:20 | 00:00:00 | |
| DB0UT-7 | 2026-09-02 23:40:34 | 46.59241 | 7.35573 | 128° | 93km/h | 13397m | 4.6m/s | -60.6°C | 28.4% | 0hPa | 2.7V | 00:00:00 | 00:00:00 | 00:00:00 | |
| IW2NTF | 2026-09-02 23:40:33 | 46.59340 | 7.35385 | 128° | 91km/h | 13367m | 5.5m/s | -60.5°C | 29.5% | 0hPa | 2.7V | 08:30:00 | 01:06:11 | 00:00:00 | |
| DO3MHA-11 | 2026-09-02 23:40:24 | 46.59383 | 7.35308 | 131° | 93km/h | 13354m | 4.8m/s | -60.4°C | 30.0% | 0hPa | 2.7V | 00:00:00 | 01:06:08 | 00:00:00 | |
| IW2NTF | 2026-09-02 23:40:22 | 46.59490 | 7.35131 | 132° | 93km/h | 13322m | 5.1m/s | -60.3°C | 30.6% | 0hPa | 2.7V | 08:30:00 | 01:06:01 | 00:00:00 | |
| DO3MHA-11 | 2026-09-02 23:40:13 | 46.59552 | 7.35025 | 128° | 95km/h | 13305m | 3.7m/s | -60.3°C | 31.2% | 0hPa | 2.7V | 00:00:00 | 01:05:57 | 00:00:00 | |
| DB0UT-7 | 2026-09-02 23:40:04 | 46.59692 | 7.34786 | 134° | 99km/h | 13265m | 3.8m/s | -60.4°C | 33.2% | 0hPa | 2.7V | 00:00:00 | 01:05:48 | 00:00:00 | |
| DO3MHA-11 | 2026-09-02 23:40:03 | 46.59709 | 7.34760 | 133° | 99km/h | 13261m | 4.6m/s | -60.4°C | 33.2% | 0hPa | 2.7V | 00:00:00 | 01:05:47 | 08:30:00 | |
| IW2NTF | 2026-09-02 23:40:00 | 46.59839 | 7.34540 | 130° | 104km/h | 13226m | 4.3m/s | -60.5°C | 0% | 0hPa | 2.8V | 08:30:00 | 01:05:39 | 00:00:00 | |
| DB0ND-19 | 2026-09-02 23:39:56 | 46.59941 | 7.34372 | 130° | 99km/h | 13199m | 4.2m/s | 0°C | -1.0% | -1.0hPa | 2.8V | 00:00:00 | 00:00:00 | 00:00:00 | |
| DO3MHA-12 | 2026-09-02 23:39:54 | 46.59856 | 7.34511 | 132° | 100km/h | 13222m | 3.9m/s | -60.4°C | 35.2% | 0hPa | 2.8V | 00:00:00 | 01:05:38 | 00:00:00 | |
| DO3MHA-11 | 2026-09-02 23:39:53 | 46.59873 | 7.34482 | 132° | 100km/h | 13217m | 5.0m/s | -60.4°C | 35.5% | 0hPa | 2.8V | 00:00:00 | 01:05:37 | 00:00:00 | |
| IW2NTF | 2026-09-02 23:39:50 | 46.60006 | 7.34262 | 130° | 100km/h | 13181m | 5.4m/s | -60.5°C | 0% | 0hPa | 2.8V | 08:30:00 | 01:05:29 | 00:00:00 | |
| DO3MHA-11 | 2026-09-02 23:39:43 | 46.60040 | 7.34204 | 131° | 99km/h | 13173m | 4.0m/s | -60.6°C | 37.0% | 0hPa | 2.7V | 00:00:00 | 01:05:27 | 00:00:00 | |
| IW2NTF | 2026-09-02 23:39:40 | 46.60175 | 7.33992 | 134° | 91km/h | 13138m | 4m/s | -60.6°C | 0% | 0hPa | 2.7V | 08:30:00 | 01:05:19 | 00:00:00 | |
| DB0UT-7 | 2026-09-02 23:39:34 | 46.60190 | 7.33968 | 134° | 97km/h | 13134m | 3.7m/s | -60.5°C | 39.0% | 0hPa | 2.7V | 00:00:00 | 00:00:00 | 00:00:00 | |
| DO3MHA-11 | 2026-09-02 23:39:33 | 46.60206 | 7.33943 | 133° | 95km/h | 13130m | 4.5m/s | -60.5°C | 39.2% | 0hPa | 2.7V | 00:00:00 | 01:05:17 | 00:00:00 | |
| IW2NTF | 2026-09-02 23:39:30 | 46.60333 | 7.33734 | 131° | 95km/h | 13095m | 3.5m/s | -60.3°C | 0% | 0hPa | 2.8V | 08:30:00 | 01:05:09 | 00:00:00 | |
| DO3MHA-11 | 2026-09-02 23:39:23 | 46.60364 | 7.33683 | 132° | 100km/h | 13087m | 4.0m/s | -60.2°C | 40.7% | 0hPa | 2.7V | 00:00:00 | 01:05:07 | 00:00:00 | |
| IW2NTF | 2026-09-02 23:39:20 | 46.60498 | 7.33465 | 131° | 108km/h | 13051m | 3.4m/s | -60.5°C | 0% | 0hPa | 2.7V | 08:30:00 | 01:04:59 | 00:00:00 | |
| DO3MHA-12 | 2026-09-02 23:39:14 | 46.60515 | 7.33436 | 131° | 97km/h | 13048m | 3.5m/s | -60.4°C | 43.3% | 0hPa | 2.7V | 00:00:00 | 01:04:58 | 00:00:00 | |
| DO3MHA-11 | 2026-09-02 23:39:13 | 46.60533 | 7.33407 | 133° | 97km/h | 13044m | 4.8m/s | -60.3°C | 43.4% | 0hPa | 2.8V | 00:00:00 | 01:04:57 | 00:00:00 | |
| IW2NTF | 2026-09-02 23:39:10 | 46.60667 | 7.33206 | 135° | 99km/h | 13011m | 4.3m/s | -60.3°C | 0% | 0hPa | 2.8V | 08:30:00 | 01:04:49 | 00:00:00 | |
| DB0UT-7 | 2026-09-02 23:39:04 | 46.60685 | 7.33180 | 136° | 88km/h | 13007m | 4.1m/s | -60.2°C | 44.6% | 0hPa | 2.7V | 00:00:00 | 01:04:48 | 00:00:00 | |
| DO3MHA-11 | 2026-09-02 23:39:03 | 46.60702 | 7.33155 | 136° | 91km/h | 13002m | 5.0m/s | -60.2°C | 44.8% | 0hPa | 2.7V | 00:00:00 | 01:04:47 | 00:00:00 | |
| IW2NTF | 2026-09-02 23:39:00 | 46.60829 | 7.32958 | 135° | 89km/h | 12963m | 3.8m/s | -60.3°C | 0% | 0hPa | 2.7V | 08:30:00 | 01:04:39 | 00:00:00 | |
| DO3MHA-12 | 2026-09-02 23:39:00 | 46.60751 | 7.33082 | 133° | 89km/h | 12988m | 5.0m/s | -60.1°C | 45.5% | 0hPa | 2.8V | 00:00:00 | 01:04:44 | 00:00:00 | |
| DO3MHA-11 | 2026-09-02 23:38:53 | 46.60860 | 7.32912 | 134° | 84km/h | 12955m | 5.0m/s | -60.2°C | 47.3% | 0hPa | 2.8V | 00:00:00 | 01:04:37 | 00:00:00 | |
| DO3MHA-11 | 2026-09-02 23:38:43 | 46.60998 | 7.32682 | 130° | 86km/h | 12905m | 5.3m/s | -60.2°C | 50.2% | 0hPa | 2.8V | 00:00:00 | 01:04:27 | 00:00:00 | |
| IW2NTF | 2026-09-02 23:38:42 | 46.61023 | 7.32635 | 127° | 84km/h | 12893m | 4m/s | -60.4°C | 0% | 0hPa | 2.8V | 08:30:00 | 01:04:25 | 00:00:00 | |
| DB0UT-7 | 2026-09-02 23:38:34 | 46.61131 | 7.32470 | 137° | 84km/h | 12857m | 6.2m/s | -60.8°C | 57.2% | 0hPa | 2.7V | 00:00:00 | 00:00:00 | 08:30:00 | |
| DO3MHA-11 | 2026-09-02 23:38:33 | 46.61146 | 7.32449 | 135° | 84km/h | 12852m | 4.0m/s | -60.7°C | 56.9% | 0hPa | 2.7V | 00:00:00 | 01:04:17 | 08:30:00 | |
| IW2NTF | 2026-09-02 23:38:32 | 46.61234 | 7.32316 | 139° | 82km/h | 12817m | 4.8m/s | -60.6°C | 0% | 0hPa | 2.8V | 08:30:00 | 01:04:11 | 00:00:00 | |
| DO3MHA-11 | 2026-09-02 23:38:23 | 46.61302 | 7.32240 | 141° | 80km/h | 12797m | 5.5m/s | -60.4°C | 59.8% | 0hPa | 2.7V | 00:00:00 | 01:04:07 | 00:00:00 | |
| IW2NTF | 2026-09-02 23:38:22 | 46.61393 | 7.32119 | 138° | 77km/h | 12766m | 6.5m/s | -60.2°C | 0% | 0hPa | 2.7V | 08:30:00 | 01:04:01 | 00:00:00 | |
| DO3MHA-12 | 2026-09-02 23:38:13 | 46.61453 | 7.32043 | 141° | 86km/h | 12740m | 7.2m/s | -60.0°C | 59.6% | 0hPa | 2.7V | 00:00:00 | 01:03:57 | 00:00:00 | |
| IW2NTF | 2026-09-02 23:38:12 | 46.61550 | 7.31919 | 139° | 86km/h | 12706m | 8.7m/s | -59.8°C | 0% | 0hPa | 2.8V | 08:30:00 | 01:03:51 | 00:00:00 | |
| DB0UT-7 | 2026-09-02 23:38:04 | 46.61601 | 7.31860 | 143° | 89km/h | 12687m | 3.8m/s | -59.6°C | 61.6% | 0hPa | 2.7V | 00:00:00 | 01:03:48 | 00:00:00 | |
| IW2NTF | 2026-09-02 23:38:03 | 46.61720 | 7.31726 | 142° | 89km/h | 12647m | 8.3m/s | -59.8°C | 0% | 0hPa | 2.7V | 08:30:00 | 01:03:41 | 00:00:00 | |
| DO3MHA-11 | 2026-09-02 23:38:02 | 46.61635 | 7.31823 | 142° | 88km/h | 12675m | 4.3m/s | -59.6°C | 61.6% | 0hPa | 2.7V | 00:00:00 | 01:03:46 | 00:00:00 | |
| DO3MHA-12 | 2026-09-02 23:37:52 | 46.61797 | 7.31606 | 128° | 93km/h | 12618m | 7.4m/s | -59.8°C | 65.2% | 0hPa | 2.7V | 00:00:00 | 01:03:36 | 00:00:00 | |
| IW2NTF | 2026-09-02 23:37:50 | 46.61906 | 7.31433 | 135° | 93km/h | 12578m | 7.4m/s | -59.7°C | 0% | 0hPa | 2.7V | 08:30:00 | 01:03:29 | 00:00:00 | |
| DO3MHA-12 | 2026-09-02 23:37:42 | 46.61957 | 7.31359 | 135° | 93km/h | 12560m | 6.1m/s | 0°C | 0% | 0hPa | 2.8V | 00:00:00 | 01:03:26 | 08:30:00 | |
| DB0UT-7 | 2026-09-02 23:37:34 | 46.62090 | 7.31171 | 133° | 88km/h | 12511m | 6.8m/s | -59.2°C | 63.8% | 0hPa | 2.8V | 00:00:00 | 00:00:00 | 00:00:00 | |
| DO3MHA-12 | 2026-09-02 23:37:32 | 46.62123 | 7.31120 | 133° | 89km/h | 12499m | 8.5m/s | 0°C | 0% | 0hPa | 2.8V | 00:00:00 | 01:03:16 | 00:00:00 | |
| DO3MHA-12 | 2026-09-02 23:37:22 | 46.62274 | 7.30881 | 125° | 88km/h | 12434m | 6.5m/s | 0°C | 0% | 0hPa | 2.8V | 00:00:00 | 01:03:06 | 00:00:00 | |
| DB0ND-19 | 2026-09-02 23:37:21 | 46.62422 | 7.30643 | 132° | 78km/h | 12380m | 5.4m/s | 0°C | -1.0% | -1.0hPa | 2.8V | 00:00:00 | 00:00:00 | 00:00:00 | |
| DO3MHA-12 | 2026-09-02 23:37:12 | 46.62422 | 7.30642 | 133° | 82km/h | 12380m | 5.4m/s | 0°C | 0% | 0hPa | 2.8V | 00:00:00 | 01:02:56 | 00:00:00 | |
| IW2NTF | 2026-09-02 23:37:06 | 46.62513 | 7.30482 | 126° | 82km/h | 12334m | 5.3m/s | -58.1°C | 0% | 0hPa | 2.8V | 08:30:00 | 01:02:49 | 00:00:00 | |
| DB0UT-7 | 2026-09-02 23:37:04 | 46.62526 | 7.30457 | 128° | 77km/h | 12329m | 5.1m/s | -58.1°C | 60.9% | 0hPa | 2.7V | 00:00:00 | 01:02:48 | 00:00:00 | |
| DO3MHA-12 | 2026-09-02 23:37:02 | 46.62552 | 7.30411 | 133° | 75km/h | 12318m | 2.7m/s | 0°C | 0% | 0hPa | 2.7V | 00:00:00 | 01:02:46 | 00:00:00 | |
| IW2NTF | 2026-09-02 23:37:00 | 46.62644 | 7.30273 | 133° | 78km/h | 12281m | 5.9m/s | -57.8°C | 0% | 0hPa | 2.7V | 08:30:00 | 01:02:39 | 00:00:00 | |
| DO3MHA-12 | 2026-09-02 23:36:52 | 46.62684 | 7.30212 | 137° | 77km/h | 12264m | 5.1m/s | 0°C | 0% | 0hPa | 2.8V | 00:00:00 | 01:02:36 | 00:00:00 | |
| DH7VM-15 | 2026-09-02 23:36:50 | 46.62699 | 7.30193 | 138° | 77km/h | 12259m | 4.3m/s | 0°C | 0% | 0hPa | 2.8V | 00:00:00 | 00:00:00 | 00:00:00 | |
| IW2NTF | 2026-09-02 23:36:43 | 46.62820 | 7.30015 | 136° | 77km/h | 12206m | 4.9m/s | -57.6°C | 0% | 0hPa | 2.8V | 08:30:00 | 01:02:26 | 00:00:00 | |
| DO3MHA-12 | 2026-09-02 23:36:42 | 46.62821 | 7.30015 | 137° | 80km/h | 12207m | 4.9m/s | 0°C | 0% | 0hPa | 2.7V | 00:00:00 | 01:02:26 | 00:00:00 | |
| DB0UT-7 | 2026-09-02 23:36:34 | 46.62942 | 7.29860 | 139° | 82km/h | 12159m | 4.3m/s | -57.2°C | 64.1% | 0hPa | 2.7V | 00:00:00 | 00:00:00 | 00:00:00 | |
| IW2NTF | 2026-09-02 23:36:33 | 46.62973 | 7.29820 | 136° | 78km/h | 12148m | 5.8m/s | -57.1°C | 0% | 0hPa | 2.7V | 08:30:00 | 01:02:16 | 00:00:00 | |
| DO3MHA-12 | 2026-09-02 23:36:32 | 46.62973 | 7.29820 | 137° | 78km/h | 12148m | 5.7m/s | 0°C | 0% | 0hPa | 2.7V | 00:00:00 | 01:02:16 | 00:00:00 | |
| DO3MHA-12 | 2026-09-02 23:36:22 | 46.63122 | 7.29630 | 141° | 86km/h | 12091m | 8.1m/s | 0°C | 0% | 0hPa | 2.7V | 00:00:00 | 01:02:06 | 00:00:00 | |
| IW2NTF | 2026-09-02 23:36:20 | 46.63229 | 7.29478 | 135° | 84km/h | 12045m | 6.8m/s | -56.6°C | 0% | 0hPa | 2.7V | 08:30:00 | 01:01:59 | 00:00:00 | |
| DO3MHA-12 | 2026-09-02 23:36:12 | 46.63275 | 7.29412 | 136° | 84km/h | 12028m | 5.7m/s | 0°C | 0% | 0hPa | 2.7V | 00:00:00 | 01:01:56 | 08:30:00 | |
| IW2NTF | 2026-09-02 23:36:10 | 46.63382 | 7.29264 | 138° | 82km/h | 11992m | 8m/s | -56.1°C | 0% | 0hPa | 2.7V | 08:30:00 | 01:01:49 | 00:00:00 | |
| DB0UT-7 | 2026-09-02 23:36:04 | 46.63398 | 7.29243 | 138° | 88km/h | 11986m | 4.3m/s | -56.0°C | 65.2% | 0hPa | 2.7V | 00:00:00 | 01:01:48 | 00:00:00 | |
| DO3MHA-12 | 2026-09-02 23:36:02 | 46.63429 | 7.29200 | 136° | 88km/h | 11973m | 6.3m/s | 0°C | 0% | 0hPa | 2.7V | 00:00:00 | 01:01:46 | 00:00:00 | |
| DO3MHA-11 | 2026-09-02 23:36:00 | 46.63460 | 7.29153 | 134° | 86km/h | 11962m | 7.1m/s | -55.9°C | 66.5% | 0hPa | 2.7V | 00:00:00 | 01:01:44 | 00:00:00 | |
| IW2NTF | 2026-09-02 23:35:53 | 46.63629 | 7.28904 | 128° | 88km/h | 11903m | 7.3m/s | -55.4°C | 0% | 0hPa | 2.7V | 08:30:00 | 01:01:33 | 00:00:00 | |
| DO3MHA-12 | 2026-09-02 23:35:52 | 46.63588 | 7.28975 | 135° | 89km/h | 11919m | 6.3m/s | 0°C | 0% | 0hPa | 2.8V | 00:00:00 | 01:01:36 | 00:00:00 | |
| DO3MHA-11 | 2026-09-02 23:35:50 | 46.63615 | 7.28929 | 129° | 89km/h | 11908m | 3.1m/s | -55.4°C | 67.8% | 0hPa | 2.8V | 00:00:00 | 01:01:34 | 00:00:00 | |
| DO3MHA-12 | 2026-09-02 23:35:42 | 46.63737 | 7.28728 | 134° | 84km/h | 11862m | 4.9m/s | 0°C | 0% | 0hPa | 2.8V | 00:00:00 | 01:01:26 | 00:00:00 | |
| IW2NTF | 2026-09-02 23:35:41 | 46.63824 | 7.28597 | 134° | 89km/h | 11827m | 4m/s | -54.9°C | 0% | 0hPa | 2.8V | 08:30:00 | 01:01:20 | 00:00:00 | |
| DO3MHA-11 | 2026-09-02 23:35:40 | 46.63766 | 7.28684 | 134° | 89km/h | 11848m | 6.9m/s | -55.0°C | 65.4% | 0hPa | 2.7V | 00:00:00 | 01:01:24 | 00:00:00 | |
| DB0UT-7 | 2026-09-02 23:35:34 | 46.63857 | 7.28547 | 135° | 93km/h | 11816m | 5.1m/s | -54.8°C | 66.0% | 0hPa | 2.7V | 00:00:00 | 00:00:00 | 00:00:00 | |
| IW2NTF | 2026-09-02 23:35:31 | 46.63992 | 7.28332 | 131° | 97km/h | 11771m | 5.3m/s | -54.5°C | 0% | 0hPa | 2.7V | 00:00:00 | 01:01:10 | 00:00:00 | |
| DO3MHA-11 | 2026-09-02 23:35:30 | 46.63925 | 7.28442 | 132° | 93km/h | 11796m | 6.5m/s | -54.6°C | 66.0% | 0hPa | 2.7V | 00:00:00 | 01:01:14 | 08:30:00 | |
| IW2NTF | 2026-09-02 23:35:21 | 46.64147 | 7.28081 | 130° | 93km/h | 11715m | 5.7m/s | -54.1°C | 0% | 0hPa | 2.8V | 00:00:00 | 01:01:00 | 00:00:00 | |
| DO3MHA-11 | 2026-09-02 23:35:18 | 46.64116 | 7.28132 | 132° | 93km/h | 11726m | 4.8m/s | -54.1°C | 65.5% | 0hPa | 2.8V | 00:00:00 | 01:01:02 | 00:00:00 | |
| IW2NTF | 2026-09-02 23:35:12 | 46.64298 | 7.27827 | 133° | 88km/h | 11658m | 6.2m/s | -53.7°C | 0% | 0hPa | 2.8V | 00:00:00 | 01:00:50 | 00:00:00 | |
| DO3MHA-11 | 2026-09-02 23:35:08 | 46.64268 | 7.27874 | 133° | 91km/h | 11668m | 5.3m/s | -53.7°C | 65.1% | 0hPa | 2.8V | 00:00:00 | 01:00:52 | 00:00:00 | |
| DB0UT-7 | 2026-09-02 23:35:04 | 46.64329 | 7.27780 | 133° | 91km/h | 11647m | 8.0m/s | -53.5°C | 65.1% | 0hPa | 2.8V | 00:00:00 | 01:00:48 | 00:00:00 | |
| IW2NTF | 2026-09-02 23:34:59 | 46.64481 | 7.27525 | 132° | 88km/h | 11591m | 8.3m/s | -53.1°C | 0% | 0hPa | 2.8V | 00:00:00 | 01:00:38 | 00:00:00 | |
| DO3MHA-11 | 2026-09-02 23:34:58 | 46.64421 | 7.27624 | 130° | 91km/h | 11611m | 6.5m/s | -53.2°C | 64.2% | 0hPa | 2.7V | 00:00:00 | 01:00:42 | 00:00:00 | |
| IW2NTF | 2026-09-02 23:34:49 | 46.64634 | 7.27272 | 127° | 86km/h | 11528m | 3.8m/s | -52.7°C | 0% | 0hPa | 2.8V | 00:00:00 | 01:00:28 | 00:00:00 | |
| DO3MHA-11 | 2026-09-02 23:34:48 | 46.64575 | 7.27375 | 131° | 89km/h | 11550m | 6.5m/s | -52.8°C | 62.8% | 0hPa | 2.8V | 00:00:00 | 01:00:32 | 00:00:00 | |
| IW2NTF | 2026-09-02 23:34:39 | 46.64783 | 7.27017 | 127° | 97km/h | 11475m | 3.9m/s | 0°C | 0% | 0hPa | 2.8V | 00:00:00 | 01:00:18 | 00:00:00 | |
| DO3MHA-11 | 2026-09-02 23:34:38 | 46.64719 | 7.27125 | 133° | 91km/h | 11497m | 5.5m/s | -52.4°C | 61.3% | 0hPa | 2.9V | 00:00:00 | 01:00:22 | 00:00:00 | |
| DB0UT-7 | 2026-09-02 23:34:34 | 46.64783 | 7.27017 | 128° | 88km/h | 11475m | 3.8m/s | -52.2°C | 61.3% | 0hPa | 2.9V | 00:00:00 | 00:00:00 | 00:00:00 | |
| IW2NTF | 2026-09-02 23:34:28 | 46.64932 | 7.26744 | 129° | 93km/h | 11413m | 6m/s | 0°C | 0% | 0hPa | 2.9V | 00:00:00 | 01:00:07 | 00:00:00 | |
| DO3MHA-11 | 2026-09-02 23:34:28 | 46.64863 | 7.26866 | 129° | 84km/h | 11439m | 3.4m/s | -51.9°C | 61.7% | 0hPa | 2.9V | 00:00:00 | 01:00:12 | 00:00:00 | |
| IW2NTF | 2026-09-02 23:34:18 | 46.65072 | 7.26495 | 126° | 84km/h | 11351m | 5.5m/s | 0°C | 0% | 0hPa | 2.8V | 00:00:00 | 00:59:57 | 00:00:00 | |
| DB0UT-7 | 2026-09-02 23:34:04 | 46.65195 | 7.26275 | 131° | 82km/h | 11304m | 6.9m/s | -50.8°C | 57.0% | 0hPa | 2.7V | 00:00:00 | 00:59:48 | 08:30:00 | |
| IW2NTF | 2026-09-02 23:34:03 | 46.65223 | 7.26228 | 129° | 82km/h | 11291m | 4.7m/s | 0°C | 0% | 0hPa | 2.9V | 00:00:00 | 00:59:46 | 00:00:00 | |
| DO3MHA-11 | 2026-09-02 23:33:58 | 46.65275 | 7.26133 | 129° | 82km/h | 11270m | 6.7m/s | -50.5°C | 57.6% | 0hPa | 2.9V | 00:00:00 | 00:59:42 | 00:00:00 | |
| IW2NTF | 2026-09-02 23:33:57 | 46.65351 | 7.25998 | 130° | 84km/h | 11236m | 6.7m/s | 0°C | 0% | 0hPa | 2.9V | 00:00:00 | 00:59:36 | 00:00:00 | |
| DO3MHA-11 | 2026-09-02 23:33:48 | 46.65408 | 7.25899 | 128° | 80km/h | 11213m | 5.1m/s | -50.1°C | 58.2% | 0hPa | 2.9V | 00:00:00 | 00:59:32 | 00:00:00 | |
| IW2NTF | 2026-09-02 23:33:43 | 46.65484 | 7.25751 | 127° | 77km/h | 11183m | 4.6m/s | 0°C | 0% | 0hPa | 2.9V | 00:00:00 | 00:59:26 | 00:00:00 | |
| DO3MHA-11 | 2026-09-02 23:33:38 | 46.65532 | 7.25664 | 130° | 86km/h | 11159m | 8.5m/s | -49.7°C | 57.9% | 0hPa | 2.7V | 00:00:00 | 00:59:22 | 08:30:00 | |
| DB0UT-7 | 2026-09-02 23:33:34 | 46.65586 | 7.25570 | 131° | 80km/h | 11134m | 4.0m/s | -49.5°C | 56.3% | 0hPa | 2.9V | 00:00:00 | 00:00:00 | 00:00:00 | |
| IW2NTF | 2026-09-02 23:33:33 | 46.65618 | 7.25518 | 131° | 93km/h | 11122m | 6.3m/s | 0°C | 0% | 0hPa | 2.9V | 00:00:00 | 00:59:16 | 00:00:00 | |
| DO3MHA-11 | 2026-09-02 23:33:28 | 46.65669 | 7.25426 | 128° | 77km/h | 11102m | 4.1m/s | -49.2°C | 55.9% | 0hPa | 2.9V | 00:00:00 | 00:59:12 | 00:00:00 | |
| DO3MHA-12 | 2026-09-02 23:33:27 | 46.65680 | 7.25406 | 129° | 77km/h | 11097m | 7.1m/s | 0°C | 0% | 0hPa | 2.9V | 00:00:00 | 00:59:11 | 00:00:00 | |
| IW2NTF | 2026-09-02 23:33:23 | 46.65744 | 7.25306 | 133° | 82km/h | 11072m | 7.7m/s | 0°C | 0% | 0hPa | 2.9V | 00:00:00 | 00:59:06 | 00:00:00 | |
| DO3MHA-11 | 2026-09-02 23:33:18 | 46.65795 | 7.25206 | 122° | 77km/h | 11049m | 4.0m/s | -48.8°C | 54.2% | 0hPa | 2.9V | 00:00:00 | 00:59:02 | 00:00:00 | |
| DO3MHA-12 | 2026-09-02 23:33:17 | 46.65806 | 7.25180 | 122° | 77km/h | 11043m | 7.0m/s | 0°C | 0% | 0hPa | 2.9V | 00:00:00 | 00:59:01 | 00:00:00 | |
| IW2NTF | 2026-09-02 23:33:13 | 46.65865 | 7.25073 | 134° | 73km/h | 11015m | 3.1m/s | 0°C | 0% | 0hPa | 2.9V | 00:00:00 | 00:58:56 | 00:00:00 | |
| DB0ND-19 | 2026-09-02 23:33:13 | 46.65865 | 7.25073 | 134° | 73km/h | 11015m | 3.1m/s | -48.5°C | -1.0% | -1.0hPa | 2.7V | 00:00:00 | 00:00:00 | 00:00:00 | |
| DO3MHA-11 | 2026-09-02 23:33:08 | 46.65917 | 7.24988 | 128° | 77km/h | 10996m | 6.4m/s | -48.3°C | 54.0% | 0hPa | 2.7V | 00:00:00 | 00:58:52 | 00:00:00 | |
| DO3MHA-12 | 2026-09-02 23:33:07 | 46.65930 | 7.24964 | 127° | 75km/h | 10990m | 4.2m/s | 0°C | 0% | 0hPa | 2.8V | 00:00:00 | 00:58:51 | 00:00:00 | |
| DB0UT-7 | 2026-09-02 23:33:04 | 46.65966 | 7.24892 | 127° | 73km/h | 10975m | 3.8m/s | -48.1°C | 55.8% | 0hPa | 2.8V | 00:00:00 | 00:58:48 | 00:00:00 | |
| IW2NTF | 2026-09-02 23:33:03 | 46.65989 | 7.24849 | 127° | 71km/h | 10964m | 5.3m/s | 0°C | 0% | 0hPa | 2.8V | 00:00:00 | 00:58:46 | 00:00:00 | |
| DO3MHA-11 | 2026-09-02 23:32:58 | 46.66035 | 7.24768 | 131° | 77km/h | 10944m | 4.8m/s | -48.0°C | 57.2% | 0hPa | 2.7V | 00:00:00 | 00:58:42 | 00:00:00 | |
| DO3MHA-12 | 2026-09-02 23:32:57 | 46.66047 | 7.24748 | 130° | 77km/h | 10938m | 7.2m/s | 0°C | 0% | 0hPa | 2.7V | 00:00:00 | 00:58:41 | 00:00:00 | |
| DO3MHA-11 | 2026-09-02 23:32:48 | 46.66158 | 7.24552 | 132° | 73km/h | 10887m | 4.3m/s | 0°C | 0% | 0hPa | 2.7V | 00:00:00 | 00:58:32 | 00:00:00 | |
| DO3MHA-12 | 2026-09-02 23:32:47 | 46.66171 | 7.24532 | 132° | 73km/h | 10883m | 4.0m/s | 0°C | 0% | 0hPa | 2.7V | 00:00:00 | 00:58:31 | 00:00:00 | |
| DB0ND-19 | 2026-09-02 23:32:42 | 46.66263 | 7.24364 | 127° | 75km/h | 10837m | 7.1m/s | -47.2°C | -1.0% | -1.0hPa | 2.7V | 00:00:00 | 00:00:00 | 00:00:00 | |
| DO3MHA-11 | 2026-09-02 23:32:38 | 46.66274 | 7.24342 | 129° | 71km/h | 10831m | 6.2m/s | 0°C | 0% | 0hPa | 2.7V | 00:00:00 | 00:58:22 | 00:00:00 | |
| DB0UT-7 | 2026-09-02 23:32:34 | 46.66317 | 7.24261 | 128° | 78km/h | 10807m | 3.9m/s | -46.9°C | 59.4% | 0hPa | 2.7V | 00:00:00 | 00:00:00 | 00:00:00 | |
| DO3MHA-11 | 2026-09-02 23:32:28 | 46.66387 | 7.24132 | 129° | 78km/h | 10773m | 3.9m/s | 0°C | 0% | 0hPa | 2.9V | 00:00:00 | 00:58:12 | 00:00:00 | |
| DO3MHA-11 | 2026-09-02 23:32:08 | 46.66627 | 7.23672 | 122° | 84km/h | 10658m | 5.8m/s | 0°C | 0% | 0hPa | 2.9V | 00:00:00 | 00:57:52 | 00:00:00 | |
| DB0UT-7 | 2026-09-02 23:32:04 | 46.66676 | 7.23568 | 126° | 77km/h | 10637m | 4.6m/s | -45.5°C | 61.9% | 0hPa | 2.9V | 00:00:00 | 00:57:48 | 00:00:00 | |
| DH7VM-15 | 2026-09-02 23:31:53 | 46.66790 | 7.23348 | 130° | 82km/h | 10588m | 3.7m/s | 0°C | 0% | 0hPa | 2.9V | 00:00:00 | 00:00:00 | 00:00:00 | |
| DB0UT-7 | 2026-09-02 23:31:34 | 46.67027 | 7.22894 | 138° | 77km/h | 10476m | 5.2m/s | -44.3°C | 67.6% | 0hPa | 2.9V | 00:00:00 | 00:00:00 | 00:00:00 | |
| DB0ND-19 | 2026-09-02 23:31:09 | 46.67328 | 7.22331 | 122° | 78km/h | 10334m | 5.7m/s | -43.3°C | -1.0% | -1.0hPa | 2.9V | 00:00:00 | 00:00:00 | 00:00:00 | |
| DB0UT-7 | 2026-09-02 23:31:04 | 46.67382 | 7.22217 | 128° | 86km/h | 10309m | 6.5m/s | -43.0°C | 66.4% | 0hPa | 2.9V | 00:00:00 | 00:56:48 | 00:00:00 | |
| DB0ND-19 | 2026-09-02 23:30:38 | 46.67699 | 7.21591 | 119° | 80km/h | 10171m | 3.0m/s | -41.8°C | -1.0% | -1.0hPa | 2.7V | 00:00:00 | 00:00:00 | 00:00:00 | |
| DB0UT-7 | 2026-09-02 23:29:26 | 46.68612 | 7.19929 | 128° | 89km/h | 9791m | 4.3m/s | -38.7°C | 54.5% | 0hPa | 2.7V | 00:00:00 | 00:00:00 | 00:00:00 | |
| DH7VM-15 | 2026-09-02 23:29:25 | 46.68612 | 7.19929 | 128° | 84km/h | 9791m | 4.4m/s | 0°C | 0% | 0hPa | 2.7V | 00:00:00 | 00:00:00 | 00:00:00 | |
| DB0UT-7 | 2026-09-02 23:28:56 | 46.69069 | 7.19192 | 136° | 95km/h | 9621m | 4.1m/s | -37.4°C | 42.5% | 0hPa | 2.7V | 00:00:00 | 00:54:40 | 00:00:00 | |
| DB0UT-7 | 2026-09-02 23:28:26 | 46.69567 | 7.18430 | 130° | 93km/h | 9453m | 6.7m/s | -35.9°C | 41.4% | 0hPa | 2.7V | 00:00:00 | 00:00:00 | 08:30:00 | |
| DB0UT-7 | 2026-09-02 23:27:56 | 46.70049 | 7.17669 | 139° | 93km/h | 9292m | 5.9m/s | -34.5°C | 27.2% | 0hPa | 2.9V | 00:00:00 | 00:53:40 | 00:00:00 | |
| DB0UT-7 | 2026-09-02 23:27:26 | 46.70516 | 7.16904 | 132° | 93km/h | 9132m | 3.2m/s | -33.1°C | 31.5% | 0hPa | 2.9V | 00:00:00 | 00:00:00 | 00:00:00 | |
| DB0UT-7 | 2026-09-02 23:26:56 | 46.71009 | 7.16178 | 131° | 91km/h | 8977m | 6.3m/s | -31.7°C | 19.8% | 0hPa | 2.9V | 00:00:00 | 00:52:40 | 00:00:00 | |
| DB0UT-7 | 2026-09-02 23:26:26 | 46.71482 | 7.15441 | 134° | 88km/h | 8800m | 5.4m/s | -30.4°C | 38.7% | 0hPa | 2.9V | 00:00:00 | 00:00:00 | 00:00:00 | |
| DB0ND-19 | 2026-09-02 23:25:59 | 46.71959 | 7.14720 | 132° | 95km/h | 8629m | 5.2m/s | -29.0°C | 25.2% | -1.0hPa | 2.9V | 00:00:00 | 00:00:00 | 00:00:00 | |
| DB0UT-7 | 2026-09-02 23:25:56 | 46.71943 | 7.14745 | 134° | 93km/h | 8634m | 6.5m/s | -29.0°C | 27.9% | 0hPa | 2.9V | 00:00:00 | 00:51:40 | 00:00:00 | |
| DB0UT-7 | 2026-09-02 23:25:26 | 46.72429 | 7.14008 | 133° | 86km/h | 8469m | 4.9m/s | -28.0°C | 40.6% | 0hPa | 2.9V | 00:00:00 | 00:00:00 | 00:00:00 | |
| DB0UT-7 | 2026-09-02 23:24:56 | 46.72898 | 7.13348 | 133° | 86km/h | 8289m | 5.6m/s | -26.7°C | 45.7% | 0hPa | 2.9V | 00:00:00 | 00:50:40 | 00:00:00 | |
| DB0UT-7 | 2026-09-02 23:24:26 | 46.73361 | 7.12693 | 132° | 84km/h | 8116m | 7.8m/s | -25.3°C | 37.6% | 0hPa | 2.9V | 00:00:00 | 00:00:00 | 00:00:00 | |
| DB0UT-7 | 2026-09-02 23:23:56 | 46.73787 | 7.12007 | 136° | 88km/h | 7950m | 5.8m/s | -24.0°C | 30.2% | 0hPa | 2.9V | 00:00:00 | 00:49:40 | 08:30:00 | |
| DB0ND-19 | 2026-09-02 23:23:54 | 46.74134 | 7.11414 | 129° | 78km/h | 7807m | 6.3m/s | -23.3°C | 33.6% | -1.0hPa | 2.9V | 00:00:00 | 00:00:00 | 00:00:00 | |
| DB0UT-7 | 2026-09-02 23:23:26 | 46.74219 | 7.11284 | 132° | 86km/h | 7773m | 7.7m/s | -23.1°C | 42.6% | 0hPa | 2.9V | 00:00:00 | 00:00:00 | 00:00:00 | |
| DB0ND-19 | 2026-09-02 23:23:23 | 46.74260 | 7.11214 | 130° | 86km/h | 7757m | 5.9m/s | -23.0°C | 41.0% | -1.0hPa | 2.9V | 00:00:00 | 00:00:00 | 00:00:00 | |
| DB0UT-7 | 2026-09-02 23:22:56 | 46.74667 | 7.10590 | 135° | 84km/h | 7593m | 6.9m/s | -21.7°C | 50.8% | 0hPa | 2.9V | 00:00:00 | 00:48:40 | 00:00:00 | |
| DB0UT-7 | 2026-09-02 23:22:26 | 46.75095 | 7.09914 | 136° | 86km/h | 7411m | 7.1m/s | -20.3°C | 47.1% | 0hPa | 2.9V | 00:00:00 | 00:00:00 | 00:00:00 | |
| DB0UT-7 | 2026-09-02 23:21:56 | 46.75547 | 7.09241 | 137° | 84km/h | 7233m | 3.8m/s | -18.7°C | 47.8% | 0hPa | 2.9V | 00:00:00 | 00:47:40 | 00:00:00 | |
| DB0ND-19 | 2026-09-02 23:21:50 | 46.75808 | 7.08821 | 139° | 88km/h | 7119m | 4.6m/s | -17.8°C | 51.1% | -1.0hPa | 2.9V | 00:00:00 | 00:00:00 | 00:00:00 | |
| DB0UT-7 | 2026-09-02 23:21:26 | 46.75983 | 7.08574 | 142° | 78km/h | 7041m | 5.3m/s | -17.1°C | 52.8% | 0hPa | 2.9V | 00:00:00 | 00:00:00 | 00:00:00 | |
| DB0ND-19 | 2026-09-02 23:21:19 | 46.76082 | 7.08448 | 132° | 75km/h | 7003m | 5.1m/s | -16.9°C | 51.4% | -1.0hPa | 2.9V | 00:00:00 | 00:00:00 | 00:00:00 | |
| DB0ND-19 | 2026-09-02 23:20:48 | 46.76515 | 7.07770 | 135° | 82km/h | 6830m | 4.7m/s | 0°C | -1.0% | -1.0hPa | 2.9V | 00:00:00 | 00:00:00 | 00:00:00 | |
| DB0UT-7 | 2026-09-02 23:20:26 | 46.76850 | 7.07245 | 138° | 88km/h | 6718m | 5.2m/s | -14.7°C | 53.7% | 0hPa | 2.9V | 00:00:00 | 00:00:00 | 00:00:00 | |
| DB0ND-19 | 2026-09-02 23:20:17 | 46.77408 | 7.06244 | 130° | 97km/h | 6552m | 7.7m/s | 0°C | -1.0% | -1.0hPa | 2.9V | 00:00:00 | 00:00:00 | 00:00:00 | |
| DB0ND-19 | 2026-09-02 23:19:46 | 46.77423 | 7.06216 | 128° | 95km/h | 6545m | 7.7m/s | 0°C | -1.0% | -1.0hPa | 2.9V | 00:00:00 | 00:00:00 | 00:00:00 | |
| DB0UT-7 | 2026-09-02 23:19:26 | 46.77738 | 7.05773 | 134° | 71km/h | 6428m | 7.2m/s | -12.8°C | 60.9% | 0hPa | 2.9V | 00:00:00 | 00:00:00 | 08:30:00 | |
| DB0ND-19 | 2026-09-02 23:19:15 | 46.77889 | 7.05555 | 136° | 84km/h | 6365m | 6.4m/s | 0°C | -1.0% | -1.0hPa | 2.9V | 00:00:00 | 00:00:00 | 00:00:00 | |
| DB0ND-19 | 2026-09-02 23:18:44 | 46.78338 | 7.04916 | 129° | 64km/h | 6203m | 3.8m/s | 0°C | -1.0% | -1.0hPa | 2.9V | 00:00:00 | 00:00:00 | 00:00:00 | |
| DB0UT-7 | 2026-09-02 23:18:31 | 46.78465 | 7.04639 | 133° | 66km/h | 6133m | 8.3m/s | -12.2°C | 83.7% | 0hPa | 2.9V | 00:00:00 | 00:44:15 | 00:00:00 | |
| DB0UT-7 | 2026-09-02 23:18:01 | 46.78777 | 7.04078 | 141° | 60km/h | 5993m | 3.3m/s | -11.1°C | 81.6% | 0hPa | 2.9V | 00:00:00 | 00:00:00 | 00:00:00 | |
| DB0UT-7 | 2026-09-02 23:17:31 | 46.79087 | 7.03596 | 132° | 60km/h | 5847m | 3.1m/s | -10.0°C | 81.3% | 0hPa | 2.9V | 00:00:00 | 00:43:15 | 00:00:00 | |
| DB0UT-7 | 2026-09-02 23:17:01 | 46.79394 | 7.03100 | 127° | 51km/h | 5688m | 5.2m/s | -9.1°C | 86.7% | 0hPa | 0V | 00:00:00 | 00:00:00 | 00:00:00 | |
| DB0UT-7 | 2026-09-02 23:16:31 | 46.79629 | 7.02656 | 131° | 51km/h | 5533m | 7.7m/s | -8.0°C | 72.5% | 0hPa | 0V | 00:00:00 | 00:42:15 | 00:00:00 |